<?xml version="1.0" encoding="UTF-8" standalone="no" ?>
<gpx xmlns="http://www.topografix.com/GPX/1/1" xmlns:xsi="http://www.w3.org/2001/XMLSchema-instance" xsi:schemaLocation="http://www.topografix.com/GPX/1/1 http://www.topografix.com/GPX/1/1/gpx.xsd" version="1.1" creator="VisuGPX - https://www.visugpx.com">
  <metadata>
    <name>Noidans avec Christine</name>
    <desc><![CDATA[JF grippé, Jacques colleur d\'affiches, que les purs et durs au départ !!!]]></desc>
  </metadata>
  <trk>
    <name><![CDATA[Noidans avec Christine]]></name>
    <desc><![CDATA[JF grippé, Jacques colleur d'affiches, que les purs et durs au départ !!!]]></desc>
    <trkseg>
      <trkpt lat="47.56927" lon="5.95031">
        <ele>244.19999694824</ele>
        <time>2014-03-14T12:59:25.000Z</time>
      </trkpt>
      <trkpt lat="47.56927" lon="5.95031">
        <ele>244.19999694824</ele>
        <time>2014-03-14T12:59:26.000Z</time>
      </trkpt>
      <trkpt lat="47.56932" lon="5.95031">
        <ele>256.79998779297</ele>
        <time>2014-03-14T12:59:32.000Z</time>
      </trkpt>
      <trkpt lat="47.56936" lon="5.95031">
        <ele>256.79998779297</ele>
        <time>2014-03-14T12:59:34.000Z</time>
      </trkpt>
      <trkpt lat="47.56937" lon="5.95031">
        <ele>256.79998779297</ele>
        <time>2014-03-14T12:59:35.000Z</time>
      </trkpt>
      <trkpt lat="47.56939" lon="5.95035">
        <ele>256.79998779297</ele>
        <time>2014-03-14T12:59:38.000Z</time>
      </trkpt>
      <trkpt lat="47.56939" lon="5.95038">
        <ele>256.79998779297</ele>
        <time>2014-03-14T12:59:39.000Z</time>
      </trkpt>
      <trkpt lat="47.56939" lon="5.9504">
        <ele>256.79998779297</ele>
        <time>2014-03-14T12:59:40.000Z</time>
      </trkpt>
      <trkpt lat="47.56939" lon="5.95041">
        <ele>256.79998779297</ele>
        <time>2014-03-14T12:59:41.000Z</time>
      </trkpt>
      <trkpt lat="47.5694" lon="5.95036">
        <ele>256.79998779297</ele>
        <time>2014-03-14T12:59:49.000Z</time>
      </trkpt>
      <trkpt lat="47.56939" lon="5.95034">
        <ele>256.79998779297</ele>
        <time>2014-03-14T12:59:50.000Z</time>
      </trkpt>
      <trkpt lat="47.56936" lon="5.95028">
        <ele>256.79998779297</ele>
        <time>2014-03-14T12:59:53.000Z</time>
      </trkpt>
      <trkpt lat="47.56931" lon="5.95018">
        <ele>256.79998779297</ele>
        <time>2014-03-14T12:59:57.000Z</time>
      </trkpt>
      <trkpt lat="47.56929" lon="5.95013">
        <ele>256.79998779297</ele>
        <time>2014-03-14T12:59:59.000Z</time>
      </trkpt>
      <trkpt lat="47.56924" lon="5.95007">
        <ele>256.79998779297</ele>
        <time>2014-03-14T13:00:02.000Z</time>
      </trkpt>
      <trkpt lat="47.56917" lon="5.94994">
        <ele>256.79998779297</ele>
        <time>2014-03-14T13:00:07.000Z</time>
      </trkpt>
      <trkpt lat="47.56909" lon="5.94985">
        <ele>256.79998779297</ele>
        <time>2014-03-14T13:00:13.000Z</time>
      </trkpt>
      <trkpt lat="47.56906" lon="5.94981">
        <ele>254.80000305176</ele>
        <time>2014-03-14T13:00:15.000Z</time>
      </trkpt>
      <trkpt lat="47.56905" lon="5.9498">
        <ele>252.60000610352</ele>
        <time>2014-03-14T13:00:16.000Z</time>
      </trkpt>
      <trkpt lat="47.56904" lon="5.94978">
        <ele>250.39999389648</ele>
        <time>2014-03-14T13:00:17.000Z</time>
      </trkpt>
      <trkpt lat="47.56903" lon="5.94977">
        <ele>248.19999694824</ele>
        <time>2014-03-14T13:00:18.000Z</time>
      </trkpt>
      <trkpt lat="47.56902" lon="5.94975">
        <ele>246.19999694824</ele>
        <time>2014-03-14T13:00:19.000Z</time>
      </trkpt>
      <trkpt lat="47.56899" lon="5.94969">
        <ele>246.19999694824</ele>
        <time>2014-03-14T13:00:23.000Z</time>
      </trkpt>
      <trkpt lat="47.56898" lon="5.94966">
        <ele>246.19999694824</ele>
        <time>2014-03-14T13:00:24.000Z</time>
      </trkpt>
      <trkpt lat="47.56898" lon="5.94964">
        <ele>246.19999694824</ele>
        <time>2014-03-14T13:00:25.000Z</time>
      </trkpt>
      <trkpt lat="47.56906" lon="5.94947">
        <ele>246.19999694824</ele>
        <time>2014-03-14T13:00:32.000Z</time>
      </trkpt>
      <trkpt lat="47.56909" lon="5.94944">
        <ele>245.80000305176</ele>
        <time>2014-03-14T13:00:34.000Z</time>
      </trkpt>
      <trkpt lat="47.56912" lon="5.94942">
        <ele>245.39999389648</ele>
        <time>2014-03-14T13:00:35.000Z</time>
      </trkpt>
      <trkpt lat="47.56914" lon="5.9494">
        <ele>245</ele>
        <time>2014-03-14T13:00:36.000Z</time>
      </trkpt>
      <trkpt lat="47.56916" lon="5.9494">
        <ele>244.39999389648</ele>
        <time>2014-03-14T13:00:37.000Z</time>
      </trkpt>
      <trkpt lat="47.56918" lon="5.9494">
        <ele>244</ele>
        <time>2014-03-14T13:00:38.000Z</time>
      </trkpt>
      <trkpt lat="47.56921" lon="5.94941">
        <ele>243.39999389648</ele>
        <time>2014-03-14T13:00:39.000Z</time>
      </trkpt>
      <trkpt lat="47.56923" lon="5.9494">
        <ele>243</ele>
        <time>2014-03-14T13:00:40.000Z</time>
      </trkpt>
      <trkpt lat="47.56927" lon="5.9494">
        <ele>241.80000305176</ele>
        <time>2014-03-14T13:00:41.000Z</time>
      </trkpt>
      <trkpt lat="47.56927" lon="5.9494">
        <ele>241.80000305176</ele>
        <time>2014-03-14T13:00:43.000Z</time>
      </trkpt>
      <trkpt lat="47.56928" lon="5.94942">
        <ele>241.80000305176</ele>
        <time>2014-03-14T13:00:44.000Z</time>
      </trkpt>
      <trkpt lat="47.56931" lon="5.94949">
        <ele>241.80000305176</ele>
        <time>2014-03-14T13:00:47.000Z</time>
      </trkpt>
      <trkpt lat="47.56938" lon="5.94974">
        <ele>241.80000305176</ele>
        <time>2014-03-14T13:00:55.000Z</time>
      </trkpt>
      <trkpt lat="47.56942" lon="5.94987">
        <ele>241.80000305176</ele>
        <time>2014-03-14T13:01:00.000Z</time>
      </trkpt>
      <trkpt lat="47.56943" lon="5.94989">
        <ele>241.80000305176</ele>
        <time>2014-03-14T13:01:01.000Z</time>
      </trkpt>
      <trkpt lat="47.56946" lon="5.94998">
        <ele>241.39999389648</ele>
        <time>2014-03-14T13:01:04.000Z</time>
      </trkpt>
      <trkpt lat="47.56946" lon="5.95001">
        <ele>241</ele>
        <time>2014-03-14T13:01:05.000Z</time>
      </trkpt>
      <trkpt lat="47.56947" lon="5.95004">
        <ele>240.60000610352</ele>
        <time>2014-03-14T13:01:06.000Z</time>
      </trkpt>
      <trkpt lat="47.56947" lon="5.95008">
        <ele>240.19999694824</ele>
        <time>2014-03-14T13:01:07.000Z</time>
      </trkpt>
      <trkpt lat="47.56947" lon="5.95011">
        <ele>239.80000305176</ele>
        <time>2014-03-14T13:01:08.000Z</time>
      </trkpt>
      <trkpt lat="47.56947" lon="5.95026">
        <ele>239.80000305176</ele>
        <time>2014-03-14T13:01:13.000Z</time>
      </trkpt>
      <trkpt lat="47.5695" lon="5.95055">
        <ele>239.80000305176</ele>
        <time>2014-03-14T13:01:23.000Z</time>
      </trkpt>
      <trkpt lat="47.56955" lon="5.95071">
        <ele>239.80000305176</ele>
        <time>2014-03-14T13:01:28.000Z</time>
      </trkpt>
      <trkpt lat="47.56956" lon="5.95074">
        <ele>239.80000305176</ele>
        <time>2014-03-14T13:01:29.000Z</time>
      </trkpt>
      <trkpt lat="47.56958" lon="5.9508">
        <ele>239.80000305176</ele>
        <time>2014-03-14T13:01:31.000Z</time>
      </trkpt>
      <trkpt lat="47.56964" lon="5.95085">
        <ele>239.80000305176</ele>
        <time>2014-03-14T13:01:34.000Z</time>
      </trkpt>
      <trkpt lat="47.56975" lon="5.95087">
        <ele>239.80000305176</ele>
        <time>2014-03-14T13:01:38.000Z</time>
      </trkpt>
      <trkpt lat="47.56977" lon="5.95085">
        <ele>239.80000305176</ele>
        <time>2014-03-14T13:01:39.000Z</time>
      </trkpt>
      <trkpt lat="47.56982" lon="5.9507">
        <ele>239.80000305176</ele>
        <time>2014-03-14T13:01:43.000Z</time>
      </trkpt>
      <trkpt lat="47.56993" lon="5.95041">
        <ele>239.80000305176</ele>
        <time>2014-03-14T13:01:50.000Z</time>
      </trkpt>
      <trkpt lat="47.57008" lon="5.95025">
        <ele>239.80000305176</ele>
        <time>2014-03-14T13:01:56.000Z</time>
      </trkpt>
      <trkpt lat="47.57023" lon="5.95012">
        <ele>239.80000305176</ele>
        <time>2014-03-14T13:02:03.000Z</time>
      </trkpt>
      <trkpt lat="47.57035" lon="5.95002">
        <ele>240.19999694824</ele>
        <time>2014-03-14T13:02:09.000Z</time>
      </trkpt>
      <trkpt lat="47.57036" lon="5.95001">
        <ele>240.80000305176</ele>
        <time>2014-03-14T13:02:10.000Z</time>
      </trkpt>
      <trkpt lat="47.57038" lon="5.94999">
        <ele>241.19999694824</ele>
        <time>2014-03-14T13:02:11.000Z</time>
      </trkpt>
      <trkpt lat="47.57039" lon="5.94998">
        <ele>241.60000610352</ele>
        <time>2014-03-14T13:02:12.000Z</time>
      </trkpt>
      <trkpt lat="47.57041" lon="5.94997">
        <ele>242</ele>
        <time>2014-03-14T13:02:13.000Z</time>
      </trkpt>
      <trkpt lat="47.57049" lon="5.9499">
        <ele>242</ele>
        <time>2014-03-14T13:02:18.000Z</time>
      </trkpt>
      <trkpt lat="47.5705" lon="5.94989">
        <ele>242.39999389648</ele>
        <time>2014-03-14T13:02:19.000Z</time>
      </trkpt>
      <trkpt lat="47.57052" lon="5.94988">
        <ele>243</ele>
        <time>2014-03-14T13:02:20.000Z</time>
      </trkpt>
      <trkpt lat="47.57054" lon="5.94987">
        <ele>243.39999389648</ele>
        <time>2014-03-14T13:02:21.000Z</time>
      </trkpt>
      <trkpt lat="47.57055" lon="5.94987">
        <ele>243.80000305176</ele>
        <time>2014-03-14T13:02:22.000Z</time>
      </trkpt>
      <trkpt lat="47.57057" lon="5.94986">
        <ele>244.19999694824</ele>
        <time>2014-03-14T13:02:23.000Z</time>
      </trkpt>
      <trkpt lat="47.5706" lon="5.94983">
        <ele>244.19999694824</ele>
        <time>2014-03-14T13:02:25.000Z</time>
      </trkpt>
      <trkpt lat="47.57062" lon="5.9498">
        <ele>244.19999694824</ele>
        <time>2014-03-14T13:02:27.000Z</time>
      </trkpt>
      <trkpt lat="47.57064" lon="5.94977">
        <ele>244.19999694824</ele>
        <time>2014-03-14T13:02:29.000Z</time>
      </trkpt>
      <trkpt lat="47.57067" lon="5.94972">
        <ele>244.19999694824</ele>
        <time>2014-03-14T13:02:31.000Z</time>
      </trkpt>
      <trkpt lat="47.57067" lon="5.94964">
        <ele>244.60000610352</ele>
        <time>2014-03-14T13:02:33.000Z</time>
      </trkpt>
      <trkpt lat="47.57066" lon="5.94961">
        <ele>245</ele>
        <time>2014-03-14T13:02:34.000Z</time>
      </trkpt>
      <trkpt lat="47.57065" lon="5.94957">
        <ele>245.39999389648</ele>
        <time>2014-03-14T13:02:35.000Z</time>
      </trkpt>
      <trkpt lat="47.57064" lon="5.94954">
        <ele>245.80000305176</ele>
        <time>2014-03-14T13:02:36.000Z</time>
      </trkpt>
      <trkpt lat="47.57063" lon="5.9495">
        <ele>246.19999694824</ele>
        <time>2014-03-14T13:02:37.000Z</time>
      </trkpt>
      <trkpt lat="47.57056" lon="5.94925">
        <ele>246.19999694824</ele>
        <time>2014-03-14T13:02:44.000Z</time>
      </trkpt>
      <trkpt lat="47.57049" lon="5.94898">
        <ele>246.19999694824</ele>
        <time>2014-03-14T13:02:51.000Z</time>
      </trkpt>
      <trkpt lat="47.57053" lon="5.94873">
        <ele>246.80000305176</ele>
        <time>2014-03-14T13:02:58.000Z</time>
      </trkpt>
      <trkpt lat="47.57054" lon="5.94869">
        <ele>247.19999694824</ele>
        <time>2014-03-14T13:02:59.000Z</time>
      </trkpt>
      <trkpt lat="47.57054" lon="5.94865">
        <ele>247.60000610352</ele>
        <time>2014-03-14T13:03:00.000Z</time>
      </trkpt>
      <trkpt lat="47.57055" lon="5.94862">
        <ele>248</ele>
        <time>2014-03-14T13:03:01.000Z</time>
      </trkpt>
      <trkpt lat="47.57055" lon="5.94858">
        <ele>248.60000610352</ele>
        <time>2014-03-14T13:03:02.000Z</time>
      </trkpt>
      <trkpt lat="47.57057" lon="5.94842">
        <ele>248.60000610352</ele>
        <time>2014-03-14T13:03:06.000Z</time>
      </trkpt>
      <trkpt lat="47.57056" lon="5.94815">
        <ele>248.60000610352</ele>
        <time>2014-03-14T13:03:13.000Z</time>
      </trkpt>
      <trkpt lat="47.57055" lon="5.94781">
        <ele>248.60000610352</ele>
        <time>2014-03-14T13:03:20.000Z</time>
      </trkpt>
      <trkpt lat="47.57049" lon="5.94744">
        <ele>248.60000610352</ele>
        <time>2014-03-14T13:03:28.000Z</time>
      </trkpt>
      <trkpt lat="47.57043" lon="5.9471">
        <ele>248.60000610352</ele>
        <time>2014-03-14T13:03:35.000Z</time>
      </trkpt>
      <trkpt lat="47.57036" lon="5.94665">
        <ele>248.60000610352</ele>
        <time>2014-03-14T13:03:44.000Z</time>
      </trkpt>
      <trkpt lat="47.57038" lon="5.94626">
        <ele>249</ele>
        <time>2014-03-14T13:03:52.000Z</time>
      </trkpt>
      <trkpt lat="47.57039" lon="5.94622">
        <ele>249.39999389648</ele>
        <time>2014-03-14T13:03:53.000Z</time>
      </trkpt>
      <trkpt lat="47.57039" lon="5.94617">
        <ele>249.80000305176</ele>
        <time>2014-03-14T13:03:54.000Z</time>
      </trkpt>
      <trkpt lat="47.57039" lon="5.94614">
        <ele>250.19999694824</ele>
        <time>2014-03-14T13:03:55.000Z</time>
      </trkpt>
      <trkpt lat="47.5704" lon="5.9461">
        <ele>250.60000610352</ele>
        <time>2014-03-14T13:03:56.000Z</time>
      </trkpt>
      <trkpt lat="47.57045" lon="5.94597">
        <ele>250.60000610352</ele>
        <time>2014-03-14T13:03:59.000Z</time>
      </trkpt>
      <trkpt lat="47.57049" lon="5.94575">
        <ele>251</ele>
        <time>2014-03-14T13:04:05.000Z</time>
      </trkpt>
      <trkpt lat="47.5705" lon="5.94572">
        <ele>251.39999389648</ele>
        <time>2014-03-14T13:04:06.000Z</time>
      </trkpt>
      <trkpt lat="47.5705" lon="5.94568">
        <ele>251.80000305176</ele>
        <time>2014-03-14T13:04:07.000Z</time>
      </trkpt>
      <trkpt lat="47.57051" lon="5.94564">
        <ele>252.19999694824</ele>
        <time>2014-03-14T13:04:08.000Z</time>
      </trkpt>
      <trkpt lat="47.57052" lon="5.94561">
        <ele>252.60000610352</ele>
        <time>2014-03-14T13:04:09.000Z</time>
      </trkpt>
      <trkpt lat="47.57053" lon="5.94554">
        <ele>252.60000610352</ele>
        <time>2014-03-14T13:04:11.000Z</time>
      </trkpt>
      <trkpt lat="47.57055" lon="5.94543">
        <ele>252.60000610352</ele>
        <time>2014-03-14T13:04:14.000Z</time>
      </trkpt>
      <trkpt lat="47.57061" lon="5.94518">
        <ele>253</ele>
        <time>2014-03-14T13:04:21.000Z</time>
      </trkpt>
      <trkpt lat="47.57061" lon="5.94514">
        <ele>253.39999389648</ele>
        <time>2014-03-14T13:04:22.000Z</time>
      </trkpt>
      <trkpt lat="47.57062" lon="5.9451">
        <ele>253.80000305176</ele>
        <time>2014-03-14T13:04:23.000Z</time>
      </trkpt>
      <trkpt lat="47.57063" lon="5.94507">
        <ele>254.19999694824</ele>
        <time>2014-03-14T13:04:24.000Z</time>
      </trkpt>
      <trkpt lat="47.57064" lon="5.94503">
        <ele>254.60000610352</ele>
        <time>2014-03-14T13:04:25.000Z</time>
      </trkpt>
      <trkpt lat="47.57067" lon="5.94482">
        <ele>254.60000610352</ele>
        <time>2014-03-14T13:04:30.000Z</time>
      </trkpt>
      <trkpt lat="47.57073" lon="5.94444">
        <ele>254.60000610352</ele>
        <time>2014-03-14T13:04:39.000Z</time>
      </trkpt>
      <trkpt lat="47.57073" lon="5.94441">
        <ele>255</ele>
        <time>2014-03-14T13:04:40.000Z</time>
      </trkpt>
      <trkpt lat="47.57074" lon="5.94438">
        <ele>255.39999389648</ele>
        <time>2014-03-14T13:04:41.000Z</time>
      </trkpt>
      <trkpt lat="47.57074" lon="5.94435">
        <ele>256</ele>
        <time>2014-03-14T13:04:42.000Z</time>
      </trkpt>
      <trkpt lat="47.57074" lon="5.94431">
        <ele>256.39999389648</ele>
        <time>2014-03-14T13:04:43.000Z</time>
      </trkpt>
      <trkpt lat="47.57074" lon="5.94429">
        <ele>256.79998779297</ele>
        <time>2014-03-14T13:04:44.000Z</time>
      </trkpt>
      <trkpt lat="47.57075" lon="5.94424">
        <ele>256.79998779297</ele>
        <time>2014-03-14T13:04:46.000Z</time>
      </trkpt>
      <trkpt lat="47.57078" lon="5.94392">
        <ele>256.79998779297</ele>
        <time>2014-03-14T13:04:55.000Z</time>
      </trkpt>
      <trkpt lat="47.5708" lon="5.94358">
        <ele>256.79998779297</ele>
        <time>2014-03-14T13:05:03.000Z</time>
      </trkpt>
      <trkpt lat="47.57081" lon="5.94329">
        <ele>256.79998779297</ele>
        <time>2014-03-14T13:05:10.000Z</time>
      </trkpt>
      <trkpt lat="47.57081" lon="5.94325">
        <ele>257.20001220703</ele>
        <time>2014-03-14T13:05:11.000Z</time>
      </trkpt>
      <trkpt lat="47.57081" lon="5.94321">
        <ele>257.60000610352</ele>
        <time>2014-03-14T13:05:12.000Z</time>
      </trkpt>
      <trkpt lat="47.57081" lon="5.94316">
        <ele>258</ele>
        <time>2014-03-14T13:05:13.000Z</time>
      </trkpt>
      <trkpt lat="47.57081" lon="5.94312">
        <ele>258.39999389648</ele>
        <time>2014-03-14T13:05:14.000Z</time>
      </trkpt>
      <trkpt lat="47.57082" lon="5.94308">
        <ele>258.79998779297</ele>
        <time>2014-03-14T13:05:15.000Z</time>
      </trkpt>
      <trkpt lat="47.57084" lon="5.94284">
        <ele>258.79998779297</ele>
        <time>2014-03-14T13:05:21.000Z</time>
      </trkpt>
      <trkpt lat="47.57087" lon="5.94248">
        <ele>258.79998779297</ele>
        <time>2014-03-14T13:05:29.000Z</time>
      </trkpt>
      <trkpt lat="47.5709" lon="5.94207">
        <ele>259.20001220703</ele>
        <time>2014-03-14T13:05:38.000Z</time>
      </trkpt>
      <trkpt lat="47.57091" lon="5.94203">
        <ele>259.60000610352</ele>
        <time>2014-03-14T13:05:39.000Z</time>
      </trkpt>
      <trkpt lat="47.57091" lon="5.94199">
        <ele>260</ele>
        <time>2014-03-14T13:05:40.000Z</time>
      </trkpt>
      <trkpt lat="47.57092" lon="5.94194">
        <ele>260.39999389648</ele>
        <time>2014-03-14T13:05:41.000Z</time>
      </trkpt>
      <trkpt lat="47.57092" lon="5.9419">
        <ele>260.79998779297</ele>
        <time>2014-03-14T13:05:42.000Z</time>
      </trkpt>
      <trkpt lat="47.57095" lon="5.94168">
        <ele>260.79998779297</ele>
        <time>2014-03-14T13:05:47.000Z</time>
      </trkpt>
      <trkpt lat="47.57099" lon="5.94141">
        <ele>260.79998779297</ele>
        <time>2014-03-14T13:05:52.000Z</time>
      </trkpt>
      <trkpt lat="47.571" lon="5.94135">
        <ele>260.79998779297</ele>
        <time>2014-03-14T13:05:53.000Z</time>
      </trkpt>
      <trkpt lat="47.57105" lon="5.94108">
        <ele>260.79998779297</ele>
        <time>2014-03-14T13:05:57.000Z</time>
      </trkpt>
      <trkpt lat="47.57106" lon="5.94102">
        <ele>260.79998779297</ele>
        <time>2014-03-14T13:05:58.000Z</time>
      </trkpt>
      <trkpt lat="47.57111" lon="5.9408">
        <ele>260.39999389648</ele>
        <time>2014-03-14T13:06:01.000Z</time>
      </trkpt>
      <trkpt lat="47.57112" lon="5.94073">
        <ele>259.79998779297</ele>
        <time>2014-03-14T13:06:02.000Z</time>
      </trkpt>
      <trkpt lat="47.57114" lon="5.94065">
        <ele>259.39999389648</ele>
        <time>2014-03-14T13:06:03.000Z</time>
      </trkpt>
      <trkpt lat="47.57115" lon="5.94058">
        <ele>259</ele>
        <time>2014-03-14T13:06:04.000Z</time>
      </trkpt>
      <trkpt lat="47.57117" lon="5.9405">
        <ele>258.60000610352</ele>
        <time>2014-03-14T13:06:05.000Z</time>
      </trkpt>
      <trkpt lat="47.57122" lon="5.94026">
        <ele>258.20001220703</ele>
        <time>2014-03-14T13:06:08.000Z</time>
      </trkpt>
      <trkpt lat="47.57124" lon="5.94018">
        <ele>257.79998779297</ele>
        <time>2014-03-14T13:06:09.000Z</time>
      </trkpt>
      <trkpt lat="47.57126" lon="5.94009">
        <ele>257.20001220703</ele>
        <time>2014-03-14T13:06:10.000Z</time>
      </trkpt>
      <trkpt lat="47.57127" lon="5.94001">
        <ele>256.79998779297</ele>
        <time>2014-03-14T13:06:11.000Z</time>
      </trkpt>
      <trkpt lat="47.57129" lon="5.93992">
        <ele>256.39999389648</ele>
        <time>2014-03-14T13:06:12.000Z</time>
      </trkpt>
      <trkpt lat="47.57132" lon="5.93974">
        <ele>256</ele>
        <time>2014-03-14T13:06:14.000Z</time>
      </trkpt>
      <trkpt lat="47.57133" lon="5.93965">
        <ele>255</ele>
        <time>2014-03-14T13:06:15.000Z</time>
      </trkpt>
      <trkpt lat="47.57134" lon="5.93955">
        <ele>254.60000610352</ele>
        <time>2014-03-14T13:06:16.000Z</time>
      </trkpt>
      <trkpt lat="47.57135" lon="5.93945">
        <ele>254.19999694824</ele>
        <time>2014-03-14T13:06:17.000Z</time>
      </trkpt>
      <trkpt lat="47.57135" lon="5.93936">
        <ele>254.19999694824</ele>
        <time>2014-03-14T13:06:18.000Z</time>
      </trkpt>
      <trkpt lat="47.57134" lon="5.93918">
        <ele>254.19999694824</ele>
        <time>2014-03-14T13:06:20.000Z</time>
      </trkpt>
      <trkpt lat="47.5713" lon="5.9389">
        <ele>254.19999694824</ele>
        <time>2014-03-14T13:06:23.000Z</time>
      </trkpt>
      <trkpt lat="47.57126" lon="5.93872">
        <ele>253.80000305176</ele>
        <time>2014-03-14T13:06:25.000Z</time>
      </trkpt>
      <trkpt lat="47.57125" lon="5.93864">
        <ele>253.39999389648</ele>
        <time>2014-03-14T13:06:26.000Z</time>
      </trkpt>
      <trkpt lat="47.57123" lon="5.93856">
        <ele>253</ele>
        <time>2014-03-14T13:06:27.000Z</time>
      </trkpt>
      <trkpt lat="47.57122" lon="5.93847">
        <ele>252.60000610352</ele>
        <time>2014-03-14T13:06:28.000Z</time>
      </trkpt>
      <trkpt lat="47.5712" lon="5.93839">
        <ele>252.19999694824</ele>
        <time>2014-03-14T13:06:29.000Z</time>
      </trkpt>
      <trkpt lat="47.57118" lon="5.93831">
        <ele>252.19999694824</ele>
        <time>2014-03-14T13:06:30.000Z</time>
      </trkpt>
      <trkpt lat="47.57106" lon="5.93761">
        <ele>252.19999694824</ele>
        <time>2014-03-14T13:06:39.000Z</time>
      </trkpt>
      <trkpt lat="47.57097" lon="5.93708">
        <ele>252.19999694824</ele>
        <time>2014-03-14T13:06:46.000Z</time>
      </trkpt>
      <trkpt lat="47.57088" lon="5.93635">
        <ele>252.19999694824</ele>
        <time>2014-03-14T13:06:56.000Z</time>
      </trkpt>
      <trkpt lat="47.57085" lon="5.93583">
        <ele>252.19999694824</ele>
        <time>2014-03-14T13:07:04.000Z</time>
      </trkpt>
      <trkpt lat="47.57087" lon="5.93541">
        <ele>252.19999694824</ele>
        <time>2014-03-14T13:07:11.000Z</time>
      </trkpt>
      <trkpt lat="47.57089" lon="5.93499">
        <ele>252.19999694824</ele>
        <time>2014-03-14T13:07:17.000Z</time>
      </trkpt>
      <trkpt lat="47.5709" lon="5.93492">
        <ele>252.19999694824</ele>
        <time>2014-03-14T13:07:18.000Z</time>
      </trkpt>
      <trkpt lat="47.57093" lon="5.93451">
        <ele>252.19999694824</ele>
        <time>2014-03-14T13:07:24.000Z</time>
      </trkpt>
      <trkpt lat="47.57096" lon="5.93399">
        <ele>252.19999694824</ele>
        <time>2014-03-14T13:07:32.000Z</time>
      </trkpt>
      <trkpt lat="47.57099" lon="5.93354">
        <ele>252.19999694824</ele>
        <time>2014-03-14T13:07:39.000Z</time>
      </trkpt>
      <trkpt lat="47.57102" lon="5.93306">
        <ele>252.19999694824</ele>
        <time>2014-03-14T13:07:47.000Z</time>
      </trkpt>
      <trkpt lat="47.57106" lon="5.93289">
        <ele>252.19999694824</ele>
        <time>2014-03-14T13:07:51.000Z</time>
      </trkpt>
      <trkpt lat="47.57108" lon="5.93287">
        <ele>252.19999694824</ele>
        <time>2014-03-14T13:07:52.000Z</time>
      </trkpt>
      <trkpt lat="47.57111" lon="5.93287">
        <ele>253</ele>
        <time>2014-03-14T13:07:53.000Z</time>
      </trkpt>
      <trkpt lat="47.57113" lon="5.93288">
        <ele>253.39999389648</ele>
        <time>2014-03-14T13:07:54.000Z</time>
      </trkpt>
      <trkpt lat="47.57114" lon="5.93289">
        <ele>253.80000305176</ele>
        <time>2014-03-14T13:07:55.000Z</time>
      </trkpt>
      <trkpt lat="47.57115" lon="5.93289">
        <ele>254.19999694824</ele>
        <time>2014-03-14T13:07:56.000Z</time>
      </trkpt>
      <trkpt lat="47.57116" lon="5.93289">
        <ele>254.19999694824</ele>
        <time>2014-03-14T13:07:57.000Z</time>
      </trkpt>
      <trkpt lat="47.57119" lon="5.93286">
        <ele>254.19999694824</ele>
        <time>2014-03-14T13:07:59.000Z</time>
      </trkpt>
      <trkpt lat="47.57125" lon="5.93282">
        <ele>254.60000610352</ele>
        <time>2014-03-14T13:08:03.000Z</time>
      </trkpt>
      <trkpt lat="47.57126" lon="5.93279">
        <ele>255</ele>
        <time>2014-03-14T13:08:04.000Z</time>
      </trkpt>
      <trkpt lat="47.57127" lon="5.93278">
        <ele>255.39999389648</ele>
        <time>2014-03-14T13:08:05.000Z</time>
      </trkpt>
      <trkpt lat="47.57128" lon="5.93277">
        <ele>255.80000305176</ele>
        <time>2014-03-14T13:08:06.000Z</time>
      </trkpt>
      <trkpt lat="47.57129" lon="5.93276">
        <ele>256.20001220703</ele>
        <time>2014-03-14T13:08:07.000Z</time>
      </trkpt>
      <trkpt lat="47.5713" lon="5.93276">
        <ele>256.20001220703</ele>
        <time>2014-03-14T13:08:08.000Z</time>
      </trkpt>
      <trkpt lat="47.57131" lon="5.93276">
        <ele>256.20001220703</ele>
        <time>2014-03-14T13:08:09.000Z</time>
      </trkpt>
      <trkpt lat="47.57133" lon="5.93275">
        <ele>256.20001220703</ele>
        <time>2014-03-14T13:08:10.000Z</time>
      </trkpt>
      <trkpt lat="47.5714" lon="5.93273">
        <ele>256.20001220703</ele>
        <time>2014-03-14T13:08:15.000Z</time>
      </trkpt>
      <trkpt lat="47.57144" lon="5.93272">
        <ele>257.39999389648</ele>
        <time>2014-03-14T13:08:18.000Z</time>
      </trkpt>
      <trkpt lat="47.57145" lon="5.9327">
        <ele>257.79998779297</ele>
        <time>2014-03-14T13:08:19.000Z</time>
      </trkpt>
      <trkpt lat="47.5715" lon="5.93266">
        <ele>258.39999389648</ele>
        <time>2014-03-14T13:08:24.000Z</time>
      </trkpt>
      <trkpt lat="47.57155" lon="5.93263">
        <ele>258.39999389648</ele>
        <time>2014-03-14T13:08:26.000Z</time>
      </trkpt>
      <trkpt lat="47.57164" lon="5.93254">
        <ele>258.39999389648</ele>
        <time>2014-03-14T13:08:32.000Z</time>
      </trkpt>
      <trkpt lat="47.57167" lon="5.93253">
        <ele>258.39999389648</ele>
        <time>2014-03-14T13:08:34.000Z</time>
      </trkpt>
      <trkpt lat="47.57169" lon="5.93252">
        <ele>258.39999389648</ele>
        <time>2014-03-14T13:08:35.000Z</time>
      </trkpt>
      <trkpt lat="47.5717" lon="5.9325">
        <ele>258.39999389648</ele>
        <time>2014-03-14T13:08:36.000Z</time>
      </trkpt>
      <trkpt lat="47.57173" lon="5.93249">
        <ele>258.39999389648</ele>
        <time>2014-03-14T13:08:38.000Z</time>
      </trkpt>
      <trkpt lat="47.57182" lon="5.93245">
        <ele>258.79998779297</ele>
        <time>2014-03-14T13:08:41.000Z</time>
      </trkpt>
      <trkpt lat="47.57184" lon="5.93243">
        <ele>259.20001220703</ele>
        <time>2014-03-14T13:08:42.000Z</time>
      </trkpt>
      <trkpt lat="47.57185" lon="5.93241">
        <ele>260</ele>
        <time>2014-03-14T13:08:43.000Z</time>
      </trkpt>
      <trkpt lat="47.57187" lon="5.93239">
        <ele>260.39999389648</ele>
        <time>2014-03-14T13:08:44.000Z</time>
      </trkpt>
      <trkpt lat="47.57191" lon="5.93237">
        <ele>260.39999389648</ele>
        <time>2014-03-14T13:08:45.000Z</time>
      </trkpt>
      <trkpt lat="47.57195" lon="5.93234">
        <ele>260.39999389648</ele>
        <time>2014-03-14T13:08:47.000Z</time>
      </trkpt>
      <trkpt lat="47.57197" lon="5.93233">
        <ele>260.39999389648</ele>
        <time>2014-03-14T13:08:49.000Z</time>
      </trkpt>
      <trkpt lat="47.57201" lon="5.93229">
        <ele>260.39999389648</ele>
        <time>2014-03-14T13:08:52.000Z</time>
      </trkpt>
      <trkpt lat="47.57205" lon="5.93227">
        <ele>260.39999389648</ele>
        <time>2014-03-14T13:08:55.000Z</time>
      </trkpt>
      <trkpt lat="47.57214" lon="5.93222">
        <ele>260.39999389648</ele>
        <time>2014-03-14T13:09:01.000Z</time>
      </trkpt>
      <trkpt lat="47.57218" lon="5.93219">
        <ele>260.39999389648</ele>
        <time>2014-03-14T13:09:03.000Z</time>
      </trkpt>
      <trkpt lat="47.57221" lon="5.93217">
        <ele>260.79998779297</ele>
        <time>2014-03-14T13:09:05.000Z</time>
      </trkpt>
      <trkpt lat="47.57223" lon="5.93216">
        <ele>261.20001220703</ele>
        <time>2014-03-14T13:09:06.000Z</time>
      </trkpt>
      <trkpt lat="47.57225" lon="5.93215">
        <ele>261.60000610352</ele>
        <time>2014-03-14T13:09:07.000Z</time>
      </trkpt>
      <trkpt lat="47.57227" lon="5.93214">
        <ele>262.39999389648</ele>
        <time>2014-03-14T13:09:08.000Z</time>
      </trkpt>
      <trkpt lat="47.57228" lon="5.93213">
        <ele>262.39999389648</ele>
        <time>2014-03-14T13:09:09.000Z</time>
      </trkpt>
      <trkpt lat="47.57236" lon="5.93207">
        <ele>262.39999389648</ele>
        <time>2014-03-14T13:09:14.000Z</time>
      </trkpt>
      <trkpt lat="47.57237" lon="5.93206">
        <ele>262.39999389648</ele>
        <time>2014-03-14T13:09:15.000Z</time>
      </trkpt>
      <trkpt lat="47.57247" lon="5.93203">
        <ele>262.39999389648</ele>
        <time>2014-03-14T13:09:21.000Z</time>
      </trkpt>
      <trkpt lat="47.57252" lon="5.93198">
        <ele>262.39999389648</ele>
        <time>2014-03-14T13:09:23.000Z</time>
      </trkpt>
      <trkpt lat="47.5726" lon="5.9319">
        <ele>262.39999389648</ele>
        <time>2014-03-14T13:09:26.000Z</time>
      </trkpt>
      <trkpt lat="47.57262" lon="5.93188">
        <ele>262.39999389648</ele>
        <time>2014-03-14T13:09:27.000Z</time>
      </trkpt>
      <trkpt lat="47.57274" lon="5.9318">
        <ele>264.39999389648</ele>
        <time>2014-03-14T13:09:37.000Z</time>
      </trkpt>
      <trkpt lat="47.57276" lon="5.93177">
        <ele>264.39999389648</ele>
        <time>2014-03-14T13:09:39.000Z</time>
      </trkpt>
      <trkpt lat="47.57279" lon="5.93172">
        <ele>264.39999389648</ele>
        <time>2014-03-14T13:09:42.000Z</time>
      </trkpt>
      <trkpt lat="47.57284" lon="5.93167">
        <ele>264.39999389648</ele>
        <time>2014-03-14T13:09:47.000Z</time>
      </trkpt>
      <trkpt lat="47.57286" lon="5.93166">
        <ele>264.39999389648</ele>
        <time>2014-03-14T13:09:48.000Z</time>
      </trkpt>
      <trkpt lat="47.57288" lon="5.93163">
        <ele>264.39999389648</ele>
        <time>2014-03-14T13:09:50.000Z</time>
      </trkpt>
      <trkpt lat="47.5729" lon="5.93161">
        <ele>264.39999389648</ele>
        <time>2014-03-14T13:09:51.000Z</time>
      </trkpt>
      <trkpt lat="47.57297" lon="5.93156">
        <ele>264.39999389648</ele>
        <time>2014-03-14T13:09:56.000Z</time>
      </trkpt>
      <trkpt lat="47.573" lon="5.93153">
        <ele>264.39999389648</ele>
        <time>2014-03-14T13:09:58.000Z</time>
      </trkpt>
      <trkpt lat="47.57315" lon="5.93139">
        <ele>264.39999389648</ele>
        <time>2014-03-14T13:10:26.000Z</time>
      </trkpt>
      <trkpt lat="47.57317" lon="5.93137">
        <ele>264.39999389648</ele>
        <time>2014-03-14T13:10:27.000Z</time>
      </trkpt>
      <trkpt lat="47.57326" lon="5.93129">
        <ele>264.39999389648</ele>
        <time>2014-03-14T13:10:33.000Z</time>
      </trkpt>
      <trkpt lat="47.57334" lon="5.93124">
        <ele>264.39999389648</ele>
        <time>2014-03-14T13:10:38.000Z</time>
      </trkpt>
      <trkpt lat="47.57338" lon="5.93119">
        <ele>264.39999389648</ele>
        <time>2014-03-14T13:10:41.000Z</time>
      </trkpt>
      <trkpt lat="47.5734" lon="5.93118">
        <ele>264.39999389648</ele>
        <time>2014-03-14T13:10:42.000Z</time>
      </trkpt>
      <trkpt lat="47.57341" lon="5.93117">
        <ele>264.39999389648</ele>
        <time>2014-03-14T13:10:43.000Z</time>
      </trkpt>
      <trkpt lat="47.57346" lon="5.93112">
        <ele>264.39999389648</ele>
        <time>2014-03-14T13:10:45.000Z</time>
      </trkpt>
      <trkpt lat="47.57352" lon="5.93107">
        <ele>264.39999389648</ele>
        <time>2014-03-14T13:10:48.000Z</time>
      </trkpt>
      <trkpt lat="47.57364" lon="5.93099">
        <ele>264.39999389648</ele>
        <time>2014-03-14T13:10:58.000Z</time>
      </trkpt>
      <trkpt lat="47.57372" lon="5.93091">
        <ele>264.39999389648</ele>
        <time>2014-03-14T13:11:03.000Z</time>
      </trkpt>
      <trkpt lat="47.57379" lon="5.93086">
        <ele>264.39999389648</ele>
        <time>2014-03-14T13:11:09.000Z</time>
      </trkpt>
      <trkpt lat="47.57381" lon="5.93084">
        <ele>264.39999389648</ele>
        <time>2014-03-14T13:11:10.000Z</time>
      </trkpt>
      <trkpt lat="47.57382" lon="5.93082">
        <ele>264.39999389648</ele>
        <time>2014-03-14T13:11:11.000Z</time>
      </trkpt>
      <trkpt lat="47.57386" lon="5.9308">
        <ele>264.39999389648</ele>
        <time>2014-03-14T13:11:12.000Z</time>
      </trkpt>
      <trkpt lat="47.57408" lon="5.93066">
        <ele>264.39999389648</ele>
        <time>2014-03-14T13:11:22.000Z</time>
      </trkpt>
      <trkpt lat="47.57417" lon="5.93061">
        <ele>264.39999389648</ele>
        <time>2014-03-14T13:11:26.000Z</time>
      </trkpt>
      <trkpt lat="47.57422" lon="5.93057">
        <ele>264.39999389648</ele>
        <time>2014-03-14T13:11:28.000Z</time>
      </trkpt>
      <trkpt lat="47.57431" lon="5.93049">
        <ele>264.39999389648</ele>
        <time>2014-03-14T13:11:32.000Z</time>
      </trkpt>
      <trkpt lat="47.57432" lon="5.93048">
        <ele>264.39999389648</ele>
        <time>2014-03-14T13:11:33.000Z</time>
      </trkpt>
      <trkpt lat="47.57434" lon="5.93046">
        <ele>264.39999389648</ele>
        <time>2014-03-14T13:11:34.000Z</time>
      </trkpt>
      <trkpt lat="47.57436" lon="5.93045">
        <ele>264.39999389648</ele>
        <time>2014-03-14T13:11:35.000Z</time>
      </trkpt>
      <trkpt lat="47.57443" lon="5.93037">
        <ele>264.39999389648</ele>
        <time>2014-03-14T13:11:41.000Z</time>
      </trkpt>
      <trkpt lat="47.57445" lon="5.93035">
        <ele>264.39999389648</ele>
        <time>2014-03-14T13:11:42.000Z</time>
      </trkpt>
      <trkpt lat="47.5745" lon="5.93032">
        <ele>264.39999389648</ele>
        <time>2014-03-14T13:11:45.000Z</time>
      </trkpt>
      <trkpt lat="47.57453" lon="5.93029">
        <ele>264.39999389648</ele>
        <time>2014-03-14T13:11:47.000Z</time>
      </trkpt>
      <trkpt lat="47.57459" lon="5.93025">
        <ele>264.39999389648</ele>
        <time>2014-03-14T13:11:50.000Z</time>
      </trkpt>
      <trkpt lat="47.57464" lon="5.93021">
        <ele>265.79998779297</ele>
        <time>2014-03-14T13:11:53.000Z</time>
      </trkpt>
      <trkpt lat="47.57465" lon="5.93019">
        <ele>266.20001220703</ele>
        <time>2014-03-14T13:11:54.000Z</time>
      </trkpt>
      <trkpt lat="47.57467" lon="5.93018">
        <ele>266.60000610352</ele>
        <time>2014-03-14T13:11:55.000Z</time>
      </trkpt>
      <trkpt lat="47.57472" lon="5.93014">
        <ele>266.60000610352</ele>
        <time>2014-03-14T13:11:58.000Z</time>
      </trkpt>
      <trkpt lat="47.57473" lon="5.93013">
        <ele>266.60000610352</ele>
        <time>2014-03-14T13:11:59.000Z</time>
      </trkpt>
      <trkpt lat="47.57474" lon="5.93013">
        <ele>266.60000610352</ele>
        <time>2014-03-14T13:12:00.000Z</time>
      </trkpt>
      <trkpt lat="47.57477" lon="5.9301">
        <ele>266.60000610352</ele>
        <time>2014-03-14T13:12:04.000Z</time>
      </trkpt>
      <trkpt lat="47.5748" lon="5.93008">
        <ele>266.60000610352</ele>
        <time>2014-03-14T13:12:06.000Z</time>
      </trkpt>
      <trkpt lat="47.57483" lon="5.93006">
        <ele>266.60000610352</ele>
        <time>2014-03-14T13:12:09.000Z</time>
      </trkpt>
      <trkpt lat="47.57492" lon="5.93">
        <ele>266.60000610352</ele>
        <time>2014-03-14T13:12:14.000Z</time>
      </trkpt>
      <trkpt lat="47.57501" lon="5.93003">
        <ele>266.60000610352</ele>
        <time>2014-03-14T13:12:18.000Z</time>
      </trkpt>
      <trkpt lat="47.57503" lon="5.93011">
        <ele>266.60000610352</ele>
        <time>2014-03-14T13:12:20.000Z</time>
      </trkpt>
      <trkpt lat="47.57507" lon="5.93017">
        <ele>266.60000610352</ele>
        <time>2014-03-14T13:12:22.000Z</time>
      </trkpt>
      <trkpt lat="47.57516" lon="5.93039">
        <ele>266.60000610352</ele>
        <time>2014-03-14T13:12:27.000Z</time>
      </trkpt>
      <trkpt lat="47.57521" lon="5.93049">
        <ele>266</ele>
        <time>2014-03-14T13:12:29.000Z</time>
      </trkpt>
      <trkpt lat="47.57523" lon="5.93053">
        <ele>265.60000610352</ele>
        <time>2014-03-14T13:12:30.000Z</time>
      </trkpt>
      <trkpt lat="47.57525" lon="5.93058">
        <ele>265.20001220703</ele>
        <time>2014-03-14T13:12:31.000Z</time>
      </trkpt>
      <trkpt lat="47.57527" lon="5.93062">
        <ele>264.60000610352</ele>
        <time>2014-03-14T13:12:32.000Z</time>
      </trkpt>
      <trkpt lat="47.57529" lon="5.93068">
        <ele>264.20001220703</ele>
        <time>2014-03-14T13:12:33.000Z</time>
      </trkpt>
      <trkpt lat="47.57537" lon="5.9309">
        <ele>264.20001220703</ele>
        <time>2014-03-14T13:12:38.000Z</time>
      </trkpt>
      <trkpt lat="47.57544" lon="5.93115">
        <ele>263.79998779297</ele>
        <time>2014-03-14T13:12:43.000Z</time>
      </trkpt>
      <trkpt lat="47.57546" lon="5.9312">
        <ele>263.20001220703</ele>
        <time>2014-03-14T13:12:44.000Z</time>
      </trkpt>
      <trkpt lat="47.57547" lon="5.93124">
        <ele>262.79998779297</ele>
        <time>2014-03-14T13:12:45.000Z</time>
      </trkpt>
      <trkpt lat="47.57549" lon="5.93127">
        <ele>262.39999389648</ele>
        <time>2014-03-14T13:12:46.000Z</time>
      </trkpt>
      <trkpt lat="47.5755" lon="5.93129">
        <ele>261.79998779297</ele>
        <time>2014-03-14T13:12:47.000Z</time>
      </trkpt>
      <trkpt lat="47.57552" lon="5.9313">
        <ele>261.39999389648</ele>
        <time>2014-03-14T13:12:48.000Z</time>
      </trkpt>
      <trkpt lat="47.57554" lon="5.93129">
        <ele>261</ele>
        <time>2014-03-14T13:12:49.000Z</time>
      </trkpt>
      <trkpt lat="47.57556" lon="5.93129">
        <ele>260.20001220703</ele>
        <time>2014-03-14T13:12:50.000Z</time>
      </trkpt>
      <trkpt lat="47.57557" lon="5.93129">
        <ele>259.79998779297</ele>
        <time>2014-03-14T13:12:51.000Z</time>
      </trkpt>
      <trkpt lat="47.57558" lon="5.93127">
        <ele>259.79998779297</ele>
        <time>2014-03-14T13:12:52.000Z</time>
      </trkpt>
      <trkpt lat="47.57559" lon="5.93125">
        <ele>259.79998779297</ele>
        <time>2014-03-14T13:12:53.000Z</time>
      </trkpt>
      <trkpt lat="47.57562" lon="5.93121">
        <ele>259.79998779297</ele>
        <time>2014-03-14T13:12:55.000Z</time>
      </trkpt>
      <trkpt lat="47.57569" lon="5.93113">
        <ele>259.79998779297</ele>
        <time>2014-03-14T13:12:58.000Z</time>
      </trkpt>
      <trkpt lat="47.57573" lon="5.93106">
        <ele>259.79998779297</ele>
        <time>2014-03-14T13:13:01.000Z</time>
      </trkpt>
      <trkpt lat="47.57584" lon="5.93095">
        <ele>259.79998779297</ele>
        <time>2014-03-14T13:13:06.000Z</time>
      </trkpt>
      <trkpt lat="47.57593" lon="5.93084">
        <ele>259.79998779297</ele>
        <time>2014-03-14T13:13:11.000Z</time>
      </trkpt>
      <trkpt lat="47.57603" lon="5.9307">
        <ele>259.79998779297</ele>
        <time>2014-03-14T13:13:18.000Z</time>
      </trkpt>
      <trkpt lat="47.57604" lon="5.93068">
        <ele>259.79998779297</ele>
        <time>2014-03-14T13:13:19.000Z</time>
      </trkpt>
      <trkpt lat="47.57605" lon="5.93065">
        <ele>259.79998779297</ele>
        <time>2014-03-14T13:13:21.000Z</time>
      </trkpt>
      <trkpt lat="47.57608" lon="5.9306">
        <ele>259.79998779297</ele>
        <time>2014-03-14T13:13:23.000Z</time>
      </trkpt>
      <trkpt lat="47.57614" lon="5.93052">
        <ele>259.79998779297</ele>
        <time>2014-03-14T13:13:27.000Z</time>
      </trkpt>
      <trkpt lat="47.57617" lon="5.93049">
        <ele>259.79998779297</ele>
        <time>2014-03-14T13:13:29.000Z</time>
      </trkpt>
      <trkpt lat="47.57618" lon="5.93047">
        <ele>259.79998779297</ele>
        <time>2014-03-14T13:13:30.000Z</time>
      </trkpt>
      <trkpt lat="47.57622" lon="5.93039">
        <ele>261</ele>
        <time>2014-03-14T13:13:34.000Z</time>
      </trkpt>
      <trkpt lat="47.57624" lon="5.93037">
        <ele>261.39999389648</ele>
        <time>2014-03-14T13:13:35.000Z</time>
      </trkpt>
      <trkpt lat="47.57625" lon="5.93035">
        <ele>261.79998779297</ele>
        <time>2014-03-14T13:13:36.000Z</time>
      </trkpt>
      <trkpt lat="47.57626" lon="5.93033">
        <ele>261.79998779297</ele>
        <time>2014-03-14T13:13:37.000Z</time>
      </trkpt>
      <trkpt lat="47.57632" lon="5.93018">
        <ele>261.79998779297</ele>
        <time>2014-03-14T13:13:43.000Z</time>
      </trkpt>
      <trkpt lat="47.57639" lon="5.93009">
        <ele>261.79998779297</ele>
        <time>2014-03-14T13:13:48.000Z</time>
      </trkpt>
      <trkpt lat="47.57645" lon="5.93003">
        <ele>262.20001220703</ele>
        <time>2014-03-14T13:13:51.000Z</time>
      </trkpt>
      <trkpt lat="47.57646" lon="5.93">
        <ele>262.60000610352</ele>
        <time>2014-03-14T13:13:52.000Z</time>
      </trkpt>
      <trkpt lat="47.57649" lon="5.92997">
        <ele>263</ele>
        <time>2014-03-14T13:13:53.000Z</time>
      </trkpt>
      <trkpt lat="47.57651" lon="5.92995">
        <ele>263.39999389648</ele>
        <time>2014-03-14T13:13:54.000Z</time>
      </trkpt>
      <trkpt lat="47.57654" lon="5.92992">
        <ele>263.79998779297</ele>
        <time>2014-03-14T13:13:55.000Z</time>
      </trkpt>
      <trkpt lat="47.57656" lon="5.92989">
        <ele>263.79998779297</ele>
        <time>2014-03-14T13:13:57.000Z</time>
      </trkpt>
      <trkpt lat="47.5766" lon="5.92984">
        <ele>263.79998779297</ele>
        <time>2014-03-14T13:14:00.000Z</time>
      </trkpt>
      <trkpt lat="47.57672" lon="5.92968">
        <ele>263.79998779297</ele>
        <time>2014-03-14T13:14:07.000Z</time>
      </trkpt>
      <trkpt lat="47.57684" lon="5.92953">
        <ele>263.79998779297</ele>
        <time>2014-03-14T13:14:14.000Z</time>
      </trkpt>
      <trkpt lat="47.57689" lon="5.92942">
        <ele>263.79998779297</ele>
        <time>2014-03-14T13:14:19.000Z</time>
      </trkpt>
      <trkpt lat="47.5769" lon="5.92939">
        <ele>263.79998779297</ele>
        <time>2014-03-14T13:14:20.000Z</time>
      </trkpt>
      <trkpt lat="47.57692" lon="5.92935">
        <ele>264.20001220703</ele>
        <time>2014-03-14T13:14:22.000Z</time>
      </trkpt>
      <trkpt lat="47.57694" lon="5.92933">
        <ele>264.60000610352</ele>
        <time>2014-03-14T13:14:23.000Z</time>
      </trkpt>
      <trkpt lat="47.57696" lon="5.92932">
        <ele>265</ele>
        <time>2014-03-14T13:14:24.000Z</time>
      </trkpt>
      <trkpt lat="47.57697" lon="5.9293">
        <ele>265.60000610352</ele>
        <time>2014-03-14T13:14:25.000Z</time>
      </trkpt>
      <trkpt lat="47.57698" lon="5.92929">
        <ele>266</ele>
        <time>2014-03-14T13:14:26.000Z</time>
      </trkpt>
      <trkpt lat="47.577" lon="5.92925">
        <ele>266</ele>
        <time>2014-03-14T13:14:28.000Z</time>
      </trkpt>
      <trkpt lat="47.57705" lon="5.92918">
        <ele>266</ele>
        <time>2014-03-14T13:14:32.000Z</time>
      </trkpt>
      <trkpt lat="47.57715" lon="5.92905">
        <ele>266</ele>
        <time>2014-03-14T13:14:38.000Z</time>
      </trkpt>
      <trkpt lat="47.57717" lon="5.92903">
        <ele>266</ele>
        <time>2014-03-14T13:14:40.000Z</time>
      </trkpt>
      <trkpt lat="47.57719" lon="5.92901">
        <ele>266.39999389648</ele>
        <time>2014-03-14T13:14:41.000Z</time>
      </trkpt>
      <trkpt lat="47.57721" lon="5.92898">
        <ele>266.79998779297</ele>
        <time>2014-03-14T13:14:42.000Z</time>
      </trkpt>
      <trkpt lat="47.57722" lon="5.92896">
        <ele>267.20001220703</ele>
        <time>2014-03-14T13:14:43.000Z</time>
      </trkpt>
      <trkpt lat="47.57724" lon="5.92894">
        <ele>267.60000610352</ele>
        <time>2014-03-14T13:14:44.000Z</time>
      </trkpt>
      <trkpt lat="47.57725" lon="5.92892">
        <ele>268</ele>
        <time>2014-03-14T13:14:45.000Z</time>
      </trkpt>
      <trkpt lat="47.57731" lon="5.92882">
        <ele>268</ele>
        <time>2014-03-14T13:14:49.000Z</time>
      </trkpt>
      <trkpt lat="47.57732" lon="5.9288">
        <ele>268</ele>
        <time>2014-03-14T13:14:50.000Z</time>
      </trkpt>
      <trkpt lat="47.57736" lon="5.92874">
        <ele>268</ele>
        <time>2014-03-14T13:14:53.000Z</time>
      </trkpt>
      <trkpt lat="47.57739" lon="5.92869">
        <ele>268</ele>
        <time>2014-03-14T13:14:55.000Z</time>
      </trkpt>
      <trkpt lat="47.5774" lon="5.92867">
        <ele>268</ele>
        <time>2014-03-14T13:14:56.000Z</time>
      </trkpt>
      <trkpt lat="47.57742" lon="5.92863">
        <ele>268</ele>
        <time>2014-03-14T13:14:58.000Z</time>
      </trkpt>
      <trkpt lat="47.5775" lon="5.92854">
        <ele>268</ele>
        <time>2014-03-14T13:15:02.000Z</time>
      </trkpt>
      <trkpt lat="47.5776" lon="5.92843">
        <ele>268</ele>
        <time>2014-03-14T13:15:07.000Z</time>
      </trkpt>
      <trkpt lat="47.57768" lon="5.9283">
        <ele>268</ele>
        <time>2014-03-14T13:15:13.000Z</time>
      </trkpt>
      <trkpt lat="47.57777" lon="5.92816">
        <ele>268</ele>
        <time>2014-03-14T13:15:19.000Z</time>
      </trkpt>
      <trkpt lat="47.57789" lon="5.92802">
        <ele>267.60000610352</ele>
        <time>2014-03-14T13:15:25.000Z</time>
      </trkpt>
      <trkpt lat="47.57792" lon="5.92799">
        <ele>267</ele>
        <time>2014-03-14T13:15:26.000Z</time>
      </trkpt>
      <trkpt lat="47.57794" lon="5.92795">
        <ele>266.60000610352</ele>
        <time>2014-03-14T13:15:27.000Z</time>
      </trkpt>
      <trkpt lat="47.57797" lon="5.92791">
        <ele>266.20001220703</ele>
        <time>2014-03-14T13:15:28.000Z</time>
      </trkpt>
      <trkpt lat="47.57799" lon="5.92787">
        <ele>265.79998779297</ele>
        <time>2014-03-14T13:15:29.000Z</time>
      </trkpt>
      <trkpt lat="47.57802" lon="5.92783">
        <ele>265.79998779297</ele>
        <time>2014-03-14T13:15:30.000Z</time>
      </trkpt>
      <trkpt lat="47.57814" lon="5.92768">
        <ele>265.39999389648</ele>
        <time>2014-03-14T13:15:34.000Z</time>
      </trkpt>
      <trkpt lat="47.57818" lon="5.92765">
        <ele>265</ele>
        <time>2014-03-14T13:15:35.000Z</time>
      </trkpt>
      <trkpt lat="47.57821" lon="5.92761">
        <ele>264.60000610352</ele>
        <time>2014-03-14T13:15:36.000Z</time>
      </trkpt>
      <trkpt lat="47.57825" lon="5.92757">
        <ele>264.20001220703</ele>
        <time>2014-03-14T13:15:37.000Z</time>
      </trkpt>
      <trkpt lat="47.57828" lon="5.92754">
        <ele>263.60000610352</ele>
        <time>2014-03-14T13:15:38.000Z</time>
      </trkpt>
      <trkpt lat="47.57832" lon="5.92749">
        <ele>263.20001220703</ele>
        <time>2014-03-14T13:15:39.000Z</time>
      </trkpt>
      <trkpt lat="47.57836" lon="5.92745">
        <ele>262.79998779297</ele>
        <time>2014-03-14T13:15:40.000Z</time>
      </trkpt>
      <trkpt lat="47.57839" lon="5.92741">
        <ele>262.39999389648</ele>
        <time>2014-03-14T13:15:41.000Z</time>
      </trkpt>
      <trkpt lat="47.57843" lon="5.92736">
        <ele>262</ele>
        <time>2014-03-14T13:15:42.000Z</time>
      </trkpt>
      <trkpt lat="47.57847" lon="5.92731">
        <ele>261.60000610352</ele>
        <time>2014-03-14T13:15:43.000Z</time>
      </trkpt>
      <trkpt lat="47.57854" lon="5.92724">
        <ele>260.60000610352</ele>
        <time>2014-03-14T13:15:45.000Z</time>
      </trkpt>
      <trkpt lat="47.57859" lon="5.92721">
        <ele>260.20001220703</ele>
        <time>2014-03-14T13:15:46.000Z</time>
      </trkpt>
      <trkpt lat="47.57862" lon="5.92717">
        <ele>259.79998779297</ele>
        <time>2014-03-14T13:15:47.000Z</time>
      </trkpt>
      <trkpt lat="47.57866" lon="5.92713">
        <ele>259.39999389648</ele>
        <time>2014-03-14T13:15:48.000Z</time>
      </trkpt>
      <trkpt lat="47.57875" lon="5.92698">
        <ele>259.39999389648</ele>
        <time>2014-03-14T13:15:51.000Z</time>
      </trkpt>
      <trkpt lat="47.57877" lon="5.92688">
        <ele>259.39999389648</ele>
        <time>2014-03-14T13:15:54.000Z</time>
      </trkpt>
      <trkpt lat="47.57879" lon="5.92679">
        <ele>259.39999389648</ele>
        <time>2014-03-14T13:15:59.000Z</time>
      </trkpt>
      <trkpt lat="47.57883" lon="5.9267">
        <ele>259.39999389648</ele>
        <time>2014-03-14T13:16:01.000Z</time>
      </trkpt>
      <trkpt lat="47.57889" lon="5.92659">
        <ele>258.79998779297</ele>
        <time>2014-03-14T13:16:03.000Z</time>
      </trkpt>
      <trkpt lat="47.57892" lon="5.92654">
        <ele>258.39999389648</ele>
        <time>2014-03-14T13:16:04.000Z</time>
      </trkpt>
      <trkpt lat="47.57896" lon="5.92649">
        <ele>258</ele>
        <time>2014-03-14T13:16:05.000Z</time>
      </trkpt>
      <trkpt lat="47.579" lon="5.92644">
        <ele>257.60000610352</ele>
        <time>2014-03-14T13:16:06.000Z</time>
      </trkpt>
      <trkpt lat="47.57903" lon="5.92639">
        <ele>257.20001220703</ele>
        <time>2014-03-14T13:16:07.000Z</time>
      </trkpt>
      <trkpt lat="47.57911" lon="5.9263">
        <ele>256.79998779297</ele>
        <time>2014-03-14T13:16:09.000Z</time>
      </trkpt>
      <trkpt lat="47.57915" lon="5.92627">
        <ele>256.39999389648</ele>
        <time>2014-03-14T13:16:10.000Z</time>
      </trkpt>
      <trkpt lat="47.57918" lon="5.92625">
        <ele>256</ele>
        <time>2014-03-14T13:16:11.000Z</time>
      </trkpt>
      <trkpt lat="47.5792" lon="5.92623">
        <ele>255.60000610352</ele>
        <time>2014-03-14T13:16:12.000Z</time>
      </trkpt>
      <trkpt lat="47.57924" lon="5.92622">
        <ele>255.19999694824</ele>
        <time>2014-03-14T13:16:13.000Z</time>
      </trkpt>
      <trkpt lat="47.57933" lon="5.92616">
        <ele>255.19999694824</ele>
        <time>2014-03-14T13:16:16.000Z</time>
      </trkpt>
      <trkpt lat="47.57941" lon="5.92611">
        <ele>254.60000610352</ele>
        <time>2014-03-14T13:16:19.000Z</time>
      </trkpt>
      <trkpt lat="47.57943" lon="5.92608">
        <ele>254.19999694824</ele>
        <time>2014-03-14T13:16:20.000Z</time>
      </trkpt>
      <trkpt lat="47.57943" lon="5.92604">
        <ele>253.80000305176</ele>
        <time>2014-03-14T13:16:21.000Z</time>
      </trkpt>
      <trkpt lat="47.57943" lon="5.926">
        <ele>253.39999389648</ele>
        <time>2014-03-14T13:16:22.000Z</time>
      </trkpt>
      <trkpt lat="47.57941" lon="5.92596">
        <ele>252.80000305176</ele>
        <time>2014-03-14T13:16:23.000Z</time>
      </trkpt>
      <trkpt lat="47.57936" lon="5.92588">
        <ele>252.80000305176</ele>
        <time>2014-03-14T13:16:24.000Z</time>
      </trkpt>
      <trkpt lat="47.57929" lon="5.92577">
        <ele>252.80000305176</ele>
        <time>2014-03-14T13:16:26.000Z</time>
      </trkpt>
      <trkpt lat="47.57912" lon="5.92557">
        <ele>252.80000305176</ele>
        <time>2014-03-14T13:16:31.000Z</time>
      </trkpt>
      <trkpt lat="47.57899" lon="5.92543">
        <ele>252.80000305176</ele>
        <time>2014-03-14T13:16:36.000Z</time>
      </trkpt>
      <trkpt lat="47.57883" lon="5.92531">
        <ele>252.80000305176</ele>
        <time>2014-03-14T13:16:42.000Z</time>
      </trkpt>
      <trkpt lat="47.57868" lon="5.92519">
        <ele>252.80000305176</ele>
        <time>2014-03-14T13:16:48.000Z</time>
      </trkpt>
      <trkpt lat="47.57858" lon="5.925">
        <ele>252.80000305176</ele>
        <time>2014-03-14T13:16:53.000Z</time>
      </trkpt>
      <trkpt lat="47.57847" lon="5.92482">
        <ele>252.80000305176</ele>
        <time>2014-03-14T13:16:58.000Z</time>
      </trkpt>
      <trkpt lat="47.57836" lon="5.92465">
        <ele>252.80000305176</ele>
        <time>2014-03-14T13:17:03.000Z</time>
      </trkpt>
      <trkpt lat="47.57826" lon="5.92449">
        <ele>252.80000305176</ele>
        <time>2014-03-14T13:17:08.000Z</time>
      </trkpt>
      <trkpt lat="47.57815" lon="5.9243">
        <ele>252.80000305176</ele>
        <time>2014-03-14T13:17:14.000Z</time>
      </trkpt>
      <trkpt lat="47.57807" lon="5.92413">
        <ele>252.80000305176</ele>
        <time>2014-03-14T13:17:19.000Z</time>
      </trkpt>
      <trkpt lat="47.57805" lon="5.92409">
        <ele>252.80000305176</ele>
        <time>2014-03-14T13:17:20.000Z</time>
      </trkpt>
      <trkpt lat="47.578" lon="5.92393">
        <ele>252.80000305176</ele>
        <time>2014-03-14T13:17:25.000Z</time>
      </trkpt>
      <trkpt lat="47.57794" lon="5.92375">
        <ele>252.80000305176</ele>
        <time>2014-03-14T13:17:30.000Z</time>
      </trkpt>
      <trkpt lat="47.57785" lon="5.92358">
        <ele>252.80000305176</ele>
        <time>2014-03-14T13:17:36.000Z</time>
      </trkpt>
      <trkpt lat="47.57776" lon="5.92344">
        <ele>252.80000305176</ele>
        <time>2014-03-14T13:17:41.000Z</time>
      </trkpt>
      <trkpt lat="47.57767" lon="5.92329">
        <ele>252.80000305176</ele>
        <time>2014-03-14T13:17:47.000Z</time>
      </trkpt>
      <trkpt lat="47.57758" lon="5.92317">
        <ele>253.19999694824</ele>
        <time>2014-03-14T13:17:52.000Z</time>
      </trkpt>
      <trkpt lat="47.57756" lon="5.92315">
        <ele>253.60000610352</ele>
        <time>2014-03-14T13:17:53.000Z</time>
      </trkpt>
      <trkpt lat="47.57755" lon="5.92313">
        <ele>254</ele>
        <time>2014-03-14T13:17:54.000Z</time>
      </trkpt>
      <trkpt lat="47.57753" lon="5.9231">
        <ele>254.39999389648</ele>
        <time>2014-03-14T13:17:55.000Z</time>
      </trkpt>
      <trkpt lat="47.57751" lon="5.92308">
        <ele>254.80000305176</ele>
        <time>2014-03-14T13:17:56.000Z</time>
      </trkpt>
      <trkpt lat="47.5774" lon="5.92294">
        <ele>254.80000305176</ele>
        <time>2014-03-14T13:18:02.000Z</time>
      </trkpt>
      <trkpt lat="47.57731" lon="5.92285">
        <ele>254.80000305176</ele>
        <time>2014-03-14T13:18:07.000Z</time>
      </trkpt>
      <trkpt lat="47.57723" lon="5.92279">
        <ele>255.19999694824</ele>
        <time>2014-03-14T13:18:11.000Z</time>
      </trkpt>
      <trkpt lat="47.57721" lon="5.92278">
        <ele>255.80000305176</ele>
        <time>2014-03-14T13:18:12.000Z</time>
      </trkpt>
      <trkpt lat="47.57719" lon="5.92277">
        <ele>256.60000610352</ele>
        <time>2014-03-14T13:18:13.000Z</time>
      </trkpt>
      <trkpt lat="47.57717" lon="5.92276">
        <ele>257</ele>
        <time>2014-03-14T13:18:14.000Z</time>
      </trkpt>
      <trkpt lat="47.57707" lon="5.92272">
        <ele>257</ele>
        <time>2014-03-14T13:18:20.000Z</time>
      </trkpt>
      <trkpt lat="47.57695" lon="5.92266">
        <ele>257</ele>
        <time>2014-03-14T13:18:27.000Z</time>
      </trkpt>
      <trkpt lat="47.57688" lon="5.92262">
        <ele>257.39999389648</ele>
        <time>2014-03-14T13:18:31.000Z</time>
      </trkpt>
      <trkpt lat="47.57687" lon="5.9226">
        <ele>257.79998779297</ele>
        <time>2014-03-14T13:18:32.000Z</time>
      </trkpt>
      <trkpt lat="47.57685" lon="5.92259">
        <ele>258.20001220703</ele>
        <time>2014-03-14T13:18:33.000Z</time>
      </trkpt>
      <trkpt lat="47.57683" lon="5.92257">
        <ele>258.60000610352</ele>
        <time>2014-03-14T13:18:34.000Z</time>
      </trkpt>
      <trkpt lat="47.57681" lon="5.92255">
        <ele>259</ele>
        <time>2014-03-14T13:18:35.000Z</time>
      </trkpt>
      <trkpt lat="47.57674" lon="5.92252">
        <ele>259</ele>
        <time>2014-03-14T13:18:39.000Z</time>
      </trkpt>
      <trkpt lat="47.57668" lon="5.9225">
        <ele>259</ele>
        <time>2014-03-14T13:18:43.000Z</time>
      </trkpt>
      <trkpt lat="47.57665" lon="5.92249">
        <ele>259</ele>
        <time>2014-03-14T13:18:45.000Z</time>
      </trkpt>
      <trkpt lat="47.57661" lon="5.92246">
        <ele>259</ele>
        <time>2014-03-14T13:18:47.000Z</time>
      </trkpt>
      <trkpt lat="47.57653" lon="5.92239">
        <ele>259</ele>
        <time>2014-03-14T13:18:53.000Z</time>
      </trkpt>
      <trkpt lat="47.57644" lon="5.92231">
        <ele>261</ele>
        <time>2014-03-14T13:19:00.000Z</time>
      </trkpt>
      <trkpt lat="47.57639" lon="5.92228">
        <ele>261</ele>
        <time>2014-03-14T13:19:03.000Z</time>
      </trkpt>
      <trkpt lat="47.57638" lon="5.92227">
        <ele>261</ele>
        <time>2014-03-14T13:19:04.000Z</time>
      </trkpt>
      <trkpt lat="47.57631" lon="5.92221">
        <ele>261</ele>
        <time>2014-03-14T13:19:09.000Z</time>
      </trkpt>
      <trkpt lat="47.57628" lon="5.92216">
        <ele>261</ele>
        <time>2014-03-14T13:19:11.000Z</time>
      </trkpt>
      <trkpt lat="47.57621" lon="5.92211">
        <ele>261</ele>
        <time>2014-03-14T13:19:16.000Z</time>
      </trkpt>
      <trkpt lat="47.57619" lon="5.9221">
        <ele>261</ele>
        <time>2014-03-14T13:19:17.000Z</time>
      </trkpt>
      <trkpt lat="47.57617" lon="5.92207">
        <ele>261</ele>
        <time>2014-03-14T13:19:19.000Z</time>
      </trkpt>
      <trkpt lat="47.57613" lon="5.92204">
        <ele>261</ele>
        <time>2014-03-14T13:19:22.000Z</time>
      </trkpt>
      <trkpt lat="47.5761" lon="5.92201">
        <ele>261</ele>
        <time>2014-03-14T13:19:24.000Z</time>
      </trkpt>
      <trkpt lat="47.57596" lon="5.92187">
        <ele>261</ele>
        <time>2014-03-14T13:19:33.000Z</time>
      </trkpt>
      <trkpt lat="47.57583" lon="5.92178">
        <ele>261.39999389648</ele>
        <time>2014-03-14T13:19:41.000Z</time>
      </trkpt>
      <trkpt lat="47.57581" lon="5.92177">
        <ele>261.79998779297</ele>
        <time>2014-03-14T13:19:42.000Z</time>
      </trkpt>
      <trkpt lat="47.5758" lon="5.92175">
        <ele>262.20001220703</ele>
        <time>2014-03-14T13:19:43.000Z</time>
      </trkpt>
      <trkpt lat="47.57578" lon="5.92173">
        <ele>262.79998779297</ele>
        <time>2014-03-14T13:19:44.000Z</time>
      </trkpt>
      <trkpt lat="47.57577" lon="5.92171">
        <ele>263.20001220703</ele>
        <time>2014-03-14T13:19:45.000Z</time>
      </trkpt>
      <trkpt lat="47.57574" lon="5.92168">
        <ele>263.20001220703</ele>
        <time>2014-03-14T13:19:47.000Z</time>
      </trkpt>
      <trkpt lat="47.57565" lon="5.92158">
        <ele>263.20001220703</ele>
        <time>2014-03-14T13:19:52.000Z</time>
      </trkpt>
      <trkpt lat="47.57563" lon="5.92156">
        <ele>263.20001220703</ele>
        <time>2014-03-14T13:19:53.000Z</time>
      </trkpt>
      <trkpt lat="47.57549" lon="5.9214">
        <ele>263.20001220703</ele>
        <time>2014-03-14T13:19:59.000Z</time>
      </trkpt>
      <trkpt lat="47.57535" lon="5.92126">
        <ele>263.20001220703</ele>
        <time>2014-03-14T13:20:04.000Z</time>
      </trkpt>
      <trkpt lat="47.57521" lon="5.92114">
        <ele>263.20001220703</ele>
        <time>2014-03-14T13:20:09.000Z</time>
      </trkpt>
      <trkpt lat="47.57504" lon="5.92103">
        <ele>263.20001220703</ele>
        <time>2014-03-14T13:20:14.000Z</time>
      </trkpt>
      <trkpt lat="47.57498" lon="5.92097">
        <ele>262.60000610352</ele>
        <time>2014-03-14T13:20:16.000Z</time>
      </trkpt>
      <trkpt lat="47.57494" lon="5.92094">
        <ele>261.79998779297</ele>
        <time>2014-03-14T13:20:17.000Z</time>
      </trkpt>
      <trkpt lat="47.5749" lon="5.9209">
        <ele>261.39999389648</ele>
        <time>2014-03-14T13:20:18.000Z</time>
      </trkpt>
      <trkpt lat="47.57486" lon="5.92087">
        <ele>260.79998779297</ele>
        <time>2014-03-14T13:20:19.000Z</time>
      </trkpt>
      <trkpt lat="47.57476" lon="5.92081">
        <ele>260.79998779297</ele>
        <time>2014-03-14T13:20:21.000Z</time>
      </trkpt>
      <trkpt lat="47.57471" lon="5.9208">
        <ele>260.39999389648</ele>
        <time>2014-03-14T13:20:22.000Z</time>
      </trkpt>
      <trkpt lat="47.57466" lon="5.92078">
        <ele>259.79998779297</ele>
        <time>2014-03-14T13:20:23.000Z</time>
      </trkpt>
      <trkpt lat="47.57461" lon="5.92078">
        <ele>259.39999389648</ele>
        <time>2014-03-14T13:20:24.000Z</time>
      </trkpt>
      <trkpt lat="47.57457" lon="5.92077">
        <ele>259</ele>
        <time>2014-03-14T13:20:25.000Z</time>
      </trkpt>
      <trkpt lat="47.57452" lon="5.92077">
        <ele>258.39999389648</ele>
        <time>2014-03-14T13:20:26.000Z</time>
      </trkpt>
      <trkpt lat="47.57448" lon="5.92077">
        <ele>258.39999389648</ele>
        <time>2014-03-14T13:20:27.000Z</time>
      </trkpt>
      <trkpt lat="47.57434" lon="5.92075">
        <ele>258.39999389648</ele>
        <time>2014-03-14T13:20:32.000Z</time>
      </trkpt>
      <trkpt lat="47.57428" lon="5.92075">
        <ele>259</ele>
        <time>2014-03-14T13:20:35.000Z</time>
      </trkpt>
      <trkpt lat="47.57426" lon="5.92074">
        <ele>259.39999389648</ele>
        <time>2014-03-14T13:20:36.000Z</time>
      </trkpt>
      <trkpt lat="47.57424" lon="5.92074">
        <ele>260</ele>
        <time>2014-03-14T13:20:37.000Z</time>
      </trkpt>
      <trkpt lat="47.57422" lon="5.92073">
        <ele>260.39999389648</ele>
        <time>2014-03-14T13:20:38.000Z</time>
      </trkpt>
      <trkpt lat="47.5742" lon="5.92073">
        <ele>261</ele>
        <time>2014-03-14T13:20:39.000Z</time>
      </trkpt>
      <trkpt lat="47.57415" lon="5.92071">
        <ele>261.39999389648</ele>
        <time>2014-03-14T13:20:42.000Z</time>
      </trkpt>
      <trkpt lat="47.57414" lon="5.92071">
        <ele>261.79998779297</ele>
        <time>2014-03-14T13:20:43.000Z</time>
      </trkpt>
      <trkpt lat="47.574" lon="5.9207">
        <ele>263.20001220703</ele>
        <time>2014-03-14T13:20:53.000Z</time>
      </trkpt>
      <trkpt lat="47.57393" lon="5.92068">
        <ele>263.20001220703</ele>
        <time>2014-03-14T13:20:57.000Z</time>
      </trkpt>
      <trkpt lat="47.57382" lon="5.92061">
        <ele>263.20001220703</ele>
        <time>2014-03-14T13:21:03.000Z</time>
      </trkpt>
      <trkpt lat="47.5737" lon="5.92052">
        <ele>263.20001220703</ele>
        <time>2014-03-14T13:21:09.000Z</time>
      </trkpt>
      <trkpt lat="47.5736" lon="5.92047">
        <ele>263.20001220703</ele>
        <time>2014-03-14T13:21:14.000Z</time>
      </trkpt>
      <trkpt lat="47.57358" lon="5.92047">
        <ele>263.60000610352</ele>
        <time>2014-03-14T13:21:15.000Z</time>
      </trkpt>
      <trkpt lat="47.57356" lon="5.92045">
        <ele>264</ele>
        <time>2014-03-14T13:21:16.000Z</time>
      </trkpt>
      <trkpt lat="47.57354" lon="5.92045">
        <ele>264.39999389648</ele>
        <time>2014-03-14T13:21:17.000Z</time>
      </trkpt>
      <trkpt lat="47.57352" lon="5.92045">
        <ele>264.79998779297</ele>
        <time>2014-03-14T13:21:18.000Z</time>
      </trkpt>
      <trkpt lat="47.57351" lon="5.92044">
        <ele>265.20001220703</ele>
        <time>2014-03-14T13:21:19.000Z</time>
      </trkpt>
      <trkpt lat="47.57349" lon="5.92043">
        <ele>265.20001220703</ele>
        <time>2014-03-14T13:21:20.000Z</time>
      </trkpt>
      <trkpt lat="47.57347" lon="5.92042">
        <ele>265.20001220703</ele>
        <time>2014-03-14T13:21:21.000Z</time>
      </trkpt>
      <trkpt lat="47.57335" lon="5.92039">
        <ele>265.20001220703</ele>
        <time>2014-03-14T13:21:27.000Z</time>
      </trkpt>
      <trkpt lat="47.5733" lon="5.92034">
        <ele>265.20001220703</ele>
        <time>2014-03-14T13:21:30.000Z</time>
      </trkpt>
      <trkpt lat="47.57327" lon="5.92033">
        <ele>265.20001220703</ele>
        <time>2014-03-14T13:21:32.000Z</time>
      </trkpt>
      <trkpt lat="47.57324" lon="5.92032">
        <ele>265.20001220703</ele>
        <time>2014-03-14T13:21:33.000Z</time>
      </trkpt>
      <trkpt lat="47.57314" lon="5.92032">
        <ele>265.20001220703</ele>
        <time>2014-03-14T13:21:37.000Z</time>
      </trkpt>
      <trkpt lat="47.57311" lon="5.92033">
        <ele>265.20001220703</ele>
        <time>2014-03-14T13:21:38.000Z</time>
      </trkpt>
      <trkpt lat="47.573" lon="5.92033">
        <ele>265.20001220703</ele>
        <time>2014-03-14T13:21:42.000Z</time>
      </trkpt>
      <trkpt lat="47.57284" lon="5.92031">
        <ele>265.20001220703</ele>
        <time>2014-03-14T13:21:48.000Z</time>
      </trkpt>
      <trkpt lat="47.57268" lon="5.92026">
        <ele>265.20001220703</ele>
        <time>2014-03-14T13:21:53.000Z</time>
      </trkpt>
      <trkpt lat="47.57258" lon="5.92028">
        <ele>265.20001220703</ele>
        <time>2014-03-14T13:21:57.000Z</time>
      </trkpt>
      <trkpt lat="47.57243" lon="5.92036">
        <ele>265.20001220703</ele>
        <time>2014-03-14T13:22:04.000Z</time>
      </trkpt>
      <trkpt lat="47.57241" lon="5.92038">
        <ele>265.20001220703</ele>
        <time>2014-03-14T13:22:05.000Z</time>
      </trkpt>
      <trkpt lat="47.5723" lon="5.92041">
        <ele>265.20001220703</ele>
        <time>2014-03-14T13:22:10.000Z</time>
      </trkpt>
      <trkpt lat="47.57227" lon="5.92043">
        <ele>265.20001220703</ele>
        <time>2014-03-14T13:22:13.000Z</time>
      </trkpt>
      <trkpt lat="47.57195" lon="5.92057">
        <ele>263.20001220703</ele>
        <time>2014-03-14T13:23:38.000Z</time>
      </trkpt>
      <trkpt lat="47.57183" lon="5.9206">
        <ele>263.20001220703</ele>
        <time>2014-03-14T13:23:43.000Z</time>
      </trkpt>
      <trkpt lat="47.57171" lon="5.92066">
        <ele>263.20001220703</ele>
        <time>2014-03-14T13:23:48.000Z</time>
      </trkpt>
      <trkpt lat="47.57158" lon="5.92072">
        <ele>263.20001220703</ele>
        <time>2014-03-14T13:23:52.000Z</time>
      </trkpt>
      <trkpt lat="47.57151" lon="5.92076">
        <ele>263.20001220703</ele>
        <time>2014-03-14T13:23:55.000Z</time>
      </trkpt>
      <trkpt lat="47.57149" lon="5.92075">
        <ele>263.20001220703</ele>
        <time>2014-03-14T13:23:56.000Z</time>
      </trkpt>
      <trkpt lat="47.5714" lon="5.92081">
        <ele>262.79998779297</ele>
        <time>2014-03-14T13:23:59.000Z</time>
      </trkpt>
      <trkpt lat="47.57137" lon="5.92083">
        <ele>262</ele>
        <time>2014-03-14T13:24:00.000Z</time>
      </trkpt>
      <trkpt lat="47.57133" lon="5.92085">
        <ele>261.60000610352</ele>
        <time>2014-03-14T13:24:01.000Z</time>
      </trkpt>
      <trkpt lat="47.5713" lon="5.92087">
        <ele>261.20001220703</ele>
        <time>2014-03-14T13:24:02.000Z</time>
      </trkpt>
      <trkpt lat="47.57122" lon="5.9209">
        <ele>261.20001220703</ele>
        <time>2014-03-14T13:24:05.000Z</time>
      </trkpt>
      <trkpt lat="47.57108" lon="5.92098">
        <ele>261.20001220703</ele>
        <time>2014-03-14T13:24:10.000Z</time>
      </trkpt>
      <trkpt lat="47.57096" lon="5.92103">
        <ele>261.20001220703</ele>
        <time>2014-03-14T13:24:15.000Z</time>
      </trkpt>
      <trkpt lat="47.57091" lon="5.92106">
        <ele>261.20001220703</ele>
        <time>2014-03-14T13:24:19.000Z</time>
      </trkpt>
      <trkpt lat="47.57057" lon="5.9214">
        <ele>259.20001220703</ele>
        <time>2014-03-14T13:25:20.000Z</time>
      </trkpt>
      <trkpt lat="47.57043" lon="5.92147">
        <ele>259.20001220703</ele>
        <time>2014-03-14T13:25:25.000Z</time>
      </trkpt>
      <trkpt lat="47.57028" lon="5.92154">
        <ele>259.20001220703</ele>
        <time>2014-03-14T13:25:30.000Z</time>
      </trkpt>
      <trkpt lat="47.57024" lon="5.92158">
        <ele>258.79998779297</ele>
        <time>2014-03-14T13:25:32.000Z</time>
      </trkpt>
      <trkpt lat="47.57021" lon="5.92159">
        <ele>258.39999389648</ele>
        <time>2014-03-14T13:25:33.000Z</time>
      </trkpt>
      <trkpt lat="47.5702" lon="5.9216">
        <ele>258</ele>
        <time>2014-03-14T13:25:34.000Z</time>
      </trkpt>
      <trkpt lat="47.57018" lon="5.92161">
        <ele>257.60000610352</ele>
        <time>2014-03-14T13:25:35.000Z</time>
      </trkpt>
      <trkpt lat="47.57016" lon="5.92162">
        <ele>257.20001220703</ele>
        <time>2014-03-14T13:25:36.000Z</time>
      </trkpt>
      <trkpt lat="47.57017" lon="5.92162">
        <ele>257.20001220703</ele>
        <time>2014-03-14T13:25:37.000Z</time>
      </trkpt>
      <trkpt lat="47.5699" lon="5.9216">
        <ele>255.19999694824</ele>
        <time>2014-03-14T13:26:23.000Z</time>
      </trkpt>
      <trkpt lat="47.56989" lon="5.92161">
        <ele>255.19999694824</ele>
        <time>2014-03-14T13:26:24.000Z</time>
      </trkpt>
      <trkpt lat="47.56988" lon="5.92163">
        <ele>255.19999694824</ele>
        <time>2014-03-14T13:26:25.000Z</time>
      </trkpt>
      <trkpt lat="47.56985" lon="5.92161">
        <ele>255.19999694824</ele>
        <time>2014-03-14T13:26:27.000Z</time>
      </trkpt>
      <trkpt lat="47.56981" lon="5.92159">
        <ele>255.19999694824</ele>
        <time>2014-03-14T13:26:29.000Z</time>
      </trkpt>
      <trkpt lat="47.56978" lon="5.92159">
        <ele>254.60000610352</ele>
        <time>2014-03-14T13:26:30.000Z</time>
      </trkpt>
      <trkpt lat="47.56975" lon="5.92158">
        <ele>254.19999694824</ele>
        <time>2014-03-14T13:26:31.000Z</time>
      </trkpt>
      <trkpt lat="47.56971" lon="5.92157">
        <ele>253.80000305176</ele>
        <time>2014-03-14T13:26:32.000Z</time>
      </trkpt>
      <trkpt lat="47.56968" lon="5.92155">
        <ele>253.39999389648</ele>
        <time>2014-03-14T13:26:33.000Z</time>
      </trkpt>
      <trkpt lat="47.56964" lon="5.92154">
        <ele>253</ele>
        <time>2014-03-14T13:26:34.000Z</time>
      </trkpt>
      <trkpt lat="47.5696" lon="5.92154">
        <ele>252.60000610352</ele>
        <time>2014-03-14T13:26:35.000Z</time>
      </trkpt>
      <trkpt lat="47.56955" lon="5.92153">
        <ele>252.19999694824</ele>
        <time>2014-03-14T13:26:36.000Z</time>
      </trkpt>
      <trkpt lat="47.56949" lon="5.92152">
        <ele>251.60000610352</ele>
        <time>2014-03-14T13:26:37.000Z</time>
      </trkpt>
      <trkpt lat="47.56943" lon="5.9215">
        <ele>251.19999694824</ele>
        <time>2014-03-14T13:26:38.000Z</time>
      </trkpt>
      <trkpt lat="47.56939" lon="5.92148">
        <ele>250.80000305176</ele>
        <time>2014-03-14T13:26:39.000Z</time>
      </trkpt>
      <trkpt lat="47.56933" lon="5.92148">
        <ele>250.39999389648</ele>
        <time>2014-03-14T13:26:40.000Z</time>
      </trkpt>
      <trkpt lat="47.56928" lon="5.92146">
        <ele>250</ele>
        <time>2014-03-14T13:26:41.000Z</time>
      </trkpt>
      <trkpt lat="47.56923" lon="5.92145">
        <ele>249.39999389648</ele>
        <time>2014-03-14T13:26:42.000Z</time>
      </trkpt>
      <trkpt lat="47.56918" lon="5.92144">
        <ele>249</ele>
        <time>2014-03-14T13:26:43.000Z</time>
      </trkpt>
      <trkpt lat="47.56913" lon="5.92143">
        <ele>248.60000610352</ele>
        <time>2014-03-14T13:26:44.000Z</time>
      </trkpt>
      <trkpt lat="47.56906" lon="5.9214">
        <ele>248.19999694824</ele>
        <time>2014-03-14T13:26:45.000Z</time>
      </trkpt>
      <trkpt lat="47.569" lon="5.92138">
        <ele>247.80000305176</ele>
        <time>2014-03-14T13:26:46.000Z</time>
      </trkpt>
      <trkpt lat="47.56895" lon="5.92138">
        <ele>247.39999389648</ele>
        <time>2014-03-14T13:26:47.000Z</time>
      </trkpt>
      <trkpt lat="47.5689" lon="5.92135">
        <ele>246.80000305176</ele>
        <time>2014-03-14T13:26:48.000Z</time>
      </trkpt>
      <trkpt lat="47.56884" lon="5.92134">
        <ele>246.39999389648</ele>
        <time>2014-03-14T13:26:49.000Z</time>
      </trkpt>
      <trkpt lat="47.5688" lon="5.92133">
        <ele>246</ele>
        <time>2014-03-14T13:26:50.000Z</time>
      </trkpt>
      <trkpt lat="47.56875" lon="5.92132">
        <ele>245.60000610352</ele>
        <time>2014-03-14T13:26:51.000Z</time>
      </trkpt>
      <trkpt lat="47.56872" lon="5.92131">
        <ele>244.60000610352</ele>
        <time>2014-03-14T13:26:52.000Z</time>
      </trkpt>
      <trkpt lat="47.56869" lon="5.92128">
        <ele>244.19999694824</ele>
        <time>2014-03-14T13:26:53.000Z</time>
      </trkpt>
      <trkpt lat="47.56867" lon="5.92121">
        <ele>244.19999694824</ele>
        <time>2014-03-14T13:26:55.000Z</time>
      </trkpt>
      <trkpt lat="47.56867" lon="5.92114">
        <ele>244.19999694824</ele>
        <time>2014-03-14T13:26:57.000Z</time>
      </trkpt>
      <trkpt lat="47.56869" lon="5.92101">
        <ele>244.19999694824</ele>
        <time>2014-03-14T13:27:01.000Z</time>
      </trkpt>
      <trkpt lat="47.56872" lon="5.92077">
        <ele>244.19999694824</ele>
        <time>2014-03-14T13:27:08.000Z</time>
      </trkpt>
      <trkpt lat="47.56877" lon="5.92054">
        <ele>244.19999694824</ele>
        <time>2014-03-14T13:27:15.000Z</time>
      </trkpt>
      <trkpt lat="47.56881" lon="5.92026">
        <ele>244.19999694824</ele>
        <time>2014-03-14T13:27:22.000Z</time>
      </trkpt>
      <trkpt lat="47.56887" lon="5.91996">
        <ele>244.19999694824</ele>
        <time>2014-03-14T13:27:29.000Z</time>
      </trkpt>
      <trkpt lat="47.56894" lon="5.91972">
        <ele>244.19999694824</ele>
        <time>2014-03-14T13:27:34.000Z</time>
      </trkpt>
      <trkpt lat="47.56897" lon="5.91953">
        <ele>243.80000305176</ele>
        <time>2014-03-14T13:27:37.000Z</time>
      </trkpt>
      <trkpt lat="47.56899" lon="5.91947">
        <ele>243.39999389648</ele>
        <time>2014-03-14T13:27:38.000Z</time>
      </trkpt>
      <trkpt lat="47.56901" lon="5.91941">
        <ele>243</ele>
        <time>2014-03-14T13:27:39.000Z</time>
      </trkpt>
      <trkpt lat="47.56902" lon="5.91935">
        <ele>242.39999389648</ele>
        <time>2014-03-14T13:27:40.000Z</time>
      </trkpt>
      <trkpt lat="47.56904" lon="5.91929">
        <ele>242</ele>
        <time>2014-03-14T13:27:41.000Z</time>
      </trkpt>
      <trkpt lat="47.56905" lon="5.91922">
        <ele>242</ele>
        <time>2014-03-14T13:27:42.000Z</time>
      </trkpt>
      <trkpt lat="47.56909" lon="5.91909">
        <ele>241.60000610352</ele>
        <time>2014-03-14T13:27:44.000Z</time>
      </trkpt>
      <trkpt lat="47.5691" lon="5.91902">
        <ele>241.19999694824</ele>
        <time>2014-03-14T13:27:45.000Z</time>
      </trkpt>
      <trkpt lat="47.56912" lon="5.91894">
        <ele>240.80000305176</ele>
        <time>2014-03-14T13:27:46.000Z</time>
      </trkpt>
      <trkpt lat="47.56913" lon="5.91886">
        <ele>240.39999389648</ele>
        <time>2014-03-14T13:27:47.000Z</time>
      </trkpt>
      <trkpt lat="47.56914" lon="5.91878">
        <ele>239.80000305176</ele>
        <time>2014-03-14T13:27:48.000Z</time>
      </trkpt>
      <trkpt lat="47.56917" lon="5.91853">
        <ele>239.39999389648</ele>
        <time>2014-03-14T13:27:51.000Z</time>
      </trkpt>
      <trkpt lat="47.56918" lon="5.91845">
        <ele>239</ele>
        <time>2014-03-14T13:27:52.000Z</time>
      </trkpt>
      <trkpt lat="47.56919" lon="5.91836">
        <ele>238.60000610352</ele>
        <time>2014-03-14T13:27:53.000Z</time>
      </trkpt>
      <trkpt lat="47.5692" lon="5.91827">
        <ele>238.19999694824</ele>
        <time>2014-03-14T13:27:54.000Z</time>
      </trkpt>
      <trkpt lat="47.56921" lon="5.91818">
        <ele>237.80000305176</ele>
        <time>2014-03-14T13:27:55.000Z</time>
      </trkpt>
      <trkpt lat="47.56923" lon="5.91809">
        <ele>237.80000305176</ele>
        <time>2014-03-14T13:27:56.000Z</time>
      </trkpt>
      <trkpt lat="47.56926" lon="5.918">
        <ele>237.80000305176</ele>
        <time>2014-03-14T13:27:57.000Z</time>
      </trkpt>
      <trkpt lat="47.56929" lon="5.91792">
        <ele>237.39999389648</ele>
        <time>2014-03-14T13:27:58.000Z</time>
      </trkpt>
      <trkpt lat="47.56932" lon="5.91784">
        <ele>236.80000305176</ele>
        <time>2014-03-14T13:27:59.000Z</time>
      </trkpt>
      <trkpt lat="47.56935" lon="5.91776">
        <ele>236.39999389648</ele>
        <time>2014-03-14T13:28:00.000Z</time>
      </trkpt>
      <trkpt lat="47.56939" lon="5.91768">
        <ele>235.80000305176</ele>
        <time>2014-03-14T13:28:01.000Z</time>
      </trkpt>
      <trkpt lat="47.56942" lon="5.91761">
        <ele>235.39999389648</ele>
        <time>2014-03-14T13:28:02.000Z</time>
      </trkpt>
      <trkpt lat="47.56944" lon="5.91754">
        <ele>235.39999389648</ele>
        <time>2014-03-14T13:28:03.000Z</time>
      </trkpt>
      <trkpt lat="47.56949" lon="5.91741">
        <ele>235.39999389648</ele>
        <time>2014-03-14T13:28:05.000Z</time>
      </trkpt>
      <trkpt lat="47.56953" lon="5.91731">
        <ele>235.39999389648</ele>
        <time>2014-03-14T13:28:07.000Z</time>
      </trkpt>
      <trkpt lat="47.56965" lon="5.91703">
        <ele>235.39999389648</ele>
        <time>2014-03-14T13:28:13.000Z</time>
      </trkpt>
      <trkpt lat="47.56979" lon="5.91673">
        <ele>235.39999389648</ele>
        <time>2014-03-14T13:28:19.000Z</time>
      </trkpt>
      <trkpt lat="47.56993" lon="5.91638">
        <ele>235.39999389648</ele>
        <time>2014-03-14T13:28:26.000Z</time>
      </trkpt>
      <trkpt lat="47.57003" lon="5.9161">
        <ele>235.39999389648</ele>
        <time>2014-03-14T13:28:32.000Z</time>
      </trkpt>
      <trkpt lat="47.57015" lon="5.91578">
        <ele>235.39999389648</ele>
        <time>2014-03-14T13:28:39.000Z</time>
      </trkpt>
      <trkpt lat="47.57021" lon="5.91554">
        <ele>235.39999389648</ele>
        <time>2014-03-14T13:28:44.000Z</time>
      </trkpt>
      <trkpt lat="47.57029" lon="5.91532">
        <ele>235.39999389648</ele>
        <time>2014-03-14T13:28:48.000Z</time>
      </trkpt>
      <trkpt lat="47.57033" lon="5.91518">
        <ele>234.80000305176</ele>
        <time>2014-03-14T13:28:50.000Z</time>
      </trkpt>
      <trkpt lat="47.57035" lon="5.91511">
        <ele>234.39999389648</ele>
        <time>2014-03-14T13:28:51.000Z</time>
      </trkpt>
      <trkpt lat="47.57038" lon="5.91505">
        <ele>234</ele>
        <time>2014-03-14T13:28:52.000Z</time>
      </trkpt>
      <trkpt lat="47.5704" lon="5.91498">
        <ele>233.60000610352</ele>
        <time>2014-03-14T13:28:53.000Z</time>
      </trkpt>
      <trkpt lat="47.57043" lon="5.91492">
        <ele>233.19999694824</ele>
        <time>2014-03-14T13:28:54.000Z</time>
      </trkpt>
      <trkpt lat="47.57048" lon="5.91482">
        <ele>233.19999694824</ele>
        <time>2014-03-14T13:28:56.000Z</time>
      </trkpt>
      <trkpt lat="47.57069" lon="5.91441">
        <ele>233.19999694824</ele>
        <time>2014-03-14T13:29:04.000Z</time>
      </trkpt>
      <trkpt lat="47.57084" lon="5.91411">
        <ele>233.19999694824</ele>
        <time>2014-03-14T13:29:11.000Z</time>
      </trkpt>
      <trkpt lat="47.5709" lon="5.91398">
        <ele>233.60000610352</ele>
        <time>2014-03-14T13:29:14.000Z</time>
      </trkpt>
      <trkpt lat="47.57091" lon="5.91394">
        <ele>234</ele>
        <time>2014-03-14T13:29:15.000Z</time>
      </trkpt>
      <trkpt lat="47.57093" lon="5.9139">
        <ele>234.39999389648</ele>
        <time>2014-03-14T13:29:16.000Z</time>
      </trkpt>
      <trkpt lat="47.57095" lon="5.91386">
        <ele>234.80000305176</ele>
        <time>2014-03-14T13:29:17.000Z</time>
      </trkpt>
      <trkpt lat="47.57098" lon="5.91382">
        <ele>235.19999694824</ele>
        <time>2014-03-14T13:29:18.000Z</time>
      </trkpt>
      <trkpt lat="47.571" lon="5.91378">
        <ele>235.19999694824</ele>
        <time>2014-03-14T13:29:19.000Z</time>
      </trkpt>
      <trkpt lat="47.57116" lon="5.9135">
        <ele>235.19999694824</ele>
        <time>2014-03-14T13:29:26.000Z</time>
      </trkpt>
      <trkpt lat="47.57136" lon="5.91328">
        <ele>235.19999694824</ele>
        <time>2014-03-14T13:29:32.000Z</time>
      </trkpt>
      <trkpt lat="47.57172" lon="5.91291">
        <ele>235.19999694824</ele>
        <time>2014-03-14T13:29:41.000Z</time>
      </trkpt>
      <trkpt lat="47.5718" lon="5.91282">
        <ele>234.80000305176</ele>
        <time>2014-03-14T13:29:43.000Z</time>
      </trkpt>
      <trkpt lat="47.57184" lon="5.91276">
        <ele>234.19999694824</ele>
        <time>2014-03-14T13:29:44.000Z</time>
      </trkpt>
      <trkpt lat="47.57187" lon="5.9127">
        <ele>233.39999389648</ele>
        <time>2014-03-14T13:29:45.000Z</time>
      </trkpt>
      <trkpt lat="47.57191" lon="5.91262">
        <ele>233</ele>
        <time>2014-03-14T13:29:46.000Z</time>
      </trkpt>
      <trkpt lat="47.57197" lon="5.91248">
        <ele>232.39999389648</ele>
        <time>2014-03-14T13:29:48.000Z</time>
      </trkpt>
      <trkpt lat="47.57199" lon="5.9124">
        <ele>232</ele>
        <time>2014-03-14T13:29:49.000Z</time>
      </trkpt>
      <trkpt lat="47.57201" lon="5.91232">
        <ele>231.60000610352</ele>
        <time>2014-03-14T13:29:50.000Z</time>
      </trkpt>
      <trkpt lat="47.57203" lon="5.91224">
        <ele>231.19999694824</ele>
        <time>2014-03-14T13:29:51.000Z</time>
      </trkpt>
      <trkpt lat="47.57205" lon="5.91217">
        <ele>230.80000305176</ele>
        <time>2014-03-14T13:29:52.000Z</time>
      </trkpt>
      <trkpt lat="47.57211" lon="5.91196">
        <ele>230.80000305176</ele>
        <time>2014-03-14T13:29:55.000Z</time>
      </trkpt>
      <trkpt lat="47.57212" lon="5.9119">
        <ele>230.80000305176</ele>
        <time>2014-03-14T13:29:56.000Z</time>
      </trkpt>
      <trkpt lat="47.57216" lon="5.91171">
        <ele>230.80000305176</ele>
        <time>2014-03-14T13:29:59.000Z</time>
      </trkpt>
      <trkpt lat="47.57218" lon="5.91166">
        <ele>230.80000305176</ele>
        <time>2014-03-14T13:30:00.000Z</time>
      </trkpt>
      <trkpt lat="47.57232" lon="5.91123">
        <ele>230.80000305176</ele>
        <time>2014-03-14T13:30:07.000Z</time>
      </trkpt>
      <trkpt lat="47.57242" lon="5.91079">
        <ele>230.80000305176</ele>
        <time>2014-03-14T13:30:14.000Z</time>
      </trkpt>
      <trkpt lat="47.57247" lon="5.91045">
        <ele>230.80000305176</ele>
        <time>2014-03-14T13:30:19.000Z</time>
      </trkpt>
      <trkpt lat="47.57248" lon="5.91038">
        <ele>230.80000305176</ele>
        <time>2014-03-14T13:30:20.000Z</time>
      </trkpt>
      <trkpt lat="47.57255" lon="5.9099">
        <ele>230.80000305176</ele>
        <time>2014-03-14T13:30:28.000Z</time>
      </trkpt>
      <trkpt lat="47.57253" lon="5.9097">
        <ele>230.80000305176</ele>
        <time>2014-03-14T13:30:31.000Z</time>
      </trkpt>
      <trkpt lat="47.57252" lon="5.90963">
        <ele>230.80000305176</ele>
        <time>2014-03-14T13:30:32.000Z</time>
      </trkpt>
      <trkpt lat="47.57251" lon="5.9095">
        <ele>230.39999389648</ele>
        <time>2014-03-14T13:30:34.000Z</time>
      </trkpt>
      <trkpt lat="47.57249" lon="5.90943">
        <ele>230</ele>
        <time>2014-03-14T13:30:35.000Z</time>
      </trkpt>
      <trkpt lat="47.57248" lon="5.90935">
        <ele>229.60000610352</ele>
        <time>2014-03-14T13:30:36.000Z</time>
      </trkpt>
      <trkpt lat="47.57246" lon="5.90926">
        <ele>229.19999694824</ele>
        <time>2014-03-14T13:30:37.000Z</time>
      </trkpt>
      <trkpt lat="47.57245" lon="5.90917">
        <ele>228.60000610352</ele>
        <time>2014-03-14T13:30:38.000Z</time>
      </trkpt>
      <trkpt lat="47.57243" lon="5.90908">
        <ele>228</ele>
        <time>2014-03-14T13:30:39.000Z</time>
      </trkpt>
      <trkpt lat="47.57242" lon="5.909">
        <ele>227.60000610352</ele>
        <time>2014-03-14T13:30:40.000Z</time>
      </trkpt>
      <trkpt lat="47.5724" lon="5.90891">
        <ele>227</ele>
        <time>2014-03-14T13:30:41.000Z</time>
      </trkpt>
      <trkpt lat="47.57239" lon="5.90883">
        <ele>226.39999389648</ele>
        <time>2014-03-14T13:30:42.000Z</time>
      </trkpt>
      <trkpt lat="47.57237" lon="5.90874">
        <ele>226</ele>
        <time>2014-03-14T13:30:43.000Z</time>
      </trkpt>
      <trkpt lat="47.57236" lon="5.90865">
        <ele>225.60000610352</ele>
        <time>2014-03-14T13:30:44.000Z</time>
      </trkpt>
      <trkpt lat="47.57235" lon="5.90856">
        <ele>225.19999694824</ele>
        <time>2014-03-14T13:30:45.000Z</time>
      </trkpt>
      <trkpt lat="47.57233" lon="5.90848">
        <ele>224.80000305176</ele>
        <time>2014-03-14T13:30:46.000Z</time>
      </trkpt>
      <trkpt lat="47.57231" lon="5.9084">
        <ele>224.39999389648</ele>
        <time>2014-03-14T13:30:47.000Z</time>
      </trkpt>
      <trkpt lat="47.57229" lon="5.90832">
        <ele>224.39999389648</ele>
        <time>2014-03-14T13:30:48.000Z</time>
      </trkpt>
      <trkpt lat="47.57225" lon="5.90827">
        <ele>224.39999389648</ele>
        <time>2014-03-14T13:30:49.000Z</time>
      </trkpt>
      <trkpt lat="47.5721" lon="5.9082">
        <ele>224.39999389648</ele>
        <time>2014-03-14T13:30:52.000Z</time>
      </trkpt>
      <trkpt lat="47.57199" lon="5.90811">
        <ele>224.39999389648</ele>
        <time>2014-03-14T13:30:55.000Z</time>
      </trkpt>
      <trkpt lat="47.57188" lon="5.90803">
        <ele>224.39999389648</ele>
        <time>2014-03-14T13:30:58.000Z</time>
      </trkpt>
      <trkpt lat="47.57168" lon="5.90788">
        <ele>224.39999389648</ele>
        <time>2014-03-14T13:31:04.000Z</time>
      </trkpt>
      <trkpt lat="47.57143" lon="5.90771">
        <ele>224.39999389648</ele>
        <time>2014-03-14T13:31:11.000Z</time>
      </trkpt>
      <trkpt lat="47.57119" lon="5.90754">
        <ele>224.39999389648</ele>
        <time>2014-03-14T13:31:18.000Z</time>
      </trkpt>
      <trkpt lat="47.57093" lon="5.90737">
        <ele>224.39999389648</ele>
        <time>2014-03-14T13:31:26.000Z</time>
      </trkpt>
      <trkpt lat="47.57087" lon="5.90733">
        <ele>224.80000305176</ele>
        <time>2014-03-14T13:31:28.000Z</time>
      </trkpt>
      <trkpt lat="47.57084" lon="5.9073">
        <ele>225.19999694824</ele>
        <time>2014-03-14T13:31:29.000Z</time>
      </trkpt>
      <trkpt lat="47.57082" lon="5.90729">
        <ele>225.60000610352</ele>
        <time>2014-03-14T13:31:30.000Z</time>
      </trkpt>
      <trkpt lat="47.57079" lon="5.90727">
        <ele>226</ele>
        <time>2014-03-14T13:31:31.000Z</time>
      </trkpt>
      <trkpt lat="47.57076" lon="5.90724">
        <ele>226.39999389648</ele>
        <time>2014-03-14T13:31:32.000Z</time>
      </trkpt>
      <trkpt lat="47.57073" lon="5.90721">
        <ele>226.39999389648</ele>
        <time>2014-03-14T13:31:33.000Z</time>
      </trkpt>
      <trkpt lat="47.5705" lon="5.90707">
        <ele>226.39999389648</ele>
        <time>2014-03-14T13:31:41.000Z</time>
      </trkpt>
      <trkpt lat="47.57042" lon="5.90702">
        <ele>226.80000305176</ele>
        <time>2014-03-14T13:31:44.000Z</time>
      </trkpt>
      <trkpt lat="47.57039" lon="5.907">
        <ele>227.19999694824</ele>
        <time>2014-03-14T13:31:45.000Z</time>
      </trkpt>
      <trkpt lat="47.57037" lon="5.90698">
        <ele>227.60000610352</ele>
        <time>2014-03-14T13:31:46.000Z</time>
      </trkpt>
      <trkpt lat="47.57035" lon="5.90697">
        <ele>228</ele>
        <time>2014-03-14T13:31:47.000Z</time>
      </trkpt>
      <trkpt lat="47.57032" lon="5.90695">
        <ele>228.39999389648</ele>
        <time>2014-03-14T13:31:48.000Z</time>
      </trkpt>
      <trkpt lat="47.57022" lon="5.90691">
        <ele>228.39999389648</ele>
        <time>2014-03-14T13:31:53.000Z</time>
      </trkpt>
      <trkpt lat="47.57018" lon="5.9069">
        <ele>229</ele>
        <time>2014-03-14T13:31:55.000Z</time>
      </trkpt>
      <trkpt lat="47.57015" lon="5.90689">
        <ele>229.39999389648</ele>
        <time>2014-03-14T13:31:56.000Z</time>
      </trkpt>
      <trkpt lat="47.57012" lon="5.90689">
        <ele>229.80000305176</ele>
        <time>2014-03-14T13:31:57.000Z</time>
      </trkpt>
      <trkpt lat="47.5701" lon="5.90688">
        <ele>230.19999694824</ele>
        <time>2014-03-14T13:31:58.000Z</time>
      </trkpt>
      <trkpt lat="47.57007" lon="5.90687">
        <ele>230.60000610352</ele>
        <time>2014-03-14T13:31:59.000Z</time>
      </trkpt>
      <trkpt lat="47.56991" lon="5.90675">
        <ele>230.60000610352</ele>
        <time>2014-03-14T13:32:05.000Z</time>
      </trkpt>
      <trkpt lat="47.56988" lon="5.90649">
        <ele>230.60000610352</ele>
        <time>2014-03-14T13:32:11.000Z</time>
      </trkpt>
      <trkpt lat="47.56987" lon="5.90616">
        <ele>230.60000610352</ele>
        <time>2014-03-14T13:32:16.000Z</time>
      </trkpt>
      <trkpt lat="47.56988" lon="5.906">
        <ele>230.60000610352</ele>
        <time>2014-03-14T13:32:18.000Z</time>
      </trkpt>
      <trkpt lat="47.56988" lon="5.90592">
        <ele>230.19999694824</ele>
        <time>2014-03-14T13:32:19.000Z</time>
      </trkpt>
      <trkpt lat="47.56989" lon="5.90583">
        <ele>229.80000305176</ele>
        <time>2014-03-14T13:32:20.000Z</time>
      </trkpt>
      <trkpt lat="47.56989" lon="5.90575">
        <ele>229.39999389648</ele>
        <time>2014-03-14T13:32:21.000Z</time>
      </trkpt>
      <trkpt lat="47.56989" lon="5.90566">
        <ele>228.80000305176</ele>
        <time>2014-03-14T13:32:22.000Z</time>
      </trkpt>
      <trkpt lat="47.5699" lon="5.90558">
        <ele>228.39999389648</ele>
        <time>2014-03-14T13:32:23.000Z</time>
      </trkpt>
      <trkpt lat="47.56994" lon="5.90518">
        <ele>228.39999389648</ele>
        <time>2014-03-14T13:32:28.000Z</time>
      </trkpt>
      <trkpt lat="47.57" lon="5.90477">
        <ele>228.39999389648</ele>
        <time>2014-03-14T13:32:36.000Z</time>
      </trkpt>
      <trkpt lat="47.57003" lon="5.90462">
        <ele>228.80000305176</ele>
        <time>2014-03-14T13:32:40.000Z</time>
      </trkpt>
      <trkpt lat="47.57003" lon="5.90459">
        <ele>229.19999694824</ele>
        <time>2014-03-14T13:32:41.000Z</time>
      </trkpt>
      <trkpt lat="47.57003" lon="5.90455">
        <ele>229.80000305176</ele>
        <time>2014-03-14T13:32:42.000Z</time>
      </trkpt>
      <trkpt lat="47.57004" lon="5.90452">
        <ele>230.19999694824</ele>
        <time>2014-03-14T13:32:43.000Z</time>
      </trkpt>
      <trkpt lat="47.57004" lon="5.90449">
        <ele>230.60000610352</ele>
        <time>2014-03-14T13:32:44.000Z</time>
      </trkpt>
      <trkpt lat="47.57005" lon="5.90441">
        <ele>230.60000610352</ele>
        <time>2014-03-14T13:32:47.000Z</time>
      </trkpt>
      <trkpt lat="47.57005" lon="5.90439">
        <ele>231</ele>
        <time>2014-03-14T13:32:48.000Z</time>
      </trkpt>
      <trkpt lat="47.57006" lon="5.90436">
        <ele>231.39999389648</ele>
        <time>2014-03-14T13:32:49.000Z</time>
      </trkpt>
      <trkpt lat="47.57006" lon="5.90433">
        <ele>232</ele>
        <time>2014-03-14T13:32:50.000Z</time>
      </trkpt>
      <trkpt lat="47.57006" lon="5.9043">
        <ele>232.39999389648</ele>
        <time>2014-03-14T13:32:51.000Z</time>
      </trkpt>
      <trkpt lat="47.57006" lon="5.90428">
        <ele>232.80000305176</ele>
        <time>2014-03-14T13:32:52.000Z</time>
      </trkpt>
      <trkpt lat="47.57007" lon="5.90423">
        <ele>232.80000305176</ele>
        <time>2014-03-14T13:32:54.000Z</time>
      </trkpt>
      <trkpt lat="47.57008" lon="5.90418">
        <ele>232.80000305176</ele>
        <time>2014-03-14T13:32:56.000Z</time>
      </trkpt>
      <trkpt lat="47.57008" lon="5.90407">
        <ele>233.19999694824</ele>
        <time>2014-03-14T13:33:00.000Z</time>
      </trkpt>
      <trkpt lat="47.57008" lon="5.90404">
        <ele>233.60000610352</ele>
        <time>2014-03-14T13:33:01.000Z</time>
      </trkpt>
      <trkpt lat="47.57009" lon="5.904">
        <ele>234.80000305176</ele>
        <time>2014-03-14T13:33:02.000Z</time>
      </trkpt>
      <trkpt lat="47.57008" lon="5.90398">
        <ele>234.80000305176</ele>
        <time>2014-03-14T13:33:04.000Z</time>
      </trkpt>
      <trkpt lat="47.57009" lon="5.90394">
        <ele>234.80000305176</ele>
        <time>2014-03-14T13:33:06.000Z</time>
      </trkpt>
      <trkpt lat="47.57009" lon="5.90374">
        <ele>235.39999389648</ele>
        <time>2014-03-14T13:33:14.000Z</time>
      </trkpt>
      <trkpt lat="47.57009" lon="5.90371">
        <ele>235.80000305176</ele>
        <time>2014-03-14T13:33:15.000Z</time>
      </trkpt>
      <trkpt lat="47.57009" lon="5.90369">
        <ele>236.19999694824</ele>
        <time>2014-03-14T13:33:16.000Z</time>
      </trkpt>
      <trkpt lat="47.57009" lon="5.90366">
        <ele>236.60000610352</ele>
        <time>2014-03-14T13:33:17.000Z</time>
      </trkpt>
      <trkpt lat="47.57008" lon="5.90364">
        <ele>237</ele>
        <time>2014-03-14T13:33:18.000Z</time>
      </trkpt>
      <trkpt lat="47.57008" lon="5.90355">
        <ele>237</ele>
        <time>2014-03-14T13:33:21.000Z</time>
      </trkpt>
      <trkpt lat="47.57006" lon="5.90333">
        <ele>237</ele>
        <time>2014-03-14T13:33:29.000Z</time>
      </trkpt>
      <trkpt lat="47.57004" lon="5.90308">
        <ele>237</ele>
        <time>2014-03-14T13:33:37.000Z</time>
      </trkpt>
      <trkpt lat="47.57001" lon="5.90276">
        <ele>237</ele>
        <time>2014-03-14T13:33:44.000Z</time>
      </trkpt>
      <trkpt lat="47.56998" lon="5.9025">
        <ele>237</ele>
        <time>2014-03-14T13:33:49.000Z</time>
      </trkpt>
      <trkpt lat="47.56992" lon="5.90211">
        <ele>237</ele>
        <time>2014-03-14T13:33:56.000Z</time>
      </trkpt>
      <trkpt lat="47.56992" lon="5.90205">
        <ele>237</ele>
        <time>2014-03-14T13:33:57.000Z</time>
      </trkpt>
      <trkpt lat="47.56983" lon="5.90156">
        <ele>237</ele>
        <time>2014-03-14T13:34:05.000Z</time>
      </trkpt>
      <trkpt lat="47.56972" lon="5.90097">
        <ele>237</ele>
        <time>2014-03-14T13:34:14.000Z</time>
      </trkpt>
      <trkpt lat="47.56968" lon="5.90076">
        <ele>237</ele>
        <time>2014-03-14T13:34:17.000Z</time>
      </trkpt>
      <trkpt lat="47.56963" lon="5.90056">
        <ele>237</ele>
        <time>2014-03-14T13:34:20.000Z</time>
      </trkpt>
      <trkpt lat="47.56948" lon="5.89998">
        <ele>237</ele>
        <time>2014-03-14T13:34:28.000Z</time>
      </trkpt>
      <trkpt lat="47.56934" lon="5.89949">
        <ele>237</ele>
        <time>2014-03-14T13:34:35.000Z</time>
      </trkpt>
      <trkpt lat="47.56926" lon="5.89918">
        <ele>236.60000610352</ele>
        <time>2014-03-14T13:34:39.000Z</time>
      </trkpt>
      <trkpt lat="47.56924" lon="5.8991">
        <ele>236.19999694824</ele>
        <time>2014-03-14T13:34:40.000Z</time>
      </trkpt>
      <trkpt lat="47.56921" lon="5.89903">
        <ele>235.80000305176</ele>
        <time>2014-03-14T13:34:41.000Z</time>
      </trkpt>
      <trkpt lat="47.56919" lon="5.89895">
        <ele>235</ele>
        <time>2014-03-14T13:34:42.000Z</time>
      </trkpt>
      <trkpt lat="47.56902" lon="5.89831">
        <ele>235</ele>
        <time>2014-03-14T13:34:50.000Z</time>
      </trkpt>
      <trkpt lat="47.56885" lon="5.89775">
        <ele>235</ele>
        <time>2014-03-14T13:34:58.000Z</time>
      </trkpt>
      <trkpt lat="47.56877" lon="5.89746">
        <ele>235</ele>
        <time>2014-03-14T13:35:02.000Z</time>
      </trkpt>
      <trkpt lat="47.56873" lon="5.89733">
        <ele>235</ele>
        <time>2014-03-14T13:35:04.000Z</time>
      </trkpt>
      <trkpt lat="47.56862" lon="5.89699">
        <ele>235</ele>
        <time>2014-03-14T13:35:09.000Z</time>
      </trkpt>
      <trkpt lat="47.56859" lon="5.89685">
        <ele>235</ele>
        <time>2014-03-14T13:35:11.000Z</time>
      </trkpt>
      <trkpt lat="47.56844" lon="5.89631">
        <ele>235</ele>
        <time>2014-03-14T13:35:19.000Z</time>
      </trkpt>
      <trkpt lat="47.5684" lon="5.89619">
        <ele>234.39999389648</ele>
        <time>2014-03-14T13:35:21.000Z</time>
      </trkpt>
      <trkpt lat="47.56839" lon="5.89612">
        <ele>234</ele>
        <time>2014-03-14T13:35:22.000Z</time>
      </trkpt>
      <trkpt lat="47.56837" lon="5.89605">
        <ele>233.60000610352</ele>
        <time>2014-03-14T13:35:23.000Z</time>
      </trkpt>
      <trkpt lat="47.56835" lon="5.89598">
        <ele>233.19999694824</ele>
        <time>2014-03-14T13:35:24.000Z</time>
      </trkpt>
      <trkpt lat="47.56833" lon="5.89591">
        <ele>232.80000305176</ele>
        <time>2014-03-14T13:35:25.000Z</time>
      </trkpt>
      <trkpt lat="47.56827" lon="5.89571">
        <ele>232.80000305176</ele>
        <time>2014-03-14T13:35:28.000Z</time>
      </trkpt>
      <trkpt lat="47.56825" lon="5.89565">
        <ele>232.80000305176</ele>
        <time>2014-03-14T13:35:29.000Z</time>
      </trkpt>
      <trkpt lat="47.5681" lon="5.89511">
        <ele>232.80000305176</ele>
        <time>2014-03-14T13:35:37.000Z</time>
      </trkpt>
      <trkpt lat="47.56795" lon="5.8946">
        <ele>232.80000305176</ele>
        <time>2014-03-14T13:35:45.000Z</time>
      </trkpt>
      <trkpt lat="47.56784" lon="5.89423">
        <ele>232.80000305176</ele>
        <time>2014-03-14T13:35:51.000Z</time>
      </trkpt>
      <trkpt lat="47.56772" lon="5.89403">
        <ele>232.80000305176</ele>
        <time>2014-03-14T13:35:56.000Z</time>
      </trkpt>
      <trkpt lat="47.56769" lon="5.89402">
        <ele>232.80000305176</ele>
        <time>2014-03-14T13:35:57.000Z</time>
      </trkpt>
      <trkpt lat="47.56762" lon="5.89404">
        <ele>232.80000305176</ele>
        <time>2014-03-14T13:35:59.000Z</time>
      </trkpt>
      <trkpt lat="47.56755" lon="5.89409">
        <ele>232.80000305176</ele>
        <time>2014-03-14T13:36:01.000Z</time>
      </trkpt>
      <trkpt lat="47.56739" lon="5.89423">
        <ele>232.80000305176</ele>
        <time>2014-03-14T13:36:06.000Z</time>
      </trkpt>
      <trkpt lat="47.56719" lon="5.89438">
        <ele>233.19999694824</ele>
        <time>2014-03-14T13:36:12.000Z</time>
      </trkpt>
      <trkpt lat="47.56716" lon="5.89441">
        <ele>233.60000610352</ele>
        <time>2014-03-14T13:36:13.000Z</time>
      </trkpt>
      <trkpt lat="47.56713" lon="5.89444">
        <ele>234</ele>
        <time>2014-03-14T13:36:14.000Z</time>
      </trkpt>
      <trkpt lat="47.5671" lon="5.89446">
        <ele>234.60000610352</ele>
        <time>2014-03-14T13:36:15.000Z</time>
      </trkpt>
      <trkpt lat="47.56707" lon="5.89449">
        <ele>235</ele>
        <time>2014-03-14T13:36:16.000Z</time>
      </trkpt>
      <trkpt lat="47.56686" lon="5.89466">
        <ele>235</ele>
        <time>2014-03-14T13:36:23.000Z</time>
      </trkpt>
      <trkpt lat="47.56669" lon="5.8948">
        <ele>235.39999389648</ele>
        <time>2014-03-14T13:36:29.000Z</time>
      </trkpt>
      <trkpt lat="47.56666" lon="5.89482">
        <ele>235.80000305176</ele>
        <time>2014-03-14T13:36:30.000Z</time>
      </trkpt>
      <trkpt lat="47.56664" lon="5.89484">
        <ele>236.19999694824</ele>
        <time>2014-03-14T13:36:31.000Z</time>
      </trkpt>
      <trkpt lat="47.56661" lon="5.89487">
        <ele>236.60000610352</ele>
        <time>2014-03-14T13:36:32.000Z</time>
      </trkpt>
      <trkpt lat="47.56658" lon="5.89489">
        <ele>237</ele>
        <time>2014-03-14T13:36:33.000Z</time>
      </trkpt>
      <trkpt lat="47.56643" lon="5.89503">
        <ele>237</ele>
        <time>2014-03-14T13:36:39.000Z</time>
      </trkpt>
      <trkpt lat="47.56636" lon="5.89509">
        <ele>237.39999389648</ele>
        <time>2014-03-14T13:36:42.000Z</time>
      </trkpt>
      <trkpt lat="47.56634" lon="5.89511">
        <ele>237.80000305176</ele>
        <time>2014-03-14T13:36:43.000Z</time>
      </trkpt>
      <trkpt lat="47.56632" lon="5.89513">
        <ele>238.19999694824</ele>
        <time>2014-03-14T13:36:44.000Z</time>
      </trkpt>
      <trkpt lat="47.5663" lon="5.89515">
        <ele>239</ele>
        <time>2014-03-14T13:36:45.000Z</time>
      </trkpt>
      <trkpt lat="47.56628" lon="5.89517">
        <ele>239</ele>
        <time>2014-03-14T13:36:46.000Z</time>
      </trkpt>
      <trkpt lat="47.56613" lon="5.89531">
        <ele>239.39999389648</ele>
        <time>2014-03-14T13:36:53.000Z</time>
      </trkpt>
      <trkpt lat="47.56611" lon="5.89533">
        <ele>239.80000305176</ele>
        <time>2014-03-14T13:36:54.000Z</time>
      </trkpt>
      <trkpt lat="47.5661" lon="5.89535">
        <ele>240.19999694824</ele>
        <time>2014-03-14T13:36:55.000Z</time>
      </trkpt>
      <trkpt lat="47.56608" lon="5.89537">
        <ele>240.60000610352</ele>
        <time>2014-03-14T13:36:56.000Z</time>
      </trkpt>
      <trkpt lat="47.56606" lon="5.89539">
        <ele>241</ele>
        <time>2014-03-14T13:36:57.000Z</time>
      </trkpt>
      <trkpt lat="47.56592" lon="5.89557">
        <ele>241.39999389648</ele>
        <time>2014-03-14T13:37:05.000Z</time>
      </trkpt>
      <trkpt lat="47.5659" lon="5.89559">
        <ele>241.80000305176</ele>
        <time>2014-03-14T13:37:06.000Z</time>
      </trkpt>
      <trkpt lat="47.56589" lon="5.89562">
        <ele>242.19999694824</ele>
        <time>2014-03-14T13:37:07.000Z</time>
      </trkpt>
      <trkpt lat="47.56587" lon="5.89564">
        <ele>242.80000305176</ele>
        <time>2014-03-14T13:37:08.000Z</time>
      </trkpt>
      <trkpt lat="47.56586" lon="5.89567">
        <ele>243.19999694824</ele>
        <time>2014-03-14T13:37:09.000Z</time>
      </trkpt>
      <trkpt lat="47.56577" lon="5.89578">
        <ele>243.19999694824</ele>
        <time>2014-03-14T13:37:14.000Z</time>
      </trkpt>
      <trkpt lat="47.56566" lon="5.89597">
        <ele>243.60000610352</ele>
        <time>2014-03-14T13:37:22.000Z</time>
      </trkpt>
      <trkpt lat="47.56564" lon="5.89599">
        <ele>244</ele>
        <time>2014-03-14T13:37:23.000Z</time>
      </trkpt>
      <trkpt lat="47.56563" lon="5.89601">
        <ele>244.39999389648</ele>
        <time>2014-03-14T13:37:24.000Z</time>
      </trkpt>
      <trkpt lat="47.56562" lon="5.89604">
        <ele>244.80000305176</ele>
        <time>2014-03-14T13:37:25.000Z</time>
      </trkpt>
      <trkpt lat="47.5656" lon="5.89606">
        <ele>245.19999694824</ele>
        <time>2014-03-14T13:37:26.000Z</time>
      </trkpt>
      <trkpt lat="47.5655" lon="5.89622">
        <ele>245.19999694824</ele>
        <time>2014-03-14T13:37:33.000Z</time>
      </trkpt>
      <trkpt lat="47.56543" lon="5.89633">
        <ele>245.60000610352</ele>
        <time>2014-03-14T13:37:38.000Z</time>
      </trkpt>
      <trkpt lat="47.56542" lon="5.89635">
        <ele>246</ele>
        <time>2014-03-14T13:37:39.000Z</time>
      </trkpt>
      <trkpt lat="47.5654" lon="5.89638">
        <ele>246.39999389648</ele>
        <time>2014-03-14T13:37:40.000Z</time>
      </trkpt>
      <trkpt lat="47.56539" lon="5.8964">
        <ele>246.80000305176</ele>
        <time>2014-03-14T13:37:41.000Z</time>
      </trkpt>
      <trkpt lat="47.56538" lon="5.89643">
        <ele>247.19999694824</ele>
        <time>2014-03-14T13:37:42.000Z</time>
      </trkpt>
      <trkpt lat="47.56527" lon="5.89659">
        <ele>247.19999694824</ele>
        <time>2014-03-14T13:37:50.000Z</time>
      </trkpt>
      <trkpt lat="47.56515" lon="5.89678">
        <ele>247.80000305176</ele>
        <time>2014-03-14T13:37:59.000Z</time>
      </trkpt>
      <trkpt lat="47.56514" lon="5.8968">
        <ele>248.60000610352</ele>
        <time>2014-03-14T13:38:00.000Z</time>
      </trkpt>
      <trkpt lat="47.56513" lon="5.89681">
        <ele>249</ele>
        <time>2014-03-14T13:38:01.000Z</time>
      </trkpt>
      <trkpt lat="47.56512" lon="5.89683">
        <ele>249.39999389648</ele>
        <time>2014-03-14T13:38:02.000Z</time>
      </trkpt>
      <trkpt lat="47.56501" lon="5.897">
        <ele>249.39999389648</ele>
        <time>2014-03-14T13:38:10.000Z</time>
      </trkpt>
      <trkpt lat="47.56489" lon="5.8972">
        <ele>249.39999389648</ele>
        <time>2014-03-14T13:38:19.000Z</time>
      </trkpt>
      <trkpt lat="47.56487" lon="5.89722">
        <ele>249.80000305176</ele>
        <time>2014-03-14T13:38:20.000Z</time>
      </trkpt>
      <trkpt lat="47.56486" lon="5.89725">
        <ele>250.19999694824</ele>
        <time>2014-03-14T13:38:21.000Z</time>
      </trkpt>
      <trkpt lat="47.56484" lon="5.89727">
        <ele>250.60000610352</ele>
        <time>2014-03-14T13:38:22.000Z</time>
      </trkpt>
      <trkpt lat="47.56482" lon="5.89729">
        <ele>251</ele>
        <time>2014-03-14T13:38:23.000Z</time>
      </trkpt>
      <trkpt lat="47.56481" lon="5.89731">
        <ele>251.39999389648</ele>
        <time>2014-03-14T13:38:24.000Z</time>
      </trkpt>
      <trkpt lat="47.56476" lon="5.89739">
        <ele>251.39999389648</ele>
        <time>2014-03-14T13:38:27.000Z</time>
      </trkpt>
      <trkpt lat="47.56459" lon="5.89764">
        <ele>251.39999389648</ele>
        <time>2014-03-14T13:38:38.000Z</time>
      </trkpt>
      <trkpt lat="47.56443" lon="5.89784">
        <ele>251.39999389648</ele>
        <time>2014-03-14T13:38:46.000Z</time>
      </trkpt>
      <trkpt lat="47.56433" lon="5.89793">
        <ele>251.80000305176</ele>
        <time>2014-03-14T13:38:50.000Z</time>
      </trkpt>
      <trkpt lat="47.5643" lon="5.89794">
        <ele>252.19999694824</ele>
        <time>2014-03-14T13:38:51.000Z</time>
      </trkpt>
      <trkpt lat="47.56428" lon="5.89797">
        <ele>252.60000610352</ele>
        <time>2014-03-14T13:38:52.000Z</time>
      </trkpt>
      <trkpt lat="47.56426" lon="5.89799">
        <ele>253</ele>
        <time>2014-03-14T13:38:53.000Z</time>
      </trkpt>
      <trkpt lat="47.56423" lon="5.89801">
        <ele>253.39999389648</ele>
        <time>2014-03-14T13:38:54.000Z</time>
      </trkpt>
      <trkpt lat="47.56397" lon="5.8982">
        <ele>253.39999389648</ele>
        <time>2014-03-14T13:39:03.000Z</time>
      </trkpt>
      <trkpt lat="47.56375" lon="5.89836">
        <ele>253.39999389648</ele>
        <time>2014-03-14T13:39:10.000Z</time>
      </trkpt>
      <trkpt lat="47.56349" lon="5.89856">
        <ele>253.39999389648</ele>
        <time>2014-03-14T13:39:19.000Z</time>
      </trkpt>
      <trkpt lat="47.56332" lon="5.8987">
        <ele>253.80000305176</ele>
        <time>2014-03-14T13:39:25.000Z</time>
      </trkpt>
      <trkpt lat="47.56329" lon="5.89873">
        <ele>254.19999694824</ele>
        <time>2014-03-14T13:39:26.000Z</time>
      </trkpt>
      <trkpt lat="47.56326" lon="5.89875">
        <ele>254.60000610352</ele>
        <time>2014-03-14T13:39:27.000Z</time>
      </trkpt>
      <trkpt lat="47.56322" lon="5.89878">
        <ele>255</ele>
        <time>2014-03-14T13:39:28.000Z</time>
      </trkpt>
      <trkpt lat="47.56319" lon="5.8988">
        <ele>255.60000610352</ele>
        <time>2014-03-14T13:39:29.000Z</time>
      </trkpt>
      <trkpt lat="47.56301" lon="5.89892">
        <ele>255.60000610352</ele>
        <time>2014-03-14T13:39:35.000Z</time>
      </trkpt>
      <trkpt lat="47.56276" lon="5.89911">
        <ele>255.60000610352</ele>
        <time>2014-03-14T13:39:43.000Z</time>
      </trkpt>
      <trkpt lat="47.56246" lon="5.89934">
        <ele>255.60000610352</ele>
        <time>2014-03-14T13:39:52.000Z</time>
      </trkpt>
      <trkpt lat="47.56229" lon="5.89948">
        <ele>255.60000610352</ele>
        <time>2014-03-14T13:39:58.000Z</time>
      </trkpt>
      <trkpt lat="47.56214" lon="5.89959">
        <ele>256</ele>
        <time>2014-03-14T13:40:03.000Z</time>
      </trkpt>
      <trkpt lat="47.56211" lon="5.8996">
        <ele>256.39999389648</ele>
        <time>2014-03-14T13:40:04.000Z</time>
      </trkpt>
      <trkpt lat="47.56208" lon="5.89962">
        <ele>256.79998779297</ele>
        <time>2014-03-14T13:40:05.000Z</time>
      </trkpt>
      <trkpt lat="47.56205" lon="5.89964">
        <ele>257.20001220703</ele>
        <time>2014-03-14T13:40:06.000Z</time>
      </trkpt>
      <trkpt lat="47.56202" lon="5.89965">
        <ele>257.60000610352</ele>
        <time>2014-03-14T13:40:07.000Z</time>
      </trkpt>
      <trkpt lat="47.56193" lon="5.8997">
        <ele>257.60000610352</ele>
        <time>2014-03-14T13:40:10.000Z</time>
      </trkpt>
      <trkpt lat="47.56171" lon="5.89982">
        <ele>257.60000610352</ele>
        <time>2014-03-14T13:40:17.000Z</time>
      </trkpt>
      <trkpt lat="47.56144" lon="5.89993">
        <ele>257.60000610352</ele>
        <time>2014-03-14T13:40:25.000Z</time>
      </trkpt>
      <trkpt lat="47.5611" lon="5.90006">
        <ele>257.60000610352</ele>
        <time>2014-03-14T13:40:35.000Z</time>
      </trkpt>
      <trkpt lat="47.56088" lon="5.90014">
        <ele>258</ele>
        <time>2014-03-14T13:40:41.000Z</time>
      </trkpt>
      <trkpt lat="47.56085" lon="5.90015">
        <ele>258.39999389648</ele>
        <time>2014-03-14T13:40:42.000Z</time>
      </trkpt>
      <trkpt lat="47.56081" lon="5.90017">
        <ele>258.79998779297</ele>
        <time>2014-03-14T13:40:43.000Z</time>
      </trkpt>
      <trkpt lat="47.56078" lon="5.90018">
        <ele>259.20001220703</ele>
        <time>2014-03-14T13:40:44.000Z</time>
      </trkpt>
      <trkpt lat="47.56074" lon="5.90019">
        <ele>259.60000610352</ele>
        <time>2014-03-14T13:40:45.000Z</time>
      </trkpt>
      <trkpt lat="47.56058" lon="5.90025">
        <ele>259.60000610352</ele>
        <time>2014-03-14T13:40:49.000Z</time>
      </trkpt>
      <trkpt lat="47.5605" lon="5.90027">
        <ele>259.60000610352</ele>
        <time>2014-03-14T13:40:51.000Z</time>
      </trkpt>
      <trkpt lat="47.56025" lon="5.90035">
        <ele>259.60000610352</ele>
        <time>2014-03-14T13:40:58.000Z</time>
      </trkpt>
      <trkpt lat="47.56023" lon="5.9005">
        <ele>259.60000610352</ele>
        <time>2014-03-14T13:41:01.000Z</time>
      </trkpt>
      <trkpt lat="47.56029" lon="5.90074">
        <ele>259.60000610352</ele>
        <time>2014-03-14T13:41:05.000Z</time>
      </trkpt>
      <trkpt lat="47.56031" lon="5.9008">
        <ele>259.60000610352</ele>
        <time>2014-03-14T13:41:06.000Z</time>
      </trkpt>
      <trkpt lat="47.56046" lon="5.9014">
        <ele>259.60000610352</ele>
        <time>2014-03-14T13:41:16.000Z</time>
      </trkpt>
      <trkpt lat="47.5606" lon="5.902">
        <ele>259.60000610352</ele>
        <time>2014-03-14T13:41:25.000Z</time>
      </trkpt>
      <trkpt lat="47.56077" lon="5.90267">
        <ele>259.60000610352</ele>
        <time>2014-03-14T13:41:35.000Z</time>
      </trkpt>
      <trkpt lat="47.56091" lon="5.90324">
        <ele>259.60000610352</ele>
        <time>2014-03-14T13:41:43.000Z</time>
      </trkpt>
      <trkpt lat="47.56109" lon="5.90397">
        <ele>259.60000610352</ele>
        <time>2014-03-14T13:41:52.000Z</time>
      </trkpt>
      <trkpt lat="47.56121" lon="5.90445">
        <ele>259</ele>
        <time>2014-03-14T13:41:57.000Z</time>
      </trkpt>
      <trkpt lat="47.56124" lon="5.90455">
        <ele>258.60000610352</ele>
        <time>2014-03-14T13:41:58.000Z</time>
      </trkpt>
      <trkpt lat="47.56127" lon="5.90465">
        <ele>258</ele>
        <time>2014-03-14T13:41:59.000Z</time>
      </trkpt>
      <trkpt lat="47.5613" lon="5.90477">
        <ele>257.60000610352</ele>
        <time>2014-03-14T13:42:00.000Z</time>
      </trkpt>
      <trkpt lat="47.56132" lon="5.90487">
        <ele>257.20001220703</ele>
        <time>2014-03-14T13:42:01.000Z</time>
      </trkpt>
      <trkpt lat="47.56138" lon="5.90509">
        <ele>256.79998779297</ele>
        <time>2014-03-14T13:42:03.000Z</time>
      </trkpt>
      <trkpt lat="47.56141" lon="5.9052">
        <ele>256.20001220703</ele>
        <time>2014-03-14T13:42:04.000Z</time>
      </trkpt>
      <trkpt lat="47.56143" lon="5.90531">
        <ele>255.80000305176</ele>
        <time>2014-03-14T13:42:05.000Z</time>
      </trkpt>
      <trkpt lat="47.56146" lon="5.90542">
        <ele>255.39999389648</ele>
        <time>2014-03-14T13:42:06.000Z</time>
      </trkpt>
      <trkpt lat="47.56149" lon="5.90554">
        <ele>255</ele>
        <time>2014-03-14T13:42:07.000Z</time>
      </trkpt>
      <trkpt lat="47.56151" lon="5.90564">
        <ele>255</ele>
        <time>2014-03-14T13:42:08.000Z</time>
      </trkpt>
      <trkpt lat="47.56166" lon="5.90621">
        <ele>255</ele>
        <time>2014-03-14T13:42:14.000Z</time>
      </trkpt>
      <trkpt lat="47.5618" lon="5.90677">
        <ele>255</ele>
        <time>2014-03-14T13:42:21.000Z</time>
      </trkpt>
      <trkpt lat="47.56198" lon="5.90746">
        <ele>255</ele>
        <time>2014-03-14T13:42:30.000Z</time>
      </trkpt>
      <trkpt lat="47.56215" lon="5.9081">
        <ele>255</ele>
        <time>2014-03-14T13:42:38.000Z</time>
      </trkpt>
      <trkpt lat="47.56232" lon="5.90882">
        <ele>255</ele>
        <time>2014-03-14T13:42:47.000Z</time>
      </trkpt>
      <trkpt lat="47.56244" lon="5.90928">
        <ele>255</ele>
        <time>2014-03-14T13:42:53.000Z</time>
      </trkpt>
      <trkpt lat="47.56255" lon="5.90979">
        <ele>255</ele>
        <time>2014-03-14T13:43:00.000Z</time>
      </trkpt>
      <trkpt lat="47.56254" lon="5.90986">
        <ele>255</ele>
        <time>2014-03-14T13:43:01.000Z</time>
      </trkpt>
      <trkpt lat="47.56243" lon="5.91003">
        <ele>255</ele>
        <time>2014-03-14T13:43:04.000Z</time>
      </trkpt>
      <trkpt lat="47.56238" lon="5.91007">
        <ele>255</ele>
        <time>2014-03-14T13:43:05.000Z</time>
      </trkpt>
      <trkpt lat="47.56232" lon="5.91011">
        <ele>254.60000610352</ele>
        <time>2014-03-14T13:43:06.000Z</time>
      </trkpt>
      <trkpt lat="47.56226" lon="5.91014">
        <ele>254.19999694824</ele>
        <time>2014-03-14T13:43:07.000Z</time>
      </trkpt>
      <trkpt lat="47.5622" lon="5.91019">
        <ele>253.60000610352</ele>
        <time>2014-03-14T13:43:08.000Z</time>
      </trkpt>
      <trkpt lat="47.56214" lon="5.91024">
        <ele>253.19999694824</ele>
        <time>2014-03-14T13:43:09.000Z</time>
      </trkpt>
      <trkpt lat="47.56209" lon="5.91028">
        <ele>252.80000305176</ele>
        <time>2014-03-14T13:43:10.000Z</time>
      </trkpt>
      <trkpt lat="47.56196" lon="5.91037">
        <ele>252.39999389648</ele>
        <time>2014-03-14T13:43:12.000Z</time>
      </trkpt>
      <trkpt lat="47.5619" lon="5.91042">
        <ele>251.80000305176</ele>
        <time>2014-03-14T13:43:13.000Z</time>
      </trkpt>
      <trkpt lat="47.56184" lon="5.91046">
        <ele>251.39999389648</ele>
        <time>2014-03-14T13:43:14.000Z</time>
      </trkpt>
      <trkpt lat="47.56177" lon="5.91051">
        <ele>251</ele>
        <time>2014-03-14T13:43:15.000Z</time>
      </trkpt>
      <trkpt lat="47.5617" lon="5.91055">
        <ele>250.39999389648</ele>
        <time>2014-03-14T13:43:16.000Z</time>
      </trkpt>
      <trkpt lat="47.56165" lon="5.91061">
        <ele>250.39999389648</ele>
        <time>2014-03-14T13:43:17.000Z</time>
      </trkpt>
      <trkpt lat="47.56149" lon="5.91074">
        <ele>250.39999389648</ele>
        <time>2014-03-14T13:43:20.000Z</time>
      </trkpt>
      <trkpt lat="47.56145" lon="5.91077">
        <ele>250.39999389648</ele>
        <time>2014-03-14T13:43:21.000Z</time>
      </trkpt>
      <trkpt lat="47.56129" lon="5.9109">
        <ele>250.39999389648</ele>
        <time>2014-03-14T13:43:25.000Z</time>
      </trkpt>
      <trkpt lat="47.56125" lon="5.91093">
        <ele>251</ele>
        <time>2014-03-14T13:43:26.000Z</time>
      </trkpt>
      <trkpt lat="47.56121" lon="5.91096">
        <ele>251.39999389648</ele>
        <time>2014-03-14T13:43:27.000Z</time>
      </trkpt>
      <trkpt lat="47.56117" lon="5.91099">
        <ele>251.80000305176</ele>
        <time>2014-03-14T13:43:28.000Z</time>
      </trkpt>
      <trkpt lat="47.56112" lon="5.91103">
        <ele>252.39999389648</ele>
        <time>2014-03-14T13:43:29.000Z</time>
      </trkpt>
      <trkpt lat="47.56107" lon="5.91107">
        <ele>252.80000305176</ele>
        <time>2014-03-14T13:43:30.000Z</time>
      </trkpt>
      <trkpt lat="47.56102" lon="5.91111">
        <ele>252.80000305176</ele>
        <time>2014-03-14T13:43:31.000Z</time>
      </trkpt>
      <trkpt lat="47.5607" lon="5.91135">
        <ele>252.39999389648</ele>
        <time>2014-03-14T13:43:37.000Z</time>
      </trkpt>
      <trkpt lat="47.56064" lon="5.9114">
        <ele>252</ele>
        <time>2014-03-14T13:43:38.000Z</time>
      </trkpt>
      <trkpt lat="47.56058" lon="5.91145">
        <ele>251.60000610352</ele>
        <time>2014-03-14T13:43:39.000Z</time>
      </trkpt>
      <trkpt lat="47.56052" lon="5.9115">
        <ele>251</ele>
        <time>2014-03-14T13:43:40.000Z</time>
      </trkpt>
      <trkpt lat="47.56046" lon="5.91155">
        <ele>250.60000610352</ele>
        <time>2014-03-14T13:43:41.000Z</time>
      </trkpt>
      <trkpt lat="47.5602" lon="5.91175">
        <ele>250.60000610352</ele>
        <time>2014-03-14T13:43:46.000Z</time>
      </trkpt>
      <trkpt lat="47.55988" lon="5.91199">
        <ele>250.60000610352</ele>
        <time>2014-03-14T13:43:53.000Z</time>
      </trkpt>
      <trkpt lat="47.55963" lon="5.91218">
        <ele>251.19999694824</ele>
        <time>2014-03-14T13:43:59.000Z</time>
      </trkpt>
      <trkpt lat="47.55959" lon="5.91221">
        <ele>251.60000610352</ele>
        <time>2014-03-14T13:44:00.000Z</time>
      </trkpt>
      <trkpt lat="47.55955" lon="5.91223">
        <ele>252</ele>
        <time>2014-03-14T13:44:01.000Z</time>
      </trkpt>
      <trkpt lat="47.55952" lon="5.91226">
        <ele>252.39999389648</ele>
        <time>2014-03-14T13:44:02.000Z</time>
      </trkpt>
      <trkpt lat="47.55948" lon="5.91229">
        <ele>252.80000305176</ele>
        <time>2014-03-14T13:44:03.000Z</time>
      </trkpt>
      <trkpt lat="47.55923" lon="5.91249">
        <ele>253.60000610352</ele>
        <time>2014-03-14T13:44:10.000Z</time>
      </trkpt>
      <trkpt lat="47.5592" lon="5.91251">
        <ele>254</ele>
        <time>2014-03-14T13:44:11.000Z</time>
      </trkpt>
      <trkpt lat="47.55917" lon="5.91253">
        <ele>254.39999389648</ele>
        <time>2014-03-14T13:44:12.000Z</time>
      </trkpt>
      <trkpt lat="47.55914" lon="5.91255">
        <ele>254.80000305176</ele>
        <time>2014-03-14T13:44:13.000Z</time>
      </trkpt>
      <trkpt lat="47.55904" lon="5.91262">
        <ele>254.80000305176</ele>
        <time>2014-03-14T13:44:16.000Z</time>
      </trkpt>
      <trkpt lat="47.55887" lon="5.91275">
        <ele>254.80000305176</ele>
        <time>2014-03-14T13:44:22.000Z</time>
      </trkpt>
      <trkpt lat="47.55881" lon="5.9128">
        <ele>255.19999694824</ele>
        <time>2014-03-14T13:44:24.000Z</time>
      </trkpt>
      <trkpt lat="47.55877" lon="5.91283">
        <ele>255.80000305176</ele>
        <time>2014-03-14T13:44:25.000Z</time>
      </trkpt>
      <trkpt lat="47.55874" lon="5.91285">
        <ele>256.20001220703</ele>
        <time>2014-03-14T13:44:26.000Z</time>
      </trkpt>
      <trkpt lat="47.55871" lon="5.91288">
        <ele>256.60000610352</ele>
        <time>2014-03-14T13:44:27.000Z</time>
      </trkpt>
      <trkpt lat="47.55868" lon="5.9129">
        <ele>257</ele>
        <time>2014-03-14T13:44:28.000Z</time>
      </trkpt>
      <trkpt lat="47.55862" lon="5.91295">
        <ele>257</ele>
        <time>2014-03-14T13:44:30.000Z</time>
      </trkpt>
      <trkpt lat="47.5583" lon="5.9132">
        <ele>257</ele>
        <time>2014-03-14T13:44:39.000Z</time>
      </trkpt>
      <trkpt lat="47.558" lon="5.91343">
        <ele>257</ele>
        <time>2014-03-14T13:44:47.000Z</time>
      </trkpt>
      <trkpt lat="47.55768" lon="5.91369">
        <ele>257</ele>
        <time>2014-03-14T13:44:55.000Z</time>
      </trkpt>
      <trkpt lat="47.55745" lon="5.91387">
        <ele>256.20001220703</ele>
        <time>2014-03-14T13:45:00.000Z</time>
      </trkpt>
      <trkpt lat="47.55742" lon="5.9139">
        <ele>255.80000305176</ele>
        <time>2014-03-14T13:45:01.000Z</time>
      </trkpt>
      <trkpt lat="47.55739" lon="5.91395">
        <ele>255.39999389648</ele>
        <time>2014-03-14T13:45:02.000Z</time>
      </trkpt>
      <trkpt lat="47.55739" lon="5.91403">
        <ele>255</ele>
        <time>2014-03-14T13:45:03.000Z</time>
      </trkpt>
      <trkpt lat="47.5574" lon="5.9141">
        <ele>255</ele>
        <time>2014-03-14T13:45:04.000Z</time>
      </trkpt>
      <trkpt lat="47.55747" lon="5.91428">
        <ele>254.60000610352</ele>
        <time>2014-03-14T13:45:07.000Z</time>
      </trkpt>
      <trkpt lat="47.5575" lon="5.91435">
        <ele>254</ele>
        <time>2014-03-14T13:45:08.000Z</time>
      </trkpt>
      <trkpt lat="47.55753" lon="5.91441">
        <ele>253.60000610352</ele>
        <time>2014-03-14T13:45:09.000Z</time>
      </trkpt>
      <trkpt lat="47.55756" lon="5.91448">
        <ele>253.19999694824</ele>
        <time>2014-03-14T13:45:10.000Z</time>
      </trkpt>
      <trkpt lat="47.55757" lon="5.91455">
        <ele>252.80000305176</ele>
        <time>2014-03-14T13:45:11.000Z</time>
      </trkpt>
      <trkpt lat="47.55756" lon="5.91471">
        <ele>252.80000305176</ele>
        <time>2014-03-14T13:45:13.000Z</time>
      </trkpt>
      <trkpt lat="47.55742" lon="5.91496">
        <ele>252.80000305176</ele>
        <time>2014-03-14T13:45:17.000Z</time>
      </trkpt>
      <trkpt lat="47.5573" lon="5.91517">
        <ele>252.80000305176</ele>
        <time>2014-03-14T13:45:21.000Z</time>
      </trkpt>
      <trkpt lat="47.55727" lon="5.91529">
        <ele>252.80000305176</ele>
        <time>2014-03-14T13:45:23.000Z</time>
      </trkpt>
      <trkpt lat="47.55728" lon="5.91554">
        <ele>252.80000305176</ele>
        <time>2014-03-14T13:45:27.000Z</time>
      </trkpt>
      <trkpt lat="47.55735" lon="5.91598">
        <ele>252.80000305176</ele>
        <time>2014-03-14T13:45:35.000Z</time>
      </trkpt>
      <trkpt lat="47.55745" lon="5.91617">
        <ele>252.80000305176</ele>
        <time>2014-03-14T13:45:40.000Z</time>
      </trkpt>
      <trkpt lat="47.5576" lon="5.91634">
        <ele>252.80000305176</ele>
        <time>2014-03-14T13:45:45.000Z</time>
      </trkpt>
      <trkpt lat="47.55787" lon="5.9166">
        <ele>252.80000305176</ele>
        <time>2014-03-14T13:45:53.000Z</time>
      </trkpt>
      <trkpt lat="47.55809" lon="5.91682">
        <ele>252.80000305176</ele>
        <time>2014-03-14T13:46:00.000Z</time>
      </trkpt>
      <trkpt lat="47.55828" lon="5.91705">
        <ele>252.80000305176</ele>
        <time>2014-03-14T13:46:06.000Z</time>
      </trkpt>
      <trkpt lat="47.55844" lon="5.91729">
        <ele>252.80000305176</ele>
        <time>2014-03-14T13:46:12.000Z</time>
      </trkpt>
      <trkpt lat="47.55856" lon="5.91744">
        <ele>252.80000305176</ele>
        <time>2014-03-14T13:46:16.000Z</time>
      </trkpt>
      <trkpt lat="47.55863" lon="5.91752">
        <ele>252.80000305176</ele>
        <time>2014-03-14T13:46:18.000Z</time>
      </trkpt>
      <trkpt lat="47.55877" lon="5.91771">
        <ele>252.80000305176</ele>
        <time>2014-03-14T13:46:23.000Z</time>
      </trkpt>
      <trkpt lat="47.5589" lon="5.91809">
        <ele>252.80000305176</ele>
        <time>2014-03-14T13:46:30.000Z</time>
      </trkpt>
      <trkpt lat="47.55893" lon="5.91825">
        <ele>253.19999694824</ele>
        <time>2014-03-14T13:46:33.000Z</time>
      </trkpt>
      <trkpt lat="47.55894" lon="5.9183">
        <ele>253.60000610352</ele>
        <time>2014-03-14T13:46:34.000Z</time>
      </trkpt>
      <trkpt lat="47.55895" lon="5.91836">
        <ele>254</ele>
        <time>2014-03-14T13:46:35.000Z</time>
      </trkpt>
      <trkpt lat="47.55896" lon="5.91841">
        <ele>254.39999389648</ele>
        <time>2014-03-14T13:46:36.000Z</time>
      </trkpt>
      <trkpt lat="47.55898" lon="5.91846">
        <ele>254.80000305176</ele>
        <time>2014-03-14T13:46:37.000Z</time>
      </trkpt>
      <trkpt lat="47.55901" lon="5.91864">
        <ele>254.80000305176</ele>
        <time>2014-03-14T13:46:42.000Z</time>
      </trkpt>
      <trkpt lat="47.55901" lon="5.91867">
        <ele>254.80000305176</ele>
        <time>2014-03-14T13:46:43.000Z</time>
      </trkpt>
      <trkpt lat="47.55895" lon="5.91876">
        <ele>254.80000305176</ele>
        <time>2014-03-14T13:46:46.000Z</time>
      </trkpt>
      <trkpt lat="47.55889" lon="5.91894">
        <ele>254.80000305176</ele>
        <time>2014-03-14T13:46:51.000Z</time>
      </trkpt>
      <trkpt lat="47.55887" lon="5.91899">
        <ele>254.80000305176</ele>
        <time>2014-03-14T13:46:53.000Z</time>
      </trkpt>
      <trkpt lat="47.55884" lon="5.91908">
        <ele>254.80000305176</ele>
        <time>2014-03-14T13:46:56.000Z</time>
      </trkpt>
      <trkpt lat="47.55879" lon="5.91925">
        <ele>254.80000305176</ele>
        <time>2014-03-14T13:47:01.000Z</time>
      </trkpt>
      <trkpt lat="47.55878" lon="5.91928">
        <ele>254.80000305176</ele>
        <time>2014-03-14T13:47:02.000Z</time>
      </trkpt>
      <trkpt lat="47.55871" lon="5.91944">
        <ele>254.80000305176</ele>
        <time>2014-03-14T13:47:06.000Z</time>
      </trkpt>
      <trkpt lat="47.55865" lon="5.91959">
        <ele>254.39999389648</ele>
        <time>2014-03-14T13:47:09.000Z</time>
      </trkpt>
      <trkpt lat="47.55863" lon="5.91963">
        <ele>254</ele>
        <time>2014-03-14T13:47:10.000Z</time>
      </trkpt>
      <trkpt lat="47.55861" lon="5.91966">
        <ele>253.39999389648</ele>
        <time>2014-03-14T13:47:11.000Z</time>
      </trkpt>
      <trkpt lat="47.55859" lon="5.91968">
        <ele>253</ele>
        <time>2014-03-14T13:47:12.000Z</time>
      </trkpt>
      <trkpt lat="47.55857" lon="5.91969">
        <ele>252.60000610352</ele>
        <time>2014-03-14T13:47:13.000Z</time>
      </trkpt>
      <trkpt lat="47.55856" lon="5.9197">
        <ele>252.60000610352</ele>
        <time>2014-03-14T13:47:14.000Z</time>
      </trkpt>
      <trkpt lat="47.55848" lon="5.91984">
        <ele>252.60000610352</ele>
        <time>2014-03-14T13:47:19.000Z</time>
      </trkpt>
      <trkpt lat="47.55845" lon="5.91995">
        <ele>252.60000610352</ele>
        <time>2014-03-14T13:47:23.000Z</time>
      </trkpt>
      <trkpt lat="47.55847" lon="5.92">
        <ele>252.60000610352</ele>
        <time>2014-03-14T13:47:26.000Z</time>
      </trkpt>
      <trkpt lat="47.55832" lon="5.92008">
        <ele>252.60000610352</ele>
        <time>2014-03-14T13:48:02.000Z</time>
      </trkpt>
      <trkpt lat="47.55828" lon="5.92005">
        <ele>252.60000610352</ele>
        <time>2014-03-14T13:48:05.000Z</time>
      </trkpt>
      <trkpt lat="47.55826" lon="5.92003">
        <ele>252.60000610352</ele>
        <time>2014-03-14T13:48:06.000Z</time>
      </trkpt>
      <trkpt lat="47.55825" lon="5.92002">
        <ele>252.60000610352</ele>
        <time>2014-03-14T13:48:07.000Z</time>
      </trkpt>
      <trkpt lat="47.55824" lon="5.92001">
        <ele>252.60000610352</ele>
        <time>2014-03-14T13:48:08.000Z</time>
      </trkpt>
      <trkpt lat="47.55821" lon="5.91998">
        <ele>252.60000610352</ele>
        <time>2014-03-14T13:48:10.000Z</time>
      </trkpt>
      <trkpt lat="47.5582" lon="5.91997">
        <ele>252.60000610352</ele>
        <time>2014-03-14T13:48:11.000Z</time>
      </trkpt>
      <trkpt lat="47.55816" lon="5.91996">
        <ele>252.60000610352</ele>
        <time>2014-03-14T13:48:13.000Z</time>
      </trkpt>
      <trkpt lat="47.55814" lon="5.91995">
        <ele>252.60000610352</ele>
        <time>2014-03-14T13:48:14.000Z</time>
      </trkpt>
      <trkpt lat="47.55808" lon="5.9199">
        <ele>252.60000610352</ele>
        <time>2014-03-14T13:48:18.000Z</time>
      </trkpt>
      <trkpt lat="47.55806" lon="5.91989">
        <ele>252.60000610352</ele>
        <time>2014-03-14T13:48:19.000Z</time>
      </trkpt>
      <trkpt lat="47.55801" lon="5.91987">
        <ele>252.60000610352</ele>
        <time>2014-03-14T13:48:22.000Z</time>
      </trkpt>
      <trkpt lat="47.55792" lon="5.91986">
        <ele>252.60000610352</ele>
        <time>2014-03-14T13:48:26.000Z</time>
      </trkpt>
      <trkpt lat="47.55783" lon="5.91982">
        <ele>252.60000610352</ele>
        <time>2014-03-14T13:48:31.000Z</time>
      </trkpt>
      <trkpt lat="47.55776" lon="5.91979">
        <ele>252.60000610352</ele>
        <time>2014-03-14T13:48:35.000Z</time>
      </trkpt>
      <trkpt lat="47.55772" lon="5.91978">
        <ele>252.60000610352</ele>
        <time>2014-03-14T13:48:37.000Z</time>
      </trkpt>
      <trkpt lat="47.55769" lon="5.91975">
        <ele>252.60000610352</ele>
        <time>2014-03-14T13:48:39.000Z</time>
      </trkpt>
      <trkpt lat="47.55767" lon="5.91974">
        <ele>252.60000610352</ele>
        <time>2014-03-14T13:48:40.000Z</time>
      </trkpt>
      <trkpt lat="47.55758" lon="5.91966">
        <ele>252.60000610352</ele>
        <time>2014-03-14T13:48:45.000Z</time>
      </trkpt>
      <trkpt lat="47.55758" lon="5.91963">
        <ele>252.60000610352</ele>
        <time>2014-03-14T13:48:46.000Z</time>
      </trkpt>
      <trkpt lat="47.55758" lon="5.91961">
        <ele>252.60000610352</ele>
        <time>2014-03-14T13:48:47.000Z</time>
      </trkpt>
      <trkpt lat="47.55757" lon="5.9196">
        <ele>252.60000610352</ele>
        <time>2014-03-14T13:48:48.000Z</time>
      </trkpt>
      <trkpt lat="47.55754" lon="5.91958">
        <ele>252.60000610352</ele>
        <time>2014-03-14T13:48:50.000Z</time>
      </trkpt>
      <trkpt lat="47.55753" lon="5.91956">
        <ele>252.60000610352</ele>
        <time>2014-03-14T13:48:51.000Z</time>
      </trkpt>
      <trkpt lat="47.55742" lon="5.91948">
        <ele>252.60000610352</ele>
        <time>2014-03-14T13:48:58.000Z</time>
      </trkpt>
      <trkpt lat="47.55739" lon="5.91945">
        <ele>252.60000610352</ele>
        <time>2014-03-14T13:49:00.000Z</time>
      </trkpt>
      <trkpt lat="47.55732" lon="5.91943">
        <ele>252.60000610352</ele>
        <time>2014-03-14T13:49:03.000Z</time>
      </trkpt>
      <trkpt lat="47.5573" lon="5.91943">
        <ele>252.60000610352</ele>
        <time>2014-03-14T13:49:04.000Z</time>
      </trkpt>
      <trkpt lat="47.55719" lon="5.91935">
        <ele>252.60000610352</ele>
        <time>2014-03-14T13:49:12.000Z</time>
      </trkpt>
      <trkpt lat="47.55718" lon="5.91934">
        <ele>252.60000610352</ele>
        <time>2014-03-14T13:49:13.000Z</time>
      </trkpt>
      <trkpt lat="47.55711" lon="5.91929">
        <ele>252.60000610352</ele>
        <time>2014-03-14T13:49:19.000Z</time>
      </trkpt>
      <trkpt lat="47.5571" lon="5.91927">
        <ele>252.60000610352</ele>
        <time>2014-03-14T13:49:20.000Z</time>
      </trkpt>
      <trkpt lat="47.55705" lon="5.91924">
        <ele>252.60000610352</ele>
        <time>2014-03-14T13:49:23.000Z</time>
      </trkpt>
      <trkpt lat="47.55701" lon="5.91921">
        <ele>252.60000610352</ele>
        <time>2014-03-14T13:49:25.000Z</time>
      </trkpt>
      <trkpt lat="47.55688" lon="5.91913">
        <ele>252.60000610352</ele>
        <time>2014-03-14T13:49:32.000Z</time>
      </trkpt>
      <trkpt lat="47.55687" lon="5.91912">
        <ele>252.60000610352</ele>
        <time>2014-03-14T13:49:33.000Z</time>
      </trkpt>
      <trkpt lat="47.55679" lon="5.91904">
        <ele>252.60000610352</ele>
        <time>2014-03-14T13:49:39.000Z</time>
      </trkpt>
      <trkpt lat="47.55678" lon="5.91903">
        <ele>252.60000610352</ele>
        <time>2014-03-14T13:49:40.000Z</time>
      </trkpt>
      <trkpt lat="47.55672" lon="5.91899">
        <ele>252.60000610352</ele>
        <time>2014-03-14T13:49:45.000Z</time>
      </trkpt>
      <trkpt lat="47.5567" lon="5.91898">
        <ele>252.60000610352</ele>
        <time>2014-03-14T13:49:46.000Z</time>
      </trkpt>
      <trkpt lat="47.55668" lon="5.91895">
        <ele>252.60000610352</ele>
        <time>2014-03-14T13:49:48.000Z</time>
      </trkpt>
      <trkpt lat="47.55667" lon="5.91894">
        <ele>252.60000610352</ele>
        <time>2014-03-14T13:49:49.000Z</time>
      </trkpt>
      <trkpt lat="47.55665" lon="5.91893">
        <ele>252.60000610352</ele>
        <time>2014-03-14T13:49:50.000Z</time>
      </trkpt>
      <trkpt lat="47.55658" lon="5.91888">
        <ele>254.19999694824</ele>
        <time>2014-03-14T13:49:55.000Z</time>
      </trkpt>
      <trkpt lat="47.55656" lon="5.91887">
        <ele>254.60000610352</ele>
        <time>2014-03-14T13:49:56.000Z</time>
      </trkpt>
      <trkpt lat="47.55645" lon="5.9188">
        <ele>254.60000610352</ele>
        <time>2014-03-14T13:50:02.000Z</time>
      </trkpt>
      <trkpt lat="47.55636" lon="5.91874">
        <ele>254.60000610352</ele>
        <time>2014-03-14T13:50:07.000Z</time>
      </trkpt>
      <trkpt lat="47.55629" lon="5.91867">
        <ele>254.60000610352</ele>
        <time>2014-03-14T13:50:13.000Z</time>
      </trkpt>
      <trkpt lat="47.55624" lon="5.91864">
        <ele>255.80000305176</ele>
        <time>2014-03-14T13:50:16.000Z</time>
      </trkpt>
      <trkpt lat="47.55623" lon="5.91862">
        <ele>256.20001220703</ele>
        <time>2014-03-14T13:50:18.000Z</time>
      </trkpt>
      <trkpt lat="47.55621" lon="5.91861">
        <ele>256.60000610352</ele>
        <time>2014-03-14T13:50:19.000Z</time>
      </trkpt>
      <trkpt lat="47.55615" lon="5.91858">
        <ele>256.60000610352</ele>
        <time>2014-03-14T13:50:23.000Z</time>
      </trkpt>
      <trkpt lat="47.55614" lon="5.91858">
        <ele>256.60000610352</ele>
        <time>2014-03-14T13:50:24.000Z</time>
      </trkpt>
      <trkpt lat="47.5561" lon="5.91855">
        <ele>256.60000610352</ele>
        <time>2014-03-14T13:50:27.000Z</time>
      </trkpt>
      <trkpt lat="47.55604" lon="5.91851">
        <ele>256.60000610352</ele>
        <time>2014-03-14T13:50:31.000Z</time>
      </trkpt>
      <trkpt lat="47.55603" lon="5.9185">
        <ele>256.60000610352</ele>
        <time>2014-03-14T13:50:32.000Z</time>
      </trkpt>
      <trkpt lat="47.556" lon="5.91846">
        <ele>256.60000610352</ele>
        <time>2014-03-14T13:50:35.000Z</time>
      </trkpt>
      <trkpt lat="47.55595" lon="5.91842">
        <ele>256.60000610352</ele>
        <time>2014-03-14T13:50:38.000Z</time>
      </trkpt>
      <trkpt lat="47.55591" lon="5.91838">
        <ele>256.60000610352</ele>
        <time>2014-03-14T13:50:41.000Z</time>
      </trkpt>
      <trkpt lat="47.55585" lon="5.91832">
        <ele>256.60000610352</ele>
        <time>2014-03-14T13:50:45.000Z</time>
      </trkpt>
      <trkpt lat="47.55584" lon="5.91832">
        <ele>256.60000610352</ele>
        <time>2014-03-14T13:50:46.000Z</time>
      </trkpt>
      <trkpt lat="47.55582" lon="5.91828">
        <ele>256.60000610352</ele>
        <time>2014-03-14T13:52:00.000Z</time>
      </trkpt>
      <trkpt lat="47.5558" lon="5.91827">
        <ele>256.60000610352</ele>
        <time>2014-03-14T13:52:01.000Z</time>
      </trkpt>
      <trkpt lat="47.55578" lon="5.91826">
        <ele>256.60000610352</ele>
        <time>2014-03-14T13:52:02.000Z</time>
      </trkpt>
      <trkpt lat="47.5557" lon="5.91819">
        <ele>256.60000610352</ele>
        <time>2014-03-14T13:52:06.000Z</time>
      </trkpt>
      <trkpt lat="47.55565" lon="5.91815">
        <ele>256.60000610352</ele>
        <time>2014-03-14T13:52:08.000Z</time>
      </trkpt>
      <trkpt lat="47.55555" lon="5.91808">
        <ele>256.60000610352</ele>
        <time>2014-03-14T13:52:13.000Z</time>
      </trkpt>
      <trkpt lat="47.55542" lon="5.918">
        <ele>256.60000610352</ele>
        <time>2014-03-14T13:52:18.000Z</time>
      </trkpt>
      <trkpt lat="47.55527" lon="5.9179">
        <ele>256.60000610352</ele>
        <time>2014-03-14T13:52:24.000Z</time>
      </trkpt>
      <trkpt lat="47.55509" lon="5.91775">
        <ele>256.60000610352</ele>
        <time>2014-03-14T13:52:30.000Z</time>
      </trkpt>
      <trkpt lat="47.55495" lon="5.91763">
        <ele>256.60000610352</ele>
        <time>2014-03-14T13:52:35.000Z</time>
      </trkpt>
      <trkpt lat="47.5548" lon="5.91751">
        <ele>256.60000610352</ele>
        <time>2014-03-14T13:52:41.000Z</time>
      </trkpt>
      <trkpt lat="47.55465" lon="5.91739">
        <ele>256.60000610352</ele>
        <time>2014-03-14T13:52:47.000Z</time>
      </trkpt>
      <trkpt lat="47.55456" lon="5.91731">
        <ele>257</ele>
        <time>2014-03-14T13:52:51.000Z</time>
      </trkpt>
      <trkpt lat="47.55454" lon="5.91729">
        <ele>257.39999389648</ele>
        <time>2014-03-14T13:52:52.000Z</time>
      </trkpt>
      <trkpt lat="47.55451" lon="5.91728">
        <ele>257.79998779297</ele>
        <time>2014-03-14T13:52:53.000Z</time>
      </trkpt>
      <trkpt lat="47.55449" lon="5.91726">
        <ele>258.20001220703</ele>
        <time>2014-03-14T13:52:54.000Z</time>
      </trkpt>
      <trkpt lat="47.55447" lon="5.91724">
        <ele>258.60000610352</ele>
        <time>2014-03-14T13:52:55.000Z</time>
      </trkpt>
      <trkpt lat="47.55438" lon="5.91716">
        <ele>258.60000610352</ele>
        <time>2014-03-14T13:53:00.000Z</time>
      </trkpt>
      <trkpt lat="47.55429" lon="5.91705">
        <ele>258.60000610352</ele>
        <time>2014-03-14T13:53:06.000Z</time>
      </trkpt>
      <trkpt lat="47.55427" lon="5.91704">
        <ele>259.20001220703</ele>
        <time>2014-03-14T13:53:07.000Z</time>
      </trkpt>
      <trkpt lat="47.55425" lon="5.91702">
        <ele>259.60000610352</ele>
        <time>2014-03-14T13:53:08.000Z</time>
      </trkpt>
      <trkpt lat="47.55423" lon="5.91701">
        <ele>260</ele>
        <time>2014-03-14T13:53:09.000Z</time>
      </trkpt>
      <trkpt lat="47.55422" lon="5.91699">
        <ele>260.39999389648</ele>
        <time>2014-03-14T13:53:10.000Z</time>
      </trkpt>
      <trkpt lat="47.5542" lon="5.91697">
        <ele>260.79998779297</ele>
        <time>2014-03-14T13:53:11.000Z</time>
      </trkpt>
      <trkpt lat="47.55417" lon="5.91695">
        <ele>260.79998779297</ele>
        <time>2014-03-14T13:53:13.000Z</time>
      </trkpt>
      <trkpt lat="47.55406" lon="5.91688">
        <ele>261.20001220703</ele>
        <time>2014-03-14T13:53:19.000Z</time>
      </trkpt>
      <trkpt lat="47.55404" lon="5.91687">
        <ele>261.60000610352</ele>
        <time>2014-03-14T13:53:20.000Z</time>
      </trkpt>
      <trkpt lat="47.55402" lon="5.91686">
        <ele>262.20001220703</ele>
        <time>2014-03-14T13:53:21.000Z</time>
      </trkpt>
      <trkpt lat="47.554" lon="5.91685">
        <ele>262.60000610352</ele>
        <time>2014-03-14T13:53:22.000Z</time>
      </trkpt>
      <trkpt lat="47.55399" lon="5.91684">
        <ele>263</ele>
        <time>2014-03-14T13:53:23.000Z</time>
      </trkpt>
      <trkpt lat="47.55397" lon="5.91684">
        <ele>263</ele>
        <time>2014-03-14T13:53:24.000Z</time>
      </trkpt>
      <trkpt lat="47.55386" lon="5.91678">
        <ele>263</ele>
        <time>2014-03-14T13:53:31.000Z</time>
      </trkpt>
      <trkpt lat="47.55376" lon="5.91671">
        <ele>263.79998779297</ele>
        <time>2014-03-14T13:53:39.000Z</time>
      </trkpt>
      <trkpt lat="47.55375" lon="5.9167">
        <ele>264.20001220703</ele>
        <time>2014-03-14T13:53:40.000Z</time>
      </trkpt>
      <trkpt lat="47.55373" lon="5.91669">
        <ele>264.60000610352</ele>
        <time>2014-03-14T13:53:41.000Z</time>
      </trkpt>
      <trkpt lat="47.55372" lon="5.91668">
        <ele>265</ele>
        <time>2014-03-14T13:53:42.000Z</time>
      </trkpt>
      <trkpt lat="47.55369" lon="5.91665">
        <ele>265</ele>
        <time>2014-03-14T13:53:45.000Z</time>
      </trkpt>
      <trkpt lat="47.55368" lon="5.91664">
        <ele>265</ele>
        <time>2014-03-14T13:53:46.000Z</time>
      </trkpt>
      <trkpt lat="47.55357" lon="5.91656">
        <ele>265</ele>
        <time>2014-03-14T13:53:52.000Z</time>
      </trkpt>
      <trkpt lat="47.55345" lon="5.91646">
        <ele>265</ele>
        <time>2014-03-14T13:53:59.000Z</time>
      </trkpt>
      <trkpt lat="47.55331" lon="5.91637">
        <ele>265</ele>
        <time>2014-03-14T13:54:05.000Z</time>
      </trkpt>
      <trkpt lat="47.55315" lon="5.91623">
        <ele>265.39999389648</ele>
        <time>2014-03-14T13:54:12.000Z</time>
      </trkpt>
      <trkpt lat="47.55313" lon="5.91621">
        <ele>265.79998779297</ele>
        <time>2014-03-14T13:54:13.000Z</time>
      </trkpt>
      <trkpt lat="47.5531" lon="5.91619">
        <ele>266.20001220703</ele>
        <time>2014-03-14T13:54:14.000Z</time>
      </trkpt>
      <trkpt lat="47.55307" lon="5.91617">
        <ele>266.60000610352</ele>
        <time>2014-03-14T13:54:15.000Z</time>
      </trkpt>
      <trkpt lat="47.55304" lon="5.91615">
        <ele>267</ele>
        <time>2014-03-14T13:54:16.000Z</time>
      </trkpt>
      <trkpt lat="47.55292" lon="5.91605">
        <ele>267</ele>
        <time>2014-03-14T13:54:20.000Z</time>
      </trkpt>
      <trkpt lat="47.55272" lon="5.91589">
        <ele>267</ele>
        <time>2014-03-14T13:54:26.000Z</time>
      </trkpt>
      <trkpt lat="47.55254" lon="5.91573">
        <ele>267</ele>
        <time>2014-03-14T13:54:32.000Z</time>
      </trkpt>
      <trkpt lat="47.55242" lon="5.91565">
        <ele>267</ele>
        <time>2014-03-14T13:54:35.000Z</time>
      </trkpt>
      <trkpt lat="47.5523" lon="5.91556">
        <ele>266.60000610352</ele>
        <time>2014-03-14T13:54:38.000Z</time>
      </trkpt>
      <trkpt lat="47.55226" lon="5.91554">
        <ele>266.20001220703</ele>
        <time>2014-03-14T13:54:39.000Z</time>
      </trkpt>
      <trkpt lat="47.55222" lon="5.91551">
        <ele>265.79998779297</ele>
        <time>2014-03-14T13:54:40.000Z</time>
      </trkpt>
      <trkpt lat="47.55218" lon="5.91548">
        <ele>265.20001220703</ele>
        <time>2014-03-14T13:54:41.000Z</time>
      </trkpt>
      <trkpt lat="47.55214" lon="5.91545">
        <ele>264.79998779297</ele>
        <time>2014-03-14T13:54:42.000Z</time>
      </trkpt>
      <trkpt lat="47.55206" lon="5.91539">
        <ele>264.79998779297</ele>
        <time>2014-03-14T13:54:44.000Z</time>
      </trkpt>
      <trkpt lat="47.55174" lon="5.91513">
        <ele>264.79998779297</ele>
        <time>2014-03-14T13:54:51.000Z</time>
      </trkpt>
      <trkpt lat="47.55159" lon="5.915">
        <ele>264.39999389648</ele>
        <time>2014-03-14T13:54:54.000Z</time>
      </trkpt>
      <trkpt lat="47.55154" lon="5.91497">
        <ele>264</ele>
        <time>2014-03-14T13:54:55.000Z</time>
      </trkpt>
      <trkpt lat="47.55149" lon="5.91493">
        <ele>263.60000610352</ele>
        <time>2014-03-14T13:54:56.000Z</time>
      </trkpt>
      <trkpt lat="47.55143" lon="5.91488">
        <ele>263.20001220703</ele>
        <time>2014-03-14T13:54:57.000Z</time>
      </trkpt>
      <trkpt lat="47.55137" lon="5.91484">
        <ele>262.79998779297</ele>
        <time>2014-03-14T13:54:58.000Z</time>
      </trkpt>
      <trkpt lat="47.55126" lon="5.91474">
        <ele>262.79998779297</ele>
        <time>2014-03-14T13:55:00.000Z</time>
      </trkpt>
      <trkpt lat="47.5512" lon="5.91469">
        <ele>262.39999389648</ele>
        <time>2014-03-14T13:55:01.000Z</time>
      </trkpt>
      <trkpt lat="47.55114" lon="5.91464">
        <ele>261.79998779297</ele>
        <time>2014-03-14T13:55:02.000Z</time>
      </trkpt>
      <trkpt lat="47.55108" lon="5.91459">
        <ele>261.39999389648</ele>
        <time>2014-03-14T13:55:03.000Z</time>
      </trkpt>
      <trkpt lat="47.55101" lon="5.91454">
        <ele>261</ele>
        <time>2014-03-14T13:55:04.000Z</time>
      </trkpt>
      <trkpt lat="47.55095" lon="5.91449">
        <ele>260.39999389648</ele>
        <time>2014-03-14T13:55:05.000Z</time>
      </trkpt>
      <trkpt lat="47.55083" lon="5.91438">
        <ele>260</ele>
        <time>2014-03-14T13:55:07.000Z</time>
      </trkpt>
      <trkpt lat="47.55076" lon="5.91434">
        <ele>259.60000610352</ele>
        <time>2014-03-14T13:55:08.000Z</time>
      </trkpt>
      <trkpt lat="47.5507" lon="5.91429">
        <ele>259.20001220703</ele>
        <time>2014-03-14T13:55:09.000Z</time>
      </trkpt>
      <trkpt lat="47.55063" lon="5.91424">
        <ele>258.60000610352</ele>
        <time>2014-03-14T13:55:10.000Z</time>
      </trkpt>
      <trkpt lat="47.55057" lon="5.91419">
        <ele>258.20001220703</ele>
        <time>2014-03-14T13:55:11.000Z</time>
      </trkpt>
      <trkpt lat="47.55037" lon="5.91404">
        <ele>258.20001220703</ele>
        <time>2014-03-14T13:55:14.000Z</time>
      </trkpt>
      <trkpt lat="47.55029" lon="5.91398">
        <ele>257.79998779297</ele>
        <time>2014-03-14T13:55:15.000Z</time>
      </trkpt>
      <trkpt lat="47.55023" lon="5.91393">
        <ele>257.20001220703</ele>
        <time>2014-03-14T13:55:16.000Z</time>
      </trkpt>
      <trkpt lat="47.55016" lon="5.91388">
        <ele>256.79998779297</ele>
        <time>2014-03-14T13:55:17.000Z</time>
      </trkpt>
      <trkpt lat="47.5501" lon="5.91383">
        <ele>256</ele>
        <time>2014-03-14T13:55:18.000Z</time>
      </trkpt>
      <trkpt lat="47.54996" lon="5.91372">
        <ele>256</ele>
        <time>2014-03-14T13:55:20.000Z</time>
      </trkpt>
      <trkpt lat="47.54954" lon="5.91341">
        <ele>255.39999389648</ele>
        <time>2014-03-14T13:55:26.000Z</time>
      </trkpt>
      <trkpt lat="47.54947" lon="5.91336">
        <ele>255</ele>
        <time>2014-03-14T13:55:27.000Z</time>
      </trkpt>
      <trkpt lat="47.54941" lon="5.91331">
        <ele>254.60000610352</ele>
        <time>2014-03-14T13:55:28.000Z</time>
      </trkpt>
      <trkpt lat="47.54934" lon="5.91326">
        <ele>254</ele>
        <time>2014-03-14T13:55:29.000Z</time>
      </trkpt>
      <trkpt lat="47.54927" lon="5.9132">
        <ele>253.60000610352</ele>
        <time>2014-03-14T13:55:30.000Z</time>
      </trkpt>
      <trkpt lat="47.54896" lon="5.91297">
        <ele>253.60000610352</ele>
        <time>2014-03-14T13:55:35.000Z</time>
      </trkpt>
      <trkpt lat="47.54879" lon="5.91284">
        <ele>253.60000610352</ele>
        <time>2014-03-14T13:55:38.000Z</time>
      </trkpt>
      <trkpt lat="47.54869" lon="5.91275">
        <ele>253.60000610352</ele>
        <time>2014-03-14T13:55:40.000Z</time>
      </trkpt>
      <trkpt lat="47.54844" lon="5.91255">
        <ele>253.60000610352</ele>
        <time>2014-03-14T13:55:46.000Z</time>
      </trkpt>
      <trkpt lat="47.54827" lon="5.91243">
        <ele>253.60000610352</ele>
        <time>2014-03-14T13:55:51.000Z</time>
      </trkpt>
      <trkpt lat="47.54817" lon="5.91237">
        <ele>254</ele>
        <time>2014-03-14T13:55:54.000Z</time>
      </trkpt>
      <trkpt lat="47.54814" lon="5.91235">
        <ele>254.60000610352</ele>
        <time>2014-03-14T13:55:55.000Z</time>
      </trkpt>
      <trkpt lat="47.54811" lon="5.91233">
        <ele>255</ele>
        <time>2014-03-14T13:55:56.000Z</time>
      </trkpt>
      <trkpt lat="47.54808" lon="5.9123">
        <ele>255.39999389648</ele>
        <time>2014-03-14T13:55:57.000Z</time>
      </trkpt>
      <trkpt lat="47.54805" lon="5.91228">
        <ele>256</ele>
        <time>2014-03-14T13:55:58.000Z</time>
      </trkpt>
      <trkpt lat="47.54789" lon="5.91213">
        <ele>256</ele>
        <time>2014-03-14T13:56:04.000Z</time>
      </trkpt>
      <trkpt lat="47.54778" lon="5.91203">
        <ele>256.39999389648</ele>
        <time>2014-03-14T13:56:08.000Z</time>
      </trkpt>
      <trkpt lat="47.54775" lon="5.91202">
        <ele>256.79998779297</ele>
        <time>2014-03-14T13:56:09.000Z</time>
      </trkpt>
      <trkpt lat="47.54773" lon="5.91199">
        <ele>257.20001220703</ele>
        <time>2014-03-14T13:56:10.000Z</time>
      </trkpt>
      <trkpt lat="47.5477" lon="5.91197">
        <ele>257.60000610352</ele>
        <time>2014-03-14T13:56:11.000Z</time>
      </trkpt>
      <trkpt lat="47.54767" lon="5.91195">
        <ele>258</ele>
        <time>2014-03-14T13:56:12.000Z</time>
      </trkpt>
      <trkpt lat="47.54753" lon="5.91183">
        <ele>258</ele>
        <time>2014-03-14T13:56:17.000Z</time>
      </trkpt>
      <trkpt lat="47.54737" lon="5.91171">
        <ele>258</ele>
        <time>2014-03-14T13:56:23.000Z</time>
      </trkpt>
      <trkpt lat="47.5472" lon="5.9116">
        <ele>258</ele>
        <time>2014-03-14T13:56:29.000Z</time>
      </trkpt>
      <trkpt lat="47.547" lon="5.91143">
        <ele>258</ele>
        <time>2014-03-14T13:56:35.000Z</time>
      </trkpt>
      <trkpt lat="47.54692" lon="5.91136">
        <ele>258</ele>
        <time>2014-03-14T13:56:38.000Z</time>
      </trkpt>
      <trkpt lat="47.54672" lon="5.91124">
        <ele>258</ele>
        <time>2014-03-14T13:56:43.000Z</time>
      </trkpt>
      <trkpt lat="47.54668" lon="5.9112">
        <ele>258</ele>
        <time>2014-03-14T13:56:44.000Z</time>
      </trkpt>
      <trkpt lat="47.54656" lon="5.9111">
        <ele>258</ele>
        <time>2014-03-14T13:56:47.000Z</time>
      </trkpt>
      <trkpt lat="47.54648" lon="5.91103">
        <ele>257.60000610352</ele>
        <time>2014-03-14T13:56:49.000Z</time>
      </trkpt>
      <trkpt lat="47.54644" lon="5.91099">
        <ele>257</ele>
        <time>2014-03-14T13:56:50.000Z</time>
      </trkpt>
      <trkpt lat="47.54639" lon="5.91096">
        <ele>256.60000610352</ele>
        <time>2014-03-14T13:56:51.000Z</time>
      </trkpt>
      <trkpt lat="47.54634" lon="5.91093">
        <ele>256.20001220703</ele>
        <time>2014-03-14T13:56:52.000Z</time>
      </trkpt>
      <trkpt lat="47.5463" lon="5.9109">
        <ele>255.80000305176</ele>
        <time>2014-03-14T13:56:53.000Z</time>
      </trkpt>
      <trkpt lat="47.54621" lon="5.91083">
        <ele>255.80000305176</ele>
        <time>2014-03-14T13:56:55.000Z</time>
      </trkpt>
      <trkpt lat="47.54598" lon="5.91068">
        <ele>255.80000305176</ele>
        <time>2014-03-14T13:57:00.000Z</time>
      </trkpt>
      <trkpt lat="47.54579" lon="5.91053">
        <ele>255.39999389648</ele>
        <time>2014-03-14T13:57:04.000Z</time>
      </trkpt>
      <trkpt lat="47.54574" lon="5.9105">
        <ele>255</ele>
        <time>2014-03-14T13:57:05.000Z</time>
      </trkpt>
      <trkpt lat="47.5457" lon="5.91046">
        <ele>254.60000610352</ele>
        <time>2014-03-14T13:57:06.000Z</time>
      </trkpt>
      <trkpt lat="47.54565" lon="5.91043">
        <ele>254.19999694824</ele>
        <time>2014-03-14T13:57:07.000Z</time>
      </trkpt>
      <trkpt lat="47.54561" lon="5.91039">
        <ele>253.80000305176</ele>
        <time>2014-03-14T13:57:08.000Z</time>
      </trkpt>
      <trkpt lat="47.54532" lon="5.91018">
        <ele>253.80000305176</ele>
        <time>2014-03-14T13:57:14.000Z</time>
      </trkpt>
      <trkpt lat="47.54497" lon="5.90991">
        <ele>253</ele>
        <time>2014-03-14T13:57:21.000Z</time>
      </trkpt>
      <trkpt lat="47.54492" lon="5.90987">
        <ele>252.60000610352</ele>
        <time>2014-03-14T13:57:22.000Z</time>
      </trkpt>
      <trkpt lat="47.54487" lon="5.90983">
        <ele>252.19999694824</ele>
        <time>2014-03-14T13:57:23.000Z</time>
      </trkpt>
      <trkpt lat="47.54482" lon="5.90979">
        <ele>251.80000305176</ele>
        <time>2014-03-14T13:57:24.000Z</time>
      </trkpt>
      <trkpt lat="47.54472" lon="5.90971">
        <ele>251.80000305176</ele>
        <time>2014-03-14T13:57:26.000Z</time>
      </trkpt>
      <trkpt lat="47.54456" lon="5.9096">
        <ele>251.80000305176</ele>
        <time>2014-03-14T13:57:29.000Z</time>
      </trkpt>
      <trkpt lat="47.54432" lon="5.90943">
        <ele>251.80000305176</ele>
        <time>2014-03-14T13:57:34.000Z</time>
      </trkpt>
      <trkpt lat="47.54407" lon="5.90922">
        <ele>251.80000305176</ele>
        <time>2014-03-14T13:57:40.000Z</time>
      </trkpt>
      <trkpt lat="47.54378" lon="5.909">
        <ele>251.80000305176</ele>
        <time>2014-03-14T13:57:46.000Z</time>
      </trkpt>
      <trkpt lat="47.5436" lon="5.90885">
        <ele>251.39999389648</ele>
        <time>2014-03-14T13:57:50.000Z</time>
      </trkpt>
      <trkpt lat="47.54355" lon="5.90883">
        <ele>250.80000305176</ele>
        <time>2014-03-14T13:57:51.000Z</time>
      </trkpt>
      <trkpt lat="47.54351" lon="5.90879">
        <ele>250.39999389648</ele>
        <time>2014-03-14T13:57:52.000Z</time>
      </trkpt>
      <trkpt lat="47.54346" lon="5.90875">
        <ele>250</ele>
        <time>2014-03-14T13:57:53.000Z</time>
      </trkpt>
      <trkpt lat="47.54342" lon="5.90872">
        <ele>249.60000610352</ele>
        <time>2014-03-14T13:57:54.000Z</time>
      </trkpt>
      <trkpt lat="47.54317" lon="5.90853">
        <ele>249.60000610352</ele>
        <time>2014-03-14T13:57:59.000Z</time>
      </trkpt>
      <trkpt lat="47.54288" lon="5.90833">
        <ele>249.60000610352</ele>
        <time>2014-03-14T13:58:05.000Z</time>
      </trkpt>
      <trkpt lat="47.5426" lon="5.90811">
        <ele>249.60000610352</ele>
        <time>2014-03-14T13:58:11.000Z</time>
      </trkpt>
      <trkpt lat="47.54222" lon="5.90782">
        <ele>249.60000610352</ele>
        <time>2014-03-14T13:58:19.000Z</time>
      </trkpt>
      <trkpt lat="47.54198" lon="5.90764">
        <ele>249.19999694824</ele>
        <time>2014-03-14T13:58:24.000Z</time>
      </trkpt>
      <trkpt lat="47.54193" lon="5.9076">
        <ele>248.80000305176</ele>
        <time>2014-03-14T13:58:25.000Z</time>
      </trkpt>
      <trkpt lat="47.54188" lon="5.90755">
        <ele>248.39999389648</ele>
        <time>2014-03-14T13:58:26.000Z</time>
      </trkpt>
      <trkpt lat="47.54182" lon="5.90752">
        <ele>248</ele>
        <time>2014-03-14T13:58:27.000Z</time>
      </trkpt>
      <trkpt lat="47.54177" lon="5.90748">
        <ele>247.60000610352</ele>
        <time>2014-03-14T13:58:28.000Z</time>
      </trkpt>
      <trkpt lat="47.54146" lon="5.90725">
        <ele>247.60000610352</ele>
        <time>2014-03-14T13:58:34.000Z</time>
      </trkpt>
      <trkpt lat="47.5412" lon="5.90706">
        <ele>247.19999694824</ele>
        <time>2014-03-14T13:58:39.000Z</time>
      </trkpt>
      <trkpt lat="47.54116" lon="5.90703">
        <ele>246.80000305176</ele>
        <time>2014-03-14T13:58:40.000Z</time>
      </trkpt>
      <trkpt lat="47.54111" lon="5.90699">
        <ele>246.19999694824</ele>
        <time>2014-03-14T13:58:41.000Z</time>
      </trkpt>
      <trkpt lat="47.54106" lon="5.90695">
        <ele>245.80000305176</ele>
        <time>2014-03-14T13:58:42.000Z</time>
      </trkpt>
      <trkpt lat="47.54101" lon="5.90692">
        <ele>245.39999389648</ele>
        <time>2014-03-14T13:58:43.000Z</time>
      </trkpt>
      <trkpt lat="47.54096" lon="5.90688">
        <ele>245.39999389648</ele>
        <time>2014-03-14T13:58:44.000Z</time>
      </trkpt>
      <trkpt lat="47.54079" lon="5.90677">
        <ele>245.39999389648</ele>
        <time>2014-03-14T13:58:47.000Z</time>
      </trkpt>
      <trkpt lat="47.54039" lon="5.90646">
        <ele>245.39999389648</ele>
        <time>2014-03-14T13:58:55.000Z</time>
      </trkpt>
      <trkpt lat="47.54035" lon="5.90642">
        <ele>245.39999389648</ele>
        <time>2014-03-14T13:58:56.000Z</time>
      </trkpt>
      <trkpt lat="47.54016" lon="5.90626">
        <ele>245.39999389648</ele>
        <time>2014-03-14T13:59:00.000Z</time>
      </trkpt>
      <trkpt lat="47.53995" lon="5.90611">
        <ele>245.39999389648</ele>
        <time>2014-03-14T13:59:05.000Z</time>
      </trkpt>
      <trkpt lat="47.53982" lon="5.90601">
        <ele>245.80000305176</ele>
        <time>2014-03-14T13:59:09.000Z</time>
      </trkpt>
      <trkpt lat="47.53979" lon="5.90599">
        <ele>246.19999694824</ele>
        <time>2014-03-14T13:59:10.000Z</time>
      </trkpt>
      <trkpt lat="47.53976" lon="5.90597">
        <ele>246.60000610352</ele>
        <time>2014-03-14T13:59:11.000Z</time>
      </trkpt>
      <trkpt lat="47.53973" lon="5.90594">
        <ele>247.19999694824</ele>
        <time>2014-03-14T13:59:12.000Z</time>
      </trkpt>
      <trkpt lat="47.5397" lon="5.90592">
        <ele>247.60000610352</ele>
        <time>2014-03-14T13:59:13.000Z</time>
      </trkpt>
      <trkpt lat="47.53957" lon="5.90582">
        <ele>247.60000610352</ele>
        <time>2014-03-14T13:59:18.000Z</time>
      </trkpt>
      <trkpt lat="47.53942" lon="5.90569">
        <ele>247.60000610352</ele>
        <time>2014-03-14T13:59:24.000Z</time>
      </trkpt>
      <trkpt lat="47.53929" lon="5.90559">
        <ele>247.60000610352</ele>
        <time>2014-03-14T13:59:28.000Z</time>
      </trkpt>
      <trkpt lat="47.53906" lon="5.90545">
        <ele>247.60000610352</ele>
        <time>2014-03-14T13:59:34.000Z</time>
      </trkpt>
      <trkpt lat="47.53883" lon="5.90526">
        <ele>247.60000610352</ele>
        <time>2014-03-14T13:59:40.000Z</time>
      </trkpt>
      <trkpt lat="47.53879" lon="5.90523">
        <ele>247.60000610352</ele>
        <time>2014-03-14T13:59:41.000Z</time>
      </trkpt>
      <trkpt lat="47.53864" lon="5.90511">
        <ele>247.60000610352</ele>
        <time>2014-03-14T13:59:45.000Z</time>
      </trkpt>
      <trkpt lat="47.53835" lon="5.90489">
        <ele>247.60000610352</ele>
        <time>2014-03-14T13:59:52.000Z</time>
      </trkpt>
      <trkpt lat="47.5382" lon="5.90477">
        <ele>247.60000610352</ele>
        <time>2014-03-14T13:59:56.000Z</time>
      </trkpt>
      <trkpt lat="47.53808" lon="5.90468">
        <ele>247.60000610352</ele>
        <time>2014-03-14T13:59:59.000Z</time>
      </trkpt>
      <trkpt lat="47.53804" lon="5.90465">
        <ele>247.60000610352</ele>
        <time>2014-03-14T14:00:00.000Z</time>
      </trkpt>
      <trkpt lat="47.53784" lon="5.90451">
        <ele>247.60000610352</ele>
        <time>2014-03-14T14:00:05.000Z</time>
      </trkpt>
      <trkpt lat="47.5377" lon="5.90443">
        <ele>247.60000610352</ele>
        <time>2014-03-14T14:00:08.000Z</time>
      </trkpt>
      <trkpt lat="47.53762" lon="5.90436">
        <ele>247.60000610352</ele>
        <time>2014-03-14T14:00:10.000Z</time>
      </trkpt>
      <trkpt lat="47.53723" lon="5.90409">
        <ele>247.60000610352</ele>
        <time>2014-03-14T14:00:18.000Z</time>
      </trkpt>
      <trkpt lat="47.53718" lon="5.90405">
        <ele>247.19999694824</ele>
        <time>2014-03-14T14:00:19.000Z</time>
      </trkpt>
      <trkpt lat="47.53712" lon="5.90401">
        <ele>246.80000305176</ele>
        <time>2014-03-14T14:00:20.000Z</time>
      </trkpt>
      <trkpt lat="47.53707" lon="5.90397">
        <ele>246.39999389648</ele>
        <time>2014-03-14T14:00:21.000Z</time>
      </trkpt>
      <trkpt lat="47.53701" lon="5.90393">
        <ele>246</ele>
        <time>2014-03-14T14:00:22.000Z</time>
      </trkpt>
      <trkpt lat="47.53695" lon="5.90389">
        <ele>245.60000610352</ele>
        <time>2014-03-14T14:00:23.000Z</time>
      </trkpt>
      <trkpt lat="47.53683" lon="5.90379">
        <ele>245</ele>
        <time>2014-03-14T14:00:25.000Z</time>
      </trkpt>
      <trkpt lat="47.53677" lon="5.90375">
        <ele>244.60000610352</ele>
        <time>2014-03-14T14:00:26.000Z</time>
      </trkpt>
      <trkpt lat="47.53671" lon="5.90369">
        <ele>244.19999694824</ele>
        <time>2014-03-14T14:00:27.000Z</time>
      </trkpt>
      <trkpt lat="47.53664" lon="5.90364">
        <ele>243.80000305176</ele>
        <time>2014-03-14T14:00:28.000Z</time>
      </trkpt>
      <trkpt lat="47.53658" lon="5.9036">
        <ele>243.19999694824</ele>
        <time>2014-03-14T14:00:29.000Z</time>
      </trkpt>
      <trkpt lat="47.53652" lon="5.90355">
        <ele>242.60000610352</ele>
        <time>2014-03-14T14:00:30.000Z</time>
      </trkpt>
      <trkpt lat="47.53645" lon="5.9035">
        <ele>242.19999694824</ele>
        <time>2014-03-14T14:00:31.000Z</time>
      </trkpt>
      <trkpt lat="47.53638" lon="5.90345">
        <ele>241.60000610352</ele>
        <time>2014-03-14T14:00:32.000Z</time>
      </trkpt>
      <trkpt lat="47.53632" lon="5.90341">
        <ele>241</ele>
        <time>2014-03-14T14:00:33.000Z</time>
      </trkpt>
      <trkpt lat="47.53626" lon="5.90336">
        <ele>240.39999389648</ele>
        <time>2014-03-14T14:00:34.000Z</time>
      </trkpt>
      <trkpt lat="47.53619" lon="5.90331">
        <ele>239.80000305176</ele>
        <time>2014-03-14T14:00:35.000Z</time>
      </trkpt>
      <trkpt lat="47.53613" lon="5.90326">
        <ele>239.19999694824</ele>
        <time>2014-03-14T14:00:36.000Z</time>
      </trkpt>
      <trkpt lat="47.53607" lon="5.90321">
        <ele>238.60000610352</ele>
        <time>2014-03-14T14:00:37.000Z</time>
      </trkpt>
      <trkpt lat="47.53602" lon="5.90316">
        <ele>238.19999694824</ele>
        <time>2014-03-14T14:00:38.000Z</time>
      </trkpt>
      <trkpt lat="47.53596" lon="5.90312">
        <ele>237.19999694824</ele>
        <time>2014-03-14T14:00:39.000Z</time>
      </trkpt>
      <trkpt lat="47.53591" lon="5.90308">
        <ele>236.80000305176</ele>
        <time>2014-03-14T14:00:40.000Z</time>
      </trkpt>
      <trkpt lat="47.53586" lon="5.90304">
        <ele>236.39999389648</ele>
        <time>2014-03-14T14:00:41.000Z</time>
      </trkpt>
      <trkpt lat="47.53581" lon="5.903">
        <ele>236.39999389648</ele>
        <time>2014-03-14T14:00:42.000Z</time>
      </trkpt>
      <trkpt lat="47.53576" lon="5.90296">
        <ele>235.80000305176</ele>
        <time>2014-03-14T14:00:43.000Z</time>
      </trkpt>
      <trkpt lat="47.53571" lon="5.9029">
        <ele>235.39999389648</ele>
        <time>2014-03-14T14:00:44.000Z</time>
      </trkpt>
      <trkpt lat="47.53569" lon="5.90282">
        <ele>235</ele>
        <time>2014-03-14T14:00:45.000Z</time>
      </trkpt>
      <trkpt lat="47.53567" lon="5.90274">
        <ele>234.60000610352</ele>
        <time>2014-03-14T14:00:46.000Z</time>
      </trkpt>
      <trkpt lat="47.53566" lon="5.90267">
        <ele>234.19999694824</ele>
        <time>2014-03-14T14:00:47.000Z</time>
      </trkpt>
      <trkpt lat="47.53565" lon="5.90257">
        <ele>234.19999694824</ele>
        <time>2014-03-14T14:00:49.000Z</time>
      </trkpt>
      <trkpt lat="47.53562" lon="5.90222">
        <ele>234.19999694824</ele>
        <time>2014-03-14T14:00:56.000Z</time>
      </trkpt>
      <trkpt lat="47.53562" lon="5.902">
        <ele>234.19999694824</ele>
        <time>2014-03-14T14:01:01.000Z</time>
      </trkpt>
      <trkpt lat="47.53561" lon="5.90195">
        <ele>234.60000610352</ele>
        <time>2014-03-14T14:01:02.000Z</time>
      </trkpt>
      <trkpt lat="47.53561" lon="5.90189">
        <ele>235</ele>
        <time>2014-03-14T14:01:03.000Z</time>
      </trkpt>
      <trkpt lat="47.5356" lon="5.90184">
        <ele>235.80000305176</ele>
        <time>2014-03-14T14:01:04.000Z</time>
      </trkpt>
      <trkpt lat="47.5356" lon="5.90178">
        <ele>236.19999694824</ele>
        <time>2014-03-14T14:01:05.000Z</time>
      </trkpt>
      <trkpt lat="47.5356" lon="5.90167">
        <ele>236.19999694824</ele>
        <time>2014-03-14T14:01:07.000Z</time>
      </trkpt>
      <trkpt lat="47.53559" lon="5.90133">
        <ele>236.19999694824</ele>
        <time>2014-03-14T14:01:13.000Z</time>
      </trkpt>
      <trkpt lat="47.53561" lon="5.90107">
        <ele>236.19999694824</ele>
        <time>2014-03-14T14:01:17.000Z</time>
      </trkpt>
      <trkpt lat="47.53565" lon="5.90087">
        <ele>236.19999694824</ele>
        <time>2014-03-14T14:01:20.000Z</time>
      </trkpt>
      <trkpt lat="47.53568" lon="5.9007">
        <ele>236.19999694824</ele>
        <time>2014-03-14T14:01:23.000Z</time>
      </trkpt>
      <trkpt lat="47.53571" lon="5.90052">
        <ele>236.19999694824</ele>
        <time>2014-03-14T14:01:26.000Z</time>
      </trkpt>
      <trkpt lat="47.53575" lon="5.90038">
        <ele>236.19999694824</ele>
        <time>2014-03-14T14:01:28.000Z</time>
      </trkpt>
      <trkpt lat="47.53576" lon="5.9003">
        <ele>235.80000305176</ele>
        <time>2014-03-14T14:01:29.000Z</time>
      </trkpt>
      <trkpt lat="47.53578" lon="5.90023">
        <ele>235.39999389648</ele>
        <time>2014-03-14T14:01:30.000Z</time>
      </trkpt>
      <trkpt lat="47.5358" lon="5.90016">
        <ele>234.80000305176</ele>
        <time>2014-03-14T14:01:31.000Z</time>
      </trkpt>
      <trkpt lat="47.53583" lon="5.90009">
        <ele>234.39999389648</ele>
        <time>2014-03-14T14:01:32.000Z</time>
      </trkpt>
      <trkpt lat="47.53585" lon="5.90001">
        <ele>234</ele>
        <time>2014-03-14T14:01:33.000Z</time>
      </trkpt>
      <trkpt lat="47.53587" lon="5.89993">
        <ele>233.60000610352</ele>
        <time>2014-03-14T14:01:34.000Z</time>
      </trkpt>
      <trkpt lat="47.53588" lon="5.89987">
        <ele>233.19999694824</ele>
        <time>2014-03-14T14:01:35.000Z</time>
      </trkpt>
      <trkpt lat="47.53589" lon="5.89979">
        <ele>232.80000305176</ele>
        <time>2014-03-14T14:01:36.000Z</time>
      </trkpt>
      <trkpt lat="47.53592" lon="5.89972">
        <ele>232.19999694824</ele>
        <time>2014-03-14T14:01:37.000Z</time>
      </trkpt>
      <trkpt lat="47.53594" lon="5.89964">
        <ele>231.80000305176</ele>
        <time>2014-03-14T14:01:38.000Z</time>
      </trkpt>
      <trkpt lat="47.53596" lon="5.89956">
        <ele>231.80000305176</ele>
        <time>2014-03-14T14:01:39.000Z</time>
      </trkpt>
      <trkpt lat="47.53599" lon="5.8994">
        <ele>231.80000305176</ele>
        <time>2014-03-14T14:01:41.000Z</time>
      </trkpt>
      <trkpt lat="47.536" lon="5.89931">
        <ele>231.39999389648</ele>
        <time>2014-03-14T14:01:42.000Z</time>
      </trkpt>
      <trkpt lat="47.53601" lon="5.89922">
        <ele>230.80000305176</ele>
        <time>2014-03-14T14:01:43.000Z</time>
      </trkpt>
      <trkpt lat="47.53602" lon="5.89912">
        <ele>230.39999389648</ele>
        <time>2014-03-14T14:01:44.000Z</time>
      </trkpt>
      <trkpt lat="47.53603" lon="5.89902">
        <ele>230</ele>
        <time>2014-03-14T14:01:45.000Z</time>
      </trkpt>
      <trkpt lat="47.53604" lon="5.89893">
        <ele>229.39999389648</ele>
        <time>2014-03-14T14:01:46.000Z</time>
      </trkpt>
      <trkpt lat="47.53605" lon="5.89884">
        <ele>229</ele>
        <time>2014-03-14T14:01:47.000Z</time>
      </trkpt>
      <trkpt lat="47.53606" lon="5.89874">
        <ele>228.39999389648</ele>
        <time>2014-03-14T14:01:48.000Z</time>
      </trkpt>
      <trkpt lat="47.53606" lon="5.89865">
        <ele>227.80000305176</ele>
        <time>2014-03-14T14:01:49.000Z</time>
      </trkpt>
      <trkpt lat="47.53607" lon="5.89855">
        <ele>227.39999389648</ele>
        <time>2014-03-14T14:01:50.000Z</time>
      </trkpt>
      <trkpt lat="47.53608" lon="5.89847">
        <ele>226.80000305176</ele>
        <time>2014-03-14T14:01:51.000Z</time>
      </trkpt>
      <trkpt lat="47.53609" lon="5.89837">
        <ele>226.39999389648</ele>
        <time>2014-03-14T14:01:52.000Z</time>
      </trkpt>
      <trkpt lat="47.5361" lon="5.89828">
        <ele>225.39999389648</ele>
        <time>2014-03-14T14:01:53.000Z</time>
      </trkpt>
      <trkpt lat="47.53611" lon="5.89819">
        <ele>224.80000305176</ele>
        <time>2014-03-14T14:01:54.000Z</time>
      </trkpt>
      <trkpt lat="47.53613" lon="5.89789">
        <ele>224.39999389648</ele>
        <time>2014-03-14T14:01:57.000Z</time>
      </trkpt>
      <trkpt lat="47.53614" lon="5.89778">
        <ele>224</ele>
        <time>2014-03-14T14:01:58.000Z</time>
      </trkpt>
      <trkpt lat="47.53615" lon="5.89768">
        <ele>223.60000610352</ele>
        <time>2014-03-14T14:01:59.000Z</time>
      </trkpt>
      <trkpt lat="47.53616" lon="5.89757">
        <ele>223</ele>
        <time>2014-03-14T14:02:00.000Z</time>
      </trkpt>
      <trkpt lat="47.53617" lon="5.89747">
        <ele>222.60000610352</ele>
        <time>2014-03-14T14:02:01.000Z</time>
      </trkpt>
      <trkpt lat="47.5362" lon="5.89705">
        <ele>222.19999694824</ele>
        <time>2014-03-14T14:02:05.000Z</time>
      </trkpt>
      <trkpt lat="47.53621" lon="5.89693">
        <ele>221.80000305176</ele>
        <time>2014-03-14T14:02:06.000Z</time>
      </trkpt>
      <trkpt lat="47.53622" lon="5.89683">
        <ele>221.39999389648</ele>
        <time>2014-03-14T14:02:07.000Z</time>
      </trkpt>
      <trkpt lat="47.53622" lon="5.89672">
        <ele>221</ele>
        <time>2014-03-14T14:02:08.000Z</time>
      </trkpt>
      <trkpt lat="47.53624" lon="5.89662">
        <ele>220.60000610352</ele>
        <time>2014-03-14T14:02:09.000Z</time>
      </trkpt>
      <trkpt lat="47.53624" lon="5.89651">
        <ele>220.19999694824</ele>
        <time>2014-03-14T14:02:10.000Z</time>
      </trkpt>
      <trkpt lat="47.53625" lon="5.8964">
        <ele>219.80000305176</ele>
        <time>2014-03-14T14:02:11.000Z</time>
      </trkpt>
      <trkpt lat="47.53626" lon="5.89628">
        <ele>219.39999389648</ele>
        <time>2014-03-14T14:02:12.000Z</time>
      </trkpt>
      <trkpt lat="47.53627" lon="5.89617">
        <ele>219</ele>
        <time>2014-03-14T14:02:13.000Z</time>
      </trkpt>
      <trkpt lat="47.53628" lon="5.89605">
        <ele>218.39999389648</ele>
        <time>2014-03-14T14:02:14.000Z</time>
      </trkpt>
      <trkpt lat="47.53629" lon="5.89593">
        <ele>218</ele>
        <time>2014-03-14T14:02:15.000Z</time>
      </trkpt>
      <trkpt lat="47.53629" lon="5.89582">
        <ele>217.39999389648</ele>
        <time>2014-03-14T14:02:16.000Z</time>
      </trkpt>
      <trkpt lat="47.5363" lon="5.8957">
        <ele>217</ele>
        <time>2014-03-14T14:02:17.000Z</time>
      </trkpt>
      <trkpt lat="47.53631" lon="5.89557">
        <ele>215.80000305176</ele>
        <time>2014-03-14T14:02:18.000Z</time>
      </trkpt>
      <trkpt lat="47.53631" lon="5.89545">
        <ele>215.19999694824</ele>
        <time>2014-03-14T14:02:19.000Z</time>
      </trkpt>
      <trkpt lat="47.53632" lon="5.89532">
        <ele>214.39999389648</ele>
        <time>2014-03-14T14:02:20.000Z</time>
      </trkpt>
      <trkpt lat="47.53633" lon="5.89519">
        <ele>213.60000610352</ele>
        <time>2014-03-14T14:02:21.000Z</time>
      </trkpt>
      <trkpt lat="47.53634" lon="5.89506">
        <ele>212.80000305176</ele>
        <time>2014-03-14T14:02:22.000Z</time>
      </trkpt>
      <trkpt lat="47.53635" lon="5.89493">
        <ele>212</ele>
        <time>2014-03-14T14:02:23.000Z</time>
      </trkpt>
      <trkpt lat="47.53636" lon="5.89481">
        <ele>211.39999389648</ele>
        <time>2014-03-14T14:02:24.000Z</time>
      </trkpt>
      <trkpt lat="47.53638" lon="5.89447">
        <ele>211.39999389648</ele>
        <time>2014-03-14T14:02:27.000Z</time>
      </trkpt>
      <trkpt lat="47.53641" lon="5.89413">
        <ele>211</ele>
        <time>2014-03-14T14:02:30.000Z</time>
      </trkpt>
      <trkpt lat="47.53642" lon="5.89402">
        <ele>210.39999389648</ele>
        <time>2014-03-14T14:02:31.000Z</time>
      </trkpt>
      <trkpt lat="47.53643" lon="5.89392">
        <ele>210</ele>
        <time>2014-03-14T14:02:32.000Z</time>
      </trkpt>
      <trkpt lat="47.53644" lon="5.89382">
        <ele>209.60000610352</ele>
        <time>2014-03-14T14:02:33.000Z</time>
      </trkpt>
      <trkpt lat="47.53644" lon="5.89372">
        <ele>209.19999694824</ele>
        <time>2014-03-14T14:02:34.000Z</time>
      </trkpt>
      <trkpt lat="47.53647" lon="5.89339">
        <ele>209.19999694824</ele>
        <time>2014-03-14T14:02:38.000Z</time>
      </trkpt>
      <trkpt lat="47.53647" lon="5.89331">
        <ele>209.80000305176</ele>
        <time>2014-03-14T14:02:39.000Z</time>
      </trkpt>
      <trkpt lat="47.53647" lon="5.89324">
        <ele>210.19999694824</ele>
        <time>2014-03-14T14:02:40.000Z</time>
      </trkpt>
      <trkpt lat="47.53648" lon="5.89317">
        <ele>210.60000610352</ele>
        <time>2014-03-14T14:02:41.000Z</time>
      </trkpt>
      <trkpt lat="47.53649" lon="5.89309">
        <ele>211.19999694824</ele>
        <time>2014-03-14T14:02:42.000Z</time>
      </trkpt>
      <trkpt lat="47.53649" lon="5.89302">
        <ele>211.60000610352</ele>
        <time>2014-03-14T14:02:43.000Z</time>
      </trkpt>
      <trkpt lat="47.5365" lon="5.89288">
        <ele>211.60000610352</ele>
        <time>2014-03-14T14:02:45.000Z</time>
      </trkpt>
      <trkpt lat="47.53653" lon="5.89263">
        <ele>212</ele>
        <time>2014-03-14T14:02:49.000Z</time>
      </trkpt>
      <trkpt lat="47.53653" lon="5.89257">
        <ele>212.39999389648</ele>
        <time>2014-03-14T14:02:50.000Z</time>
      </trkpt>
      <trkpt lat="47.53653" lon="5.89252">
        <ele>212.80000305176</ele>
        <time>2014-03-14T14:02:51.000Z</time>
      </trkpt>
      <trkpt lat="47.53653" lon="5.89248">
        <ele>213.19999694824</ele>
        <time>2014-03-14T14:02:52.000Z</time>
      </trkpt>
      <trkpt lat="47.53654" lon="5.89242">
        <ele>213.60000610352</ele>
        <time>2014-03-14T14:02:53.000Z</time>
      </trkpt>
      <trkpt lat="47.53657" lon="5.8922">
        <ele>213.60000610352</ele>
        <time>2014-03-14T14:02:57.000Z</time>
      </trkpt>
      <trkpt lat="47.53662" lon="5.89163">
        <ele>213.60000610352</ele>
        <time>2014-03-14T14:03:06.000Z</time>
      </trkpt>
      <trkpt lat="47.53666" lon="5.89116">
        <ele>213.60000610352</ele>
        <time>2014-03-14T14:03:13.000Z</time>
      </trkpt>
      <trkpt lat="47.5367" lon="5.89053">
        <ele>213.60000610352</ele>
        <time>2014-03-14T14:03:22.000Z</time>
      </trkpt>
      <trkpt lat="47.53676" lon="5.88971">
        <ele>213.60000610352</ele>
        <time>2014-03-14T14:03:33.000Z</time>
      </trkpt>
      <trkpt lat="47.53678" lon="5.88941">
        <ele>213.19999694824</ele>
        <time>2014-03-14T14:03:37.000Z</time>
      </trkpt>
      <trkpt lat="47.53678" lon="5.88933">
        <ele>212.80000305176</ele>
        <time>2014-03-14T14:03:38.000Z</time>
      </trkpt>
      <trkpt lat="47.53679" lon="5.88925">
        <ele>212.39999389648</ele>
        <time>2014-03-14T14:03:39.000Z</time>
      </trkpt>
      <trkpt lat="47.53679" lon="5.88917">
        <ele>212</ele>
        <time>2014-03-14T14:03:40.000Z</time>
      </trkpt>
      <trkpt lat="47.5368" lon="5.88908">
        <ele>211.60000610352</ele>
        <time>2014-03-14T14:03:41.000Z</time>
      </trkpt>
      <trkpt lat="47.53683" lon="5.88857">
        <ele>211.60000610352</ele>
        <time>2014-03-14T14:03:47.000Z</time>
      </trkpt>
      <trkpt lat="47.53687" lon="5.88801">
        <ele>211.60000610352</ele>
        <time>2014-03-14T14:03:54.000Z</time>
      </trkpt>
      <trkpt lat="47.53692" lon="5.88739">
        <ele>211.60000610352</ele>
        <time>2014-03-14T14:04:02.000Z</time>
      </trkpt>
      <trkpt lat="47.53696" lon="5.88717">
        <ele>211</ele>
        <time>2014-03-14T14:04:05.000Z</time>
      </trkpt>
      <trkpt lat="47.53697" lon="5.88709">
        <ele>210.60000610352</ele>
        <time>2014-03-14T14:04:06.000Z</time>
      </trkpt>
      <trkpt lat="47.53698" lon="5.88701">
        <ele>210.19999694824</ele>
        <time>2014-03-14T14:04:07.000Z</time>
      </trkpt>
      <trkpt lat="47.537" lon="5.88694">
        <ele>209.80000305176</ele>
        <time>2014-03-14T14:04:08.000Z</time>
      </trkpt>
      <trkpt lat="47.53702" lon="5.88686">
        <ele>209.39999389648</ele>
        <time>2014-03-14T14:04:09.000Z</time>
      </trkpt>
      <trkpt lat="47.53703" lon="5.88679">
        <ele>209.39999389648</ele>
        <time>2014-03-14T14:04:10.000Z</time>
      </trkpt>
      <trkpt lat="47.53709" lon="5.88653">
        <ele>209.39999389648</ele>
        <time>2014-03-14T14:04:14.000Z</time>
      </trkpt>
      <trkpt lat="47.53707" lon="5.88642">
        <ele>209.39999389648</ele>
        <time>2014-03-14T14:04:16.000Z</time>
      </trkpt>
      <trkpt lat="47.53704" lon="5.8864">
        <ele>209.39999389648</ele>
        <time>2014-03-14T14:04:17.000Z</time>
      </trkpt>
      <trkpt lat="47.53694" lon="5.88619">
        <ele>209.39999389648</ele>
        <time>2014-03-14T14:04:21.000Z</time>
      </trkpt>
      <trkpt lat="47.53691" lon="5.88614">
        <ele>209.39999389648</ele>
        <time>2014-03-14T14:04:22.000Z</time>
      </trkpt>
      <trkpt lat="47.53681" lon="5.88582">
        <ele>209.39999389648</ele>
        <time>2014-03-14T14:04:27.000Z</time>
      </trkpt>
      <trkpt lat="47.53669" lon="5.88544">
        <ele>209.39999389648</ele>
        <time>2014-03-14T14:04:33.000Z</time>
      </trkpt>
      <trkpt lat="47.53657" lon="5.88501">
        <ele>209.39999389648</ele>
        <time>2014-03-14T14:04:40.000Z</time>
      </trkpt>
      <trkpt lat="47.53653" lon="5.8849">
        <ele>209.39999389648</ele>
        <time>2014-03-14T14:04:42.000Z</time>
      </trkpt>
      <trkpt lat="47.53646" lon="5.88485">
        <ele>209.39999389648</ele>
        <time>2014-03-14T14:04:44.000Z</time>
      </trkpt>
      <trkpt lat="47.53634" lon="5.8849">
        <ele>209.39999389648</ele>
        <time>2014-03-14T14:04:47.000Z</time>
      </trkpt>
      <trkpt lat="47.53624" lon="5.88492">
        <ele>209.39999389648</ele>
        <time>2014-03-14T14:04:50.000Z</time>
      </trkpt>
      <trkpt lat="47.53616" lon="5.88495">
        <ele>209.39999389648</ele>
        <time>2014-03-14T14:04:52.000Z</time>
      </trkpt>
      <trkpt lat="47.53587" lon="5.88506">
        <ele>209.39999389648</ele>
        <time>2014-03-14T14:04:58.000Z</time>
      </trkpt>
      <trkpt lat="47.53541" lon="5.88522">
        <ele>209.39999389648</ele>
        <time>2014-03-14T14:05:07.000Z</time>
      </trkpt>
      <trkpt lat="47.53531" lon="5.88522">
        <ele>209.39999389648</ele>
        <time>2014-03-14T14:05:09.000Z</time>
      </trkpt>
      <trkpt lat="47.53517" lon="5.88521">
        <ele>209.39999389648</ele>
        <time>2014-03-14T14:05:12.000Z</time>
      </trkpt>
      <trkpt lat="47.53498" lon="5.88514">
        <ele>209.39999389648</ele>
        <time>2014-03-14T14:05:16.000Z</time>
      </trkpt>
      <trkpt lat="47.53489" lon="5.88512">
        <ele>209.39999389648</ele>
        <time>2014-03-14T14:05:18.000Z</time>
      </trkpt>
      <trkpt lat="47.53445" lon="5.88502">
        <ele>209.39999389648</ele>
        <time>2014-03-14T14:05:28.000Z</time>
      </trkpt>
      <trkpt lat="47.53416" lon="5.88494">
        <ele>209.39999389648</ele>
        <time>2014-03-14T14:05:34.000Z</time>
      </trkpt>
      <trkpt lat="47.53377" lon="5.88486">
        <ele>209.39999389648</ele>
        <time>2014-03-14T14:05:40.000Z</time>
      </trkpt>
      <trkpt lat="47.53332" lon="5.88478">
        <ele>209.39999389648</ele>
        <time>2014-03-14T14:05:47.000Z</time>
      </trkpt>
      <trkpt lat="47.53292" lon="5.88469">
        <ele>209.39999389648</ele>
        <time>2014-03-14T14:05:54.000Z</time>
      </trkpt>
      <trkpt lat="47.53287" lon="5.88468">
        <ele>209.39999389648</ele>
        <time>2014-03-14T14:05:55.000Z</time>
      </trkpt>
      <trkpt lat="47.53245" lon="5.88458">
        <ele>209.39999389648</ele>
        <time>2014-03-14T14:06:03.000Z</time>
      </trkpt>
      <trkpt lat="47.53203" lon="5.88449">
        <ele>209.39999389648</ele>
        <time>2014-03-14T14:06:11.000Z</time>
      </trkpt>
      <trkpt lat="47.53158" lon="5.88437">
        <ele>209.39999389648</ele>
        <time>2014-03-14T14:06:20.000Z</time>
      </trkpt>
      <trkpt lat="47.53124" lon="5.88431">
        <ele>209.39999389648</ele>
        <time>2014-03-14T14:06:27.000Z</time>
      </trkpt>
      <trkpt lat="47.53102" lon="5.88426">
        <ele>209.39999389648</ele>
        <time>2014-03-14T14:06:32.000Z</time>
      </trkpt>
      <trkpt lat="47.53098" lon="5.88425">
        <ele>209.39999389648</ele>
        <time>2014-03-14T14:06:33.000Z</time>
      </trkpt>
      <trkpt lat="47.5307" lon="5.88424">
        <ele>209.39999389648</ele>
        <time>2014-03-14T14:06:40.000Z</time>
      </trkpt>
      <trkpt lat="47.53062" lon="5.8843">
        <ele>209.39999389648</ele>
        <time>2014-03-14T14:06:42.000Z</time>
      </trkpt>
      <trkpt lat="47.53056" lon="5.88437">
        <ele>209.39999389648</ele>
        <time>2014-03-14T14:06:44.000Z</time>
      </trkpt>
      <trkpt lat="47.5305" lon="5.88443">
        <ele>209.39999389648</ele>
        <time>2014-03-14T14:06:46.000Z</time>
      </trkpt>
      <trkpt lat="47.53047" lon="5.88444">
        <ele>209.39999389648</ele>
        <time>2014-03-14T14:06:47.000Z</time>
      </trkpt>
      <trkpt lat="47.53027" lon="5.88459">
        <ele>209.39999389648</ele>
        <time>2014-03-14T14:06:53.000Z</time>
      </trkpt>
      <trkpt lat="47.52996" lon="5.88484">
        <ele>209.39999389648</ele>
        <time>2014-03-14T14:07:02.000Z</time>
      </trkpt>
      <trkpt lat="47.52976" lon="5.885">
        <ele>209.80000305176</ele>
        <time>2014-03-14T14:07:08.000Z</time>
      </trkpt>
      <trkpt lat="47.52972" lon="5.88503">
        <ele>210.19999694824</ele>
        <time>2014-03-14T14:07:09.000Z</time>
      </trkpt>
      <trkpt lat="47.52969" lon="5.88506">
        <ele>210.80000305176</ele>
        <time>2014-03-14T14:07:10.000Z</time>
      </trkpt>
      <trkpt lat="47.52966" lon="5.88509">
        <ele>211.19999694824</ele>
        <time>2014-03-14T14:07:11.000Z</time>
      </trkpt>
      <trkpt lat="47.52962" lon="5.88512">
        <ele>211.60000610352</ele>
        <time>2014-03-14T14:07:12.000Z</time>
      </trkpt>
      <trkpt lat="47.52949" lon="5.88521">
        <ele>211.60000610352</ele>
        <time>2014-03-14T14:07:16.000Z</time>
      </trkpt>
      <trkpt lat="47.52925" lon="5.88542">
        <ele>211.60000610352</ele>
        <time>2014-03-14T14:07:24.000Z</time>
      </trkpt>
      <trkpt lat="47.52912" lon="5.88553">
        <ele>212</ele>
        <time>2014-03-14T14:07:28.000Z</time>
      </trkpt>
      <trkpt lat="47.52909" lon="5.88556">
        <ele>212.39999389648</ele>
        <time>2014-03-14T14:07:29.000Z</time>
      </trkpt>
      <trkpt lat="47.52906" lon="5.88559">
        <ele>212.80000305176</ele>
        <time>2014-03-14T14:07:30.000Z</time>
      </trkpt>
      <trkpt lat="47.52903" lon="5.88562">
        <ele>213.19999694824</ele>
        <time>2014-03-14T14:07:31.000Z</time>
      </trkpt>
      <trkpt lat="47.52901" lon="5.88565">
        <ele>213.60000610352</ele>
        <time>2014-03-14T14:07:32.000Z</time>
      </trkpt>
      <trkpt lat="47.52884" lon="5.88579">
        <ele>213.60000610352</ele>
        <time>2014-03-14T14:07:38.000Z</time>
      </trkpt>
      <trkpt lat="47.5287" lon="5.88594">
        <ele>213.60000610352</ele>
        <time>2014-03-14T14:07:43.000Z</time>
      </trkpt>
      <trkpt lat="47.52853" lon="5.88607">
        <ele>213.60000610352</ele>
        <time>2014-03-14T14:07:49.000Z</time>
      </trkpt>
      <trkpt lat="47.52842" lon="5.88616">
        <ele>214.19999694824</ele>
        <time>2014-03-14T14:07:53.000Z</time>
      </trkpt>
      <trkpt lat="47.52839" lon="5.88619">
        <ele>214.60000610352</ele>
        <time>2014-03-14T14:07:54.000Z</time>
      </trkpt>
      <trkpt lat="47.52837" lon="5.88621">
        <ele>215</ele>
        <time>2014-03-14T14:07:55.000Z</time>
      </trkpt>
      <trkpt lat="47.52835" lon="5.88623">
        <ele>215.39999389648</ele>
        <time>2014-03-14T14:07:56.000Z</time>
      </trkpt>
      <trkpt lat="47.52832" lon="5.88625">
        <ele>215.80000305176</ele>
        <time>2014-03-14T14:07:57.000Z</time>
      </trkpt>
      <trkpt lat="47.52823" lon="5.88633">
        <ele>215.80000305176</ele>
        <time>2014-03-14T14:08:01.000Z</time>
      </trkpt>
      <trkpt lat="47.52812" lon="5.88641">
        <ele>215.80000305176</ele>
        <time>2014-03-14T14:08:06.000Z</time>
      </trkpt>
      <trkpt lat="47.52808" lon="5.88645">
        <ele>216.19999694824</ele>
        <time>2014-03-14T14:08:08.000Z</time>
      </trkpt>
      <trkpt lat="47.52806" lon="5.88647">
        <ele>216.60000610352</ele>
        <time>2014-03-14T14:08:09.000Z</time>
      </trkpt>
      <trkpt lat="47.52804" lon="5.88649">
        <ele>217</ele>
        <time>2014-03-14T14:08:10.000Z</time>
      </trkpt>
      <trkpt lat="47.52801" lon="5.8865">
        <ele>217.39999389648</ele>
        <time>2014-03-14T14:08:11.000Z</time>
      </trkpt>
      <trkpt lat="47.52799" lon="5.88652">
        <ele>217.80000305176</ele>
        <time>2014-03-14T14:08:12.000Z</time>
      </trkpt>
      <trkpt lat="47.52791" lon="5.8866">
        <ele>217.80000305176</ele>
        <time>2014-03-14T14:08:16.000Z</time>
      </trkpt>
      <trkpt lat="47.52789" lon="5.8866">
        <ele>217.80000305176</ele>
        <time>2014-03-14T14:08:17.000Z</time>
      </trkpt>
      <trkpt lat="47.52776" lon="5.8867">
        <ele>217.80000305176</ele>
        <time>2014-03-14T14:08:23.000Z</time>
      </trkpt>
      <trkpt lat="47.52765" lon="5.88679">
        <ele>217.80000305176</ele>
        <time>2014-03-14T14:08:28.000Z</time>
      </trkpt>
      <trkpt lat="47.52755" lon="5.88686">
        <ele>217.80000305176</ele>
        <time>2014-03-14T14:08:32.000Z</time>
      </trkpt>
      <trkpt lat="47.52747" lon="5.88692">
        <ele>218.19999694824</ele>
        <time>2014-03-14T14:08:36.000Z</time>
      </trkpt>
      <trkpt lat="47.52745" lon="5.88694">
        <ele>218.60000610352</ele>
        <time>2014-03-14T14:08:37.000Z</time>
      </trkpt>
      <trkpt lat="47.52743" lon="5.88696">
        <ele>219</ele>
        <time>2014-03-14T14:08:38.000Z</time>
      </trkpt>
      <trkpt lat="47.52742" lon="5.88698">
        <ele>219.39999389648</ele>
        <time>2014-03-14T14:08:39.000Z</time>
      </trkpt>
      <trkpt lat="47.5274" lon="5.887">
        <ele>219.80000305176</ele>
        <time>2014-03-14T14:08:40.000Z</time>
      </trkpt>
      <trkpt lat="47.52736" lon="5.88703">
        <ele>219.80000305176</ele>
        <time>2014-03-14T14:08:42.000Z</time>
      </trkpt>
      <trkpt lat="47.5272" lon="5.88716">
        <ele>219.80000305176</ele>
        <time>2014-03-14T14:08:49.000Z</time>
      </trkpt>
      <trkpt lat="47.5271" lon="5.88723">
        <ele>220.19999694824</ele>
        <time>2014-03-14T14:08:54.000Z</time>
      </trkpt>
      <trkpt lat="47.52708" lon="5.88726">
        <ele>220.80000305176</ele>
        <time>2014-03-14T14:08:55.000Z</time>
      </trkpt>
      <trkpt lat="47.52706" lon="5.88728">
        <ele>221.19999694824</ele>
        <time>2014-03-14T14:08:56.000Z</time>
      </trkpt>
      <trkpt lat="47.52704" lon="5.8873">
        <ele>221.60000610352</ele>
        <time>2014-03-14T14:08:57.000Z</time>
      </trkpt>
      <trkpt lat="47.52702" lon="5.88732">
        <ele>222</ele>
        <time>2014-03-14T14:08:58.000Z</time>
      </trkpt>
      <trkpt lat="47.52687" lon="5.88746">
        <ele>222</ele>
        <time>2014-03-14T14:09:06.000Z</time>
      </trkpt>
      <trkpt lat="47.52679" lon="5.88755">
        <ele>222.39999389648</ele>
        <time>2014-03-14T14:09:11.000Z</time>
      </trkpt>
      <trkpt lat="47.52677" lon="5.88757">
        <ele>222.80000305176</ele>
        <time>2014-03-14T14:09:12.000Z</time>
      </trkpt>
      <trkpt lat="47.52675" lon="5.88759">
        <ele>223.19999694824</ele>
        <time>2014-03-14T14:09:13.000Z</time>
      </trkpt>
      <trkpt lat="47.52673" lon="5.8876">
        <ele>223.60000610352</ele>
        <time>2014-03-14T14:09:14.000Z</time>
      </trkpt>
      <trkpt lat="47.52671" lon="5.88762">
        <ele>224</ele>
        <time>2014-03-14T14:09:15.000Z</time>
      </trkpt>
      <trkpt lat="47.52666" lon="5.88767">
        <ele>224</ele>
        <time>2014-03-14T14:09:18.000Z</time>
      </trkpt>
      <trkpt lat="47.52653" lon="5.88776">
        <ele>224.60000610352</ele>
        <time>2014-03-14T14:09:25.000Z</time>
      </trkpt>
      <trkpt lat="47.52651" lon="5.88777">
        <ele>225</ele>
        <time>2014-03-14T14:09:26.000Z</time>
      </trkpt>
      <trkpt lat="47.5265" lon="5.88779">
        <ele>225.39999389648</ele>
        <time>2014-03-14T14:09:27.000Z</time>
      </trkpt>
      <trkpt lat="47.52648" lon="5.8878">
        <ele>225.80000305176</ele>
        <time>2014-03-14T14:09:28.000Z</time>
      </trkpt>
      <trkpt lat="47.52646" lon="5.88781">
        <ele>226.19999694824</ele>
        <time>2014-03-14T14:09:29.000Z</time>
      </trkpt>
      <trkpt lat="47.5264" lon="5.88787">
        <ele>226.19999694824</ele>
        <time>2014-03-14T14:09:33.000Z</time>
      </trkpt>
      <trkpt lat="47.52627" lon="5.88798">
        <ele>226.19999694824</ele>
        <time>2014-03-14T14:09:40.000Z</time>
      </trkpt>
      <trkpt lat="47.52621" lon="5.88804">
        <ele>226.60000610352</ele>
        <time>2014-03-14T14:09:43.000Z</time>
      </trkpt>
      <trkpt lat="47.5262" lon="5.88805">
        <ele>227.39999389648</ele>
        <time>2014-03-14T14:09:44.000Z</time>
      </trkpt>
      <trkpt lat="47.52618" lon="5.88807">
        <ele>227.80000305176</ele>
        <time>2014-03-14T14:09:45.000Z</time>
      </trkpt>
      <trkpt lat="47.52616" lon="5.88809">
        <ele>228.19999694824</ele>
        <time>2014-03-14T14:09:46.000Z</time>
      </trkpt>
      <trkpt lat="47.52609" lon="5.88816">
        <ele>228.19999694824</ele>
        <time>2014-03-14T14:09:51.000Z</time>
      </trkpt>
      <trkpt lat="47.52594" lon="5.8883">
        <ele>228.19999694824</ele>
        <time>2014-03-14T14:09:59.000Z</time>
      </trkpt>
      <trkpt lat="47.5258" lon="5.8884">
        <ele>228.60000610352</ele>
        <time>2014-03-14T14:10:06.000Z</time>
      </trkpt>
      <trkpt lat="47.52579" lon="5.88842">
        <ele>229</ele>
        <time>2014-03-14T14:10:07.000Z</time>
      </trkpt>
      <trkpt lat="47.52577" lon="5.88843">
        <ele>229.80000305176</ele>
        <time>2014-03-14T14:10:08.000Z</time>
      </trkpt>
      <trkpt lat="47.52575" lon="5.88845">
        <ele>230.19999694824</ele>
        <time>2014-03-14T14:10:09.000Z</time>
      </trkpt>
      <trkpt lat="47.52566" lon="5.88852">
        <ele>230.19999694824</ele>
        <time>2014-03-14T14:10:14.000Z</time>
      </trkpt>
      <trkpt lat="47.52551" lon="5.88865">
        <ele>230.19999694824</ele>
        <time>2014-03-14T14:10:21.000Z</time>
      </trkpt>
      <trkpt lat="47.52534" lon="5.88877">
        <ele>230.19999694824</ele>
        <time>2014-03-14T14:10:28.000Z</time>
      </trkpt>
      <trkpt lat="47.52521" lon="5.88888">
        <ele>230.19999694824</ele>
        <time>2014-03-14T14:10:34.000Z</time>
      </trkpt>
      <trkpt lat="47.52519" lon="5.8889">
        <ele>230.60000610352</ele>
        <time>2014-03-14T14:10:35.000Z</time>
      </trkpt>
      <trkpt lat="47.52517" lon="5.88892">
        <ele>231</ele>
        <time>2014-03-14T14:10:36.000Z</time>
      </trkpt>
      <trkpt lat="47.52514" lon="5.88894">
        <ele>231.39999389648</ele>
        <time>2014-03-14T14:10:37.000Z</time>
      </trkpt>
      <trkpt lat="47.52512" lon="5.88897">
        <ele>231.80000305176</ele>
        <time>2014-03-14T14:10:38.000Z</time>
      </trkpt>
      <trkpt lat="47.5251" lon="5.88899">
        <ele>232.19999694824</ele>
        <time>2014-03-14T14:10:39.000Z</time>
      </trkpt>
      <trkpt lat="47.52508" lon="5.88901">
        <ele>232.19999694824</ele>
        <time>2014-03-14T14:10:40.000Z</time>
      </trkpt>
      <trkpt lat="47.52492" lon="5.88915">
        <ele>232.19999694824</ele>
        <time>2014-03-14T14:10:47.000Z</time>
      </trkpt>
      <trkpt lat="47.52478" lon="5.88925">
        <ele>232.19999694824</ele>
        <time>2014-03-14T14:10:53.000Z</time>
      </trkpt>
      <trkpt lat="47.52467" lon="5.88934">
        <ele>232.60000610352</ele>
        <time>2014-03-14T14:10:58.000Z</time>
      </trkpt>
      <trkpt lat="47.52465" lon="5.88936">
        <ele>233</ele>
        <time>2014-03-14T14:10:59.000Z</time>
      </trkpt>
      <trkpt lat="47.52463" lon="5.88938">
        <ele>233.39999389648</ele>
        <time>2014-03-14T14:11:00.000Z</time>
      </trkpt>
      <trkpt lat="47.52461" lon="5.88939">
        <ele>233.80000305176</ele>
        <time>2014-03-14T14:11:01.000Z</time>
      </trkpt>
      <trkpt lat="47.52459" lon="5.88941">
        <ele>234.19999694824</ele>
        <time>2014-03-14T14:11:02.000Z</time>
      </trkpt>
      <trkpt lat="47.52452" lon="5.88945">
        <ele>234.19999694824</ele>
        <time>2014-03-14T14:11:05.000Z</time>
      </trkpt>
      <trkpt lat="47.52439" lon="5.88958">
        <ele>234.19999694824</ele>
        <time>2014-03-14T14:11:11.000Z</time>
      </trkpt>
      <trkpt lat="47.52427" lon="5.88976">
        <ele>234.19999694824</ele>
        <time>2014-03-14T14:11:16.000Z</time>
      </trkpt>
      <trkpt lat="47.5242" lon="5.89001">
        <ele>234.19999694824</ele>
        <time>2014-03-14T14:11:21.000Z</time>
      </trkpt>
      <trkpt lat="47.52413" lon="5.89031">
        <ele>234.19999694824</ele>
        <time>2014-03-14T14:11:27.000Z</time>
      </trkpt>
      <trkpt lat="47.5241" lon="5.89055">
        <ele>234.19999694824</ele>
        <time>2014-03-14T14:11:31.000Z</time>
      </trkpt>
      <trkpt lat="47.52409" lon="5.89061">
        <ele>234.19999694824</ele>
        <time>2014-03-14T14:11:32.000Z</time>
      </trkpt>
      <trkpt lat="47.52406" lon="5.89083">
        <ele>234.19999694824</ele>
        <time>2014-03-14T14:11:35.000Z</time>
      </trkpt>
      <trkpt lat="47.52405" lon="5.8909">
        <ele>234.19999694824</ele>
        <time>2014-03-14T14:11:36.000Z</time>
      </trkpt>
      <trkpt lat="47.52404" lon="5.89097">
        <ele>234.19999694824</ele>
        <time>2014-03-14T14:11:37.000Z</time>
      </trkpt>
      <trkpt lat="47.52398" lon="5.89143">
        <ele>234.19999694824</ele>
        <time>2014-03-14T14:11:44.000Z</time>
      </trkpt>
      <trkpt lat="47.52392" lon="5.89187">
        <ele>233.80000305176</ele>
        <time>2014-03-14T14:11:50.000Z</time>
      </trkpt>
      <trkpt lat="47.52392" lon="5.89196">
        <ele>233.39999389648</ele>
        <time>2014-03-14T14:11:51.000Z</time>
      </trkpt>
      <trkpt lat="47.52391" lon="5.89205">
        <ele>233</ele>
        <time>2014-03-14T14:11:52.000Z</time>
      </trkpt>
      <trkpt lat="47.52391" lon="5.89213">
        <ele>232.39999389648</ele>
        <time>2014-03-14T14:11:53.000Z</time>
      </trkpt>
      <trkpt lat="47.5239" lon="5.89221">
        <ele>232</ele>
        <time>2014-03-14T14:11:54.000Z</time>
      </trkpt>
      <trkpt lat="47.52391" lon="5.89255">
        <ele>232</ele>
        <time>2014-03-14T14:11:58.000Z</time>
      </trkpt>
      <trkpt lat="47.52393" lon="5.89279">
        <ele>232</ele>
        <time>2014-03-14T14:12:01.000Z</time>
      </trkpt>
      <trkpt lat="47.52396" lon="5.89301">
        <ele>232</ele>
        <time>2014-03-14T14:12:04.000Z</time>
      </trkpt>
      <trkpt lat="47.52403" lon="5.89345">
        <ele>232</ele>
        <time>2014-03-14T14:12:09.000Z</time>
      </trkpt>
      <trkpt lat="47.52411" lon="5.89394">
        <ele>232</ele>
        <time>2014-03-14T14:12:15.000Z</time>
      </trkpt>
      <trkpt lat="47.5242" lon="5.89456">
        <ele>232</ele>
        <time>2014-03-14T14:12:23.000Z</time>
      </trkpt>
      <trkpt lat="47.52432" lon="5.89503">
        <ele>232</ele>
        <time>2014-03-14T14:12:29.000Z</time>
      </trkpt>
      <trkpt lat="47.52436" lon="5.89516">
        <ele>232</ele>
        <time>2014-03-14T14:12:31.000Z</time>
      </trkpt>
      <trkpt lat="47.52442" lon="5.8953">
        <ele>232</ele>
        <time>2014-03-14T14:12:33.000Z</time>
      </trkpt>
      <trkpt lat="47.52445" lon="5.89537">
        <ele>232</ele>
        <time>2014-03-14T14:12:34.000Z</time>
      </trkpt>
      <trkpt lat="47.52452" lon="5.89549">
        <ele>231.60000610352</ele>
        <time>2014-03-14T14:12:36.000Z</time>
      </trkpt>
      <trkpt lat="47.52455" lon="5.89555">
        <ele>230.80000305176</ele>
        <time>2014-03-14T14:12:37.000Z</time>
      </trkpt>
      <trkpt lat="47.52458" lon="5.89561">
        <ele>230.19999694824</ele>
        <time>2014-03-14T14:12:38.000Z</time>
      </trkpt>
      <trkpt lat="47.52462" lon="5.89567">
        <ele>229.80000305176</ele>
        <time>2014-03-14T14:12:39.000Z</time>
      </trkpt>
      <trkpt lat="47.52478" lon="5.89591">
        <ele>229.80000305176</ele>
        <time>2014-03-14T14:12:43.000Z</time>
      </trkpt>
      <trkpt lat="47.52491" lon="5.89613">
        <ele>229.80000305176</ele>
        <time>2014-03-14T14:12:46.000Z</time>
      </trkpt>
      <trkpt lat="47.52497" lon="5.89629">
        <ele>229.80000305176</ele>
        <time>2014-03-14T14:12:48.000Z</time>
      </trkpt>
      <trkpt lat="47.52506" lon="5.89664">
        <ele>229.39999389648</ele>
        <time>2014-03-14T14:12:52.000Z</time>
      </trkpt>
      <trkpt lat="47.52507" lon="5.89672">
        <ele>229</ele>
        <time>2014-03-14T14:12:53.000Z</time>
      </trkpt>
      <trkpt lat="47.52509" lon="5.89681">
        <ele>228.60000610352</ele>
        <time>2014-03-14T14:12:54.000Z</time>
      </trkpt>
      <trkpt lat="47.5251" lon="5.8969">
        <ele>228</ele>
        <time>2014-03-14T14:12:55.000Z</time>
      </trkpt>
      <trkpt lat="47.52511" lon="5.89698">
        <ele>227.60000610352</ele>
        <time>2014-03-14T14:12:56.000Z</time>
      </trkpt>
      <trkpt lat="47.52511" lon="5.8973">
        <ele>227.60000610352</ele>
        <time>2014-03-14T14:13:00.000Z</time>
      </trkpt>
      <trkpt lat="47.5251" lon="5.89751">
        <ele>227.60000610352</ele>
        <time>2014-03-14T14:13:03.000Z</time>
      </trkpt>
      <trkpt lat="47.52508" lon="5.89765">
        <ele>227.60000610352</ele>
        <time>2014-03-14T14:13:05.000Z</time>
      </trkpt>
      <trkpt lat="47.52503" lon="5.89791">
        <ele>227.60000610352</ele>
        <time>2014-03-14T14:13:09.000Z</time>
      </trkpt>
      <trkpt lat="47.52497" lon="5.89809">
        <ele>227.60000610352</ele>
        <time>2014-03-14T14:13:12.000Z</time>
      </trkpt>
      <trkpt lat="47.52485" lon="5.89845">
        <ele>227.60000610352</ele>
        <time>2014-03-14T14:13:18.000Z</time>
      </trkpt>
      <trkpt lat="47.52482" lon="5.89856">
        <ele>227.60000610352</ele>
        <time>2014-03-14T14:13:20.000Z</time>
      </trkpt>
      <trkpt lat="47.52476" lon="5.89871">
        <ele>227.60000610352</ele>
        <time>2014-03-14T14:13:23.000Z</time>
      </trkpt>
      <trkpt lat="47.52473" lon="5.89879">
        <ele>228.19999694824</ele>
        <time>2014-03-14T14:13:25.000Z</time>
      </trkpt>
      <trkpt lat="47.52471" lon="5.89883">
        <ele>229</ele>
        <time>2014-03-14T14:13:26.000Z</time>
      </trkpt>
      <trkpt lat="47.52469" lon="5.89888">
        <ele>229.39999389648</ele>
        <time>2014-03-14T14:13:27.000Z</time>
      </trkpt>
      <trkpt lat="47.52467" lon="5.89892">
        <ele>230</ele>
        <time>2014-03-14T14:13:28.000Z</time>
      </trkpt>
      <trkpt lat="47.52465" lon="5.89897">
        <ele>230</ele>
        <time>2014-03-14T14:13:29.000Z</time>
      </trkpt>
      <trkpt lat="47.52454" lon="5.89926">
        <ele>230</ele>
        <time>2014-03-14T14:13:36.000Z</time>
      </trkpt>
      <trkpt lat="47.52444" lon="5.8995">
        <ele>230</ele>
        <time>2014-03-14T14:13:42.000Z</time>
      </trkpt>
      <trkpt lat="47.52439" lon="5.89969">
        <ele>230</ele>
        <time>2014-03-14T14:13:48.000Z</time>
      </trkpt>
      <trkpt lat="47.52432" lon="5.89988">
        <ele>230.39999389648</ele>
        <time>2014-03-14T14:13:52.000Z</time>
      </trkpt>
      <trkpt lat="47.5243" lon="5.89993">
        <ele>230.80000305176</ele>
        <time>2014-03-14T14:13:53.000Z</time>
      </trkpt>
      <trkpt lat="47.52429" lon="5.89999">
        <ele>231.19999694824</ele>
        <time>2014-03-14T14:13:54.000Z</time>
      </trkpt>
      <trkpt lat="47.52428" lon="5.90005">
        <ele>231.60000610352</ele>
        <time>2014-03-14T14:13:55.000Z</time>
      </trkpt>
      <trkpt lat="47.52426" lon="5.90011">
        <ele>232</ele>
        <time>2014-03-14T14:13:56.000Z</time>
      </trkpt>
      <trkpt lat="47.52424" lon="5.90021">
        <ele>232</ele>
        <time>2014-03-14T14:13:58.000Z</time>
      </trkpt>
      <trkpt lat="47.52423" lon="5.90038">
        <ele>232</ele>
        <time>2014-03-14T14:14:02.000Z</time>
      </trkpt>
      <trkpt lat="47.52427" lon="5.90061">
        <ele>232</ele>
        <time>2014-03-14T14:14:07.000Z</time>
      </trkpt>
      <trkpt lat="47.52432" lon="5.90079">
        <ele>232</ele>
        <time>2014-03-14T14:14:11.000Z</time>
      </trkpt>
      <trkpt lat="47.52435" lon="5.90091">
        <ele>232</ele>
        <time>2014-03-14T14:14:13.000Z</time>
      </trkpt>
      <trkpt lat="47.52441" lon="5.90108">
        <ele>232</ele>
        <time>2014-03-14T14:14:16.000Z</time>
      </trkpt>
      <trkpt lat="47.52453" lon="5.90132">
        <ele>232</ele>
        <time>2014-03-14T14:14:20.000Z</time>
      </trkpt>
      <trkpt lat="47.52455" lon="5.90137">
        <ele>232</ele>
        <time>2014-03-14T14:14:21.000Z</time>
      </trkpt>
      <trkpt lat="47.52471" lon="5.9018">
        <ele>232</ele>
        <time>2014-03-14T14:14:28.000Z</time>
      </trkpt>
      <trkpt lat="47.52479" lon="5.90197">
        <ele>232</ele>
        <time>2014-03-14T14:14:31.000Z</time>
      </trkpt>
      <trkpt lat="47.52485" lon="5.90208">
        <ele>232</ele>
        <time>2014-03-14T14:14:33.000Z</time>
      </trkpt>
      <trkpt lat="47.52487" lon="5.90214">
        <ele>232</ele>
        <time>2014-03-14T14:14:34.000Z</time>
      </trkpt>
      <trkpt lat="47.52494" lon="5.90232">
        <ele>232</ele>
        <time>2014-03-14T14:14:37.000Z</time>
      </trkpt>
      <trkpt lat="47.52507" lon="5.90261">
        <ele>232</ele>
        <time>2014-03-14T14:14:42.000Z</time>
      </trkpt>
      <trkpt lat="47.52512" lon="5.90272">
        <ele>232</ele>
        <time>2014-03-14T14:14:44.000Z</time>
      </trkpt>
      <trkpt lat="47.52523" lon="5.90296">
        <ele>232</ele>
        <time>2014-03-14T14:14:48.000Z</time>
      </trkpt>
      <trkpt lat="47.52529" lon="5.90307">
        <ele>232</ele>
        <time>2014-03-14T14:14:50.000Z</time>
      </trkpt>
      <trkpt lat="47.52532" lon="5.90313">
        <ele>232</ele>
        <time>2014-03-14T14:14:51.000Z</time>
      </trkpt>
      <trkpt lat="47.5254" lon="5.90327">
        <ele>232</ele>
        <time>2014-03-14T14:14:54.000Z</time>
      </trkpt>
      <trkpt lat="47.52545" lon="5.90337">
        <ele>232</ele>
        <time>2014-03-14T14:14:56.000Z</time>
      </trkpt>
      <trkpt lat="47.52549" lon="5.90348">
        <ele>232</ele>
        <time>2014-03-14T14:14:58.000Z</time>
      </trkpt>
      <trkpt lat="47.52552" lon="5.90353">
        <ele>232</ele>
        <time>2014-03-14T14:14:59.000Z</time>
      </trkpt>
      <trkpt lat="47.52576" lon="5.90392">
        <ele>232</ele>
        <time>2014-03-14T14:15:06.000Z</time>
      </trkpt>
      <trkpt lat="47.52594" lon="5.90425">
        <ele>232</ele>
        <time>2014-03-14T14:15:12.000Z</time>
      </trkpt>
      <trkpt lat="47.52616" lon="5.90464">
        <ele>232</ele>
        <time>2014-03-14T14:15:19.000Z</time>
      </trkpt>
      <trkpt lat="47.5262" lon="5.90469">
        <ele>232</ele>
        <time>2014-03-14T14:15:20.000Z</time>
      </trkpt>
      <trkpt lat="47.52639" lon="5.90488">
        <ele>232</ele>
        <time>2014-03-14T14:15:24.000Z</time>
      </trkpt>
      <trkpt lat="47.52645" lon="5.90492">
        <ele>231.60000610352</ele>
        <time>2014-03-14T14:15:25.000Z</time>
      </trkpt>
      <trkpt lat="47.52651" lon="5.90496">
        <ele>231.19999694824</ele>
        <time>2014-03-14T14:15:26.000Z</time>
      </trkpt>
      <trkpt lat="47.52658" lon="5.90499">
        <ele>230.80000305176</ele>
        <time>2014-03-14T14:15:27.000Z</time>
      </trkpt>
      <trkpt lat="47.52664" lon="5.90503">
        <ele>230.39999389648</ele>
        <time>2014-03-14T14:15:28.000Z</time>
      </trkpt>
      <trkpt lat="47.5267" lon="5.90507">
        <ele>229.80000305176</ele>
        <time>2014-03-14T14:15:29.000Z</time>
      </trkpt>
      <trkpt lat="47.52681" lon="5.90515">
        <ele>229.80000305176</ele>
        <time>2014-03-14T14:15:31.000Z</time>
      </trkpt>
      <trkpt lat="47.52687" lon="5.90519">
        <ele>229.39999389648</ele>
        <time>2014-03-14T14:15:32.000Z</time>
      </trkpt>
      <trkpt lat="47.52694" lon="5.90524">
        <ele>229</ele>
        <time>2014-03-14T14:15:33.000Z</time>
      </trkpt>
      <trkpt lat="47.527" lon="5.90529">
        <ele>228.60000610352</ele>
        <time>2014-03-14T14:15:34.000Z</time>
      </trkpt>
      <trkpt lat="47.52706" lon="5.90535">
        <ele>228.19999694824</ele>
        <time>2014-03-14T14:15:35.000Z</time>
      </trkpt>
      <trkpt lat="47.52711" lon="5.90541">
        <ele>227.80000305176</ele>
        <time>2014-03-14T14:15:36.000Z</time>
      </trkpt>
      <trkpt lat="47.52733" lon="5.90575">
        <ele>227.80000305176</ele>
        <time>2014-03-14T14:15:41.000Z</time>
      </trkpt>
      <trkpt lat="47.52736" lon="5.90582">
        <ele>227.39999389648</ele>
        <time>2014-03-14T14:15:42.000Z</time>
      </trkpt>
      <trkpt lat="47.5274" lon="5.9059">
        <ele>227</ele>
        <time>2014-03-14T14:15:43.000Z</time>
      </trkpt>
      <trkpt lat="47.52744" lon="5.90598">
        <ele>226.60000610352</ele>
        <time>2014-03-14T14:15:44.000Z</time>
      </trkpt>
      <trkpt lat="47.52748" lon="5.90606">
        <ele>226.19999694824</ele>
        <time>2014-03-14T14:15:45.000Z</time>
      </trkpt>
      <trkpt lat="47.52752" lon="5.90614">
        <ele>225.80000305176</ele>
        <time>2014-03-14T14:15:46.000Z</time>
      </trkpt>
      <trkpt lat="47.52755" lon="5.90622">
        <ele>225.80000305176</ele>
        <time>2014-03-14T14:15:47.000Z</time>
      </trkpt>
      <trkpt lat="47.52763" lon="5.90648">
        <ele>225.80000305176</ele>
        <time>2014-03-14T14:15:50.000Z</time>
      </trkpt>
      <trkpt lat="47.52766" lon="5.90666">
        <ele>225.80000305176</ele>
        <time>2014-03-14T14:15:52.000Z</time>
      </trkpt>
      <trkpt lat="47.52774" lon="5.90701">
        <ele>225.39999389648</ele>
        <time>2014-03-14T14:15:56.000Z</time>
      </trkpt>
      <trkpt lat="47.52776" lon="5.90711">
        <ele>225</ele>
        <time>2014-03-14T14:15:57.000Z</time>
      </trkpt>
      <trkpt lat="47.52778" lon="5.9072">
        <ele>224.60000610352</ele>
        <time>2014-03-14T14:15:58.000Z</time>
      </trkpt>
      <trkpt lat="47.5278" lon="5.90729">
        <ele>224.19999694824</ele>
        <time>2014-03-14T14:15:59.000Z</time>
      </trkpt>
      <trkpt lat="47.52782" lon="5.90738">
        <ele>223.80000305176</ele>
        <time>2014-03-14T14:16:00.000Z</time>
      </trkpt>
      <trkpt lat="47.52794" lon="5.90789">
        <ele>223.80000305176</ele>
        <time>2014-03-14T14:16:06.000Z</time>
      </trkpt>
      <trkpt lat="47.52801" lon="5.90822">
        <ele>223.80000305176</ele>
        <time>2014-03-14T14:16:10.000Z</time>
      </trkpt>
      <trkpt lat="47.52804" lon="5.9083">
        <ele>223.80000305176</ele>
        <time>2014-03-14T14:16:11.000Z</time>
      </trkpt>
      <trkpt lat="47.52821" lon="5.90881">
        <ele>223.80000305176</ele>
        <time>2014-03-14T14:16:17.000Z</time>
      </trkpt>
      <trkpt lat="47.52828" lon="5.90895">
        <ele>223.39999389648</ele>
        <time>2014-03-14T14:16:19.000Z</time>
      </trkpt>
      <trkpt lat="47.52832" lon="5.90903">
        <ele>223</ele>
        <time>2014-03-14T14:16:20.000Z</time>
      </trkpt>
      <trkpt lat="47.52835" lon="5.90911">
        <ele>222.39999389648</ele>
        <time>2014-03-14T14:16:21.000Z</time>
      </trkpt>
      <trkpt lat="47.52839" lon="5.90918">
        <ele>222</ele>
        <time>2014-03-14T14:16:22.000Z</time>
      </trkpt>
      <trkpt lat="47.52843" lon="5.90925">
        <ele>221.60000610352</ele>
        <time>2014-03-14T14:16:23.000Z</time>
      </trkpt>
      <trkpt lat="47.52868" lon="5.90961">
        <ele>221.60000610352</ele>
        <time>2014-03-14T14:16:28.000Z</time>
      </trkpt>
      <trkpt lat="47.52873" lon="5.90968">
        <ele>221.19999694824</ele>
        <time>2014-03-14T14:16:29.000Z</time>
      </trkpt>
      <trkpt lat="47.52878" lon="5.90976">
        <ele>220.80000305176</ele>
        <time>2014-03-14T14:16:30.000Z</time>
      </trkpt>
      <trkpt lat="47.52881" lon="5.90985">
        <ele>220.39999389648</ele>
        <time>2014-03-14T14:16:31.000Z</time>
      </trkpt>
      <trkpt lat="47.52885" lon="5.90996">
        <ele>220</ele>
        <time>2014-03-14T14:16:32.000Z</time>
      </trkpt>
      <trkpt lat="47.52887" lon="5.91006">
        <ele>219.60000610352</ele>
        <time>2014-03-14T14:16:33.000Z</time>
      </trkpt>
      <trkpt lat="47.52886" lon="5.91028">
        <ele>219.19999694824</ele>
        <time>2014-03-14T14:16:35.000Z</time>
      </trkpt>
      <trkpt lat="47.52885" lon="5.91038">
        <ele>218.80000305176</ele>
        <time>2014-03-14T14:16:36.000Z</time>
      </trkpt>
      <trkpt lat="47.52883" lon="5.91049">
        <ele>218.39999389648</ele>
        <time>2014-03-14T14:16:37.000Z</time>
      </trkpt>
      <trkpt lat="47.52882" lon="5.91059">
        <ele>218</ele>
        <time>2014-03-14T14:16:38.000Z</time>
      </trkpt>
      <trkpt lat="47.52881" lon="5.91068">
        <ele>217.60000610352</ele>
        <time>2014-03-14T14:16:39.000Z</time>
      </trkpt>
      <trkpt lat="47.52879" lon="5.91077">
        <ele>217.60000610352</ele>
        <time>2014-03-14T14:16:40.000Z</time>
      </trkpt>
      <trkpt lat="47.5287" lon="5.91114">
        <ele>217.60000610352</ele>
        <time>2014-03-14T14:16:45.000Z</time>
      </trkpt>
      <trkpt lat="47.52868" lon="5.91142">
        <ele>217.60000610352</ele>
        <time>2014-03-14T14:16:49.000Z</time>
      </trkpt>
      <trkpt lat="47.52869" lon="5.91164">
        <ele>218</ele>
        <time>2014-03-14T14:16:52.000Z</time>
      </trkpt>
      <trkpt lat="47.5287" lon="5.9117">
        <ele>218.39999389648</ele>
        <time>2014-03-14T14:16:53.000Z</time>
      </trkpt>
      <trkpt lat="47.52872" lon="5.91176">
        <ele>218.80000305176</ele>
        <time>2014-03-14T14:16:54.000Z</time>
      </trkpt>
      <trkpt lat="47.52874" lon="5.91183">
        <ele>219.19999694824</ele>
        <time>2014-03-14T14:16:55.000Z</time>
      </trkpt>
      <trkpt lat="47.52876" lon="5.91189">
        <ele>219.60000610352</ele>
        <time>2014-03-14T14:16:56.000Z</time>
      </trkpt>
      <trkpt lat="47.52878" lon="5.91195">
        <ele>219.60000610352</ele>
        <time>2014-03-14T14:16:57.000Z</time>
      </trkpt>
      <trkpt lat="47.5289" lon="5.91215">
        <ele>219.60000610352</ele>
        <time>2014-03-14T14:17:01.000Z</time>
      </trkpt>
      <trkpt lat="47.52915" lon="5.91247">
        <ele>219.60000610352</ele>
        <time>2014-03-14T14:17:08.000Z</time>
      </trkpt>
      <trkpt lat="47.52929" lon="5.91266">
        <ele>219.60000610352</ele>
        <time>2014-03-14T14:17:12.000Z</time>
      </trkpt>
      <trkpt lat="47.52936" lon="5.91275">
        <ele>219.60000610352</ele>
        <time>2014-03-14T14:17:14.000Z</time>
      </trkpt>
      <trkpt lat="47.52953" lon="5.913">
        <ele>220</ele>
        <time>2014-03-14T14:17:19.000Z</time>
      </trkpt>
      <trkpt lat="47.52956" lon="5.91306">
        <ele>220.60000610352</ele>
        <time>2014-03-14T14:17:20.000Z</time>
      </trkpt>
      <trkpt lat="47.52959" lon="5.91311">
        <ele>221</ele>
        <time>2014-03-14T14:17:21.000Z</time>
      </trkpt>
      <trkpt lat="47.52962" lon="5.91316">
        <ele>221.39999389648</ele>
        <time>2014-03-14T14:17:22.000Z</time>
      </trkpt>
      <trkpt lat="47.52965" lon="5.91322">
        <ele>221.80000305176</ele>
        <time>2014-03-14T14:17:23.000Z</time>
      </trkpt>
      <trkpt lat="47.52981" lon="5.91356">
        <ele>221.80000305176</ele>
        <time>2014-03-14T14:17:29.000Z</time>
      </trkpt>
      <trkpt lat="47.52983" lon="5.91362">
        <ele>221.80000305176</ele>
        <time>2014-03-14T14:17:30.000Z</time>
      </trkpt>
      <trkpt lat="47.52995" lon="5.91389">
        <ele>221.80000305176</ele>
        <time>2014-03-14T14:17:35.000Z</time>
      </trkpt>
      <trkpt lat="47.53015" lon="5.91433">
        <ele>221.80000305176</ele>
        <time>2014-03-14T14:17:43.000Z</time>
      </trkpt>
      <trkpt lat="47.53032" lon="5.91474">
        <ele>221.80000305176</ele>
        <time>2014-03-14T14:17:50.000Z</time>
      </trkpt>
      <trkpt lat="47.53052" lon="5.91526">
        <ele>221.80000305176</ele>
        <time>2014-03-14T14:17:58.000Z</time>
      </trkpt>
      <trkpt lat="47.53058" lon="5.91541">
        <ele>221.80000305176</ele>
        <time>2014-03-14T14:18:00.000Z</time>
      </trkpt>
      <trkpt lat="47.53065" lon="5.91562">
        <ele>221.80000305176</ele>
        <time>2014-03-14T14:18:03.000Z</time>
      </trkpt>
      <trkpt lat="47.53069" lon="5.91576">
        <ele>221.80000305176</ele>
        <time>2014-03-14T14:18:05.000Z</time>
      </trkpt>
      <trkpt lat="47.5308" lon="5.9161">
        <ele>221.80000305176</ele>
        <time>2014-03-14T14:18:10.000Z</time>
      </trkpt>
      <trkpt lat="47.53093" lon="5.91659">
        <ele>221.80000305176</ele>
        <time>2014-03-14T14:18:17.000Z</time>
      </trkpt>
      <trkpt lat="47.53095" lon="5.91666">
        <ele>221.80000305176</ele>
        <time>2014-03-14T14:18:18.000Z</time>
      </trkpt>
      <trkpt lat="47.53097" lon="5.91674">
        <ele>221.80000305176</ele>
        <time>2014-03-14T14:18:19.000Z</time>
      </trkpt>
      <trkpt lat="47.53103" lon="5.91694">
        <ele>221.80000305176</ele>
        <time>2014-03-14T14:18:22.000Z</time>
      </trkpt>
      <trkpt lat="47.5311" lon="5.91724">
        <ele>221.80000305176</ele>
        <time>2014-03-14T14:18:26.000Z</time>
      </trkpt>
      <trkpt lat="47.53111" lon="5.91731">
        <ele>221.80000305176</ele>
        <time>2014-03-14T14:18:27.000Z</time>
      </trkpt>
      <trkpt lat="47.53122" lon="5.91773">
        <ele>221.80000305176</ele>
        <time>2014-03-14T14:18:33.000Z</time>
      </trkpt>
      <trkpt lat="47.53132" lon="5.91821">
        <ele>221.80000305176</ele>
        <time>2014-03-14T14:18:40.000Z</time>
      </trkpt>
      <trkpt lat="47.53134" lon="5.91827">
        <ele>221.80000305176</ele>
        <time>2014-03-14T14:18:41.000Z</time>
      </trkpt>
      <trkpt lat="47.53143" lon="5.91843">
        <ele>221.80000305176</ele>
        <time>2014-03-14T14:18:44.000Z</time>
      </trkpt>
      <trkpt lat="47.53151" lon="5.91851">
        <ele>221.80000305176</ele>
        <time>2014-03-14T14:18:46.000Z</time>
      </trkpt>
      <trkpt lat="47.5317" lon="5.91867">
        <ele>221.39999389648</ele>
        <time>2014-03-14T14:18:50.000Z</time>
      </trkpt>
      <trkpt lat="47.53175" lon="5.91871">
        <ele>221</ele>
        <time>2014-03-14T14:18:51.000Z</time>
      </trkpt>
      <trkpt lat="47.5318" lon="5.91875">
        <ele>220.60000610352</ele>
        <time>2014-03-14T14:18:52.000Z</time>
      </trkpt>
      <trkpt lat="47.53185" lon="5.91879">
        <ele>220.19999694824</ele>
        <time>2014-03-14T14:18:53.000Z</time>
      </trkpt>
      <trkpt lat="47.5319" lon="5.91883">
        <ele>219.80000305176</ele>
        <time>2014-03-14T14:18:54.000Z</time>
      </trkpt>
      <trkpt lat="47.532" lon="5.91892">
        <ele>219.80000305176</ele>
        <time>2014-03-14T14:18:56.000Z</time>
      </trkpt>
      <trkpt lat="47.53222" lon="5.9192">
        <ele>219.39999389648</ele>
        <time>2014-03-14T14:19:01.000Z</time>
      </trkpt>
      <trkpt lat="47.53226" lon="5.91927">
        <ele>218.80000305176</ele>
        <time>2014-03-14T14:19:02.000Z</time>
      </trkpt>
      <trkpt lat="47.5323" lon="5.91933">
        <ele>218.39999389648</ele>
        <time>2014-03-14T14:19:03.000Z</time>
      </trkpt>
      <trkpt lat="47.53234" lon="5.9194">
        <ele>218</ele>
        <time>2014-03-14T14:19:04.000Z</time>
      </trkpt>
      <trkpt lat="47.53238" lon="5.91948">
        <ele>217.60000610352</ele>
        <time>2014-03-14T14:19:05.000Z</time>
      </trkpt>
      <trkpt lat="47.53251" lon="5.9197">
        <ele>217.19999694824</ele>
        <time>2014-03-14T14:19:08.000Z</time>
      </trkpt>
      <trkpt lat="47.53256" lon="5.91977">
        <ele>216.80000305176</ele>
        <time>2014-03-14T14:19:09.000Z</time>
      </trkpt>
      <trkpt lat="47.5326" lon="5.91984">
        <ele>216.39999389648</ele>
        <time>2014-03-14T14:19:10.000Z</time>
      </trkpt>
      <trkpt lat="47.53265" lon="5.91991">
        <ele>216</ele>
        <time>2014-03-14T14:19:11.000Z</time>
      </trkpt>
      <trkpt lat="47.5327" lon="5.91998">
        <ele>215.60000610352</ele>
        <time>2014-03-14T14:19:12.000Z</time>
      </trkpt>
      <trkpt lat="47.53279" lon="5.92015">
        <ele>215.60000610352</ele>
        <time>2014-03-14T14:19:15.000Z</time>
      </trkpt>
      <trkpt lat="47.53279" lon="5.9202">
        <ele>215.60000610352</ele>
        <time>2014-03-14T14:19:16.000Z</time>
      </trkpt>
      <trkpt lat="47.53275" lon="5.92025">
        <ele>215.60000610352</ele>
        <time>2014-03-14T14:19:18.000Z</time>
      </trkpt>
      <trkpt lat="47.53266" lon="5.92019">
        <ele>215.60000610352</ele>
        <time>2014-03-14T14:19:21.000Z</time>
      </trkpt>
      <trkpt lat="47.53261" lon="5.92015">
        <ele>215.60000610352</ele>
        <time>2014-03-14T14:19:23.000Z</time>
      </trkpt>
      <trkpt lat="47.53244" lon="5.92004">
        <ele>215.60000610352</ele>
        <time>2014-03-14T14:19:29.000Z</time>
      </trkpt>
      <trkpt lat="47.53221" lon="5.91994">
        <ele>215.60000610352</ele>
        <time>2014-03-14T14:19:37.000Z</time>
      </trkpt>
      <trkpt lat="47.53218" lon="5.91993">
        <ele>216</ele>
        <time>2014-03-14T14:19:38.000Z</time>
      </trkpt>
      <trkpt lat="47.53215" lon="5.91992">
        <ele>216.39999389648</ele>
        <time>2014-03-14T14:19:39.000Z</time>
      </trkpt>
      <trkpt lat="47.53212" lon="5.91991">
        <ele>216.80000305176</ele>
        <time>2014-03-14T14:19:40.000Z</time>
      </trkpt>
      <trkpt lat="47.53209" lon="5.91991">
        <ele>217.39999389648</ele>
        <time>2014-03-14T14:19:41.000Z</time>
      </trkpt>
      <trkpt lat="47.53206" lon="5.9199">
        <ele>217.80000305176</ele>
        <time>2014-03-14T14:19:42.000Z</time>
      </trkpt>
      <trkpt lat="47.532" lon="5.91989">
        <ele>217.80000305176</ele>
        <time>2014-03-14T14:19:44.000Z</time>
      </trkpt>
      <trkpt lat="47.5318" lon="5.91992">
        <ele>218.19999694824</ele>
        <time>2014-03-14T14:19:51.000Z</time>
      </trkpt>
      <trkpt lat="47.53177" lon="5.91993">
        <ele>218.60000610352</ele>
        <time>2014-03-14T14:19:52.000Z</time>
      </trkpt>
      <trkpt lat="47.53175" lon="5.91994">
        <ele>219</ele>
        <time>2014-03-14T14:19:53.000Z</time>
      </trkpt>
      <trkpt lat="47.53172" lon="5.91995">
        <ele>219.39999389648</ele>
        <time>2014-03-14T14:19:54.000Z</time>
      </trkpt>
      <trkpt lat="47.53169" lon="5.91996">
        <ele>219.80000305176</ele>
        <time>2014-03-14T14:19:55.000Z</time>
      </trkpt>
      <trkpt lat="47.53162" lon="5.91999">
        <ele>219.80000305176</ele>
        <time>2014-03-14T14:19:58.000Z</time>
      </trkpt>
      <trkpt lat="47.53144" lon="5.92006">
        <ele>219.80000305176</ele>
        <time>2014-03-14T14:20:04.000Z</time>
      </trkpt>
      <trkpt lat="47.53136" lon="5.92013">
        <ele>220.19999694824</ele>
        <time>2014-03-14T14:20:08.000Z</time>
      </trkpt>
      <trkpt lat="47.53134" lon="5.92014">
        <ele>220.60000610352</ele>
        <time>2014-03-14T14:20:09.000Z</time>
      </trkpt>
      <trkpt lat="47.53131" lon="5.92015">
        <ele>221</ele>
        <time>2014-03-14T14:20:10.000Z</time>
      </trkpt>
      <trkpt lat="47.53128" lon="5.92015">
        <ele>221.39999389648</ele>
        <time>2014-03-14T14:20:11.000Z</time>
      </trkpt>
      <trkpt lat="47.53125" lon="5.92014">
        <ele>221.80000305176</ele>
        <time>2014-03-14T14:20:12.000Z</time>
      </trkpt>
      <trkpt lat="47.53115" lon="5.92017">
        <ele>221.80000305176</ele>
        <time>2014-03-14T14:20:16.000Z</time>
      </trkpt>
      <trkpt lat="47.53112" lon="5.92018">
        <ele>221.80000305176</ele>
        <time>2014-03-14T14:20:17.000Z</time>
      </trkpt>
      <trkpt lat="47.53094" lon="5.92026">
        <ele>221.80000305176</ele>
        <time>2014-03-14T14:20:24.000Z</time>
      </trkpt>
      <trkpt lat="47.53092" lon="5.92027">
        <ele>222.19999694824</ele>
        <time>2014-03-14T14:20:25.000Z</time>
      </trkpt>
      <trkpt lat="47.5309" lon="5.92028">
        <ele>223</ele>
        <time>2014-03-14T14:20:26.000Z</time>
      </trkpt>
      <trkpt lat="47.53088" lon="5.92029">
        <ele>223.39999389648</ele>
        <time>2014-03-14T14:20:27.000Z</time>
      </trkpt>
      <trkpt lat="47.53085" lon="5.92031">
        <ele>223.80000305176</ele>
        <time>2014-03-14T14:20:28.000Z</time>
      </trkpt>
      <trkpt lat="47.5308" lon="5.92032">
        <ele>223.80000305176</ele>
        <time>2014-03-14T14:20:30.000Z</time>
      </trkpt>
      <trkpt lat="47.53061" lon="5.92041">
        <ele>223.80000305176</ele>
        <time>2014-03-14T14:20:38.000Z</time>
      </trkpt>
      <trkpt lat="47.53055" lon="5.92043">
        <ele>224.19999694824</ele>
        <time>2014-03-14T14:20:41.000Z</time>
      </trkpt>
      <trkpt lat="47.53053" lon="5.92044">
        <ele>224.80000305176</ele>
        <time>2014-03-14T14:20:42.000Z</time>
      </trkpt>
      <trkpt lat="47.53051" lon="5.92045">
        <ele>225.19999694824</ele>
        <time>2014-03-14T14:20:43.000Z</time>
      </trkpt>
      <trkpt lat="47.53049" lon="5.92045">
        <ele>225.60000610352</ele>
        <time>2014-03-14T14:20:44.000Z</time>
      </trkpt>
      <trkpt lat="47.53047" lon="5.92047">
        <ele>226</ele>
        <time>2014-03-14T14:20:45.000Z</time>
      </trkpt>
      <trkpt lat="47.53039" lon="5.92051">
        <ele>226</ele>
        <time>2014-03-14T14:20:49.000Z</time>
      </trkpt>
      <trkpt lat="47.53026" lon="5.92055">
        <ele>226</ele>
        <time>2014-03-14T14:20:55.000Z</time>
      </trkpt>
      <trkpt lat="47.53021" lon="5.92058">
        <ele>226.39999389648</ele>
        <time>2014-03-14T14:20:57.000Z</time>
      </trkpt>
      <trkpt lat="47.53019" lon="5.92059">
        <ele>226.80000305176</ele>
        <time>2014-03-14T14:20:58.000Z</time>
      </trkpt>
      <trkpt lat="47.53016" lon="5.9206">
        <ele>227.19999694824</ele>
        <time>2014-03-14T14:20:59.000Z</time>
      </trkpt>
      <trkpt lat="47.53014" lon="5.9206">
        <ele>227.60000610352</ele>
        <time>2014-03-14T14:21:00.000Z</time>
      </trkpt>
      <trkpt lat="47.53012" lon="5.9206">
        <ele>228</ele>
        <time>2014-03-14T14:21:01.000Z</time>
      </trkpt>
      <trkpt lat="47.52994" lon="5.92068">
        <ele>228</ele>
        <time>2014-03-14T14:21:09.000Z</time>
      </trkpt>
      <trkpt lat="47.52984" lon="5.92073">
        <ele>228</ele>
        <time>2014-03-14T14:21:15.000Z</time>
      </trkpt>
      <trkpt lat="47.52978" lon="5.92076">
        <ele>228.39999389648</ele>
        <time>2014-03-14T14:21:18.000Z</time>
      </trkpt>
      <trkpt lat="47.52976" lon="5.92078">
        <ele>228.80000305176</ele>
        <time>2014-03-14T14:21:19.000Z</time>
      </trkpt>
      <trkpt lat="47.52974" lon="5.92078">
        <ele>229.19999694824</ele>
        <time>2014-03-14T14:21:20.000Z</time>
      </trkpt>
      <trkpt lat="47.52972" lon="5.92079">
        <ele>229.60000610352</ele>
        <time>2014-03-14T14:21:21.000Z</time>
      </trkpt>
      <trkpt lat="47.52969" lon="5.92081">
        <ele>230</ele>
        <time>2014-03-14T14:21:22.000Z</time>
      </trkpt>
      <trkpt lat="47.52959" lon="5.92086">
        <ele>230</ele>
        <time>2014-03-14T14:21:27.000Z</time>
      </trkpt>
      <trkpt lat="47.52948" lon="5.92093">
        <ele>230</ele>
        <time>2014-03-14T14:21:32.000Z</time>
      </trkpt>
      <trkpt lat="47.52936" lon="5.92098">
        <ele>230</ele>
        <time>2014-03-14T14:21:38.000Z</time>
      </trkpt>
      <trkpt lat="47.52928" lon="5.92102">
        <ele>230.39999389648</ele>
        <time>2014-03-14T14:21:42.000Z</time>
      </trkpt>
      <trkpt lat="47.52926" lon="5.92102">
        <ele>230.80000305176</ele>
        <time>2014-03-14T14:21:43.000Z</time>
      </trkpt>
      <trkpt lat="47.52924" lon="5.92104">
        <ele>231.19999694824</ele>
        <time>2014-03-14T14:21:44.000Z</time>
      </trkpt>
      <trkpt lat="47.52921" lon="5.92106">
        <ele>231.60000610352</ele>
        <time>2014-03-14T14:21:45.000Z</time>
      </trkpt>
      <trkpt lat="47.52919" lon="5.92107">
        <ele>232</ele>
        <time>2014-03-14T14:21:46.000Z</time>
      </trkpt>
      <trkpt lat="47.52913" lon="5.92111">
        <ele>232</ele>
        <time>2014-03-14T14:21:49.000Z</time>
      </trkpt>
      <trkpt lat="47.52892" lon="5.92122">
        <ele>232</ele>
        <time>2014-03-14T14:21:56.000Z</time>
      </trkpt>
      <trkpt lat="47.52869" lon="5.92132">
        <ele>232</ele>
        <time>2014-03-14T14:22:03.000Z</time>
      </trkpt>
      <trkpt lat="47.52844" lon="5.92147">
        <ele>232</ele>
        <time>2014-03-14T14:22:10.000Z</time>
      </trkpt>
      <trkpt lat="47.52814" lon="5.92165">
        <ele>232</ele>
        <time>2014-03-14T14:22:18.000Z</time>
      </trkpt>
      <trkpt lat="47.52786" lon="5.92178">
        <ele>232</ele>
        <time>2014-03-14T14:22:25.000Z</time>
      </trkpt>
      <trkpt lat="47.5276" lon="5.92192">
        <ele>232</ele>
        <time>2014-03-14T14:22:32.000Z</time>
      </trkpt>
      <trkpt lat="47.52738" lon="5.92205">
        <ele>232</ele>
        <time>2014-03-14T14:22:38.000Z</time>
      </trkpt>
      <trkpt lat="47.52702" lon="5.92222">
        <ele>232</ele>
        <time>2014-03-14T14:22:48.000Z</time>
      </trkpt>
      <trkpt lat="47.5268" lon="5.92233">
        <ele>232.39999389648</ele>
        <time>2014-03-14T14:22:54.000Z</time>
      </trkpt>
      <trkpt lat="47.52677" lon="5.92235">
        <ele>233.19999694824</ele>
        <time>2014-03-14T14:22:55.000Z</time>
      </trkpt>
      <trkpt lat="47.52673" lon="5.92237">
        <ele>233.60000610352</ele>
        <time>2014-03-14T14:22:56.000Z</time>
      </trkpt>
      <trkpt lat="47.52669" lon="5.92239">
        <ele>234</ele>
        <time>2014-03-14T14:22:57.000Z</time>
      </trkpt>
      <trkpt lat="47.52644" lon="5.92252">
        <ele>234</ele>
        <time>2014-03-14T14:23:04.000Z</time>
      </trkpt>
      <trkpt lat="47.52611" lon="5.92272">
        <ele>234</ele>
        <time>2014-03-14T14:23:13.000Z</time>
      </trkpt>
      <trkpt lat="47.52604" lon="5.92278">
        <ele>234</ele>
        <time>2014-03-14T14:23:15.000Z</time>
      </trkpt>
      <trkpt lat="47.52597" lon="5.92287">
        <ele>234</ele>
        <time>2014-03-14T14:23:17.000Z</time>
      </trkpt>
      <trkpt lat="47.52593" lon="5.92293">
        <ele>234</ele>
        <time>2014-03-14T14:23:18.000Z</time>
      </trkpt>
      <trkpt lat="47.52574" lon="5.9232">
        <ele>234</ele>
        <time>2014-03-14T14:23:23.000Z</time>
      </trkpt>
      <trkpt lat="47.52573" lon="5.92327">
        <ele>234</ele>
        <time>2014-03-14T14:23:24.000Z</time>
      </trkpt>
      <trkpt lat="47.52574" lon="5.92334">
        <ele>233.60000610352</ele>
        <time>2014-03-14T14:23:25.000Z</time>
      </trkpt>
      <trkpt lat="47.52575" lon="5.92339">
        <ele>233.19999694824</ele>
        <time>2014-03-14T14:23:26.000Z</time>
      </trkpt>
      <trkpt lat="47.52577" lon="5.92343">
        <ele>232.80000305176</ele>
        <time>2014-03-14T14:23:27.000Z</time>
      </trkpt>
      <trkpt lat="47.5258" lon="5.92346">
        <ele>232.39999389648</ele>
        <time>2014-03-14T14:23:28.000Z</time>
      </trkpt>
      <trkpt lat="47.52583" lon="5.9235">
        <ele>232</ele>
        <time>2014-03-14T14:23:29.000Z</time>
      </trkpt>
      <trkpt lat="47.52587" lon="5.9236">
        <ele>232</ele>
        <time>2014-03-14T14:23:31.000Z</time>
      </trkpt>
      <trkpt lat="47.52602" lon="5.92387">
        <ele>232</ele>
        <time>2014-03-14T14:23:37.000Z</time>
      </trkpt>
      <trkpt lat="47.52613" lon="5.92411">
        <ele>232</ele>
        <time>2014-03-14T14:23:42.000Z</time>
      </trkpt>
      <trkpt lat="47.52625" lon="5.92434">
        <ele>231.60000610352</ele>
        <time>2014-03-14T14:23:46.000Z</time>
      </trkpt>
      <trkpt lat="47.52628" lon="5.9244">
        <ele>231</ele>
        <time>2014-03-14T14:23:47.000Z</time>
      </trkpt>
      <trkpt lat="47.5263" lon="5.92445">
        <ele>230.60000610352</ele>
        <time>2014-03-14T14:23:48.000Z</time>
      </trkpt>
      <trkpt lat="47.52633" lon="5.9245">
        <ele>230.19999694824</ele>
        <time>2014-03-14T14:23:49.000Z</time>
      </trkpt>
      <trkpt lat="47.52636" lon="5.92456">
        <ele>229.80000305176</ele>
        <time>2014-03-14T14:23:50.000Z</time>
      </trkpt>
      <trkpt lat="47.52647" lon="5.92475">
        <ele>229.39999389648</ele>
        <time>2014-03-14T14:23:53.000Z</time>
      </trkpt>
      <trkpt lat="47.52651" lon="5.92482">
        <ele>228.80000305176</ele>
        <time>2014-03-14T14:23:54.000Z</time>
      </trkpt>
      <trkpt lat="47.52655" lon="5.92489">
        <ele>228.39999389648</ele>
        <time>2014-03-14T14:23:55.000Z</time>
      </trkpt>
      <trkpt lat="47.52658" lon="5.92495">
        <ele>228</ele>
        <time>2014-03-14T14:23:56.000Z</time>
      </trkpt>
      <trkpt lat="47.52662" lon="5.92502">
        <ele>227.60000610352</ele>
        <time>2014-03-14T14:23:57.000Z</time>
      </trkpt>
      <trkpt lat="47.52665" lon="5.92509">
        <ele>227.60000610352</ele>
        <time>2014-03-14T14:23:58.000Z</time>
      </trkpt>
      <trkpt lat="47.52677" lon="5.9253">
        <ele>227.19999694824</ele>
        <time>2014-03-14T14:24:01.000Z</time>
      </trkpt>
      <trkpt lat="47.52681" lon="5.92538">
        <ele>226.80000305176</ele>
        <time>2014-03-14T14:24:02.000Z</time>
      </trkpt>
      <trkpt lat="47.52684" lon="5.92546">
        <ele>226.39999389648</ele>
        <time>2014-03-14T14:24:03.000Z</time>
      </trkpt>
      <trkpt lat="47.52689" lon="5.92554">
        <ele>226</ele>
        <time>2014-03-14T14:24:04.000Z</time>
      </trkpt>
      <trkpt lat="47.52693" lon="5.92563">
        <ele>225.60000610352</ele>
        <time>2014-03-14T14:24:05.000Z</time>
      </trkpt>
      <trkpt lat="47.52697" lon="5.92571">
        <ele>225.19999694824</ele>
        <time>2014-03-14T14:24:06.000Z</time>
      </trkpt>
      <trkpt lat="47.52701" lon="5.9258">
        <ele>224.80000305176</ele>
        <time>2014-03-14T14:24:07.000Z</time>
      </trkpt>
      <trkpt lat="47.52705" lon="5.92588">
        <ele>224.39999389648</ele>
        <time>2014-03-14T14:24:08.000Z</time>
      </trkpt>
      <trkpt lat="47.52709" lon="5.92597">
        <ele>223.39999389648</ele>
        <time>2014-03-14T14:24:09.000Z</time>
      </trkpt>
      <trkpt lat="47.52713" lon="5.92606">
        <ele>223</ele>
        <time>2014-03-14T14:24:10.000Z</time>
      </trkpt>
      <trkpt lat="47.52716" lon="5.92615">
        <ele>222.39999389648</ele>
        <time>2014-03-14T14:24:11.000Z</time>
      </trkpt>
      <trkpt lat="47.52719" lon="5.92623">
        <ele>222</ele>
        <time>2014-03-14T14:24:12.000Z</time>
      </trkpt>
      <trkpt lat="47.52721" lon="5.9263">
        <ele>221.39999389648</ele>
        <time>2014-03-14T14:24:13.000Z</time>
      </trkpt>
      <trkpt lat="47.52724" lon="5.92638">
        <ele>221</ele>
        <time>2014-03-14T14:24:14.000Z</time>
      </trkpt>
      <trkpt lat="47.52729" lon="5.92643">
        <ele>221</ele>
        <time>2014-03-14T14:24:15.000Z</time>
      </trkpt>
      <trkpt lat="47.52733" lon="5.92649">
        <ele>220.60000610352</ele>
        <time>2014-03-14T14:24:16.000Z</time>
      </trkpt>
      <trkpt lat="47.52738" lon="5.92655">
        <ele>220.19999694824</ele>
        <time>2014-03-14T14:24:17.000Z</time>
      </trkpt>
      <trkpt lat="47.52744" lon="5.9266">
        <ele>219.60000610352</ele>
        <time>2014-03-14T14:24:18.000Z</time>
      </trkpt>
      <trkpt lat="47.5275" lon="5.92665">
        <ele>219.19999694824</ele>
        <time>2014-03-14T14:24:19.000Z</time>
      </trkpt>
      <trkpt lat="47.52756" lon="5.9267">
        <ele>218.80000305176</ele>
        <time>2014-03-14T14:24:20.000Z</time>
      </trkpt>
      <trkpt lat="47.52762" lon="5.92674">
        <ele>218.80000305176</ele>
        <time>2014-03-14T14:24:21.000Z</time>
      </trkpt>
      <trkpt lat="47.52769" lon="5.92679">
        <ele>218.39999389648</ele>
        <time>2014-03-14T14:24:22.000Z</time>
      </trkpt>
      <trkpt lat="47.52775" lon="5.92683">
        <ele>217.80000305176</ele>
        <time>2014-03-14T14:24:23.000Z</time>
      </trkpt>
      <trkpt lat="47.52781" lon="5.92687">
        <ele>217.39999389648</ele>
        <time>2014-03-14T14:24:24.000Z</time>
      </trkpt>
      <trkpt lat="47.52788" lon="5.92691">
        <ele>217</ele>
        <time>2014-03-14T14:24:25.000Z</time>
      </trkpt>
      <trkpt lat="47.52794" lon="5.92695">
        <ele>216.39999389648</ele>
        <time>2014-03-14T14:24:26.000Z</time>
      </trkpt>
      <trkpt lat="47.52814" lon="5.92708">
        <ele>216.39999389648</ele>
        <time>2014-03-14T14:24:30.000Z</time>
      </trkpt>
      <trkpt lat="47.52839" lon="5.92725">
        <ele>216.39999389648</ele>
        <time>2014-03-14T14:24:36.000Z</time>
      </trkpt>
      <trkpt lat="47.52857" lon="5.92736">
        <ele>216.39999389648</ele>
        <time>2014-03-14T14:24:41.000Z</time>
      </trkpt>
      <trkpt lat="47.52861" lon="5.92738">
        <ele>216.39999389648</ele>
        <time>2014-03-14T14:24:42.000Z</time>
      </trkpt>
      <trkpt lat="47.52881" lon="5.92742">
        <ele>216.39999389648</ele>
        <time>2014-03-14T14:24:46.000Z</time>
      </trkpt>
      <trkpt lat="47.5292" lon="5.92755">
        <ele>216.39999389648</ele>
        <time>2014-03-14T14:24:54.000Z</time>
      </trkpt>
      <trkpt lat="47.52933" lon="5.92763">
        <ele>216.39999389648</ele>
        <time>2014-03-14T14:24:56.000Z</time>
      </trkpt>
      <trkpt lat="47.52949" lon="5.92779">
        <ele>216.39999389648</ele>
        <time>2014-03-14T14:24:59.000Z</time>
      </trkpt>
      <trkpt lat="47.52974" lon="5.92812">
        <ele>216.39999389648</ele>
        <time>2014-03-14T14:25:04.000Z</time>
      </trkpt>
      <trkpt lat="47.52994" lon="5.92846">
        <ele>216.39999389648</ele>
        <time>2014-03-14T14:25:09.000Z</time>
      </trkpt>
      <trkpt lat="47.52997" lon="5.92853">
        <ele>216.39999389648</ele>
        <time>2014-03-14T14:25:10.000Z</time>
      </trkpt>
      <trkpt lat="47.52999" lon="5.9286">
        <ele>216.39999389648</ele>
        <time>2014-03-14T14:25:11.000Z</time>
      </trkpt>
      <trkpt lat="47.53006" lon="5.9288">
        <ele>216.39999389648</ele>
        <time>2014-03-14T14:25:14.000Z</time>
      </trkpt>
      <trkpt lat="47.53018" lon="5.92889">
        <ele>216.39999389648</ele>
        <time>2014-03-14T14:25:17.000Z</time>
      </trkpt>
      <trkpt lat="47.53031" lon="5.92892">
        <ele>216.39999389648</ele>
        <time>2014-03-14T14:25:20.000Z</time>
      </trkpt>
      <trkpt lat="47.53039" lon="5.92893">
        <ele>216.39999389648</ele>
        <time>2014-03-14T14:25:22.000Z</time>
      </trkpt>
      <trkpt lat="47.53068" lon="5.92893">
        <ele>216.39999389648</ele>
        <time>2014-03-14T14:25:28.000Z</time>
      </trkpt>
      <trkpt lat="47.53073" lon="5.92892">
        <ele>216.39999389648</ele>
        <time>2014-03-14T14:25:29.000Z</time>
      </trkpt>
      <trkpt lat="47.53095" lon="5.92892">
        <ele>216.39999389648</ele>
        <time>2014-03-14T14:25:33.000Z</time>
      </trkpt>
      <trkpt lat="47.531" lon="5.92892">
        <ele>216.39999389648</ele>
        <time>2014-03-14T14:25:34.000Z</time>
      </trkpt>
      <trkpt lat="47.53115" lon="5.92895">
        <ele>216.39999389648</ele>
        <time>2014-03-14T14:25:37.000Z</time>
      </trkpt>
      <trkpt lat="47.53135" lon="5.92902">
        <ele>216.39999389648</ele>
        <time>2014-03-14T14:25:41.000Z</time>
      </trkpt>
      <trkpt lat="47.53165" lon="5.92919">
        <ele>216.39999389648</ele>
        <time>2014-03-14T14:25:47.000Z</time>
      </trkpt>
      <trkpt lat="47.53191" lon="5.92934">
        <ele>216.39999389648</ele>
        <time>2014-03-14T14:25:53.000Z</time>
      </trkpt>
      <trkpt lat="47.53195" lon="5.92937">
        <ele>216.39999389648</ele>
        <time>2014-03-14T14:25:54.000Z</time>
      </trkpt>
      <trkpt lat="47.53199" lon="5.92948">
        <ele>216.39999389648</ele>
        <time>2014-03-14T14:25:56.000Z</time>
      </trkpt>
      <trkpt lat="47.53196" lon="5.9296">
        <ele>216.39999389648</ele>
        <time>2014-03-14T14:25:59.000Z</time>
      </trkpt>
      <trkpt lat="47.53193" lon="5.92963">
        <ele>216.39999389648</ele>
        <time>2014-03-14T14:26:00.000Z</time>
      </trkpt>
      <trkpt lat="47.53171" lon="5.92983">
        <ele>216.39999389648</ele>
        <time>2014-03-14T14:26:07.000Z</time>
      </trkpt>
      <trkpt lat="47.53151" lon="5.92999">
        <ele>216.39999389648</ele>
        <time>2014-03-14T14:26:14.000Z</time>
      </trkpt>
      <trkpt lat="47.53135" lon="5.93012">
        <ele>216.80000305176</ele>
        <time>2014-03-14T14:26:20.000Z</time>
      </trkpt>
      <trkpt lat="47.53133" lon="5.93014">
        <ele>217.39999389648</ele>
        <time>2014-03-14T14:26:21.000Z</time>
      </trkpt>
      <trkpt lat="47.5313" lon="5.93016">
        <ele>217.80000305176</ele>
        <time>2014-03-14T14:26:22.000Z</time>
      </trkpt>
      <trkpt lat="47.53128" lon="5.93018">
        <ele>218.19999694824</ele>
        <time>2014-03-14T14:26:23.000Z</time>
      </trkpt>
      <trkpt lat="47.53125" lon="5.9302">
        <ele>218.60000610352</ele>
        <time>2014-03-14T14:26:24.000Z</time>
      </trkpt>
      <trkpt lat="47.53115" lon="5.93026">
        <ele>218.60000610352</ele>
        <time>2014-03-14T14:26:28.000Z</time>
      </trkpt>
      <trkpt lat="47.53104" lon="5.93034">
        <ele>218.60000610352</ele>
        <time>2014-03-14T14:26:33.000Z</time>
      </trkpt>
      <trkpt lat="47.53101" lon="5.93036">
        <ele>219</ele>
        <time>2014-03-14T14:26:34.000Z</time>
      </trkpt>
      <trkpt lat="47.53099" lon="5.93038">
        <ele>219.39999389648</ele>
        <time>2014-03-14T14:26:35.000Z</time>
      </trkpt>
      <trkpt lat="47.53096" lon="5.93039">
        <ele>219.80000305176</ele>
        <time>2014-03-14T14:26:36.000Z</time>
      </trkpt>
      <trkpt lat="47.53094" lon="5.93041">
        <ele>220.19999694824</ele>
        <time>2014-03-14T14:26:37.000Z</time>
      </trkpt>
      <trkpt lat="47.53091" lon="5.93042">
        <ele>220.60000610352</ele>
        <time>2014-03-14T14:26:38.000Z</time>
      </trkpt>
      <trkpt lat="47.53089" lon="5.93044">
        <ele>220.60000610352</ele>
        <time>2014-03-14T14:26:39.000Z</time>
      </trkpt>
      <trkpt lat="47.5307" lon="5.93055">
        <ele>220.60000610352</ele>
        <time>2014-03-14T14:26:46.000Z</time>
      </trkpt>
      <trkpt lat="47.5306" lon="5.93062">
        <ele>221.19999694824</ele>
        <time>2014-03-14T14:26:50.000Z</time>
      </trkpt>
      <trkpt lat="47.53057" lon="5.93063">
        <ele>221.60000610352</ele>
        <time>2014-03-14T14:26:51.000Z</time>
      </trkpt>
      <trkpt lat="47.53054" lon="5.93065">
        <ele>222</ele>
        <time>2014-03-14T14:26:52.000Z</time>
      </trkpt>
      <trkpt lat="47.53051" lon="5.93067">
        <ele>222.39999389648</ele>
        <time>2014-03-14T14:26:53.000Z</time>
      </trkpt>
      <trkpt lat="47.53048" lon="5.93068">
        <ele>222.80000305176</ele>
        <time>2014-03-14T14:26:54.000Z</time>
      </trkpt>
      <trkpt lat="47.53025" lon="5.93083">
        <ele>222.80000305176</ele>
        <time>2014-03-14T14:27:02.000Z</time>
      </trkpt>
      <trkpt lat="47.53008" lon="5.93103">
        <ele>222.80000305176</ele>
        <time>2014-03-14T14:27:09.000Z</time>
      </trkpt>
      <trkpt lat="47.53006" lon="5.93106">
        <ele>223.19999694824</ele>
        <time>2014-03-14T14:27:10.000Z</time>
      </trkpt>
      <trkpt lat="47.53004" lon="5.93109">
        <ele>223.60000610352</ele>
        <time>2014-03-14T14:27:11.000Z</time>
      </trkpt>
      <trkpt lat="47.53002" lon="5.93112">
        <ele>224</ele>
        <time>2014-03-14T14:27:12.000Z</time>
      </trkpt>
      <trkpt lat="47.53" lon="5.93115">
        <ele>224.39999389648</ele>
        <time>2014-03-14T14:27:13.000Z</time>
      </trkpt>
      <trkpt lat="47.52998" lon="5.93118">
        <ele>224.80000305176</ele>
        <time>2014-03-14T14:27:14.000Z</time>
      </trkpt>
      <trkpt lat="47.52993" lon="5.93124">
        <ele>224.80000305176</ele>
        <time>2014-03-14T14:27:16.000Z</time>
      </trkpt>
      <trkpt lat="47.52976" lon="5.93154">
        <ele>224.80000305176</ele>
        <time>2014-03-14T14:27:25.000Z</time>
      </trkpt>
      <trkpt lat="47.52965" lon="5.93173">
        <ele>225.19999694824</ele>
        <time>2014-03-14T14:27:30.000Z</time>
      </trkpt>
      <trkpt lat="47.52963" lon="5.93178">
        <ele>225.60000610352</ele>
        <time>2014-03-14T14:27:31.000Z</time>
      </trkpt>
      <trkpt lat="47.52961" lon="5.93182">
        <ele>226</ele>
        <time>2014-03-14T14:27:32.000Z</time>
      </trkpt>
      <trkpt lat="47.52959" lon="5.93185">
        <ele>226.39999389648</ele>
        <time>2014-03-14T14:27:33.000Z</time>
      </trkpt>
      <trkpt lat="47.52957" lon="5.9319">
        <ele>226.80000305176</ele>
        <time>2014-03-14T14:27:34.000Z</time>
      </trkpt>
      <trkpt lat="47.52949" lon="5.93205">
        <ele>226.80000305176</ele>
        <time>2014-03-14T14:27:38.000Z</time>
      </trkpt>
      <trkpt lat="47.52935" lon="5.93237">
        <ele>226.80000305176</ele>
        <time>2014-03-14T14:27:46.000Z</time>
      </trkpt>
      <trkpt lat="47.5293" lon="5.9325">
        <ele>226.80000305176</ele>
        <time>2014-03-14T14:27:49.000Z</time>
      </trkpt>
      <trkpt lat="47.5292" lon="5.93278">
        <ele>226.80000305176</ele>
        <time>2014-03-14T14:27:55.000Z</time>
      </trkpt>
      <trkpt lat="47.52912" lon="5.933">
        <ele>227.19999694824</ele>
        <time>2014-03-14T14:28:00.000Z</time>
      </trkpt>
      <trkpt lat="47.5291" lon="5.93305">
        <ele>227.60000610352</ele>
        <time>2014-03-14T14:28:01.000Z</time>
      </trkpt>
      <trkpt lat="47.52908" lon="5.9331">
        <ele>228.19999694824</ele>
        <time>2014-03-14T14:28:02.000Z</time>
      </trkpt>
      <trkpt lat="47.52907" lon="5.93315">
        <ele>228.60000610352</ele>
        <time>2014-03-14T14:28:03.000Z</time>
      </trkpt>
      <trkpt lat="47.52905" lon="5.9332">
        <ele>229</ele>
        <time>2014-03-14T14:28:04.000Z</time>
      </trkpt>
      <trkpt lat="47.52904" lon="5.93325">
        <ele>229</ele>
        <time>2014-03-14T14:28:05.000Z</time>
      </trkpt>
      <trkpt lat="47.52892" lon="5.93365">
        <ele>229</ele>
        <time>2014-03-14T14:28:13.000Z</time>
      </trkpt>
      <trkpt lat="47.52887" lon="5.934">
        <ele>229</ele>
        <time>2014-03-14T14:28:20.000Z</time>
      </trkpt>
      <trkpt lat="47.52886" lon="5.93426">
        <ele>229.39999389648</ele>
        <time>2014-03-14T14:28:25.000Z</time>
      </trkpt>
      <trkpt lat="47.52886" lon="5.93432">
        <ele>229.80000305176</ele>
        <time>2014-03-14T14:28:26.000Z</time>
      </trkpt>
      <trkpt lat="47.52886" lon="5.93437">
        <ele>230.19999694824</ele>
        <time>2014-03-14T14:28:27.000Z</time>
      </trkpt>
      <trkpt lat="47.52886" lon="5.93442">
        <ele>230.60000610352</ele>
        <time>2014-03-14T14:28:28.000Z</time>
      </trkpt>
      <trkpt lat="47.52886" lon="5.93447">
        <ele>231</ele>
        <time>2014-03-14T14:28:29.000Z</time>
      </trkpt>
      <trkpt lat="47.52884" lon="5.93478">
        <ele>231</ele>
        <time>2014-03-14T14:28:35.000Z</time>
      </trkpt>
      <trkpt lat="47.52884" lon="5.93523">
        <ele>231</ele>
        <time>2014-03-14T14:28:44.000Z</time>
      </trkpt>
      <trkpt lat="47.52884" lon="5.93538">
        <ele>231.39999389648</ele>
        <time>2014-03-14T14:28:47.000Z</time>
      </trkpt>
      <trkpt lat="47.52884" lon="5.93544">
        <ele>231.80000305176</ele>
        <time>2014-03-14T14:28:48.000Z</time>
      </trkpt>
      <trkpt lat="47.52884" lon="5.93548">
        <ele>232.19999694824</ele>
        <time>2014-03-14T14:28:49.000Z</time>
      </trkpt>
      <trkpt lat="47.52884" lon="5.93553">
        <ele>232.60000610352</ele>
        <time>2014-03-14T14:28:50.000Z</time>
      </trkpt>
      <trkpt lat="47.52884" lon="5.93558">
        <ele>233</ele>
        <time>2014-03-14T14:28:51.000Z</time>
      </trkpt>
      <trkpt lat="47.52884" lon="5.93567">
        <ele>233</ele>
        <time>2014-03-14T14:28:53.000Z</time>
      </trkpt>
      <trkpt lat="47.52884" lon="5.936">
        <ele>233</ele>
        <time>2014-03-14T14:29:00.000Z</time>
      </trkpt>
      <trkpt lat="47.52882" lon="5.93615">
        <ele>233.39999389648</ele>
        <time>2014-03-14T14:29:03.000Z</time>
      </trkpt>
      <trkpt lat="47.52881" lon="5.9362">
        <ele>233.80000305176</ele>
        <time>2014-03-14T14:29:04.000Z</time>
      </trkpt>
      <trkpt lat="47.52881" lon="5.93624">
        <ele>234.39999389648</ele>
        <time>2014-03-14T14:29:05.000Z</time>
      </trkpt>
      <trkpt lat="47.5288" lon="5.93629">
        <ele>234.80000305176</ele>
        <time>2014-03-14T14:29:06.000Z</time>
      </trkpt>
      <trkpt lat="47.5288" lon="5.93633">
        <ele>235.19999694824</ele>
        <time>2014-03-14T14:29:07.000Z</time>
      </trkpt>
      <trkpt lat="47.52874" lon="5.93663">
        <ele>235.19999694824</ele>
        <time>2014-03-14T14:29:14.000Z</time>
      </trkpt>
      <trkpt lat="47.5287" lon="5.93694">
        <ele>235.19999694824</ele>
        <time>2014-03-14T14:29:22.000Z</time>
      </trkpt>
      <trkpt lat="47.52868" lon="5.93707">
        <ele>235.60000610352</ele>
        <time>2014-03-14T14:29:25.000Z</time>
      </trkpt>
      <trkpt lat="47.52867" lon="5.93711">
        <ele>236.19999694824</ele>
        <time>2014-03-14T14:29:26.000Z</time>
      </trkpt>
      <trkpt lat="47.52867" lon="5.93715">
        <ele>236.80000305176</ele>
        <time>2014-03-14T14:29:27.000Z</time>
      </trkpt>
      <trkpt lat="47.52866" lon="5.93719">
        <ele>237.39999389648</ele>
        <time>2014-03-14T14:29:28.000Z</time>
      </trkpt>
      <trkpt lat="47.52866" lon="5.93723">
        <ele>237.80000305176</ele>
        <time>2014-03-14T14:29:29.000Z</time>
      </trkpt>
      <trkpt lat="47.5286" lon="5.93759">
        <ele>237.80000305176</ele>
        <time>2014-03-14T14:29:38.000Z</time>
      </trkpt>
      <trkpt lat="47.52857" lon="5.93778">
        <ele>238.19999694824</ele>
        <time>2014-03-14T14:29:43.000Z</time>
      </trkpt>
      <trkpt lat="47.52857" lon="5.93782">
        <ele>238.60000610352</ele>
        <time>2014-03-14T14:29:44.000Z</time>
      </trkpt>
      <trkpt lat="47.52856" lon="5.93785">
        <ele>239</ele>
        <time>2014-03-14T14:29:45.000Z</time>
      </trkpt>
      <trkpt lat="47.52856" lon="5.93789">
        <ele>239.60000610352</ele>
        <time>2014-03-14T14:29:46.000Z</time>
      </trkpt>
      <trkpt lat="47.52855" lon="5.93792">
        <ele>240</ele>
        <time>2014-03-14T14:29:47.000Z</time>
      </trkpt>
      <trkpt lat="47.52855" lon="5.93796">
        <ele>240</ele>
        <time>2014-03-14T14:29:48.000Z</time>
      </trkpt>
      <trkpt lat="47.52851" lon="5.93827">
        <ele>240</ele>
        <time>2014-03-14T14:29:56.000Z</time>
      </trkpt>
      <trkpt lat="47.52848" lon="5.93844">
        <ele>240.39999389648</ele>
        <time>2014-03-14T14:30:00.000Z</time>
      </trkpt>
      <trkpt lat="47.52848" lon="5.93848">
        <ele>240.80000305176</ele>
        <time>2014-03-14T14:30:01.000Z</time>
      </trkpt>
      <trkpt lat="47.52847" lon="5.93853">
        <ele>241.19999694824</ele>
        <time>2014-03-14T14:30:02.000Z</time>
      </trkpt>
      <trkpt lat="47.52846" lon="5.93857">
        <ele>241.60000610352</ele>
        <time>2014-03-14T14:30:03.000Z</time>
      </trkpt>
      <trkpt lat="47.52845" lon="5.93862">
        <ele>242</ele>
        <time>2014-03-14T14:30:04.000Z</time>
      </trkpt>
      <trkpt lat="47.52841" lon="5.93896">
        <ele>242</ele>
        <time>2014-03-14T14:30:12.000Z</time>
      </trkpt>
      <trkpt lat="47.52839" lon="5.93916">
        <ele>242</ele>
        <time>2014-03-14T14:30:17.000Z</time>
      </trkpt>
      <trkpt lat="47.52836" lon="5.93937">
        <ele>242</ele>
        <time>2014-03-14T14:30:22.000Z</time>
      </trkpt>
      <trkpt lat="47.52836" lon="5.93941">
        <ele>242.39999389648</ele>
        <time>2014-03-14T14:30:23.000Z</time>
      </trkpt>
      <trkpt lat="47.52835" lon="5.93946">
        <ele>242.80000305176</ele>
        <time>2014-03-14T14:30:24.000Z</time>
      </trkpt>
      <trkpt lat="47.52834" lon="5.9395">
        <ele>243.19999694824</ele>
        <time>2014-03-14T14:30:25.000Z</time>
      </trkpt>
      <trkpt lat="47.52834" lon="5.93954">
        <ele>243.60000610352</ele>
        <time>2014-03-14T14:30:26.000Z</time>
      </trkpt>
      <trkpt lat="47.52833" lon="5.93959">
        <ele>244</ele>
        <time>2014-03-14T14:30:27.000Z</time>
      </trkpt>
      <trkpt lat="47.52831" lon="5.9398">
        <ele>244</ele>
        <time>2014-03-14T14:30:32.000Z</time>
      </trkpt>
      <trkpt lat="47.52826" lon="5.94025">
        <ele>244</ele>
        <time>2014-03-14T14:30:42.000Z</time>
      </trkpt>
      <trkpt lat="47.5282" lon="5.9406">
        <ele>244</ele>
        <time>2014-03-14T14:30:49.000Z</time>
      </trkpt>
      <trkpt lat="47.52814" lon="5.94091">
        <ele>244.39999389648</ele>
        <time>2014-03-14T14:30:55.000Z</time>
      </trkpt>
      <trkpt lat="47.52813" lon="5.94095">
        <ele>244.80000305176</ele>
        <time>2014-03-14T14:30:56.000Z</time>
      </trkpt>
      <trkpt lat="47.52812" lon="5.941">
        <ele>245.19999694824</ele>
        <time>2014-03-14T14:30:57.000Z</time>
      </trkpt>
      <trkpt lat="47.52811" lon="5.94105">
        <ele>245.80000305176</ele>
        <time>2014-03-14T14:30:58.000Z</time>
      </trkpt>
      <trkpt lat="47.5281" lon="5.9411">
        <ele>246.19999694824</ele>
        <time>2014-03-14T14:30:59.000Z</time>
      </trkpt>
      <trkpt lat="47.52807" lon="5.94122">
        <ele>246.19999694824</ele>
        <time>2014-03-14T14:31:02.000Z</time>
      </trkpt>
      <trkpt lat="47.52801" lon="5.94147">
        <ele>246.19999694824</ele>
        <time>2014-03-14T14:31:07.000Z</time>
      </trkpt>
      <trkpt lat="47.52795" lon="5.94171">
        <ele>246.19999694824</ele>
        <time>2014-03-14T14:31:12.000Z</time>
      </trkpt>
      <trkpt lat="47.52788" lon="5.94197">
        <ele>246.19999694824</ele>
        <time>2014-03-14T14:31:17.000Z</time>
      </trkpt>
      <trkpt lat="47.52779" lon="5.94234">
        <ele>246.19999694824</ele>
        <time>2014-03-14T14:31:24.000Z</time>
      </trkpt>
      <trkpt lat="47.52775" lon="5.94248">
        <ele>246.60000610352</ele>
        <time>2014-03-14T14:31:27.000Z</time>
      </trkpt>
      <trkpt lat="47.52774" lon="5.94252">
        <ele>247</ele>
        <time>2014-03-14T14:31:28.000Z</time>
      </trkpt>
      <trkpt lat="47.52772" lon="5.94257">
        <ele>247.39999389648</ele>
        <time>2014-03-14T14:31:29.000Z</time>
      </trkpt>
      <trkpt lat="47.52771" lon="5.94262">
        <ele>247.80000305176</ele>
        <time>2014-03-14T14:31:30.000Z</time>
      </trkpt>
      <trkpt lat="47.52769" lon="5.94266">
        <ele>248.19999694824</ele>
        <time>2014-03-14T14:31:31.000Z</time>
      </trkpt>
      <trkpt lat="47.52763" lon="5.94285">
        <ele>248.19999694824</ele>
        <time>2014-03-14T14:31:35.000Z</time>
      </trkpt>
      <trkpt lat="47.52751" lon="5.9431">
        <ele>248.19999694824</ele>
        <time>2014-03-14T14:31:42.000Z</time>
      </trkpt>
      <trkpt lat="47.52741" lon="5.94331">
        <ele>248.19999694824</ele>
        <time>2014-03-14T14:31:48.000Z</time>
      </trkpt>
      <trkpt lat="47.52733" lon="5.94351">
        <ele>248.19999694824</ele>
        <time>2014-03-14T14:31:54.000Z</time>
      </trkpt>
      <trkpt lat="47.52725" lon="5.94369">
        <ele>248.19999694824</ele>
        <time>2014-03-14T14:32:00.000Z</time>
      </trkpt>
      <trkpt lat="47.52716" lon="5.9439">
        <ele>248.19999694824</ele>
        <time>2014-03-14T14:32:06.000Z</time>
      </trkpt>
      <trkpt lat="47.52707" lon="5.9441">
        <ele>248.19999694824</ele>
        <time>2014-03-14T14:32:12.000Z</time>
      </trkpt>
      <trkpt lat="47.52697" lon="5.94432">
        <ele>248.19999694824</ele>
        <time>2014-03-14T14:32:18.000Z</time>
      </trkpt>
      <trkpt lat="47.52687" lon="5.94458">
        <ele>248.19999694824</ele>
        <time>2014-03-14T14:32:25.000Z</time>
      </trkpt>
      <trkpt lat="47.52677" lon="5.94485">
        <ele>248.19999694824</ele>
        <time>2014-03-14T14:32:32.000Z</time>
      </trkpt>
      <trkpt lat="47.52667" lon="5.94502">
        <ele>248.19999694824</ele>
        <time>2014-03-14T14:32:38.000Z</time>
      </trkpt>
      <trkpt lat="47.5266" lon="5.94516">
        <ele>248.19999694824</ele>
        <time>2014-03-14T14:32:44.000Z</time>
      </trkpt>
      <trkpt lat="47.52657" lon="5.94521">
        <ele>248.60000610352</ele>
        <time>2014-03-14T14:32:46.000Z</time>
      </trkpt>
      <trkpt lat="47.52655" lon="5.94524">
        <ele>249</ele>
        <time>2014-03-14T14:32:47.000Z</time>
      </trkpt>
      <trkpt lat="47.52653" lon="5.94526">
        <ele>249.39999389648</ele>
        <time>2014-03-14T14:32:48.000Z</time>
      </trkpt>
      <trkpt lat="47.52652" lon="5.94529">
        <ele>250.19999694824</ele>
        <time>2014-03-14T14:32:49.000Z</time>
      </trkpt>
      <trkpt lat="47.52649" lon="5.94534">
        <ele>250.19999694824</ele>
        <time>2014-03-14T14:32:51.000Z</time>
      </trkpt>
      <trkpt lat="47.52639" lon="5.94555">
        <ele>250.19999694824</ele>
        <time>2014-03-14T14:32:58.000Z</time>
      </trkpt>
      <trkpt lat="47.52633" lon="5.94566">
        <ele>250.19999694824</ele>
        <time>2014-03-14T14:33:03.000Z</time>
      </trkpt>
      <trkpt lat="47.52625" lon="5.94581">
        <ele>250.19999694824</ele>
        <time>2014-03-14T14:33:08.000Z</time>
      </trkpt>
      <trkpt lat="47.52611" lon="5.94607">
        <ele>250.19999694824</ele>
        <time>2014-03-14T14:33:14.000Z</time>
      </trkpt>
      <trkpt lat="47.52598" lon="5.9463">
        <ele>250.19999694824</ele>
        <time>2014-03-14T14:33:19.000Z</time>
      </trkpt>
      <trkpt lat="47.52581" lon="5.94656">
        <ele>250.19999694824</ele>
        <time>2014-03-14T14:33:25.000Z</time>
      </trkpt>
      <trkpt lat="47.5257" lon="5.94678">
        <ele>250.19999694824</ele>
        <time>2014-03-14T14:33:30.000Z</time>
      </trkpt>
      <trkpt lat="47.52568" lon="5.94683">
        <ele>250.19999694824</ele>
        <time>2014-03-14T14:33:31.000Z</time>
      </trkpt>
      <trkpt lat="47.52559" lon="5.94702">
        <ele>250.19999694824</ele>
        <time>2014-03-14T14:33:36.000Z</time>
      </trkpt>
      <trkpt lat="47.52554" lon="5.94717">
        <ele>249.80000305176</ele>
        <time>2014-03-14T14:33:40.000Z</time>
      </trkpt>
      <trkpt lat="47.52552" lon="5.94722">
        <ele>249.39999389648</ele>
        <time>2014-03-14T14:33:41.000Z</time>
      </trkpt>
      <trkpt lat="47.52551" lon="5.94726">
        <ele>249</ele>
        <time>2014-03-14T14:33:42.000Z</time>
      </trkpt>
      <trkpt lat="47.52549" lon="5.9473">
        <ele>248.60000610352</ele>
        <time>2014-03-14T14:33:43.000Z</time>
      </trkpt>
      <trkpt lat="47.52547" lon="5.94733">
        <ele>248.19999694824</ele>
        <time>2014-03-14T14:33:44.000Z</time>
      </trkpt>
      <trkpt lat="47.52542" lon="5.94746">
        <ele>248.19999694824</ele>
        <time>2014-03-14T14:33:47.000Z</time>
      </trkpt>
      <trkpt lat="47.52531" lon="5.9478">
        <ele>248.19999694824</ele>
        <time>2014-03-14T14:33:53.000Z</time>
      </trkpt>
      <trkpt lat="47.52522" lon="5.94808">
        <ele>248.19999694824</ele>
        <time>2014-03-14T14:33:59.000Z</time>
      </trkpt>
      <trkpt lat="47.52508" lon="5.94845">
        <ele>248.19999694824</ele>
        <time>2014-03-14T14:34:06.000Z</time>
      </trkpt>
      <trkpt lat="47.52495" lon="5.9489">
        <ele>248.19999694824</ele>
        <time>2014-03-14T14:34:14.000Z</time>
      </trkpt>
      <trkpt lat="47.52482" lon="5.94931">
        <ele>248.19999694824</ele>
        <time>2014-03-14T14:34:21.000Z</time>
      </trkpt>
      <trkpt lat="47.5247" lon="5.94971">
        <ele>248.19999694824</ele>
        <time>2014-03-14T14:34:28.000Z</time>
      </trkpt>
      <trkpt lat="47.52462" lon="5.94996">
        <ele>248.19999694824</ele>
        <time>2014-03-14T14:34:33.000Z</time>
      </trkpt>
      <trkpt lat="47.52449" lon="5.95035">
        <ele>248.19999694824</ele>
        <time>2014-03-14T14:34:40.000Z</time>
      </trkpt>
      <trkpt lat="47.52435" lon="5.95073">
        <ele>248.19999694824</ele>
        <time>2014-03-14T14:34:47.000Z</time>
      </trkpt>
      <trkpt lat="47.52417" lon="5.95116">
        <ele>248.19999694824</ele>
        <time>2014-03-14T14:34:55.000Z</time>
      </trkpt>
      <trkpt lat="47.52403" lon="5.9515">
        <ele>248.19999694824</ele>
        <time>2014-03-14T14:35:01.000Z</time>
      </trkpt>
      <trkpt lat="47.524" lon="5.95156">
        <ele>248.19999694824</ele>
        <time>2014-03-14T14:35:02.000Z</time>
      </trkpt>
      <trkpt lat="47.52389" lon="5.95183">
        <ele>248.60000610352</ele>
        <time>2014-03-14T14:35:07.000Z</time>
      </trkpt>
      <trkpt lat="47.52387" lon="5.95189">
        <ele>249</ele>
        <time>2014-03-14T14:35:08.000Z</time>
      </trkpt>
      <trkpt lat="47.52385" lon="5.95195">
        <ele>249.39999389648</ele>
        <time>2014-03-14T14:35:09.000Z</time>
      </trkpt>
      <trkpt lat="47.52383" lon="5.952">
        <ele>249.80000305176</ele>
        <time>2014-03-14T14:35:10.000Z</time>
      </trkpt>
      <trkpt lat="47.52381" lon="5.95205">
        <ele>250.19999694824</ele>
        <time>2014-03-14T14:35:11.000Z</time>
      </trkpt>
      <trkpt lat="47.52369" lon="5.95233">
        <ele>250.19999694824</ele>
        <time>2014-03-14T14:35:17.000Z</time>
      </trkpt>
      <trkpt lat="47.52356" lon="5.95266">
        <ele>250.19999694824</ele>
        <time>2014-03-14T14:35:24.000Z</time>
      </trkpt>
      <trkpt lat="47.52351" lon="5.9528">
        <ele>250.60000610352</ele>
        <time>2014-03-14T14:35:27.000Z</time>
      </trkpt>
      <trkpt lat="47.52349" lon="5.95284">
        <ele>251</ele>
        <time>2014-03-14T14:35:28.000Z</time>
      </trkpt>
      <trkpt lat="47.52347" lon="5.95289">
        <ele>251.39999389648</ele>
        <time>2014-03-14T14:35:29.000Z</time>
      </trkpt>
      <trkpt lat="47.52346" lon="5.95294">
        <ele>252</ele>
        <time>2014-03-14T14:35:30.000Z</time>
      </trkpt>
      <trkpt lat="47.52344" lon="5.95299">
        <ele>252.39999389648</ele>
        <time>2014-03-14T14:35:31.000Z</time>
      </trkpt>
      <trkpt lat="47.52333" lon="5.95333">
        <ele>252.39999389648</ele>
        <time>2014-03-14T14:35:38.000Z</time>
      </trkpt>
      <trkpt lat="47.52321" lon="5.95367">
        <ele>252.39999389648</ele>
        <time>2014-03-14T14:35:46.000Z</time>
      </trkpt>
      <trkpt lat="47.5232" lon="5.95369">
        <ele>252.39999389648</ele>
        <time>2014-03-14T14:35:48.000Z</time>
      </trkpt>
      <trkpt lat="47.5232" lon="5.95371">
        <ele>252.39999389648</ele>
        <time>2014-03-14T14:37:08.000Z</time>
      </trkpt>
      <trkpt lat="47.52323" lon="5.9538">
        <ele>252.39999389648</ele>
        <time>2014-03-14T14:37:11.000Z</time>
      </trkpt>
      <trkpt lat="47.52328" lon="5.95388">
        <ele>252.39999389648</ele>
        <time>2014-03-14T14:37:13.000Z</time>
      </trkpt>
      <trkpt lat="47.52333" lon="5.95398">
        <ele>252.39999389648</ele>
        <time>2014-03-14T14:37:15.000Z</time>
      </trkpt>
      <trkpt lat="47.52344" lon="5.95425">
        <ele>252.39999389648</ele>
        <time>2014-03-14T14:37:20.000Z</time>
      </trkpt>
      <trkpt lat="47.52357" lon="5.95454">
        <ele>252.39999389648</ele>
        <time>2014-03-14T14:37:25.000Z</time>
      </trkpt>
      <trkpt lat="47.5237" lon="5.95484">
        <ele>252.39999389648</ele>
        <time>2014-03-14T14:37:31.000Z</time>
      </trkpt>
      <trkpt lat="47.52384" lon="5.95515">
        <ele>252.39999389648</ele>
        <time>2014-03-14T14:37:38.000Z</time>
      </trkpt>
      <trkpt lat="47.52394" lon="5.95538">
        <ele>252</ele>
        <time>2014-03-14T14:37:42.000Z</time>
      </trkpt>
      <trkpt lat="47.52397" lon="5.95544">
        <ele>251.60000610352</ele>
        <time>2014-03-14T14:37:43.000Z</time>
      </trkpt>
      <trkpt lat="47.524" lon="5.9555">
        <ele>251</ele>
        <time>2014-03-14T14:37:44.000Z</time>
      </trkpt>
      <trkpt lat="47.52403" lon="5.95556">
        <ele>250.60000610352</ele>
        <time>2014-03-14T14:37:45.000Z</time>
      </trkpt>
      <trkpt lat="47.52406" lon="5.95562">
        <ele>250.19999694824</ele>
        <time>2014-03-14T14:37:46.000Z</time>
      </trkpt>
      <trkpt lat="47.52412" lon="5.95576">
        <ele>249.80000305176</ele>
        <time>2014-03-14T14:37:48.000Z</time>
      </trkpt>
      <trkpt lat="47.52416" lon="5.95583">
        <ele>249.39999389648</ele>
        <time>2014-03-14T14:37:49.000Z</time>
      </trkpt>
      <trkpt lat="47.5242" lon="5.95591">
        <ele>249</ele>
        <time>2014-03-14T14:37:50.000Z</time>
      </trkpt>
      <trkpt lat="47.52424" lon="5.95599">
        <ele>248.60000610352</ele>
        <time>2014-03-14T14:37:51.000Z</time>
      </trkpt>
      <trkpt lat="47.52427" lon="5.95607">
        <ele>248</ele>
        <time>2014-03-14T14:37:52.000Z</time>
      </trkpt>
      <trkpt lat="47.52431" lon="5.95616">
        <ele>247.60000610352</ele>
        <time>2014-03-14T14:37:53.000Z</time>
      </trkpt>
      <trkpt lat="47.52435" lon="5.95625">
        <ele>247.19999694824</ele>
        <time>2014-03-14T14:37:54.000Z</time>
      </trkpt>
      <trkpt lat="47.52438" lon="5.95632">
        <ele>246.80000305176</ele>
        <time>2014-03-14T14:37:55.000Z</time>
      </trkpt>
      <trkpt lat="47.52442" lon="5.9564">
        <ele>246.39999389648</ele>
        <time>2014-03-14T14:37:56.000Z</time>
      </trkpt>
      <trkpt lat="47.52446" lon="5.95647">
        <ele>246</ele>
        <time>2014-03-14T14:37:57.000Z</time>
      </trkpt>
      <trkpt lat="47.52453" lon="5.95663">
        <ele>245.60000610352</ele>
        <time>2014-03-14T14:37:59.000Z</time>
      </trkpt>
      <trkpt lat="47.52457" lon="5.95671">
        <ele>245.19999694824</ele>
        <time>2014-03-14T14:38:00.000Z</time>
      </trkpt>
      <trkpt lat="47.52461" lon="5.95678">
        <ele>244.80000305176</ele>
        <time>2014-03-14T14:38:01.000Z</time>
      </trkpt>
      <trkpt lat="47.52464" lon="5.95686">
        <ele>244.39999389648</ele>
        <time>2014-03-14T14:38:02.000Z</time>
      </trkpt>
      <trkpt lat="47.52468" lon="5.95694">
        <ele>244</ele>
        <time>2014-03-14T14:38:03.000Z</time>
      </trkpt>
      <trkpt lat="47.52471" lon="5.95702">
        <ele>243.39999389648</ele>
        <time>2014-03-14T14:38:04.000Z</time>
      </trkpt>
      <trkpt lat="47.52475" lon="5.9571">
        <ele>243</ele>
        <time>2014-03-14T14:38:05.000Z</time>
      </trkpt>
      <trkpt lat="47.5248" lon="5.95719">
        <ele>242.39999389648</ele>
        <time>2014-03-14T14:38:06.000Z</time>
      </trkpt>
      <trkpt lat="47.52484" lon="5.95728">
        <ele>242</ele>
        <time>2014-03-14T14:38:07.000Z</time>
      </trkpt>
      <trkpt lat="47.52488" lon="5.95738">
        <ele>241.39999389648</ele>
        <time>2014-03-14T14:38:08.000Z</time>
      </trkpt>
      <trkpt lat="47.52495" lon="5.95755">
        <ele>241</ele>
        <time>2014-03-14T14:38:10.000Z</time>
      </trkpt>
      <trkpt lat="47.52499" lon="5.95764">
        <ele>240.60000610352</ele>
        <time>2014-03-14T14:38:11.000Z</time>
      </trkpt>
      <trkpt lat="47.52502" lon="5.95772">
        <ele>240</ele>
        <time>2014-03-14T14:38:12.000Z</time>
      </trkpt>
      <trkpt lat="47.52506" lon="5.9578">
        <ele>239.19999694824</ele>
        <time>2014-03-14T14:38:13.000Z</time>
      </trkpt>
      <trkpt lat="47.52522" lon="5.95817">
        <ele>239.19999694824</ele>
        <time>2014-03-14T14:38:18.000Z</time>
      </trkpt>
      <trkpt lat="47.52538" lon="5.95857">
        <ele>239.19999694824</ele>
        <time>2014-03-14T14:38:24.000Z</time>
      </trkpt>
      <trkpt lat="47.5255" lon="5.95886">
        <ele>239.19999694824</ele>
        <time>2014-03-14T14:38:29.000Z</time>
      </trkpt>
      <trkpt lat="47.52561" lon="5.95909">
        <ele>239.19999694824</ele>
        <time>2014-03-14T14:38:33.000Z</time>
      </trkpt>
      <trkpt lat="47.52563" lon="5.95915">
        <ele>239.19999694824</ele>
        <time>2014-03-14T14:38:34.000Z</time>
      </trkpt>
      <trkpt lat="47.52577" lon="5.95944">
        <ele>239.19999694824</ele>
        <time>2014-03-14T14:38:40.000Z</time>
      </trkpt>
      <trkpt lat="47.52589" lon="5.95961">
        <ele>239.19999694824</ele>
        <time>2014-03-14T14:38:45.000Z</time>
      </trkpt>
      <trkpt lat="47.52605" lon="5.95959">
        <ele>239.19999694824</ele>
        <time>2014-03-14T14:38:49.000Z</time>
      </trkpt>
      <trkpt lat="47.52633" lon="5.9595">
        <ele>239.19999694824</ele>
        <time>2014-03-14T14:38:55.000Z</time>
      </trkpt>
      <trkpt lat="47.5266" lon="5.95941">
        <ele>239.60000610352</ele>
        <time>2014-03-14T14:39:01.000Z</time>
      </trkpt>
      <trkpt lat="47.52664" lon="5.9594">
        <ele>240.39999389648</ele>
        <time>2014-03-14T14:39:02.000Z</time>
      </trkpt>
      <trkpt lat="47.52669" lon="5.95939">
        <ele>240.80000305176</ele>
        <time>2014-03-14T14:39:03.000Z</time>
      </trkpt>
      <trkpt lat="47.52673" lon="5.95938">
        <ele>241.19999694824</ele>
        <time>2014-03-14T14:39:04.000Z</time>
      </trkpt>
      <trkpt lat="47.52697" lon="5.95932">
        <ele>241.19999694824</ele>
        <time>2014-03-14T14:39:09.000Z</time>
      </trkpt>
      <trkpt lat="47.52702" lon="5.95932">
        <ele>241.19999694824</ele>
        <time>2014-03-14T14:39:10.000Z</time>
      </trkpt>
      <trkpt lat="47.52736" lon="5.95928">
        <ele>241.19999694824</ele>
        <time>2014-03-14T14:39:17.000Z</time>
      </trkpt>
      <trkpt lat="47.52769" lon="5.95925">
        <ele>241.19999694824</ele>
        <time>2014-03-14T14:39:24.000Z</time>
      </trkpt>
      <trkpt lat="47.52783" lon="5.9592">
        <ele>241.19999694824</ele>
        <time>2014-03-14T14:39:27.000Z</time>
      </trkpt>
      <trkpt lat="47.52796" lon="5.95913">
        <ele>241.19999694824</ele>
        <time>2014-03-14T14:39:30.000Z</time>
      </trkpt>
      <trkpt lat="47.5281" lon="5.95904">
        <ele>240.80000305176</ele>
        <time>2014-03-14T14:39:33.000Z</time>
      </trkpt>
      <trkpt lat="47.52814" lon="5.959">
        <ele>240.39999389648</ele>
        <time>2014-03-14T14:39:34.000Z</time>
      </trkpt>
      <trkpt lat="47.52818" lon="5.95896">
        <ele>240</ele>
        <time>2014-03-14T14:39:35.000Z</time>
      </trkpt>
      <trkpt lat="47.52822" lon="5.95893">
        <ele>239.60000610352</ele>
        <time>2014-03-14T14:39:36.000Z</time>
      </trkpt>
      <trkpt lat="47.52825" lon="5.95889">
        <ele>239.19999694824</ele>
        <time>2014-03-14T14:39:37.000Z</time>
      </trkpt>
      <trkpt lat="47.52833" lon="5.95882">
        <ele>239.19999694824</ele>
        <time>2014-03-14T14:39:40.000Z</time>
      </trkpt>
      <trkpt lat="47.52846" lon="5.95871">
        <ele>239.19999694824</ele>
        <time>2014-03-14T14:39:45.000Z</time>
      </trkpt>
      <trkpt lat="47.52866" lon="5.95853">
        <ele>238.39999389648</ele>
        <time>2014-03-14T14:39:51.000Z</time>
      </trkpt>
      <trkpt lat="47.5287" lon="5.95849">
        <ele>238</ele>
        <time>2014-03-14T14:39:52.000Z</time>
      </trkpt>
      <trkpt lat="47.52875" lon="5.95845">
        <ele>237.60000610352</ele>
        <time>2014-03-14T14:39:53.000Z</time>
      </trkpt>
      <trkpt lat="47.52879" lon="5.95841">
        <ele>237.19999694824</ele>
        <time>2014-03-14T14:39:54.000Z</time>
      </trkpt>
      <trkpt lat="47.52893" lon="5.95827">
        <ele>237.19999694824</ele>
        <time>2014-03-14T14:39:57.000Z</time>
      </trkpt>
      <trkpt lat="47.52923" lon="5.95799">
        <ele>236.80000305176</ele>
        <time>2014-03-14T14:40:03.000Z</time>
      </trkpt>
      <trkpt lat="47.52929" lon="5.95793">
        <ele>236.39999389648</ele>
        <time>2014-03-14T14:40:04.000Z</time>
      </trkpt>
      <trkpt lat="47.52935" lon="5.95787">
        <ele>235.80000305176</ele>
        <time>2014-03-14T14:40:05.000Z</time>
      </trkpt>
      <trkpt lat="47.52941" lon="5.9578">
        <ele>235.39999389648</ele>
        <time>2014-03-14T14:40:06.000Z</time>
      </trkpt>
      <trkpt lat="47.52948" lon="5.95774">
        <ele>235</ele>
        <time>2014-03-14T14:40:07.000Z</time>
      </trkpt>
      <trkpt lat="47.52954" lon="5.95768">
        <ele>234.60000610352</ele>
        <time>2014-03-14T14:40:08.000Z</time>
      </trkpt>
      <trkpt lat="47.5296" lon="5.95762">
        <ele>234.19999694824</ele>
        <time>2014-03-14T14:40:09.000Z</time>
      </trkpt>
      <trkpt lat="47.52967" lon="5.95755">
        <ele>233.80000305176</ele>
        <time>2014-03-14T14:40:10.000Z</time>
      </trkpt>
      <trkpt lat="47.52973" lon="5.95749">
        <ele>233.39999389648</ele>
        <time>2014-03-14T14:40:11.000Z</time>
      </trkpt>
      <trkpt lat="47.52979" lon="5.95743">
        <ele>233</ele>
        <time>2014-03-14T14:40:12.000Z</time>
      </trkpt>
      <trkpt lat="47.52992" lon="5.9573">
        <ele>232.39999389648</ele>
        <time>2014-03-14T14:40:14.000Z</time>
      </trkpt>
      <trkpt lat="47.52998" lon="5.95722">
        <ele>232</ele>
        <time>2014-03-14T14:40:15.000Z</time>
      </trkpt>
      <trkpt lat="47.53004" lon="5.95714">
        <ele>231.19999694824</ele>
        <time>2014-03-14T14:40:16.000Z</time>
      </trkpt>
      <trkpt lat="47.53011" lon="5.95706">
        <ele>230.80000305176</ele>
        <time>2014-03-14T14:40:17.000Z</time>
      </trkpt>
      <trkpt lat="47.53016" lon="5.95697">
        <ele>230.39999389648</ele>
        <time>2014-03-14T14:40:18.000Z</time>
      </trkpt>
      <trkpt lat="47.53022" lon="5.95689">
        <ele>230</ele>
        <time>2014-03-14T14:40:19.000Z</time>
      </trkpt>
      <trkpt lat="47.53026" lon="5.95681">
        <ele>229.60000610352</ele>
        <time>2014-03-14T14:40:20.000Z</time>
      </trkpt>
      <trkpt lat="47.53031" lon="5.95673">
        <ele>229.19999694824</ele>
        <time>2014-03-14T14:40:21.000Z</time>
      </trkpt>
      <trkpt lat="47.53035" lon="5.95665">
        <ele>228.60000610352</ele>
        <time>2014-03-14T14:40:22.000Z</time>
      </trkpt>
      <trkpt lat="47.53059" lon="5.95616">
        <ele>228.60000610352</ele>
        <time>2014-03-14T14:40:28.000Z</time>
      </trkpt>
      <trkpt lat="47.53079" lon="5.95576">
        <ele>228.60000610352</ele>
        <time>2014-03-14T14:40:34.000Z</time>
      </trkpt>
      <trkpt lat="47.53092" lon="5.95551">
        <ele>229.19999694824</ele>
        <time>2014-03-14T14:40:38.000Z</time>
      </trkpt>
      <trkpt lat="47.53095" lon="5.95545">
        <ele>229.60000610352</ele>
        <time>2014-03-14T14:40:39.000Z</time>
      </trkpt>
      <trkpt lat="47.53099" lon="5.95538">
        <ele>230</ele>
        <time>2014-03-14T14:40:40.000Z</time>
      </trkpt>
      <trkpt lat="47.53103" lon="5.95532">
        <ele>230.80000305176</ele>
        <time>2014-03-14T14:40:41.000Z</time>
      </trkpt>
      <trkpt lat="47.53107" lon="5.95526">
        <ele>230.80000305176</ele>
        <time>2014-03-14T14:40:42.000Z</time>
      </trkpt>
      <trkpt lat="47.5314" lon="5.95479">
        <ele>230.39999389648</ele>
        <time>2014-03-14T14:40:49.000Z</time>
      </trkpt>
      <trkpt lat="47.53145" lon="5.95472">
        <ele>229.80000305176</ele>
        <time>2014-03-14T14:40:50.000Z</time>
      </trkpt>
      <trkpt lat="47.5315" lon="5.95466">
        <ele>229.39999389648</ele>
        <time>2014-03-14T14:40:51.000Z</time>
      </trkpt>
      <trkpt lat="47.53155" lon="5.95459">
        <ele>229</ele>
        <time>2014-03-14T14:40:52.000Z</time>
      </trkpt>
      <trkpt lat="47.5316" lon="5.95453">
        <ele>228.60000610352</ele>
        <time>2014-03-14T14:40:53.000Z</time>
      </trkpt>
      <trkpt lat="47.53176" lon="5.95432">
        <ele>228.60000610352</ele>
        <time>2014-03-14T14:40:56.000Z</time>
      </trkpt>
      <trkpt lat="47.53182" lon="5.95425">
        <ele>228.19999694824</ele>
        <time>2014-03-14T14:40:57.000Z</time>
      </trkpt>
      <trkpt lat="47.53187" lon="5.95418">
        <ele>227.60000610352</ele>
        <time>2014-03-14T14:40:58.000Z</time>
      </trkpt>
      <trkpt lat="47.53193" lon="5.95411">
        <ele>227.19999694824</ele>
        <time>2014-03-14T14:40:59.000Z</time>
      </trkpt>
      <trkpt lat="47.53198" lon="5.95404">
        <ele>226.80000305176</ele>
        <time>2014-03-14T14:41:00.000Z</time>
      </trkpt>
      <trkpt lat="47.53204" lon="5.95397">
        <ele>226.19999694824</ele>
        <time>2014-03-14T14:41:01.000Z</time>
      </trkpt>
      <trkpt lat="47.53227" lon="5.95368">
        <ele>226.19999694824</ele>
        <time>2014-03-14T14:41:05.000Z</time>
      </trkpt>
      <trkpt lat="47.53232" lon="5.95362">
        <ele>225.39999389648</ele>
        <time>2014-03-14T14:41:06.000Z</time>
      </trkpt>
      <trkpt lat="47.53237" lon="5.95355">
        <ele>225</ele>
        <time>2014-03-14T14:41:07.000Z</time>
      </trkpt>
      <trkpt lat="47.53242" lon="5.95349">
        <ele>224.60000610352</ele>
        <time>2014-03-14T14:41:08.000Z</time>
      </trkpt>
      <trkpt lat="47.53248" lon="5.95343">
        <ele>224.19999694824</ele>
        <time>2014-03-14T14:41:09.000Z</time>
      </trkpt>
      <trkpt lat="47.53258" lon="5.95329">
        <ele>224.19999694824</ele>
        <time>2014-03-14T14:41:11.000Z</time>
      </trkpt>
      <trkpt lat="47.53288" lon="5.95291">
        <ele>224.19999694824</ele>
        <time>2014-03-14T14:41:17.000Z</time>
      </trkpt>
      <trkpt lat="47.53324" lon="5.95246">
        <ele>224.19999694824</ele>
        <time>2014-03-14T14:41:24.000Z</time>
      </trkpt>
      <trkpt lat="47.53365" lon="5.95192">
        <ele>224.19999694824</ele>
        <time>2014-03-14T14:41:32.000Z</time>
      </trkpt>
      <trkpt lat="47.5337" lon="5.95186">
        <ele>224.19999694824</ele>
        <time>2014-03-14T14:41:33.000Z</time>
      </trkpt>
      <trkpt lat="47.53406" lon="5.9514">
        <ele>223.80000305176</ele>
        <time>2014-03-14T14:41:40.000Z</time>
      </trkpt>
      <trkpt lat="47.53411" lon="5.95134">
        <ele>223.39999389648</ele>
        <time>2014-03-14T14:41:41.000Z</time>
      </trkpt>
      <trkpt lat="47.53416" lon="5.95127">
        <ele>223</ele>
        <time>2014-03-14T14:41:42.000Z</time>
      </trkpt>
      <trkpt lat="47.53421" lon="5.95121">
        <ele>222.60000610352</ele>
        <time>2014-03-14T14:41:43.000Z</time>
      </trkpt>
      <trkpt lat="47.53426" lon="5.95115">
        <ele>222.19999694824</ele>
        <time>2014-03-14T14:41:44.000Z</time>
      </trkpt>
      <trkpt lat="47.5345" lon="5.95084">
        <ele>222.19999694824</ele>
        <time>2014-03-14T14:41:49.000Z</time>
      </trkpt>
      <trkpt lat="47.53476" lon="5.9505">
        <ele>222.19999694824</ele>
        <time>2014-03-14T14:41:55.000Z</time>
      </trkpt>
      <trkpt lat="47.53496" lon="5.95031">
        <ele>222.19999694824</ele>
        <time>2014-03-14T14:42:00.000Z</time>
      </trkpt>
      <trkpt lat="47.53507" lon="5.95043">
        <ele>222.19999694824</ele>
        <time>2014-03-14T14:42:03.000Z</time>
      </trkpt>
      <trkpt lat="47.53523" lon="5.95061">
        <ele>222.19999694824</ele>
        <time>2014-03-14T14:42:07.000Z</time>
      </trkpt>
      <trkpt lat="47.53528" lon="5.95065">
        <ele>222.19999694824</ele>
        <time>2014-03-14T14:42:08.000Z</time>
      </trkpt>
      <trkpt lat="47.53553" lon="5.95093">
        <ele>222.19999694824</ele>
        <time>2014-03-14T14:42:14.000Z</time>
      </trkpt>
      <trkpt lat="47.53561" lon="5.95103">
        <ele>222.19999694824</ele>
        <time>2014-03-14T14:42:16.000Z</time>
      </trkpt>
      <trkpt lat="47.53579" lon="5.95123">
        <ele>222.19999694824</ele>
        <time>2014-03-14T14:42:20.000Z</time>
      </trkpt>
      <trkpt lat="47.53605" lon="5.95152">
        <ele>222.19999694824</ele>
        <time>2014-03-14T14:42:26.000Z</time>
      </trkpt>
      <trkpt lat="47.53615" lon="5.95159">
        <ele>222.19999694824</ele>
        <time>2014-03-14T14:42:28.000Z</time>
      </trkpt>
      <trkpt lat="47.53633" lon="5.95164">
        <ele>222.19999694824</ele>
        <time>2014-03-14T14:42:31.000Z</time>
      </trkpt>
      <trkpt lat="47.53671" lon="5.95173">
        <ele>222.19999694824</ele>
        <time>2014-03-14T14:42:38.000Z</time>
      </trkpt>
      <trkpt lat="47.53718" lon="5.95184">
        <ele>222.19999694824</ele>
        <time>2014-03-14T14:42:47.000Z</time>
      </trkpt>
      <trkpt lat="47.53744" lon="5.95192">
        <ele>222.19999694824</ele>
        <time>2014-03-14T14:42:53.000Z</time>
      </trkpt>
      <trkpt lat="47.53745" lon="5.95199">
        <ele>222.19999694824</ele>
        <time>2014-03-14T14:42:54.000Z</time>
      </trkpt>
      <trkpt lat="47.53743" lon="5.95217">
        <ele>222.19999694824</ele>
        <time>2014-03-14T14:42:57.000Z</time>
      </trkpt>
      <trkpt lat="47.53742" lon="5.95223">
        <ele>222.19999694824</ele>
        <time>2014-03-14T14:42:58.000Z</time>
      </trkpt>
      <trkpt lat="47.53741" lon="5.95245">
        <ele>222.60000610352</ele>
        <time>2014-03-14T14:43:02.000Z</time>
      </trkpt>
      <trkpt lat="47.53741" lon="5.9525">
        <ele>223</ele>
        <time>2014-03-14T14:43:03.000Z</time>
      </trkpt>
      <trkpt lat="47.53743" lon="5.95255">
        <ele>223.39999389648</ele>
        <time>2014-03-14T14:43:04.000Z</time>
      </trkpt>
      <trkpt lat="47.53745" lon="5.95259">
        <ele>223.80000305176</ele>
        <time>2014-03-14T14:43:05.000Z</time>
      </trkpt>
      <trkpt lat="47.53749" lon="5.95262">
        <ele>224.19999694824</ele>
        <time>2014-03-14T14:43:06.000Z</time>
      </trkpt>
      <trkpt lat="47.53755" lon="5.95268">
        <ele>224.19999694824</ele>
        <time>2014-03-14T14:43:08.000Z</time>
      </trkpt>
      <trkpt lat="47.53763" lon="5.95284">
        <ele>224.80000305176</ele>
        <time>2014-03-14T14:43:12.000Z</time>
      </trkpt>
      <trkpt lat="47.53765" lon="5.95288">
        <ele>225.19999694824</ele>
        <time>2014-03-14T14:43:13.000Z</time>
      </trkpt>
      <trkpt lat="47.53766" lon="5.95293">
        <ele>225.60000610352</ele>
        <time>2014-03-14T14:43:14.000Z</time>
      </trkpt>
      <trkpt lat="47.53767" lon="5.95298">
        <ele>226</ele>
        <time>2014-03-14T14:43:15.000Z</time>
      </trkpt>
      <trkpt lat="47.53768" lon="5.95303">
        <ele>226.39999389648</ele>
        <time>2014-03-14T14:43:16.000Z</time>
      </trkpt>
      <trkpt lat="47.53773" lon="5.95322">
        <ele>226.39999389648</ele>
        <time>2014-03-14T14:43:20.000Z</time>
      </trkpt>
      <trkpt lat="47.53781" lon="5.95332">
        <ele>226.39999389648</ele>
        <time>2014-03-14T14:43:23.000Z</time>
      </trkpt>
      <trkpt lat="47.53785" lon="5.95332">
        <ele>226.39999389648</ele>
        <time>2014-03-14T14:43:24.000Z</time>
      </trkpt>
      <trkpt lat="47.53799" lon="5.95327">
        <ele>226.39999389648</ele>
        <time>2014-03-14T14:43:28.000Z</time>
      </trkpt>
      <trkpt lat="47.53803" lon="5.95326">
        <ele>226.39999389648</ele>
        <time>2014-03-14T14:43:29.000Z</time>
      </trkpt>
      <trkpt lat="47.53806" lon="5.95324">
        <ele>226.80000305176</ele>
        <time>2014-03-14T14:43:30.000Z</time>
      </trkpt>
      <trkpt lat="47.53809" lon="5.95323">
        <ele>227.19999694824</ele>
        <time>2014-03-14T14:43:31.000Z</time>
      </trkpt>
      <trkpt lat="47.53812" lon="5.95321">
        <ele>227.60000610352</ele>
        <time>2014-03-14T14:43:32.000Z</time>
      </trkpt>
      <trkpt lat="47.53815" lon="5.9532">
        <ele>228</ele>
        <time>2014-03-14T14:43:33.000Z</time>
      </trkpt>
      <trkpt lat="47.53819" lon="5.95319">
        <ele>228.60000610352</ele>
        <time>2014-03-14T14:43:34.000Z</time>
      </trkpt>
      <trkpt lat="47.53831" lon="5.95314">
        <ele>228.60000610352</ele>
        <time>2014-03-14T14:43:38.000Z</time>
      </trkpt>
      <trkpt lat="47.53842" lon="5.95309">
        <ele>228.60000610352</ele>
        <time>2014-03-14T14:43:42.000Z</time>
      </trkpt>
      <trkpt lat="47.53849" lon="5.95314">
        <ele>228.60000610352</ele>
        <time>2014-03-14T14:43:45.000Z</time>
      </trkpt>
      <trkpt lat="47.53852" lon="5.95328">
        <ele>228.60000610352</ele>
        <time>2014-03-14T14:43:49.000Z</time>
      </trkpt>
      <trkpt lat="47.53852" lon="5.95338">
        <ele>228.60000610352</ele>
        <time>2014-03-14T14:43:51.000Z</time>
      </trkpt>
      <trkpt lat="47.53852" lon="5.95359">
        <ele>229</ele>
        <time>2014-03-14T14:43:55.000Z</time>
      </trkpt>
      <trkpt lat="47.53852" lon="5.95365">
        <ele>229.39999389648</ele>
        <time>2014-03-14T14:43:56.000Z</time>
      </trkpt>
      <trkpt lat="47.53852" lon="5.9537">
        <ele>229.80000305176</ele>
        <time>2014-03-14T14:43:57.000Z</time>
      </trkpt>
      <trkpt lat="47.53852" lon="5.95376">
        <ele>230.19999694824</ele>
        <time>2014-03-14T14:43:58.000Z</time>
      </trkpt>
      <trkpt lat="47.53853" lon="5.95382">
        <ele>230.60000610352</ele>
        <time>2014-03-14T14:43:59.000Z</time>
      </trkpt>
      <trkpt lat="47.53854" lon="5.95404">
        <ele>230.60000610352</ele>
        <time>2014-03-14T14:44:03.000Z</time>
      </trkpt>
      <trkpt lat="47.53854" lon="5.95437">
        <ele>230.60000610352</ele>
        <time>2014-03-14T14:44:09.000Z</time>
      </trkpt>
      <trkpt lat="47.53856" lon="5.95485">
        <ele>230.60000610352</ele>
        <time>2014-03-14T14:44:17.000Z</time>
      </trkpt>
      <trkpt lat="47.53857" lon="5.95533">
        <ele>230.60000610352</ele>
        <time>2014-03-14T14:44:25.000Z</time>
      </trkpt>
      <trkpt lat="47.5386" lon="5.95583">
        <ele>230.60000610352</ele>
        <time>2014-03-14T14:44:33.000Z</time>
      </trkpt>
      <trkpt lat="47.53868" lon="5.95625">
        <ele>230.60000610352</ele>
        <time>2014-03-14T14:44:40.000Z</time>
      </trkpt>
      <trkpt lat="47.53869" lon="5.95632">
        <ele>230.60000610352</ele>
        <time>2014-03-14T14:44:41.000Z</time>
      </trkpt>
      <trkpt lat="47.53876" lon="5.95646">
        <ele>230.60000610352</ele>
        <time>2014-03-14T14:44:44.000Z</time>
      </trkpt>
      <trkpt lat="47.53882" lon="5.95665">
        <ele>230.60000610352</ele>
        <time>2014-03-14T14:44:48.000Z</time>
      </trkpt>
      <trkpt lat="47.53886" lon="5.9568">
        <ele>230.60000610352</ele>
        <time>2014-03-14T14:44:51.000Z</time>
      </trkpt>
      <trkpt lat="47.5389" lon="5.9569">
        <ele>230.60000610352</ele>
        <time>2014-03-14T14:44:53.000Z</time>
      </trkpt>
      <trkpt lat="47.53896" lon="5.95704">
        <ele>231</ele>
        <time>2014-03-14T14:44:56.000Z</time>
      </trkpt>
      <trkpt lat="47.539" lon="5.95708">
        <ele>231.39999389648</ele>
        <time>2014-03-14T14:44:57.000Z</time>
      </trkpt>
      <trkpt lat="47.53903" lon="5.95711">
        <ele>231.80000305176</ele>
        <time>2014-03-14T14:44:58.000Z</time>
      </trkpt>
      <trkpt lat="47.53905" lon="5.95715">
        <ele>232.19999694824</ele>
        <time>2014-03-14T14:44:59.000Z</time>
      </trkpt>
      <trkpt lat="47.53909" lon="5.95718">
        <ele>232.80000305176</ele>
        <time>2014-03-14T14:45:00.000Z</time>
      </trkpt>
      <trkpt lat="47.53929" lon="5.95738">
        <ele>232.80000305176</ele>
        <time>2014-03-14T14:45:06.000Z</time>
      </trkpt>
      <trkpt lat="47.53953" lon="5.95768">
        <ele>232.80000305176</ele>
        <time>2014-03-14T14:45:13.000Z</time>
      </trkpt>
      <trkpt lat="47.53987" lon="5.9581">
        <ele>232.80000305176</ele>
        <time>2014-03-14T14:45:23.000Z</time>
      </trkpt>
      <trkpt lat="47.54016" lon="5.95845">
        <ele>232.80000305176</ele>
        <time>2014-03-14T14:45:32.000Z</time>
      </trkpt>
      <trkpt lat="47.54032" lon="5.95865">
        <ele>233.19999694824</ele>
        <time>2014-03-14T14:45:37.000Z</time>
      </trkpt>
      <trkpt lat="47.54034" lon="5.95869">
        <ele>233.60000610352</ele>
        <time>2014-03-14T14:45:38.000Z</time>
      </trkpt>
      <trkpt lat="47.54037" lon="5.95872">
        <ele>234</ele>
        <time>2014-03-14T14:45:39.000Z</time>
      </trkpt>
      <trkpt lat="47.5404" lon="5.95876">
        <ele>234.39999389648</ele>
        <time>2014-03-14T14:45:40.000Z</time>
      </trkpt>
      <trkpt lat="47.54043" lon="5.9588">
        <ele>234.80000305176</ele>
        <time>2014-03-14T14:45:41.000Z</time>
      </trkpt>
      <trkpt lat="47.54054" lon="5.95896">
        <ele>234.80000305176</ele>
        <time>2014-03-14T14:45:45.000Z</time>
      </trkpt>
      <trkpt lat="47.54068" lon="5.95916">
        <ele>234.80000305176</ele>
        <time>2014-03-14T14:45:50.000Z</time>
      </trkpt>
      <trkpt lat="47.54094" lon="5.95952">
        <ele>234.80000305176</ele>
        <time>2014-03-14T14:45:58.000Z</time>
      </trkpt>
      <trkpt lat="47.54121" lon="5.9599">
        <ele>234.80000305176</ele>
        <time>2014-03-14T14:46:06.000Z</time>
      </trkpt>
      <trkpt lat="47.54124" lon="5.95995">
        <ele>234.80000305176</ele>
        <time>2014-03-14T14:46:07.000Z</time>
      </trkpt>
      <trkpt lat="47.54149" lon="5.96028">
        <ele>234.80000305176</ele>
        <time>2014-03-14T14:46:14.000Z</time>
      </trkpt>
      <trkpt lat="47.54178" lon="5.9606">
        <ele>234.80000305176</ele>
        <time>2014-03-14T14:46:22.000Z</time>
      </trkpt>
      <trkpt lat="47.54194" lon="5.96081">
        <ele>235.19999694824</ele>
        <time>2014-03-14T14:46:27.000Z</time>
      </trkpt>
      <trkpt lat="47.54197" lon="5.96085">
        <ele>235.60000610352</ele>
        <time>2014-03-14T14:46:28.000Z</time>
      </trkpt>
      <trkpt lat="47.542" lon="5.96089">
        <ele>236.19999694824</ele>
        <time>2014-03-14T14:46:29.000Z</time>
      </trkpt>
      <trkpt lat="47.54203" lon="5.96094">
        <ele>236.60000610352</ele>
        <time>2014-03-14T14:46:30.000Z</time>
      </trkpt>
      <trkpt lat="47.54205" lon="5.96098">
        <ele>237</ele>
        <time>2014-03-14T14:46:31.000Z</time>
      </trkpt>
      <trkpt lat="47.54227" lon="5.96132">
        <ele>237</ele>
        <time>2014-03-14T14:46:39.000Z</time>
      </trkpt>
      <trkpt lat="47.5425" lon="5.96169">
        <ele>237</ele>
        <time>2014-03-14T14:46:47.000Z</time>
      </trkpt>
      <trkpt lat="47.54272" lon="5.96204">
        <ele>237</ele>
        <time>2014-03-14T14:46:54.000Z</time>
      </trkpt>
      <trkpt lat="47.54289" lon="5.96231">
        <ele>237</ele>
        <time>2014-03-14T14:46:59.000Z</time>
      </trkpt>
      <trkpt lat="47.54315" lon="5.96258">
        <ele>237</ele>
        <time>2014-03-14T14:47:06.000Z</time>
      </trkpt>
      <trkpt lat="47.54319" lon="5.96261">
        <ele>237</ele>
        <time>2014-03-14T14:47:07.000Z</time>
      </trkpt>
      <trkpt lat="47.5433" lon="5.96259">
        <ele>237</ele>
        <time>2014-03-14T14:47:10.000Z</time>
      </trkpt>
      <trkpt lat="47.54333" lon="5.96256">
        <ele>237</ele>
        <time>2014-03-14T14:47:11.000Z</time>
      </trkpt>
      <trkpt lat="47.54334" lon="5.96251">
        <ele>237</ele>
        <time>2014-03-14T14:47:12.000Z</time>
      </trkpt>
      <trkpt lat="47.54338" lon="5.96239">
        <ele>237</ele>
        <time>2014-03-14T14:47:14.000Z</time>
      </trkpt>
      <trkpt lat="47.54349" lon="5.96202">
        <ele>237</ele>
        <time>2014-03-14T14:47:20.000Z</time>
      </trkpt>
      <trkpt lat="47.54361" lon="5.96162">
        <ele>237</ele>
        <time>2014-03-14T14:47:26.000Z</time>
      </trkpt>
      <trkpt lat="47.54378" lon="5.96106">
        <ele>237</ele>
        <time>2014-03-14T14:47:34.000Z</time>
      </trkpt>
      <trkpt lat="47.54395" lon="5.9605">
        <ele>237</ele>
        <time>2014-03-14T14:47:42.000Z</time>
      </trkpt>
      <trkpt lat="47.54409" lon="5.96001">
        <ele>237</ele>
        <time>2014-03-14T14:47:49.000Z</time>
      </trkpt>
      <trkpt lat="47.54415" lon="5.95983">
        <ele>237</ele>
        <time>2014-03-14T14:47:52.000Z</time>
      </trkpt>
      <trkpt lat="47.54421" lon="5.95964">
        <ele>237</ele>
        <time>2014-03-14T14:47:55.000Z</time>
      </trkpt>
      <trkpt lat="47.54429" lon="5.95941">
        <ele>237</ele>
        <time>2014-03-14T14:47:59.000Z</time>
      </trkpt>
      <trkpt lat="47.54433" lon="5.95939">
        <ele>237</ele>
        <time>2014-03-14T14:48:00.000Z</time>
      </trkpt>
      <trkpt lat="47.54446" lon="5.95948">
        <ele>237</ele>
        <time>2014-03-14T14:48:03.000Z</time>
      </trkpt>
      <trkpt lat="47.5445" lon="5.95954">
        <ele>237</ele>
        <time>2014-03-14T14:48:04.000Z</time>
      </trkpt>
      <trkpt lat="47.54457" lon="5.95965">
        <ele>237</ele>
        <time>2014-03-14T14:48:06.000Z</time>
      </trkpt>
      <trkpt lat="47.54467" lon="5.95982">
        <ele>237</ele>
        <time>2014-03-14T14:48:09.000Z</time>
      </trkpt>
      <trkpt lat="47.5449" lon="5.9602">
        <ele>237</ele>
        <time>2014-03-14T14:48:16.000Z</time>
      </trkpt>
      <trkpt lat="47.54522" lon="5.96074">
        <ele>237</ele>
        <time>2014-03-14T14:48:25.000Z</time>
      </trkpt>
      <trkpt lat="47.54554" lon="5.96128">
        <ele>237</ele>
        <time>2014-03-14T14:48:34.000Z</time>
      </trkpt>
      <trkpt lat="47.54576" lon="5.96164">
        <ele>237</ele>
        <time>2014-03-14T14:48:40.000Z</time>
      </trkpt>
      <trkpt lat="47.54591" lon="5.96184">
        <ele>237</ele>
        <time>2014-03-14T14:48:44.000Z</time>
      </trkpt>
      <trkpt lat="47.54599" lon="5.96191">
        <ele>237</ele>
        <time>2014-03-14T14:48:46.000Z</time>
      </trkpt>
      <trkpt lat="47.5463" lon="5.96204">
        <ele>237</ele>
        <time>2014-03-14T14:48:53.000Z</time>
      </trkpt>
      <trkpt lat="47.54675" lon="5.96222">
        <ele>237</ele>
        <time>2014-03-14T14:49:03.000Z</time>
      </trkpt>
      <trkpt lat="47.54717" lon="5.96239">
        <ele>237</ele>
        <time>2014-03-14T14:49:12.000Z</time>
      </trkpt>
      <trkpt lat="47.54735" lon="5.96247">
        <ele>237.39999389648</ele>
        <time>2014-03-14T14:49:16.000Z</time>
      </trkpt>
      <trkpt lat="47.54739" lon="5.96249">
        <ele>237.80000305176</ele>
        <time>2014-03-14T14:49:17.000Z</time>
      </trkpt>
      <trkpt lat="47.54743" lon="5.9625">
        <ele>238.19999694824</ele>
        <time>2014-03-14T14:49:18.000Z</time>
      </trkpt>
      <trkpt lat="47.54748" lon="5.96252">
        <ele>238.60000610352</ele>
        <time>2014-03-14T14:49:19.000Z</time>
      </trkpt>
      <trkpt lat="47.54752" lon="5.96254">
        <ele>239.19999694824</ele>
        <time>2014-03-14T14:49:20.000Z</time>
      </trkpt>
      <trkpt lat="47.54776" lon="5.96263">
        <ele>239.19999694824</ele>
        <time>2014-03-14T14:49:26.000Z</time>
      </trkpt>
      <trkpt lat="47.54806" lon="5.96276">
        <ele>239.19999694824</ele>
        <time>2014-03-14T14:49:33.000Z</time>
      </trkpt>
      <trkpt lat="47.5481" lon="5.96278">
        <ele>239.19999694824</ele>
        <time>2014-03-14T14:49:34.000Z</time>
      </trkpt>
      <trkpt lat="47.54842" lon="5.96291">
        <ele>239.19999694824</ele>
        <time>2014-03-14T14:49:42.000Z</time>
      </trkpt>
      <trkpt lat="47.54874" lon="5.96305">
        <ele>239.19999694824</ele>
        <time>2014-03-14T14:49:51.000Z</time>
      </trkpt>
      <trkpt lat="47.54903" lon="5.96316">
        <ele>239.60000610352</ele>
        <time>2014-03-14T14:49:58.000Z</time>
      </trkpt>
      <trkpt lat="47.54907" lon="5.96318">
        <ele>240.39999389648</ele>
        <time>2014-03-14T14:49:59.000Z</time>
      </trkpt>
      <trkpt lat="47.54911" lon="5.9632">
        <ele>240.80000305176</ele>
        <time>2014-03-14T14:50:00.000Z</time>
      </trkpt>
      <trkpt lat="47.54916" lon="5.96322">
        <ele>241.19999694824</ele>
        <time>2014-03-14T14:50:01.000Z</time>
      </trkpt>
      <trkpt lat="47.54948" lon="5.96335">
        <ele>241.19999694824</ele>
        <time>2014-03-14T14:50:09.000Z</time>
      </trkpt>
      <trkpt lat="47.54982" lon="5.96349">
        <ele>241.19999694824</ele>
        <time>2014-03-14T14:50:17.000Z</time>
      </trkpt>
      <trkpt lat="47.55015" lon="5.96363">
        <ele>241.19999694824</ele>
        <time>2014-03-14T14:50:25.000Z</time>
      </trkpt>
      <trkpt lat="47.55038" lon="5.96372">
        <ele>241.19999694824</ele>
        <time>2014-03-14T14:50:31.000Z</time>
      </trkpt>
      <trkpt lat="47.55061" lon="5.96382">
        <ele>241.19999694824</ele>
        <time>2014-03-14T14:50:37.000Z</time>
      </trkpt>
      <trkpt lat="47.55089" lon="5.96393">
        <ele>241.19999694824</ele>
        <time>2014-03-14T14:50:44.000Z</time>
      </trkpt>
      <trkpt lat="47.55121" lon="5.96408">
        <ele>241.19999694824</ele>
        <time>2014-03-14T14:50:51.000Z</time>
      </trkpt>
      <trkpt lat="47.5516" lon="5.96425">
        <ele>241.19999694824</ele>
        <time>2014-03-14T14:50:59.000Z</time>
      </trkpt>
      <trkpt lat="47.55172" lon="5.96435">
        <ele>241.19999694824</ele>
        <time>2014-03-14T14:51:02.000Z</time>
      </trkpt>
      <trkpt lat="47.5518" lon="5.96445">
        <ele>241.19999694824</ele>
        <time>2014-03-14T14:51:04.000Z</time>
      </trkpt>
      <trkpt lat="47.55195" lon="5.96463">
        <ele>241.19999694824</ele>
        <time>2014-03-14T14:51:08.000Z</time>
      </trkpt>
      <trkpt lat="47.55199" lon="5.96467">
        <ele>241.19999694824</ele>
        <time>2014-03-14T14:51:09.000Z</time>
      </trkpt>
      <trkpt lat="47.55214" lon="5.96487">
        <ele>241.19999694824</ele>
        <time>2014-03-14T14:51:13.000Z</time>
      </trkpt>
      <trkpt lat="47.5523" lon="5.96505">
        <ele>241.19999694824</ele>
        <time>2014-03-14T14:51:17.000Z</time>
      </trkpt>
      <trkpt lat="47.55241" lon="5.96518">
        <ele>241.19999694824</ele>
        <time>2014-03-14T14:51:20.000Z</time>
      </trkpt>
      <trkpt lat="47.55248" lon="5.96526">
        <ele>241.19999694824</ele>
        <time>2014-03-14T14:51:22.000Z</time>
      </trkpt>
      <trkpt lat="47.55274" lon="5.96547">
        <ele>241.19999694824</ele>
        <time>2014-03-14T14:51:28.000Z</time>
      </trkpt>
      <trkpt lat="47.55306" lon="5.96562">
        <ele>241.19999694824</ele>
        <time>2014-03-14T14:51:34.000Z</time>
      </trkpt>
      <trkpt lat="47.55349" lon="5.96579">
        <ele>241.19999694824</ele>
        <time>2014-03-14T14:51:42.000Z</time>
      </trkpt>
      <trkpt lat="47.5538" lon="5.96592">
        <ele>241.19999694824</ele>
        <time>2014-03-14T14:51:48.000Z</time>
      </trkpt>
      <trkpt lat="47.55405" lon="5.96604">
        <ele>241.19999694824</ele>
        <time>2014-03-14T14:51:53.000Z</time>
      </trkpt>
      <trkpt lat="47.55442" lon="5.96616">
        <ele>241.19999694824</ele>
        <time>2014-03-14T14:52:01.000Z</time>
      </trkpt>
      <trkpt lat="47.55451" lon="5.96619">
        <ele>241.19999694824</ele>
        <time>2014-03-14T14:52:03.000Z</time>
      </trkpt>
      <trkpt lat="47.55459" lon="5.96625">
        <ele>241.60000610352</ele>
        <time>2014-03-14T14:52:05.000Z</time>
      </trkpt>
      <trkpt lat="47.55462" lon="5.9663">
        <ele>242</ele>
        <time>2014-03-14T14:52:06.000Z</time>
      </trkpt>
      <trkpt lat="47.55465" lon="5.96635">
        <ele>242.39999389648</ele>
        <time>2014-03-14T14:52:07.000Z</time>
      </trkpt>
      <trkpt lat="47.55468" lon="5.9664">
        <ele>242.80000305176</ele>
        <time>2014-03-14T14:52:08.000Z</time>
      </trkpt>
      <trkpt lat="47.55471" lon="5.96645">
        <ele>243.19999694824</ele>
        <time>2014-03-14T14:52:09.000Z</time>
      </trkpt>
      <trkpt lat="47.55482" lon="5.96658">
        <ele>243.19999694824</ele>
        <time>2014-03-14T14:52:12.000Z</time>
      </trkpt>
      <trkpt lat="47.55506" lon="5.96685">
        <ele>243.19999694824</ele>
        <time>2014-03-14T14:52:19.000Z</time>
      </trkpt>
      <trkpt lat="47.55523" lon="5.96696">
        <ele>243.19999694824</ele>
        <time>2014-03-14T14:52:23.000Z</time>
      </trkpt>
      <trkpt lat="47.55533" lon="5.96698">
        <ele>243.19999694824</ele>
        <time>2014-03-14T14:52:25.000Z</time>
      </trkpt>
      <trkpt lat="47.55559" lon="5.96712">
        <ele>243.19999694824</ele>
        <time>2014-03-14T14:52:31.000Z</time>
      </trkpt>
      <trkpt lat="47.55563" lon="5.96716">
        <ele>243.19999694824</ele>
        <time>2014-03-14T14:52:32.000Z</time>
      </trkpt>
      <trkpt lat="47.55579" lon="5.96732">
        <ele>243.19999694824</ele>
        <time>2014-03-14T14:52:36.000Z</time>
      </trkpt>
      <trkpt lat="47.55586" lon="5.96739">
        <ele>243.60000610352</ele>
        <time>2014-03-14T14:52:38.000Z</time>
      </trkpt>
      <trkpt lat="47.5559" lon="5.96742">
        <ele>244</ele>
        <time>2014-03-14T14:52:39.000Z</time>
      </trkpt>
      <trkpt lat="47.55594" lon="5.96745">
        <ele>244.39999389648</ele>
        <time>2014-03-14T14:52:40.000Z</time>
      </trkpt>
      <trkpt lat="47.55598" lon="5.96748">
        <ele>245</ele>
        <time>2014-03-14T14:52:41.000Z</time>
      </trkpt>
      <trkpt lat="47.55602" lon="5.96751">
        <ele>245.39999389648</ele>
        <time>2014-03-14T14:52:42.000Z</time>
      </trkpt>
      <trkpt lat="47.55606" lon="5.96753">
        <ele>245.39999389648</ele>
        <time>2014-03-14T14:52:43.000Z</time>
      </trkpt>
      <trkpt lat="47.55623" lon="5.96765">
        <ele>245.39999389648</ele>
        <time>2014-03-14T14:52:47.000Z</time>
      </trkpt>
      <trkpt lat="47.55635" lon="5.96773">
        <ele>245.39999389648</ele>
        <time>2014-03-14T14:52:51.000Z</time>
      </trkpt>
      <trkpt lat="47.5565" lon="5.96782">
        <ele>245.39999389648</ele>
        <time>2014-03-14T14:52:56.000Z</time>
      </trkpt>
      <trkpt lat="47.55661" lon="5.9679">
        <ele>245.39999389648</ele>
        <time>2014-03-14T14:52:59.000Z</time>
      </trkpt>
      <trkpt lat="47.55667" lon="5.96794">
        <ele>245.39999389648</ele>
        <time>2014-03-14T14:53:01.000Z</time>
      </trkpt>
      <trkpt lat="47.55685" lon="5.96809">
        <ele>245.39999389648</ele>
        <time>2014-03-14T14:53:06.000Z</time>
      </trkpt>
      <trkpt lat="47.55701" lon="5.96823">
        <ele>245.39999389648</ele>
        <time>2014-03-14T14:53:11.000Z</time>
      </trkpt>
      <trkpt lat="47.55717" lon="5.96836">
        <ele>245.39999389648</ele>
        <time>2014-03-14T14:53:16.000Z</time>
      </trkpt>
      <trkpt lat="47.55724" lon="5.96841">
        <ele>245.80000305176</ele>
        <time>2014-03-14T14:53:18.000Z</time>
      </trkpt>
      <trkpt lat="47.55728" lon="5.96843">
        <ele>246.19999694824</ele>
        <time>2014-03-14T14:53:19.000Z</time>
      </trkpt>
      <trkpt lat="47.55732" lon="5.96845">
        <ele>246.60000610352</ele>
        <time>2014-03-14T14:53:20.000Z</time>
      </trkpt>
      <trkpt lat="47.55735" lon="5.96848">
        <ele>247</ele>
        <time>2014-03-14T14:53:21.000Z</time>
      </trkpt>
      <trkpt lat="47.55739" lon="5.9685">
        <ele>247.39999389648</ele>
        <time>2014-03-14T14:53:22.000Z</time>
      </trkpt>
      <trkpt lat="47.55745" lon="5.96854">
        <ele>247.39999389648</ele>
        <time>2014-03-14T14:53:24.000Z</time>
      </trkpt>
      <trkpt lat="47.5577" lon="5.96869">
        <ele>247.39999389648</ele>
        <time>2014-03-14T14:53:32.000Z</time>
      </trkpt>
      <trkpt lat="47.55792" lon="5.96882">
        <ele>247.39999389648</ele>
        <time>2014-03-14T14:53:38.000Z</time>
      </trkpt>
      <trkpt lat="47.55814" lon="5.96896">
        <ele>247.39999389648</ele>
        <time>2014-03-14T14:53:43.000Z</time>
      </trkpt>
      <trkpt lat="47.55845" lon="5.96916">
        <ele>247.39999389648</ele>
        <time>2014-03-14T14:53:50.000Z</time>
      </trkpt>
      <trkpt lat="47.55853" lon="5.96921">
        <ele>247.39999389648</ele>
        <time>2014-03-14T14:53:52.000Z</time>
      </trkpt>
      <trkpt lat="47.55875" lon="5.96932">
        <ele>247.39999389648</ele>
        <time>2014-03-14T14:53:57.000Z</time>
      </trkpt>
      <trkpt lat="47.5589" lon="5.96946">
        <ele>247.39999389648</ele>
        <time>2014-03-14T14:54:01.000Z</time>
      </trkpt>
      <trkpt lat="47.55898" lon="5.96956">
        <ele>247.39999389648</ele>
        <time>2014-03-14T14:54:03.000Z</time>
      </trkpt>
      <trkpt lat="47.55914" lon="5.96984">
        <ele>247.39999389648</ele>
        <time>2014-03-14T14:54:08.000Z</time>
      </trkpt>
      <trkpt lat="47.55917" lon="5.96989">
        <ele>247.39999389648</ele>
        <time>2014-03-14T14:54:09.000Z</time>
      </trkpt>
      <trkpt lat="47.55936" lon="5.97022">
        <ele>247.39999389648</ele>
        <time>2014-03-14T14:54:15.000Z</time>
      </trkpt>
      <trkpt lat="47.55955" lon="5.97064">
        <ele>247.39999389648</ele>
        <time>2014-03-14T14:54:22.000Z</time>
      </trkpt>
      <trkpt lat="47.55959" lon="5.97069">
        <ele>247.39999389648</ele>
        <time>2014-03-14T14:54:23.000Z</time>
      </trkpt>
      <trkpt lat="47.55973" lon="5.97089">
        <ele>247.39999389648</ele>
        <time>2014-03-14T14:54:27.000Z</time>
      </trkpt>
      <trkpt lat="47.55985" lon="5.97105">
        <ele>247</ele>
        <time>2014-03-14T14:54:30.000Z</time>
      </trkpt>
      <trkpt lat="47.55989" lon="5.9711">
        <ele>246.19999694824</ele>
        <time>2014-03-14T14:54:31.000Z</time>
      </trkpt>
      <trkpt lat="47.55993" lon="5.97116">
        <ele>245.80000305176</ele>
        <time>2014-03-14T14:54:32.000Z</time>
      </trkpt>
      <trkpt lat="47.55997" lon="5.97121">
        <ele>245.19999694824</ele>
        <time>2014-03-14T14:54:33.000Z</time>
      </trkpt>
      <trkpt lat="47.56001" lon="5.97126">
        <ele>245.19999694824</ele>
        <time>2014-03-14T14:54:34.000Z</time>
      </trkpt>
      <trkpt lat="47.56028" lon="5.9716">
        <ele>245.19999694824</ele>
        <time>2014-03-14T14:54:41.000Z</time>
      </trkpt>
      <trkpt lat="47.56042" lon="5.97181">
        <ele>245.19999694824</ele>
        <time>2014-03-14T14:54:45.000Z</time>
      </trkpt>
      <trkpt lat="47.56046" lon="5.97186">
        <ele>245.19999694824</ele>
        <time>2014-03-14T14:54:46.000Z</time>
      </trkpt>
      <trkpt lat="47.56061" lon="5.97208">
        <ele>244.80000305176</ele>
        <time>2014-03-14T14:54:50.000Z</time>
      </trkpt>
      <trkpt lat="47.56066" lon="5.97211">
        <ele>244.39999389648</ele>
        <time>2014-03-14T14:54:51.000Z</time>
      </trkpt>
      <trkpt lat="47.56071" lon="5.9721">
        <ele>244</ele>
        <time>2014-03-14T14:54:52.000Z</time>
      </trkpt>
      <trkpt lat="47.56076" lon="5.97207">
        <ele>243.60000610352</ele>
        <time>2014-03-14T14:54:53.000Z</time>
      </trkpt>
      <trkpt lat="47.56081" lon="5.97205">
        <ele>243.19999694824</ele>
        <time>2014-03-14T14:54:54.000Z</time>
      </trkpt>
      <trkpt lat="47.56085" lon="5.97202">
        <ele>243.19999694824</ele>
        <time>2014-03-14T14:54:55.000Z</time>
      </trkpt>
      <trkpt lat="47.5609" lon="5.97198">
        <ele>243.19999694824</ele>
        <time>2014-03-14T14:54:56.000Z</time>
      </trkpt>
      <trkpt lat="47.56109" lon="5.97178">
        <ele>243.19999694824</ele>
        <time>2014-03-14T14:55:00.000Z</time>
      </trkpt>
      <trkpt lat="47.56124" lon="5.97161">
        <ele>242.80000305176</ele>
        <time>2014-03-14T14:55:03.000Z</time>
      </trkpt>
      <trkpt lat="47.56128" lon="5.97155">
        <ele>242.39999389648</ele>
        <time>2014-03-14T14:55:04.000Z</time>
      </trkpt>
      <trkpt lat="47.56133" lon="5.9715">
        <ele>242</ele>
        <time>2014-03-14T14:55:05.000Z</time>
      </trkpt>
      <trkpt lat="47.56138" lon="5.97144">
        <ele>241.60000610352</ele>
        <time>2014-03-14T14:55:06.000Z</time>
      </trkpt>
      <trkpt lat="47.56143" lon="5.9714">
        <ele>241.19999694824</ele>
        <time>2014-03-14T14:55:07.000Z</time>
      </trkpt>
      <trkpt lat="47.56175" lon="5.97112">
        <ele>241.19999694824</ele>
        <time>2014-03-14T14:55:14.000Z</time>
      </trkpt>
      <trkpt lat="47.56205" lon="5.97088">
        <ele>241.19999694824</ele>
        <time>2014-03-14T14:55:21.000Z</time>
      </trkpt>
      <trkpt lat="47.56217" lon="5.97075">
        <ele>241.60000610352</ele>
        <time>2014-03-14T14:55:25.000Z</time>
      </trkpt>
      <trkpt lat="47.5622" lon="5.97071">
        <ele>242</ele>
        <time>2014-03-14T14:55:26.000Z</time>
      </trkpt>
      <trkpt lat="47.56224" lon="5.97068">
        <ele>242.39999389648</ele>
        <time>2014-03-14T14:55:27.000Z</time>
      </trkpt>
      <trkpt lat="47.56227" lon="5.97065">
        <ele>242.80000305176</ele>
        <time>2014-03-14T14:55:28.000Z</time>
      </trkpt>
      <trkpt lat="47.56231" lon="5.97061">
        <ele>243.19999694824</ele>
        <time>2014-03-14T14:55:29.000Z</time>
      </trkpt>
      <trkpt lat="47.56248" lon="5.97045">
        <ele>243.19999694824</ele>
        <time>2014-03-14T14:55:34.000Z</time>
      </trkpt>
      <trkpt lat="47.56268" lon="5.97028">
        <ele>243.19999694824</ele>
        <time>2014-03-14T14:55:40.000Z</time>
      </trkpt>
      <trkpt lat="47.5629" lon="5.97006">
        <ele>243.19999694824</ele>
        <time>2014-03-14T14:55:47.000Z</time>
      </trkpt>
      <trkpt lat="47.56312" lon="5.96977">
        <ele>243.19999694824</ele>
        <time>2014-03-14T14:55:52.000Z</time>
      </trkpt>
      <trkpt lat="47.56324" lon="5.96955">
        <ele>242.80000305176</ele>
        <time>2014-03-14T14:55:55.000Z</time>
      </trkpt>
      <trkpt lat="47.56329" lon="5.96947">
        <ele>242.19999694824</ele>
        <time>2014-03-14T14:55:56.000Z</time>
      </trkpt>
      <trkpt lat="47.56333" lon="5.96939">
        <ele>241.80000305176</ele>
        <time>2014-03-14T14:55:57.000Z</time>
      </trkpt>
      <trkpt lat="47.56337" lon="5.96931">
        <ele>241.39999389648</ele>
        <time>2014-03-14T14:55:58.000Z</time>
      </trkpt>
      <trkpt lat="47.56342" lon="5.96923">
        <ele>241</ele>
        <time>2014-03-14T14:55:59.000Z</time>
      </trkpt>
      <trkpt lat="47.56364" lon="5.9689">
        <ele>241</ele>
        <time>2014-03-14T14:56:04.000Z</time>
      </trkpt>
      <trkpt lat="47.56396" lon="5.96856">
        <ele>241</ele>
        <time>2014-03-14T14:56:11.000Z</time>
      </trkpt>
      <trkpt lat="47.56426" lon="5.96822">
        <ele>241</ele>
        <time>2014-03-14T14:56:19.000Z</time>
      </trkpt>
      <trkpt lat="47.56455" lon="5.9679">
        <ele>241</ele>
        <time>2014-03-14T14:56:27.000Z</time>
      </trkpt>
      <trkpt lat="47.56474" lon="5.96767">
        <ele>241</ele>
        <time>2014-03-14T14:56:33.000Z</time>
      </trkpt>
      <trkpt lat="47.56484" lon="5.96755">
        <ele>241</ele>
        <time>2014-03-14T14:56:36.000Z</time>
      </trkpt>
      <trkpt lat="47.56493" lon="5.96743">
        <ele>241</ele>
        <time>2014-03-14T14:56:39.000Z</time>
      </trkpt>
      <trkpt lat="47.56517" lon="5.96711">
        <ele>241</ele>
        <time>2014-03-14T14:56:47.000Z</time>
      </trkpt>
      <trkpt lat="47.56527" lon="5.96698">
        <ele>241.39999389648</ele>
        <time>2014-03-14T14:56:51.000Z</time>
      </trkpt>
      <trkpt lat="47.56529" lon="5.96695">
        <ele>241.80000305176</ele>
        <time>2014-03-14T14:56:52.000Z</time>
      </trkpt>
      <trkpt lat="47.56532" lon="5.96691">
        <ele>242.19999694824</ele>
        <time>2014-03-14T14:56:53.000Z</time>
      </trkpt>
      <trkpt lat="47.56534" lon="5.96688">
        <ele>242.60000610352</ele>
        <time>2014-03-14T14:56:54.000Z</time>
      </trkpt>
      <trkpt lat="47.56537" lon="5.96685">
        <ele>243</ele>
        <time>2014-03-14T14:56:55.000Z</time>
      </trkpt>
      <trkpt lat="47.56555" lon="5.96667">
        <ele>243</ele>
        <time>2014-03-14T14:57:01.000Z</time>
      </trkpt>
      <trkpt lat="47.56578" lon="5.96641">
        <ele>243</ele>
        <time>2014-03-14T14:57:10.000Z</time>
      </trkpt>
      <trkpt lat="47.56581" lon="5.96638">
        <ele>243.39999389648</ele>
        <time>2014-03-14T14:57:11.000Z</time>
      </trkpt>
      <trkpt lat="47.56583" lon="5.96635">
        <ele>243.80000305176</ele>
        <time>2014-03-14T14:57:12.000Z</time>
      </trkpt>
      <trkpt lat="47.56586" lon="5.96632">
        <ele>244.19999694824</ele>
        <time>2014-03-14T14:57:13.000Z</time>
      </trkpt>
      <trkpt lat="47.56589" lon="5.96629">
        <ele>244.80000305176</ele>
        <time>2014-03-14T14:57:14.000Z</time>
      </trkpt>
      <trkpt lat="47.56591" lon="5.96626">
        <ele>245.19999694824</ele>
        <time>2014-03-14T14:57:15.000Z</time>
      </trkpt>
      <trkpt lat="47.56603" lon="5.96611">
        <ele>245.19999694824</ele>
        <time>2014-03-14T14:57:20.000Z</time>
      </trkpt>
      <trkpt lat="47.56615" lon="5.96585">
        <ele>245.19999694824</ele>
        <time>2014-03-14T14:57:27.000Z</time>
      </trkpt>
      <trkpt lat="47.56615" lon="5.96581">
        <ele>245.60000610352</ele>
        <time>2014-03-14T14:57:28.000Z</time>
      </trkpt>
      <trkpt lat="47.56615" lon="5.96577">
        <ele>246</ele>
        <time>2014-03-14T14:57:29.000Z</time>
      </trkpt>
      <trkpt lat="47.56615" lon="5.96573">
        <ele>246.39999389648</ele>
        <time>2014-03-14T14:57:30.000Z</time>
      </trkpt>
      <trkpt lat="47.56615" lon="5.96568">
        <ele>246.80000305176</ele>
        <time>2014-03-14T14:57:31.000Z</time>
      </trkpt>
      <trkpt lat="47.56614" lon="5.96564">
        <ele>247.19999694824</ele>
        <time>2014-03-14T14:57:32.000Z</time>
      </trkpt>
      <trkpt lat="47.56614" lon="5.9656">
        <ele>247.19999694824</ele>
        <time>2014-03-14T14:57:33.000Z</time>
      </trkpt>
      <trkpt lat="47.56617" lon="5.96534">
        <ele>247.19999694824</ele>
        <time>2014-03-14T14:57:39.000Z</time>
      </trkpt>
      <trkpt lat="47.56627" lon="5.96533">
        <ele>247.19999694824</ele>
        <time>2014-03-14T14:57:43.000Z</time>
      </trkpt>
      <trkpt lat="47.5663" lon="5.96535">
        <ele>247.60000610352</ele>
        <time>2014-03-14T14:57:44.000Z</time>
      </trkpt>
      <trkpt lat="47.56632" lon="5.96536">
        <ele>248</ele>
        <time>2014-03-14T14:57:45.000Z</time>
      </trkpt>
      <trkpt lat="47.56635" lon="5.96537">
        <ele>248.39999389648</ele>
        <time>2014-03-14T14:57:46.000Z</time>
      </trkpt>
      <trkpt lat="47.56638" lon="5.96539">
        <ele>249</ele>
        <time>2014-03-14T14:57:47.000Z</time>
      </trkpt>
      <trkpt lat="47.56641" lon="5.9654">
        <ele>249.39999389648</ele>
        <time>2014-03-14T14:57:48.000Z</time>
      </trkpt>
      <trkpt lat="47.56647" lon="5.96542">
        <ele>249.39999389648</ele>
        <time>2014-03-14T14:57:50.000Z</time>
      </trkpt>
      <trkpt lat="47.56672" lon="5.96555">
        <ele>249.39999389648</ele>
        <time>2014-03-14T14:57:58.000Z</time>
      </trkpt>
      <trkpt lat="47.56695" lon="5.96567">
        <ele>249.39999389648</ele>
        <time>2014-03-14T14:58:06.000Z</time>
      </trkpt>
      <trkpt lat="47.5671" lon="5.96574">
        <ele>249.39999389648</ele>
        <time>2014-03-14T14:58:12.000Z</time>
      </trkpt>
      <trkpt lat="47.56725" lon="5.96581">
        <ele>249.39999389648</ele>
        <time>2014-03-14T14:58:16.000Z</time>
      </trkpt>
      <trkpt lat="47.56729" lon="5.96582">
        <ele>249.39999389648</ele>
        <time>2014-03-14T14:58:17.000Z</time>
      </trkpt>
      <trkpt lat="47.56749" lon="5.96592">
        <ele>249.39999389648</ele>
        <time>2014-03-14T14:58:22.000Z</time>
      </trkpt>
      <trkpt lat="47.56757" lon="5.96596">
        <ele>249.39999389648</ele>
        <time>2014-03-14T14:58:24.000Z</time>
      </trkpt>
      <trkpt lat="47.56786" lon="5.96606">
        <ele>249.39999389648</ele>
        <time>2014-03-14T14:58:29.000Z</time>
      </trkpt>
      <trkpt lat="47.56824" lon="5.96622">
        <ele>249.39999389648</ele>
        <time>2014-03-14T14:58:35.000Z</time>
      </trkpt>
      <trkpt lat="47.56863" lon="5.96638">
        <ele>249.39999389648</ele>
        <time>2014-03-14T14:58:42.000Z</time>
      </trkpt>
      <trkpt lat="47.56877" lon="5.96629">
        <ele>249.39999389648</ele>
        <time>2014-03-14T14:58:45.000Z</time>
      </trkpt>
      <trkpt lat="47.5688" lon="5.9662">
        <ele>249</ele>
        <time>2014-03-14T14:58:46.000Z</time>
      </trkpt>
      <trkpt lat="47.56881" lon="5.96611">
        <ele>248.60000610352</ele>
        <time>2014-03-14T14:58:47.000Z</time>
      </trkpt>
      <trkpt lat="47.56882" lon="5.96602">
        <ele>248</ele>
        <time>2014-03-14T14:58:48.000Z</time>
      </trkpt>
      <trkpt lat="47.56882" lon="5.96593">
        <ele>247.60000610352</ele>
        <time>2014-03-14T14:58:49.000Z</time>
      </trkpt>
      <trkpt lat="47.56881" lon="5.96584">
        <ele>247.19999694824</ele>
        <time>2014-03-14T14:58:50.000Z</time>
      </trkpt>
      <trkpt lat="47.56881" lon="5.96575">
        <ele>247.19999694824</ele>
        <time>2014-03-14T14:58:51.000Z</time>
      </trkpt>
      <trkpt lat="47.56882" lon="5.96568">
        <ele>246.80000305176</ele>
        <time>2014-03-14T14:58:52.000Z</time>
      </trkpt>
      <trkpt lat="47.56886" lon="5.96561">
        <ele>246.39999389648</ele>
        <time>2014-03-14T14:58:53.000Z</time>
      </trkpt>
      <trkpt lat="47.56891" lon="5.96559">
        <ele>246</ele>
        <time>2014-03-14T14:58:54.000Z</time>
      </trkpt>
      <trkpt lat="47.56897" lon="5.96558">
        <ele>245.60000610352</ele>
        <time>2014-03-14T14:58:55.000Z</time>
      </trkpt>
      <trkpt lat="47.56903" lon="5.96556">
        <ele>245.19999694824</ele>
        <time>2014-03-14T14:58:56.000Z</time>
      </trkpt>
      <trkpt lat="47.56914" lon="5.96553">
        <ele>245.19999694824</ele>
        <time>2014-03-14T14:58:58.000Z</time>
      </trkpt>
      <trkpt lat="47.56943" lon="5.96545">
        <ele>245.19999694824</ele>
        <time>2014-03-14T14:59:04.000Z</time>
      </trkpt>
      <trkpt lat="47.56947" lon="5.96541">
        <ele>245.19999694824</ele>
        <time>2014-03-14T14:59:05.000Z</time>
      </trkpt>
      <trkpt lat="47.5695" lon="5.96527">
        <ele>245.19999694824</ele>
        <time>2014-03-14T14:59:07.000Z</time>
      </trkpt>
      <trkpt lat="47.56947" lon="5.96507">
        <ele>245.19999694824</ele>
        <time>2014-03-14T14:59:10.000Z</time>
      </trkpt>
      <trkpt lat="47.56946" lon="5.96494">
        <ele>245.19999694824</ele>
        <time>2014-03-14T14:59:12.000Z</time>
      </trkpt>
      <trkpt lat="47.56941" lon="5.96472">
        <ele>245.19999694824</ele>
        <time>2014-03-14T14:59:15.000Z</time>
      </trkpt>
      <trkpt lat="47.5694" lon="5.96465">
        <ele>245.19999694824</ele>
        <time>2014-03-14T14:59:16.000Z</time>
      </trkpt>
      <trkpt lat="47.56945" lon="5.96445">
        <ele>245.19999694824</ele>
        <time>2014-03-14T14:59:19.000Z</time>
      </trkpt>
      <trkpt lat="47.56953" lon="5.96434">
        <ele>245.19999694824</ele>
        <time>2014-03-14T14:59:21.000Z</time>
      </trkpt>
      <trkpt lat="47.56956" lon="5.96428">
        <ele>244.80000305176</ele>
        <time>2014-03-14T14:59:22.000Z</time>
      </trkpt>
      <trkpt lat="47.56958" lon="5.96422">
        <ele>244.39999389648</ele>
        <time>2014-03-14T14:59:23.000Z</time>
      </trkpt>
      <trkpt lat="47.56959" lon="5.96414">
        <ele>243.80000305176</ele>
        <time>2014-03-14T14:59:24.000Z</time>
      </trkpt>
      <trkpt lat="47.56959" lon="5.96406">
        <ele>243.39999389648</ele>
        <time>2014-03-14T14:59:25.000Z</time>
      </trkpt>
      <trkpt lat="47.56958" lon="5.96398">
        <ele>243</ele>
        <time>2014-03-14T14:59:26.000Z</time>
      </trkpt>
      <trkpt lat="47.56958" lon="5.96389">
        <ele>243</ele>
        <time>2014-03-14T14:59:27.000Z</time>
      </trkpt>
      <trkpt lat="47.56958" lon="5.96381">
        <ele>243</ele>
        <time>2014-03-14T14:59:28.000Z</time>
      </trkpt>
      <trkpt lat="47.56959" lon="5.9633">
        <ele>242.60000610352</ele>
        <time>2014-03-14T14:59:34.000Z</time>
      </trkpt>
      <trkpt lat="47.56958" lon="5.96321">
        <ele>242.19999694824</ele>
        <time>2014-03-14T14:59:35.000Z</time>
      </trkpt>
      <trkpt lat="47.56958" lon="5.96313">
        <ele>241.80000305176</ele>
        <time>2014-03-14T14:59:36.000Z</time>
      </trkpt>
      <trkpt lat="47.56958" lon="5.96304">
        <ele>241.39999389648</ele>
        <time>2014-03-14T14:59:37.000Z</time>
      </trkpt>
      <trkpt lat="47.56959" lon="5.96295">
        <ele>241</ele>
        <time>2014-03-14T14:59:38.000Z</time>
      </trkpt>
      <trkpt lat="47.56965" lon="5.9628">
        <ele>241</ele>
        <time>2014-03-14T14:59:40.000Z</time>
      </trkpt>
      <trkpt lat="47.5698" lon="5.96272">
        <ele>241</ele>
        <time>2014-03-14T14:59:43.000Z</time>
      </trkpt>
      <trkpt lat="47.56991" lon="5.96274">
        <ele>241</ele>
        <time>2014-03-14T14:59:45.000Z</time>
      </trkpt>
      <trkpt lat="47.57003" lon="5.96273">
        <ele>241</ele>
        <time>2014-03-14T14:59:48.000Z</time>
      </trkpt>
      <trkpt lat="47.57005" lon="5.96272">
        <ele>241</ele>
        <time>2014-03-14T14:59:51.000Z</time>
      </trkpt>
      <trkpt lat="47.57007" lon="5.9627">
        <ele>241</ele>
        <time>2014-03-14T14:59:57.000Z</time>
      </trkpt>
      <trkpt lat="47.57009" lon="5.96265">
        <ele>241</ele>
        <time>2014-03-14T14:59:59.000Z</time>
      </trkpt>
      <trkpt lat="47.57009" lon="5.96241">
        <ele>241</ele>
        <time>2014-03-14T15:00:03.000Z</time>
      </trkpt>
      <trkpt lat="47.57007" lon="5.96187">
        <ele>241</ele>
        <time>2014-03-14T15:00:10.000Z</time>
      </trkpt>
      <trkpt lat="47.57005" lon="5.96112">
        <ele>241</ele>
        <time>2014-03-14T15:00:19.000Z</time>
      </trkpt>
      <trkpt lat="47.57006" lon="5.96105">
        <ele>241</ele>
        <time>2014-03-14T15:00:20.000Z</time>
      </trkpt>
      <trkpt lat="47.57014" lon="5.96094">
        <ele>241</ele>
        <time>2014-03-14T15:00:22.000Z</time>
      </trkpt>
      <trkpt lat="47.57024" lon="5.96084">
        <ele>240.39999389648</ele>
        <time>2014-03-14T15:00:24.000Z</time>
      </trkpt>
      <trkpt lat="47.57028" lon="5.96079">
        <ele>240</ele>
        <time>2014-03-14T15:00:25.000Z</time>
      </trkpt>
      <trkpt lat="47.57033" lon="5.96073">
        <ele>239.60000610352</ele>
        <time>2014-03-14T15:00:26.000Z</time>
      </trkpt>
      <trkpt lat="47.57038" lon="5.96069">
        <ele>239</ele>
        <time>2014-03-14T15:00:27.000Z</time>
      </trkpt>
      <trkpt lat="47.57042" lon="5.96064">
        <ele>238.60000610352</ele>
        <time>2014-03-14T15:00:28.000Z</time>
      </trkpt>
      <trkpt lat="47.57052" lon="5.96052">
        <ele>238.19999694824</ele>
        <time>2014-03-14T15:00:30.000Z</time>
      </trkpt>
      <trkpt lat="47.57057" lon="5.96046">
        <ele>237.80000305176</ele>
        <time>2014-03-14T15:00:31.000Z</time>
      </trkpt>
      <trkpt lat="47.57063" lon="5.96045">
        <ele>237.39999389648</ele>
        <time>2014-03-14T15:00:32.000Z</time>
      </trkpt>
      <trkpt lat="47.57069" lon="5.96048">
        <ele>237</ele>
        <time>2014-03-14T15:00:33.000Z</time>
      </trkpt>
      <trkpt lat="47.57074" lon="5.96055">
        <ele>236.60000610352</ele>
        <time>2014-03-14T15:00:34.000Z</time>
      </trkpt>
      <trkpt lat="47.57076" lon="5.96063">
        <ele>236.60000610352</ele>
        <time>2014-03-14T15:00:35.000Z</time>
      </trkpt>
      <trkpt lat="47.57087" lon="5.96078">
        <ele>236.60000610352</ele>
        <time>2014-03-14T15:00:38.000Z</time>
      </trkpt>
      <trkpt lat="47.57096" lon="5.96072">
        <ele>236.60000610352</ele>
        <time>2014-03-14T15:00:40.000Z</time>
      </trkpt>
      <trkpt lat="47.57109" lon="5.96056">
        <ele>236.60000610352</ele>
        <time>2014-03-14T15:00:44.000Z</time>
      </trkpt>
      <trkpt lat="47.57125" lon="5.96043">
        <ele>236.60000610352</ele>
        <time>2014-03-14T15:00:48.000Z</time>
      </trkpt>
      <trkpt lat="47.57134" lon="5.96035">
        <ele>236.60000610352</ele>
        <time>2014-03-14T15:00:50.000Z</time>
      </trkpt>
      <trkpt lat="47.57147" lon="5.96021">
        <ele>236</ele>
        <time>2014-03-14T15:00:53.000Z</time>
      </trkpt>
      <trkpt lat="47.57152" lon="5.96016">
        <ele>235.60000610352</ele>
        <time>2014-03-14T15:00:54.000Z</time>
      </trkpt>
      <trkpt lat="47.57156" lon="5.96012">
        <ele>235.19999694824</ele>
        <time>2014-03-14T15:00:55.000Z</time>
      </trkpt>
      <trkpt lat="47.57162" lon="5.96007">
        <ele>234.80000305176</ele>
        <time>2014-03-14T15:00:56.000Z</time>
      </trkpt>
      <trkpt lat="47.57167" lon="5.96004">
        <ele>234.19999694824</ele>
        <time>2014-03-14T15:00:57.000Z</time>
      </trkpt>
      <trkpt lat="47.57171" lon="5.95999">
        <ele>234.19999694824</ele>
        <time>2014-03-14T15:00:58.000Z</time>
      </trkpt>
      <trkpt lat="47.57185" lon="5.95984">
        <ele>234.19999694824</ele>
        <time>2014-03-14T15:01:01.000Z</time>
      </trkpt>
      <trkpt lat="47.57191" lon="5.95981">
        <ele>234.19999694824</ele>
        <time>2014-03-14T15:01:02.000Z</time>
      </trkpt>
      <trkpt lat="47.57198" lon="5.95973">
        <ele>234.19999694824</ele>
        <time>2014-03-14T15:01:04.000Z</time>
      </trkpt>
      <trkpt lat="47.57198" lon="5.95968">
        <ele>234.19999694824</ele>
        <time>2014-03-14T15:01:05.000Z</time>
      </trkpt>
      <trkpt lat="47.57193" lon="5.95957">
        <ele>234.19999694824</ele>
        <time>2014-03-14T15:01:08.000Z</time>
      </trkpt>
      <trkpt lat="47.57187" lon="5.95949">
        <ele>234.19999694824</ele>
        <time>2014-03-14T15:01:10.000Z</time>
      </trkpt>
      <trkpt lat="47.57177" lon="5.95937">
        <ele>234.19999694824</ele>
        <time>2014-03-14T15:01:13.000Z</time>
      </trkpt>
      <trkpt lat="47.57173" lon="5.95932">
        <ele>234.19999694824</ele>
        <time>2014-03-14T15:01:14.000Z</time>
      </trkpt>
      <trkpt lat="47.57162" lon="5.95915">
        <ele>234.19999694824</ele>
        <time>2014-03-14T15:01:18.000Z</time>
      </trkpt>
      <trkpt lat="47.57157" lon="5.95903">
        <ele>234.19999694824</ele>
        <time>2014-03-14T15:01:20.000Z</time>
      </trkpt>
      <trkpt lat="47.57151" lon="5.95894">
        <ele>234.19999694824</ele>
        <time>2014-03-14T15:01:22.000Z</time>
      </trkpt>
      <trkpt lat="47.57141" lon="5.95884">
        <ele>234.19999694824</ele>
        <time>2014-03-14T15:01:25.000Z</time>
      </trkpt>
      <trkpt lat="47.57134" lon="5.9587">
        <ele>234.19999694824</ele>
        <time>2014-03-14T15:01:28.000Z</time>
      </trkpt>
      <trkpt lat="47.57126" lon="5.95857">
        <ele>234.19999694824</ele>
        <time>2014-03-14T15:01:31.000Z</time>
      </trkpt>
      <trkpt lat="47.57125" lon="5.95851">
        <ele>234.19999694824</ele>
        <time>2014-03-14T15:01:32.000Z</time>
      </trkpt>
      <trkpt lat="47.5713" lon="5.95839">
        <ele>234.19999694824</ele>
        <time>2014-03-14T15:01:34.000Z</time>
      </trkpt>
      <trkpt lat="47.57133" lon="5.95828">
        <ele>234.19999694824</ele>
        <time>2014-03-14T15:01:36.000Z</time>
      </trkpt>
      <trkpt lat="47.57136" lon="5.95806">
        <ele>234.19999694824</ele>
        <time>2014-03-14T15:01:40.000Z</time>
      </trkpt>
      <trkpt lat="47.57139" lon="5.95796">
        <ele>234.19999694824</ele>
        <time>2014-03-14T15:01:42.000Z</time>
      </trkpt>
      <trkpt lat="47.57141" lon="5.95777">
        <ele>234.19999694824</ele>
        <time>2014-03-14T15:01:46.000Z</time>
      </trkpt>
      <trkpt lat="47.57143" lon="5.95767">
        <ele>234.19999694824</ele>
        <time>2014-03-14T15:01:50.000Z</time>
      </trkpt>
      <trkpt lat="47.57146" lon="5.95764">
        <ele>234.19999694824</ele>
        <time>2014-03-14T15:01:55.000Z</time>
      </trkpt>
      <trkpt lat="47.57156" lon="5.95752">
        <ele>234.19999694824</ele>
        <time>2014-03-14T15:01:59.000Z</time>
      </trkpt>
      <trkpt lat="47.57175" lon="5.95731">
        <ele>234.19999694824</ele>
        <time>2014-03-14T15:02:05.000Z</time>
      </trkpt>
      <trkpt lat="47.57199" lon="5.95702">
        <ele>234.19999694824</ele>
        <time>2014-03-14T15:02:12.000Z</time>
      </trkpt>
      <trkpt lat="47.57202" lon="5.95698">
        <ele>233.80000305176</ele>
        <time>2014-03-14T15:02:13.000Z</time>
      </trkpt>
      <trkpt lat="47.57204" lon="5.95693">
        <ele>233.39999389648</ele>
        <time>2014-03-14T15:02:14.000Z</time>
      </trkpt>
      <trkpt lat="47.57206" lon="5.95688">
        <ele>233</ele>
        <time>2014-03-14T15:02:15.000Z</time>
      </trkpt>
      <trkpt lat="47.57207" lon="5.95681">
        <ele>232.39999389648</ele>
        <time>2014-03-14T15:02:16.000Z</time>
      </trkpt>
      <trkpt lat="47.57208" lon="5.95676">
        <ele>232</ele>
        <time>2014-03-14T15:02:17.000Z</time>
      </trkpt>
      <trkpt lat="47.57213" lon="5.95651">
        <ele>231.60000610352</ele>
        <time>2014-03-14T15:02:21.000Z</time>
      </trkpt>
      <trkpt lat="47.57215" lon="5.95645">
        <ele>231.19999694824</ele>
        <time>2014-03-14T15:02:22.000Z</time>
      </trkpt>
      <trkpt lat="47.57216" lon="5.95639">
        <ele>230.60000610352</ele>
        <time>2014-03-14T15:02:23.000Z</time>
      </trkpt>
      <trkpt lat="47.57218" lon="5.95632">
        <ele>230.19999694824</ele>
        <time>2014-03-14T15:02:24.000Z</time>
      </trkpt>
      <trkpt lat="47.5722" lon="5.95624">
        <ele>229.80000305176</ele>
        <time>2014-03-14T15:02:25.000Z</time>
      </trkpt>
      <trkpt lat="47.57223" lon="5.95609">
        <ele>229.39999389648</ele>
        <time>2014-03-14T15:02:27.000Z</time>
      </trkpt>
      <trkpt lat="47.57225" lon="5.95604">
        <ele>229</ele>
        <time>2014-03-14T15:02:28.000Z</time>
      </trkpt>
      <trkpt lat="47.57226" lon="5.956">
        <ele>228.39999389648</ele>
        <time>2014-03-14T15:02:29.000Z</time>
      </trkpt>
      <trkpt lat="47.57229" lon="5.95597">
        <ele>228</ele>
        <time>2014-03-14T15:02:30.000Z</time>
      </trkpt>
      <trkpt lat="47.57232" lon="5.95594">
        <ele>227.60000610352</ele>
        <time>2014-03-14T15:02:31.000Z</time>
      </trkpt>
      <trkpt lat="47.57234" lon="5.95586">
        <ele>227.60000610352</ele>
        <time>2014-03-14T15:02:33.000Z</time>
      </trkpt>
      <trkpt lat="47.57229" lon="5.9557">
        <ele>227.60000610352</ele>
        <time>2014-03-14T15:02:37.000Z</time>
      </trkpt>
      <trkpt lat="47.57211" lon="5.95544">
        <ele>227.60000610352</ele>
        <time>2014-03-14T15:02:44.000Z</time>
      </trkpt>
      <trkpt lat="47.57194" lon="5.95518">
        <ele>227.60000610352</ele>
        <time>2014-03-14T15:02:51.000Z</time>
      </trkpt>
      <trkpt lat="47.57185" lon="5.95495">
        <ele>227.60000610352</ele>
        <time>2014-03-14T15:02:56.000Z</time>
      </trkpt>
      <trkpt lat="47.5718" lon="5.95463">
        <ele>227.60000610352</ele>
        <time>2014-03-14T15:03:02.000Z</time>
      </trkpt>
      <trkpt lat="47.57179" lon="5.95458">
        <ele>227.60000610352</ele>
        <time>2014-03-14T15:03:03.000Z</time>
      </trkpt>
      <trkpt lat="47.57176" lon="5.95436">
        <ele>227.60000610352</ele>
        <time>2014-03-14T15:03:08.000Z</time>
      </trkpt>
      <trkpt lat="47.57173" lon="5.95412">
        <ele>227.60000610352</ele>
        <time>2014-03-14T15:03:14.000Z</time>
      </trkpt>
      <trkpt lat="47.57163" lon="5.95405">
        <ele>227.60000610352</ele>
        <time>2014-03-14T15:03:18.000Z</time>
      </trkpt>
      <trkpt lat="47.57149" lon="5.95406">
        <ele>227.60000610352</ele>
        <time>2014-03-14T15:03:23.000Z</time>
      </trkpt>
      <trkpt lat="47.57136" lon="5.95401">
        <ele>227.60000610352</ele>
        <time>2014-03-14T15:03:27.000Z</time>
      </trkpt>
      <trkpt lat="47.57119" lon="5.95388">
        <ele>227.60000610352</ele>
        <time>2014-03-14T15:03:33.000Z</time>
      </trkpt>
      <trkpt lat="47.57103" lon="5.95361">
        <ele>227.60000610352</ele>
        <time>2014-03-14T15:03:40.000Z</time>
      </trkpt>
      <trkpt lat="47.57091" lon="5.95343">
        <ele>228</ele>
        <time>2014-03-14T15:03:45.000Z</time>
      </trkpt>
      <trkpt lat="47.57088" lon="5.95341">
        <ele>228.39999389648</ele>
        <time>2014-03-14T15:03:46.000Z</time>
      </trkpt>
      <trkpt lat="47.57085" lon="5.9534">
        <ele>228.80000305176</ele>
        <time>2014-03-14T15:03:47.000Z</time>
      </trkpt>
      <trkpt lat="47.57082" lon="5.9534">
        <ele>229.39999389648</ele>
        <time>2014-03-14T15:03:48.000Z</time>
      </trkpt>
      <trkpt lat="47.57078" lon="5.95342">
        <ele>229.80000305176</ele>
        <time>2014-03-14T15:03:49.000Z</time>
      </trkpt>
      <trkpt lat="47.57076" lon="5.95346">
        <ele>229.80000305176</ele>
        <time>2014-03-14T15:03:50.000Z</time>
      </trkpt>
      <trkpt lat="47.5706" lon="5.95354">
        <ele>229.80000305176</ele>
        <time>2014-03-14T15:03:55.000Z</time>
      </trkpt>
      <trkpt lat="47.5705" lon="5.95346">
        <ele>229.80000305176</ele>
        <time>2014-03-14T15:03:58.000Z</time>
      </trkpt>
      <trkpt lat="47.57037" lon="5.9533">
        <ele>229.80000305176</ele>
        <time>2014-03-14T15:04:03.000Z</time>
      </trkpt>
      <trkpt lat="47.57032" lon="5.95319">
        <ele>229.80000305176</ele>
        <time>2014-03-14T15:04:06.000Z</time>
      </trkpt>
      <trkpt lat="47.57032" lon="5.95314">
        <ele>229.80000305176</ele>
        <time>2014-03-14T15:04:07.000Z</time>
      </trkpt>
      <trkpt lat="47.57027" lon="5.95279">
        <ele>229.80000305176</ele>
        <time>2014-03-14T15:04:15.000Z</time>
      </trkpt>
      <trkpt lat="47.5702" lon="5.95245">
        <ele>229.80000305176</ele>
        <time>2014-03-14T15:04:22.000Z</time>
      </trkpt>
      <trkpt lat="47.57012" lon="5.9521">
        <ele>229.80000305176</ele>
        <time>2014-03-14T15:04:29.000Z</time>
      </trkpt>
      <trkpt lat="47.57003" lon="5.95161">
        <ele>229.80000305176</ele>
        <time>2014-03-14T15:04:38.000Z</time>
      </trkpt>
      <trkpt lat="47.56994" lon="5.95109">
        <ele>229.80000305176</ele>
        <time>2014-03-14T15:04:47.000Z</time>
      </trkpt>
      <trkpt lat="47.5699" lon="5.95097">
        <ele>229.80000305176</ele>
        <time>2014-03-14T15:04:49.000Z</time>
      </trkpt>
      <trkpt lat="47.56983" lon="5.95089">
        <ele>229.80000305176</ele>
        <time>2014-03-14T15:04:51.000Z</time>
      </trkpt>
      <trkpt lat="47.56969" lon="5.95084">
        <ele>229.80000305176</ele>
        <time>2014-03-14T15:04:54.000Z</time>
      </trkpt>
      <trkpt lat="47.56965" lon="5.95081">
        <ele>229.80000305176</ele>
        <time>2014-03-14T15:04:55.000Z</time>
      </trkpt>
      <trkpt lat="47.56961" lon="5.95078">
        <ele>229.80000305176</ele>
        <time>2014-03-14T15:04:56.000Z</time>
      </trkpt>
      <trkpt lat="47.56951" lon="5.95063">
        <ele>229.80000305176</ele>
        <time>2014-03-14T15:05:00.000Z</time>
      </trkpt>
      <trkpt lat="47.56948" lon="5.95053">
        <ele>229.80000305176</ele>
        <time>2014-03-14T15:05:02.000Z</time>
      </trkpt>
      <trkpt lat="47.56946" lon="5.95045">
        <ele>230.19999694824</ele>
        <time>2014-03-14T15:05:04.000Z</time>
      </trkpt>
      <trkpt lat="47.56945" lon="5.95041">
        <ele>230.60000610352</ele>
        <time>2014-03-14T15:05:05.000Z</time>
      </trkpt>
      <trkpt lat="47.56944" lon="5.95038">
        <ele>231</ele>
        <time>2014-03-14T15:05:06.000Z</time>
      </trkpt>
      <trkpt lat="47.56942" lon="5.95034">
        <ele>231.39999389648</ele>
        <time>2014-03-14T15:05:07.000Z</time>
      </trkpt>
      <trkpt lat="47.5694" lon="5.9503">
        <ele>231.80000305176</ele>
        <time>2014-03-14T15:05:08.000Z</time>
      </trkpt>
      <trkpt lat="47.56937" lon="5.95028">
        <ele>232.19999694824</ele>
        <time>2014-03-14T15:05:09.000Z</time>
      </trkpt>
      <trkpt lat="47.56935" lon="5.95027">
        <ele>232.60000610352</ele>
        <time>2014-03-14T15:05:10.000Z</time>
      </trkpt>
      <trkpt lat="47.56933" lon="5.95027">
        <ele>233</ele>
        <time>2014-03-14T15:05:11.000Z</time>
      </trkpt>
      <trkpt lat="47.56931" lon="5.95027">
        <ele>233.39999389648</ele>
        <time>2014-03-14T15:05:12.000Z</time>
      </trkpt>
      <trkpt lat="47.56929" lon="5.95027">
        <ele>233.80000305176</ele>
        <time>2014-03-14T15:05:13.000Z</time>
      </trkpt>
      <trkpt lat="47.56929" lon="5.95028">
        <ele>233.80000305176</ele>
        <time>2014-03-14T15:05:14.000Z</time>
      </trkpt>
    </trkseg>
  </trk>
</gpx>